<?xml version="1.0" encoding="UTF-8" standalone="no" ?>
<gpx xmlns="http://www.topografix.com/GPX/1/1" xmlns:xsi="http://www.w3.org/2001/XMLSchema-instance" xsi:schemaLocation="http://www.topografix.com/GPX/1/1 http://www.topografix.com/GPX/1/1/gpx.xsd" version="1.1" creator="VisuGPX - https://www.visugpx.com">
  <metadata>
    <name>Pornichet 10/07/2022</name>
    <desc><![CDATA[Sortie dimanche 10 juillet 2022]]></desc>
  </metadata>
  <trk>
    <name><![CDATA[Pornichet Cyclisme]]></name>
    <trkseg>
      <trkpt lat="47.26404" lon="-2.31564">
        <ele>12.39999961853</ele>
        <time>2022-07-10T06:55:46.000Z</time>
      </trkpt>
      <trkpt lat="47.26405" lon="-2.31584">
        <ele>12.39999961853</ele>
        <time>2022-07-10T06:55:50.000Z</time>
      </trkpt>
      <trkpt lat="47.26405" lon="-2.31589">
        <ele>12.39999961853</ele>
        <time>2022-07-10T06:55:51.000Z</time>
      </trkpt>
      <trkpt lat="47.26407" lon="-2.31624">
        <ele>12.39999961853</ele>
        <time>2022-07-10T06:55:58.000Z</time>
      </trkpt>
      <trkpt lat="47.2641" lon="-2.3166">
        <ele>12.39999961853</ele>
        <time>2022-07-10T06:56:05.000Z</time>
      </trkpt>
      <trkpt lat="47.26408" lon="-2.31663">
        <ele>12.39999961853</ele>
        <time>2022-07-10T06:56:06.000Z</time>
      </trkpt>
      <trkpt lat="47.26405" lon="-2.31664">
        <ele>12.39999961853</ele>
        <time>2022-07-10T06:56:08.000Z</time>
      </trkpt>
      <trkpt lat="47.26391" lon="-2.3167">
        <ele>12.39999961853</ele>
        <time>2022-07-10T06:56:12.000Z</time>
      </trkpt>
      <trkpt lat="47.26372" lon="-2.3168">
        <ele>12</ele>
        <time>2022-07-10T06:56:17.000Z</time>
      </trkpt>
      <trkpt lat="47.26368" lon="-2.31683">
        <ele>11.60000038147</ele>
        <time>2022-07-10T06:56:18.000Z</time>
      </trkpt>
      <trkpt lat="47.26363" lon="-2.31685">
        <ele>11.199999809265</ele>
        <time>2022-07-10T06:56:19.000Z</time>
      </trkpt>
      <trkpt lat="47.26359" lon="-2.31687">
        <ele>10.800000190735</ele>
        <time>2022-07-10T06:56:20.000Z</time>
      </trkpt>
      <trkpt lat="47.26354" lon="-2.3169">
        <ele>10.39999961853</ele>
        <time>2022-07-10T06:56:21.000Z</time>
      </trkpt>
      <trkpt lat="47.26333" lon="-2.31702">
        <ele>10.39999961853</ele>
        <time>2022-07-10T06:56:26.000Z</time>
      </trkpt>
      <trkpt lat="47.26321" lon="-2.31699">
        <ele>10.39999961853</ele>
        <time>2022-07-10T06:56:30.000Z</time>
      </trkpt>
      <trkpt lat="47.26323" lon="-2.31677">
        <ele>10.39999961853</ele>
        <time>2022-07-10T06:56:34.000Z</time>
      </trkpt>
      <trkpt lat="47.2632" lon="-2.31633">
        <ele>10.39999961853</ele>
        <time>2022-07-10T06:56:43.000Z</time>
      </trkpt>
      <trkpt lat="47.26325" lon="-2.31613">
        <ele>10.39999961853</ele>
        <time>2022-07-10T06:56:48.000Z</time>
      </trkpt>
      <trkpt lat="47.26329" lon="-2.31606">
        <ele>10.39999961853</ele>
        <time>2022-07-10T06:56:51.000Z</time>
      </trkpt>
      <trkpt lat="47.26331" lon="-2.31608">
        <ele>10.39999961853</ele>
        <time>2022-07-10T06:56:52.000Z</time>
      </trkpt>
      <trkpt lat="47.26333" lon="-2.31611">
        <ele>10.39999961853</ele>
        <time>2022-07-10T06:56:54.000Z</time>
      </trkpt>
      <trkpt lat="47.26329" lon="-2.31614">
        <ele>10.39999961853</ele>
        <time>2022-07-10T06:56:56.000Z</time>
      </trkpt>
      <trkpt lat="47.26324" lon="-2.31627">
        <ele>10.39999961853</ele>
        <time>2022-07-10T06:57:00.000Z</time>
      </trkpt>
      <trkpt lat="47.26324" lon="-2.31632">
        <ele>10.39999961853</ele>
        <time>2022-07-10T06:57:01.000Z</time>
      </trkpt>
      <trkpt lat="47.26326" lon="-2.31654">
        <ele>10.39999961853</ele>
        <time>2022-07-10T06:57:05.000Z</time>
      </trkpt>
      <trkpt lat="47.26333" lon="-2.31698">
        <ele>10.39999961853</ele>
        <time>2022-07-10T06:57:13.000Z</time>
      </trkpt>
      <trkpt lat="47.26331" lon="-2.31702">
        <ele>10.39999961853</ele>
        <time>2022-07-10T06:57:15.000Z</time>
      </trkpt>
      <trkpt lat="47.26328" lon="-2.31703">
        <ele>10.39999961853</ele>
        <time>2022-07-10T06:57:16.000Z</time>
      </trkpt>
      <trkpt lat="47.26314" lon="-2.31709">
        <ele>10.39999961853</ele>
        <time>2022-07-10T06:57:20.000Z</time>
      </trkpt>
      <trkpt lat="47.2631" lon="-2.31711">
        <ele>10</ele>
        <time>2022-07-10T06:57:21.000Z</time>
      </trkpt>
      <trkpt lat="47.26306" lon="-2.31714">
        <ele>9.6000003814697</ele>
        <time>2022-07-10T06:57:22.000Z</time>
      </trkpt>
      <trkpt lat="47.26303" lon="-2.31719">
        <ele>9</ele>
        <time>2022-07-10T06:57:23.000Z</time>
      </trkpt>
      <trkpt lat="47.26299" lon="-2.31724">
        <ele>8.6000003814697</ele>
        <time>2022-07-10T06:57:24.000Z</time>
      </trkpt>
      <trkpt lat="47.26296" lon="-2.31729">
        <ele>8.1999998092651</ele>
        <time>2022-07-10T06:57:25.000Z</time>
      </trkpt>
      <trkpt lat="47.26293" lon="-2.31734">
        <ele>8.1999998092651</ele>
        <time>2022-07-10T06:57:26.000Z</time>
      </trkpt>
      <trkpt lat="47.26281" lon="-2.31758">
        <ele>8.1999998092651</ele>
        <time>2022-07-10T06:57:31.000Z</time>
      </trkpt>
      <trkpt lat="47.26281" lon="-2.31763">
        <ele>8.1999998092651</ele>
        <time>2022-07-10T06:57:32.000Z</time>
      </trkpt>
      <trkpt lat="47.26282" lon="-2.31774">
        <ele>8.1999998092651</ele>
        <time>2022-07-10T06:57:34.000Z</time>
      </trkpt>
      <trkpt lat="47.26287" lon="-2.31804">
        <ele>8.1999998092651</ele>
        <time>2022-07-10T06:57:39.000Z</time>
      </trkpt>
      <trkpt lat="47.26289" lon="-2.31843">
        <ele>8.1999998092651</ele>
        <time>2022-07-10T06:57:45.000Z</time>
      </trkpt>
      <trkpt lat="47.26289" lon="-2.31879">
        <ele>8.1999998092651</ele>
        <time>2022-07-10T06:57:51.000Z</time>
      </trkpt>
      <trkpt lat="47.26286" lon="-2.31883">
        <ele>8.1999998092651</ele>
        <time>2022-07-10T06:57:52.000Z</time>
      </trkpt>
      <trkpt lat="47.26278" lon="-2.31895">
        <ele>8.1999998092651</ele>
        <time>2022-07-10T06:57:56.000Z</time>
      </trkpt>
      <trkpt lat="47.26265" lon="-2.31916">
        <ele>8.1999998092651</ele>
        <time>2022-07-10T06:58:01.000Z</time>
      </trkpt>
      <trkpt lat="47.26255" lon="-2.3194">
        <ele>8.1999998092651</ele>
        <time>2022-07-10T06:58:06.000Z</time>
      </trkpt>
      <trkpt lat="47.26239" lon="-2.31958">
        <ele>8.1999998092651</ele>
        <time>2022-07-10T06:58:11.000Z</time>
      </trkpt>
      <trkpt lat="47.26222" lon="-2.31977">
        <ele>8.1999998092651</ele>
        <time>2022-07-10T06:58:16.000Z</time>
      </trkpt>
      <trkpt lat="47.26207" lon="-2.31991">
        <ele>8.1999998092651</ele>
        <time>2022-07-10T06:58:22.000Z</time>
      </trkpt>
      <trkpt lat="47.26203" lon="-2.31997">
        <ele>8.1999998092651</ele>
        <time>2022-07-10T06:58:24.000Z</time>
      </trkpt>
      <trkpt lat="47.26202" lon="-2.32005">
        <ele>8.1999998092651</ele>
        <time>2022-07-10T06:58:26.000Z</time>
      </trkpt>
      <trkpt lat="47.26201" lon="-2.32011">
        <ele>8.1999998092651</ele>
        <time>2022-07-10T06:58:28.000Z</time>
      </trkpt>
      <trkpt lat="47.262" lon="-2.32011">
        <ele>8.1999998092651</ele>
        <time>2022-07-10T06:58:29.000Z</time>
      </trkpt>
      <trkpt lat="47.26197" lon="-2.32012">
        <ele>8.1999998092651</ele>
        <time>2022-07-10T06:58:31.000Z</time>
      </trkpt>
      <trkpt lat="47.26195" lon="-2.32012">
        <ele>8.1999998092651</ele>
        <time>2022-07-10T06:58:32.000Z</time>
      </trkpt>
      <trkpt lat="47.26183" lon="-2.32014">
        <ele>8.1999998092651</ele>
        <time>2022-07-10T06:58:36.000Z</time>
      </trkpt>
      <trkpt lat="47.26168" lon="-2.32026">
        <ele>8.1999998092651</ele>
        <time>2022-07-10T06:58:39.000Z</time>
      </trkpt>
      <trkpt lat="47.26165" lon="-2.32031">
        <ele>8.1999998092651</ele>
        <time>2022-07-10T06:58:40.000Z</time>
      </trkpt>
      <trkpt lat="47.26158" lon="-2.32048">
        <ele>8.1999998092651</ele>
        <time>2022-07-10T06:58:43.000Z</time>
      </trkpt>
      <trkpt lat="47.26155" lon="-2.3206">
        <ele>8.1999998092651</ele>
        <time>2022-07-10T06:58:45.000Z</time>
      </trkpt>
      <trkpt lat="47.2614" lon="-2.32102">
        <ele>8.1999998092651</ele>
        <time>2022-07-10T06:58:52.000Z</time>
      </trkpt>
      <trkpt lat="47.26129" lon="-2.32141">
        <ele>8.1999998092651</ele>
        <time>2022-07-10T06:58:59.000Z</time>
      </trkpt>
      <trkpt lat="47.26119" lon="-2.32167">
        <ele>8.1999998092651</ele>
        <time>2022-07-10T06:59:04.000Z</time>
      </trkpt>
      <trkpt lat="47.26111" lon="-2.32183">
        <ele>8.1999998092651</ele>
        <time>2022-07-10T06:59:07.000Z</time>
      </trkpt>
      <trkpt lat="47.2609" lon="-2.32222">
        <ele>8.1999998092651</ele>
        <time>2022-07-10T06:59:15.000Z</time>
      </trkpt>
      <trkpt lat="47.26074" lon="-2.3224">
        <ele>8.1999998092651</ele>
        <time>2022-07-10T06:59:20.000Z</time>
      </trkpt>
      <trkpt lat="47.26055" lon="-2.32264">
        <ele>8.1999998092651</ele>
        <time>2022-07-10T06:59:26.000Z</time>
      </trkpt>
      <trkpt lat="47.26023" lon="-2.323">
        <ele>8.1999998092651</ele>
        <time>2022-07-10T06:59:35.000Z</time>
      </trkpt>
      <trkpt lat="47.26001" lon="-2.32329">
        <ele>8.1999998092651</ele>
        <time>2022-07-10T06:59:42.000Z</time>
      </trkpt>
      <trkpt lat="47.25972" lon="-2.32367">
        <ele>8.1999998092651</ele>
        <time>2022-07-10T06:59:50.000Z</time>
      </trkpt>
      <trkpt lat="47.25944" lon="-2.32403">
        <ele>8.1999998092651</ele>
        <time>2022-07-10T06:59:58.000Z</time>
      </trkpt>
      <trkpt lat="47.2592" lon="-2.32434">
        <ele>8.1999998092651</ele>
        <time>2022-07-10T07:00:05.000Z</time>
      </trkpt>
      <trkpt lat="47.2591" lon="-2.32448">
        <ele>8.1999998092651</ele>
        <time>2022-07-10T07:00:08.000Z</time>
      </trkpt>
      <trkpt lat="47.25899" lon="-2.32461">
        <ele>8.1999998092651</ele>
        <time>2022-07-10T07:00:11.000Z</time>
      </trkpt>
      <trkpt lat="47.25884" lon="-2.32469">
        <ele>8.1999998092651</ele>
        <time>2022-07-10T07:00:14.000Z</time>
      </trkpt>
      <trkpt lat="47.25875" lon="-2.32471">
        <ele>8.1999998092651</ele>
        <time>2022-07-10T07:00:16.000Z</time>
      </trkpt>
      <trkpt lat="47.25862" lon="-2.32473">
        <ele>8.1999998092651</ele>
        <time>2022-07-10T07:00:19.000Z</time>
      </trkpt>
      <trkpt lat="47.25858" lon="-2.32473">
        <ele>8.1999998092651</ele>
        <time>2022-07-10T07:00:20.000Z</time>
      </trkpt>
      <trkpt lat="47.25823" lon="-2.32462">
        <ele>8.1999998092651</ele>
        <time>2022-07-10T07:00:27.000Z</time>
      </trkpt>
      <trkpt lat="47.25806" lon="-2.32454">
        <ele>8.1999998092651</ele>
        <time>2022-07-10T07:00:31.000Z</time>
      </trkpt>
      <trkpt lat="47.25798" lon="-2.32454">
        <ele>8.1999998092651</ele>
        <time>2022-07-10T07:00:33.000Z</time>
      </trkpt>
      <trkpt lat="47.25785" lon="-2.32452">
        <ele>8.1999998092651</ele>
        <time>2022-07-10T07:00:36.000Z</time>
      </trkpt>
      <trkpt lat="47.25778" lon="-2.32443">
        <ele>8.1999998092651</ele>
        <time>2022-07-10T07:00:38.000Z</time>
      </trkpt>
      <trkpt lat="47.2577" lon="-2.32428">
        <ele>8.1999998092651</ele>
        <time>2022-07-10T07:00:41.000Z</time>
      </trkpt>
      <trkpt lat="47.25766" lon="-2.32424">
        <ele>8.1999998092651</ele>
        <time>2022-07-10T07:00:42.000Z</time>
      </trkpt>
      <trkpt lat="47.25762" lon="-2.32422">
        <ele>8.1999998092651</ele>
        <time>2022-07-10T07:00:43.000Z</time>
      </trkpt>
      <trkpt lat="47.25747" lon="-2.32421">
        <ele>8.1999998092651</ele>
        <time>2022-07-10T07:00:46.000Z</time>
      </trkpt>
      <trkpt lat="47.25742" lon="-2.32421">
        <ele>8.1999998092651</ele>
        <time>2022-07-10T07:00:47.000Z</time>
      </trkpt>
      <trkpt lat="47.25699" lon="-2.32417">
        <ele>8.1999998092651</ele>
        <time>2022-07-10T07:00:55.000Z</time>
      </trkpt>
      <trkpt lat="47.25672" lon="-2.32414">
        <ele>8.1999998092651</ele>
        <time>2022-07-10T07:01:01.000Z</time>
      </trkpt>
      <trkpt lat="47.25667" lon="-2.32415">
        <ele>8.1999998092651</ele>
        <time>2022-07-10T07:01:02.000Z</time>
      </trkpt>
      <trkpt lat="47.25662" lon="-2.32423">
        <ele>8.1999998092651</ele>
        <time>2022-07-10T07:01:04.000Z</time>
      </trkpt>
      <trkpt lat="47.25664" lon="-2.32443">
        <ele>8.1999998092651</ele>
        <time>2022-07-10T07:01:07.000Z</time>
      </trkpt>
      <trkpt lat="47.25667" lon="-2.32455">
        <ele>8.1999998092651</ele>
        <time>2022-07-10T07:01:09.000Z</time>
      </trkpt>
      <trkpt lat="47.25669" lon="-2.32461">
        <ele>8.1999998092651</ele>
        <time>2022-07-10T07:01:10.000Z</time>
      </trkpt>
      <trkpt lat="47.25675" lon="-2.3248">
        <ele>8.1999998092651</ele>
        <time>2022-07-10T07:01:13.000Z</time>
      </trkpt>
      <trkpt lat="47.25678" lon="-2.3249">
        <ele>8.6000003814697</ele>
        <time>2022-07-10T07:01:15.000Z</time>
      </trkpt>
      <trkpt lat="47.2568" lon="-2.32495">
        <ele>9</ele>
        <time>2022-07-10T07:01:16.000Z</time>
      </trkpt>
      <trkpt lat="47.25682" lon="-2.32501">
        <ele>9.3999996185303</ele>
        <time>2022-07-10T07:01:17.000Z</time>
      </trkpt>
      <trkpt lat="47.25683" lon="-2.32507">
        <ele>9.8000001907349</ele>
        <time>2022-07-10T07:01:18.000Z</time>
      </trkpt>
      <trkpt lat="47.25685" lon="-2.32512">
        <ele>10.199999809265</ele>
        <time>2022-07-10T07:01:19.000Z</time>
      </trkpt>
      <trkpt lat="47.2569" lon="-2.32528">
        <ele>10.199999809265</ele>
        <time>2022-07-10T07:01:22.000Z</time>
      </trkpt>
      <trkpt lat="47.25702" lon="-2.32569">
        <ele>10.60000038147</ele>
        <time>2022-07-10T07:01:30.000Z</time>
      </trkpt>
      <trkpt lat="47.25704" lon="-2.32574">
        <ele>11</ele>
        <time>2022-07-10T07:01:31.000Z</time>
      </trkpt>
      <trkpt lat="47.25705" lon="-2.3258">
        <ele>11.39999961853</ele>
        <time>2022-07-10T07:01:32.000Z</time>
      </trkpt>
      <trkpt lat="47.25706" lon="-2.32585">
        <ele>11.800000190735</ele>
        <time>2022-07-10T07:01:33.000Z</time>
      </trkpt>
      <trkpt lat="47.25708" lon="-2.3259">
        <ele>12.199999809265</ele>
        <time>2022-07-10T07:01:34.000Z</time>
      </trkpt>
      <trkpt lat="47.25709" lon="-2.32623">
        <ele>12.199999809265</ele>
        <time>2022-07-10T07:01:40.000Z</time>
      </trkpt>
      <trkpt lat="47.25697" lon="-2.32628">
        <ele>12.199999809265</ele>
        <time>2022-07-10T07:01:43.000Z</time>
      </trkpt>
      <trkpt lat="47.25671" lon="-2.32639">
        <ele>12.60000038147</ele>
        <time>2022-07-10T07:01:50.000Z</time>
      </trkpt>
      <trkpt lat="47.25667" lon="-2.32641">
        <ele>13</ele>
        <time>2022-07-10T07:01:51.000Z</time>
      </trkpt>
      <trkpt lat="47.25664" lon="-2.32643">
        <ele>13.39999961853</ele>
        <time>2022-07-10T07:01:52.000Z</time>
      </trkpt>
      <trkpt lat="47.2566" lon="-2.32645">
        <ele>13.800000190735</ele>
        <time>2022-07-10T07:01:53.000Z</time>
      </trkpt>
      <trkpt lat="47.25656" lon="-2.32647">
        <ele>14.199999809265</ele>
        <time>2022-07-10T07:01:54.000Z</time>
      </trkpt>
      <trkpt lat="47.25629" lon="-2.3266">
        <ele>14.199999809265</ele>
        <time>2022-07-10T07:02:01.000Z</time>
      </trkpt>
      <trkpt lat="47.25582" lon="-2.32678">
        <ele>14.199999809265</ele>
        <time>2022-07-10T07:02:13.000Z</time>
      </trkpt>
      <trkpt lat="47.25578" lon="-2.32679">
        <ele>14.60000038147</ele>
        <time>2022-07-10T07:02:14.000Z</time>
      </trkpt>
      <trkpt lat="47.25573" lon="-2.32681">
        <ele>15</ele>
        <time>2022-07-10T07:02:15.000Z</time>
      </trkpt>
      <trkpt lat="47.2557" lon="-2.32683">
        <ele>15.39999961853</ele>
        <time>2022-07-10T07:02:16.000Z</time>
      </trkpt>
      <trkpt lat="47.25565" lon="-2.32685">
        <ele>15.800000190735</ele>
        <time>2022-07-10T07:02:17.000Z</time>
      </trkpt>
      <trkpt lat="47.25561" lon="-2.32686">
        <ele>16.200000762939</ele>
        <time>2022-07-10T07:02:18.000Z</time>
      </trkpt>
      <trkpt lat="47.25553" lon="-2.32689">
        <ele>16.200000762939</ele>
        <time>2022-07-10T07:02:20.000Z</time>
      </trkpt>
      <trkpt lat="47.25526" lon="-2.32698">
        <ele>16.200000762939</ele>
        <time>2022-07-10T07:02:26.000Z</time>
      </trkpt>
      <trkpt lat="47.25517" lon="-2.327">
        <ele>16.200000762939</ele>
        <time>2022-07-10T07:02:28.000Z</time>
      </trkpt>
      <trkpt lat="47.25507" lon="-2.327">
        <ele>16.200000762939</ele>
        <time>2022-07-10T07:02:30.000Z</time>
      </trkpt>
      <trkpt lat="47.25494" lon="-2.32701">
        <ele>16.200000762939</ele>
        <time>2022-07-10T07:02:33.000Z</time>
      </trkpt>
      <trkpt lat="47.25489" lon="-2.32702">
        <ele>16.200000762939</ele>
        <time>2022-07-10T07:02:34.000Z</time>
      </trkpt>
      <trkpt lat="47.25476" lon="-2.32712">
        <ele>16.200000762939</ele>
        <time>2022-07-10T07:02:37.000Z</time>
      </trkpt>
      <trkpt lat="47.25469" lon="-2.32722">
        <ele>16.200000762939</ele>
        <time>2022-07-10T07:02:39.000Z</time>
      </trkpt>
      <trkpt lat="47.25441" lon="-2.32761">
        <ele>16.200000762939</ele>
        <time>2022-07-10T07:02:47.000Z</time>
      </trkpt>
      <trkpt lat="47.25435" lon="-2.32775">
        <ele>16.200000762939</ele>
        <time>2022-07-10T07:02:51.000Z</time>
      </trkpt>
      <trkpt lat="47.25429" lon="-2.32789">
        <ele>16.200000762939</ele>
        <time>2022-07-10T07:02:54.000Z</time>
      </trkpt>
      <trkpt lat="47.25422" lon="-2.328">
        <ele>15.800000190735</ele>
        <time>2022-07-10T07:02:56.000Z</time>
      </trkpt>
      <trkpt lat="47.25418" lon="-2.32806">
        <ele>15.39999961853</ele>
        <time>2022-07-10T07:02:57.000Z</time>
      </trkpt>
      <trkpt lat="47.25414" lon="-2.32812">
        <ele>15</ele>
        <time>2022-07-10T07:02:58.000Z</time>
      </trkpt>
      <trkpt lat="47.25409" lon="-2.32817">
        <ele>14.60000038147</ele>
        <time>2022-07-10T07:02:59.000Z</time>
      </trkpt>
      <trkpt lat="47.25405" lon="-2.32822">
        <ele>14.199999809265</ele>
        <time>2022-07-10T07:03:00.000Z</time>
      </trkpt>
      <trkpt lat="47.25378" lon="-2.32854">
        <ele>14.199999809265</ele>
        <time>2022-07-10T07:03:06.000Z</time>
      </trkpt>
      <trkpt lat="47.25336" lon="-2.32895">
        <ele>14.199999809265</ele>
        <time>2022-07-10T07:03:15.000Z</time>
      </trkpt>
      <trkpt lat="47.25314" lon="-2.32917">
        <ele>14.199999809265</ele>
        <time>2022-07-10T07:03:20.000Z</time>
      </trkpt>
      <trkpt lat="47.25311" lon="-2.32924">
        <ele>14.199999809265</ele>
        <time>2022-07-10T07:03:21.000Z</time>
      </trkpt>
      <trkpt lat="47.25311" lon="-2.32949">
        <ele>14.199999809265</ele>
        <time>2022-07-10T07:03:24.000Z</time>
      </trkpt>
      <trkpt lat="47.25317" lon="-2.32971">
        <ele>14.199999809265</ele>
        <time>2022-07-10T07:03:27.000Z</time>
      </trkpt>
      <trkpt lat="47.25323" lon="-2.32985">
        <ele>14.199999809265</ele>
        <time>2022-07-10T07:03:29.000Z</time>
      </trkpt>
      <trkpt lat="47.25346" lon="-2.33041">
        <ele>14.199999809265</ele>
        <time>2022-07-10T07:03:37.000Z</time>
      </trkpt>
      <trkpt lat="47.25359" lon="-2.33075">
        <ele>13.800000190735</ele>
        <time>2022-07-10T07:03:42.000Z</time>
      </trkpt>
      <trkpt lat="47.25362" lon="-2.33081">
        <ele>13.39999961853</ele>
        <time>2022-07-10T07:03:43.000Z</time>
      </trkpt>
      <trkpt lat="47.25365" lon="-2.33087">
        <ele>13</ele>
        <time>2022-07-10T07:03:44.000Z</time>
      </trkpt>
      <trkpt lat="47.25367" lon="-2.33093">
        <ele>12.39999961853</ele>
        <time>2022-07-10T07:03:45.000Z</time>
      </trkpt>
      <trkpt lat="47.25369" lon="-2.33098">
        <ele>12</ele>
        <time>2022-07-10T07:03:46.000Z</time>
      </trkpt>
      <trkpt lat="47.25373" lon="-2.33114">
        <ele>12</ele>
        <time>2022-07-10T07:03:50.000Z</time>
      </trkpt>
      <trkpt lat="47.25373" lon="-2.33117">
        <ele>12</ele>
        <time>2022-07-10T07:03:54.000Z</time>
      </trkpt>
      <trkpt lat="47.25377" lon="-2.3312">
        <ele>12</ele>
        <time>2022-07-10T07:07:01.000Z</time>
      </trkpt>
      <trkpt lat="47.2538" lon="-2.33125">
        <ele>12</ele>
        <time>2022-07-10T07:07:04.000Z</time>
      </trkpt>
      <trkpt lat="47.2538" lon="-2.3314">
        <ele>12</ele>
        <time>2022-07-10T07:07:10.000Z</time>
      </trkpt>
      <trkpt lat="47.25375" lon="-2.33139">
        <ele>12</ele>
        <time>2022-07-10T07:07:13.000Z</time>
      </trkpt>
      <trkpt lat="47.25376" lon="-2.33133">
        <ele>12</ele>
        <time>2022-07-10T07:07:16.000Z</time>
      </trkpt>
      <trkpt lat="47.25388" lon="-2.33134">
        <ele>12</ele>
        <time>2022-07-10T07:07:21.000Z</time>
      </trkpt>
      <trkpt lat="47.25399" lon="-2.33128">
        <ele>12</ele>
        <time>2022-07-10T07:07:25.000Z</time>
      </trkpt>
      <trkpt lat="47.25405" lon="-2.33125">
        <ele>12</ele>
        <time>2022-07-10T07:07:27.000Z</time>
      </trkpt>
      <trkpt lat="47.25432" lon="-2.33113">
        <ele>12</ele>
        <time>2022-07-10T07:07:36.000Z</time>
      </trkpt>
      <trkpt lat="47.25457" lon="-2.33102">
        <ele>12</ele>
        <time>2022-07-10T07:07:44.000Z</time>
      </trkpt>
      <trkpt lat="47.25484" lon="-2.33087">
        <ele>12</ele>
        <time>2022-07-10T07:07:53.000Z</time>
      </trkpt>
      <trkpt lat="47.25495" lon="-2.33074">
        <ele>12</ele>
        <time>2022-07-10T07:07:58.000Z</time>
      </trkpt>
      <trkpt lat="47.25516" lon="-2.33052">
        <ele>12</ele>
        <time>2022-07-10T07:08:05.000Z</time>
      </trkpt>
      <trkpt lat="47.25523" lon="-2.33047">
        <ele>12</ele>
        <time>2022-07-10T07:08:07.000Z</time>
      </trkpt>
      <trkpt lat="47.25539" lon="-2.3304">
        <ele>12</ele>
        <time>2022-07-10T07:08:11.000Z</time>
      </trkpt>
      <trkpt lat="47.25566" lon="-2.33033">
        <ele>12</ele>
        <time>2022-07-10T07:08:18.000Z</time>
      </trkpt>
      <trkpt lat="47.25592" lon="-2.33029">
        <ele>12</ele>
        <time>2022-07-10T07:08:25.000Z</time>
      </trkpt>
      <trkpt lat="47.25612" lon="-2.33024">
        <ele>12</ele>
        <time>2022-07-10T07:08:31.000Z</time>
      </trkpt>
      <trkpt lat="47.25617" lon="-2.33016">
        <ele>12</ele>
        <time>2022-07-10T07:08:33.000Z</time>
      </trkpt>
      <trkpt lat="47.25618" lon="-2.33011">
        <ele>12</ele>
        <time>2022-07-10T07:08:34.000Z</time>
      </trkpt>
      <trkpt lat="47.25618" lon="-2.33006">
        <ele>12.60000038147</ele>
        <time>2022-07-10T07:08:35.000Z</time>
      </trkpt>
      <trkpt lat="47.25617" lon="-2.33001">
        <ele>13</ele>
        <time>2022-07-10T07:08:36.000Z</time>
      </trkpt>
      <trkpt lat="47.25616" lon="-2.32995">
        <ele>13.800000190735</ele>
        <time>2022-07-10T07:08:37.000Z</time>
      </trkpt>
      <trkpt lat="47.25615" lon="-2.32989">
        <ele>14.199999809265</ele>
        <time>2022-07-10T07:08:38.000Z</time>
      </trkpt>
      <trkpt lat="47.25614" lon="-2.32984">
        <ele>14.199999809265</ele>
        <time>2022-07-10T07:08:39.000Z</time>
      </trkpt>
      <trkpt lat="47.25604" lon="-2.32933">
        <ele>14.199999809265</ele>
        <time>2022-07-10T07:08:48.000Z</time>
      </trkpt>
      <trkpt lat="47.25596" lon="-2.32885">
        <ele>14.199999809265</ele>
        <time>2022-07-10T07:08:56.000Z</time>
      </trkpt>
      <trkpt lat="47.25591" lon="-2.32836">
        <ele>14.199999809265</ele>
        <time>2022-07-10T07:09:04.000Z</time>
      </trkpt>
      <trkpt lat="47.25591" lon="-2.32829">
        <ele>14.199999809265</ele>
        <time>2022-07-10T07:09:05.000Z</time>
      </trkpt>
      <trkpt lat="47.25594" lon="-2.32804">
        <ele>14.199999809265</ele>
        <time>2022-07-10T07:09:09.000Z</time>
      </trkpt>
      <trkpt lat="47.25597" lon="-2.32792">
        <ele>14.199999809265</ele>
        <time>2022-07-10T07:09:11.000Z</time>
      </trkpt>
      <trkpt lat="47.256" lon="-2.3276">
        <ele>14.199999809265</ele>
        <time>2022-07-10T07:09:16.000Z</time>
      </trkpt>
      <trkpt lat="47.25602" lon="-2.32734">
        <ele>14.60000038147</ele>
        <time>2022-07-10T07:09:20.000Z</time>
      </trkpt>
      <trkpt lat="47.25602" lon="-2.32728">
        <ele>15</ele>
        <time>2022-07-10T07:09:21.000Z</time>
      </trkpt>
      <trkpt lat="47.25602" lon="-2.32722">
        <ele>15.39999961853</ele>
        <time>2022-07-10T07:09:22.000Z</time>
      </trkpt>
      <trkpt lat="47.25602" lon="-2.32717">
        <ele>15.800000190735</ele>
        <time>2022-07-10T07:09:23.000Z</time>
      </trkpt>
      <trkpt lat="47.25603" lon="-2.32711">
        <ele>16.200000762939</ele>
        <time>2022-07-10T07:09:24.000Z</time>
      </trkpt>
      <trkpt lat="47.25602" lon="-2.32676">
        <ele>16.200000762939</ele>
        <time>2022-07-10T07:09:31.000Z</time>
      </trkpt>
      <trkpt lat="47.25604" lon="-2.32666">
        <ele>16.200000762939</ele>
        <time>2022-07-10T07:09:34.000Z</time>
      </trkpt>
      <trkpt lat="47.25607" lon="-2.32663">
        <ele>16.200000762939</ele>
        <time>2022-07-10T07:09:35.000Z</time>
      </trkpt>
      <trkpt lat="47.25632" lon="-2.32648">
        <ele>16.200000762939</ele>
        <time>2022-07-10T07:09:41.000Z</time>
      </trkpt>
      <trkpt lat="47.25667" lon="-2.32635">
        <ele>15.800000190735</ele>
        <time>2022-07-10T07:09:48.000Z</time>
      </trkpt>
      <trkpt lat="47.25672" lon="-2.32632">
        <ele>15.39999961853</ele>
        <time>2022-07-10T07:09:49.000Z</time>
      </trkpt>
      <trkpt lat="47.25678" lon="-2.3263">
        <ele>15</ele>
        <time>2022-07-10T07:09:50.000Z</time>
      </trkpt>
      <trkpt lat="47.25683" lon="-2.32628">
        <ele>14.199999809265</ele>
        <time>2022-07-10T07:09:51.000Z</time>
      </trkpt>
      <trkpt lat="47.25707" lon="-2.32616">
        <ele>14.199999809265</ele>
        <time>2022-07-10T07:09:56.000Z</time>
      </trkpt>
      <trkpt lat="47.25711" lon="-2.32601">
        <ele>14.199999809265</ele>
        <time>2022-07-10T07:09:59.000Z</time>
      </trkpt>
      <trkpt lat="47.25708" lon="-2.32588">
        <ele>14.199999809265</ele>
        <time>2022-07-10T07:10:01.000Z</time>
      </trkpt>
      <trkpt lat="47.25706" lon="-2.32582">
        <ele>13.800000190735</ele>
        <time>2022-07-10T07:10:02.000Z</time>
      </trkpt>
      <trkpt lat="47.25704" lon="-2.32575">
        <ele>13.199999809265</ele>
        <time>2022-07-10T07:10:03.000Z</time>
      </trkpt>
      <trkpt lat="47.25702" lon="-2.32569">
        <ele>12.800000190735</ele>
        <time>2022-07-10T07:10:04.000Z</time>
      </trkpt>
      <trkpt lat="47.257" lon="-2.32562">
        <ele>12.39999961853</ele>
        <time>2022-07-10T07:10:05.000Z</time>
      </trkpt>
      <trkpt lat="47.25698" lon="-2.32556">
        <ele>12</ele>
        <time>2022-07-10T07:10:06.000Z</time>
      </trkpt>
      <trkpt lat="47.2568" lon="-2.32501">
        <ele>12</ele>
        <time>2022-07-10T07:10:14.000Z</time>
      </trkpt>
      <trkpt lat="47.25671" lon="-2.32475">
        <ele>11.60000038147</ele>
        <time>2022-07-10T07:10:18.000Z</time>
      </trkpt>
      <trkpt lat="47.25668" lon="-2.32468">
        <ele>11.199999809265</ele>
        <time>2022-07-10T07:10:19.000Z</time>
      </trkpt>
      <trkpt lat="47.25666" lon="-2.3246">
        <ele>10.800000190735</ele>
        <time>2022-07-10T07:10:20.000Z</time>
      </trkpt>
      <trkpt lat="47.25664" lon="-2.32453">
        <ele>10.39999961853</ele>
        <time>2022-07-10T07:10:21.000Z</time>
      </trkpt>
      <trkpt lat="47.25662" lon="-2.32445">
        <ele>10</ele>
        <time>2022-07-10T07:10:22.000Z</time>
      </trkpt>
      <trkpt lat="47.2566" lon="-2.32423">
        <ele>10</ele>
        <time>2022-07-10T07:10:25.000Z</time>
      </trkpt>
      <trkpt lat="47.25662" lon="-2.32419">
        <ele>10</ele>
        <time>2022-07-10T07:10:26.000Z</time>
      </trkpt>
      <trkpt lat="47.25673" lon="-2.32417">
        <ele>10</ele>
        <time>2022-07-10T07:10:29.000Z</time>
      </trkpt>
      <trkpt lat="47.25678" lon="-2.32418">
        <ele>9.6000003814697</ele>
        <time>2022-07-10T07:10:30.000Z</time>
      </trkpt>
      <trkpt lat="47.25684" lon="-2.32419">
        <ele>9.1999998092651</ele>
        <time>2022-07-10T07:10:31.000Z</time>
      </trkpt>
      <trkpt lat="47.25689" lon="-2.3242">
        <ele>8.8000001907349</ele>
        <time>2022-07-10T07:10:32.000Z</time>
      </trkpt>
      <trkpt lat="47.25695" lon="-2.3242">
        <ele>8.1999998092651</ele>
        <time>2022-07-10T07:10:33.000Z</time>
      </trkpt>
      <trkpt lat="47.257" lon="-2.3242">
        <ele>7.8000001907349</ele>
        <time>2022-07-10T07:10:34.000Z</time>
      </trkpt>
      <trkpt lat="47.25716" lon="-2.32422">
        <ele>7.8000001907349</ele>
        <time>2022-07-10T07:10:37.000Z</time>
      </trkpt>
      <trkpt lat="47.25726" lon="-2.32424">
        <ele>7.8000001907349</ele>
        <time>2022-07-10T07:10:39.000Z</time>
      </trkpt>
      <trkpt lat="47.25752" lon="-2.32424">
        <ele>7.8000001907349</ele>
        <time>2022-07-10T07:10:44.000Z</time>
      </trkpt>
      <trkpt lat="47.25761" lon="-2.32423">
        <ele>7.8000001907349</ele>
        <time>2022-07-10T07:10:46.000Z</time>
      </trkpt>
      <trkpt lat="47.25771" lon="-2.32417">
        <ele>7.8000001907349</ele>
        <time>2022-07-10T07:10:49.000Z</time>
      </trkpt>
      <trkpt lat="47.25781" lon="-2.32415">
        <ele>7.8000001907349</ele>
        <time>2022-07-10T07:10:52.000Z</time>
      </trkpt>
      <trkpt lat="47.25784" lon="-2.32418">
        <ele>7.8000001907349</ele>
        <time>2022-07-10T07:10:53.000Z</time>
      </trkpt>
      <trkpt lat="47.25792" lon="-2.32432">
        <ele>7.8000001907349</ele>
        <time>2022-07-10T07:10:56.000Z</time>
      </trkpt>
      <trkpt lat="47.25798" lon="-2.32443">
        <ele>7.8000001907349</ele>
        <time>2022-07-10T07:10:58.000Z</time>
      </trkpt>
      <trkpt lat="47.25817" lon="-2.32458">
        <ele>7.8000001907349</ele>
        <time>2022-07-10T07:11:02.000Z</time>
      </trkpt>
      <trkpt lat="47.25854" lon="-2.32474">
        <ele>7.8000001907349</ele>
        <time>2022-07-10T07:11:09.000Z</time>
      </trkpt>
      <trkpt lat="47.25868" lon="-2.32474">
        <ele>7.8000001907349</ele>
        <time>2022-07-10T07:11:12.000Z</time>
      </trkpt>
      <trkpt lat="47.25877" lon="-2.32473">
        <ele>7.8000001907349</ele>
        <time>2022-07-10T07:11:14.000Z</time>
      </trkpt>
      <trkpt lat="47.25892" lon="-2.32466">
        <ele>7.8000001907349</ele>
        <time>2022-07-10T07:11:17.000Z</time>
      </trkpt>
      <trkpt lat="47.25901" lon="-2.32458">
        <ele>7.8000001907349</ele>
        <time>2022-07-10T07:11:19.000Z</time>
      </trkpt>
      <trkpt lat="47.25909" lon="-2.32448">
        <ele>7.8000001907349</ele>
        <time>2022-07-10T07:11:21.000Z</time>
      </trkpt>
      <trkpt lat="47.25924" lon="-2.32428">
        <ele>7.8000001907349</ele>
        <time>2022-07-10T07:11:25.000Z</time>
      </trkpt>
      <trkpt lat="47.25951" lon="-2.32391">
        <ele>7.8000001907349</ele>
        <time>2022-07-10T07:11:32.000Z</time>
      </trkpt>
      <trkpt lat="47.25975" lon="-2.3236">
        <ele>7.8000001907349</ele>
        <time>2022-07-10T07:11:38.000Z</time>
      </trkpt>
      <trkpt lat="47.25999" lon="-2.32329">
        <ele>7.8000001907349</ele>
        <time>2022-07-10T07:11:44.000Z</time>
      </trkpt>
      <trkpt lat="47.26004" lon="-2.32324">
        <ele>7.8000001907349</ele>
        <time>2022-07-10T07:11:45.000Z</time>
      </trkpt>
      <trkpt lat="47.26015" lon="-2.32311">
        <ele>7.8000001907349</ele>
        <time>2022-07-10T07:11:48.000Z</time>
      </trkpt>
      <trkpt lat="47.26043" lon="-2.32278">
        <ele>7.8000001907349</ele>
        <time>2022-07-10T07:11:55.000Z</time>
      </trkpt>
      <trkpt lat="47.26069" lon="-2.32248">
        <ele>7.8000001907349</ele>
        <time>2022-07-10T07:12:02.000Z</time>
      </trkpt>
      <trkpt lat="47.26095" lon="-2.32212">
        <ele>7.8000001907349</ele>
        <time>2022-07-10T07:12:09.000Z</time>
      </trkpt>
      <trkpt lat="47.26109" lon="-2.32181">
        <ele>7.8000001907349</ele>
        <time>2022-07-10T07:12:14.000Z</time>
      </trkpt>
      <trkpt lat="47.26123" lon="-2.32145">
        <ele>7.8000001907349</ele>
        <time>2022-07-10T07:12:20.000Z</time>
      </trkpt>
      <trkpt lat="47.26125" lon="-2.32138">
        <ele>7.8000001907349</ele>
        <time>2022-07-10T07:12:21.000Z</time>
      </trkpt>
      <trkpt lat="47.26141" lon="-2.32085">
        <ele>7.8000001907349</ele>
        <time>2022-07-10T07:12:29.000Z</time>
      </trkpt>
      <trkpt lat="47.26157" lon="-2.32038">
        <ele>7.8000001907349</ele>
        <time>2022-07-10T07:12:36.000Z</time>
      </trkpt>
      <trkpt lat="47.26162" lon="-2.32027">
        <ele>7.8000001907349</ele>
        <time>2022-07-10T07:12:38.000Z</time>
      </trkpt>
      <trkpt lat="47.26169" lon="-2.32021">
        <ele>7.8000001907349</ele>
        <time>2022-07-10T07:12:40.000Z</time>
      </trkpt>
      <trkpt lat="47.2618" lon="-2.3202">
        <ele>7.8000001907349</ele>
        <time>2022-07-10T07:12:44.000Z</time>
      </trkpt>
      <trkpt lat="47.26192" lon="-2.32024">
        <ele>7.8000001907349</ele>
        <time>2022-07-10T07:12:51.000Z</time>
      </trkpt>
      <trkpt lat="47.26194" lon="-2.32023">
        <ele>7.8000001907349</ele>
        <time>2022-07-10T07:12:52.000Z</time>
      </trkpt>
      <trkpt lat="47.26196" lon="-2.32018">
        <ele>7.8000001907349</ele>
        <time>2022-07-10T07:12:54.000Z</time>
      </trkpt>
      <trkpt lat="47.262" lon="-2.32005">
        <ele>7.8000001907349</ele>
        <time>2022-07-10T07:12:58.000Z</time>
      </trkpt>
      <trkpt lat="47.26202" lon="-2.32002">
        <ele>7.8000001907349</ele>
        <time>2022-07-10T07:12:59.000Z</time>
      </trkpt>
      <trkpt lat="47.26221" lon="-2.3198">
        <ele>7.8000001907349</ele>
        <time>2022-07-10T07:13:05.000Z</time>
      </trkpt>
      <trkpt lat="47.26241" lon="-2.31959">
        <ele>7.8000001907349</ele>
        <time>2022-07-10T07:13:10.000Z</time>
      </trkpt>
      <trkpt lat="47.26245" lon="-2.31954">
        <ele>7.8000001907349</ele>
        <time>2022-07-10T07:13:11.000Z</time>
      </trkpt>
      <trkpt lat="47.26264" lon="-2.3193">
        <ele>7.8000001907349</ele>
        <time>2022-07-10T07:13:17.000Z</time>
      </trkpt>
      <trkpt lat="47.26282" lon="-2.31904">
        <ele>7.8000001907349</ele>
        <time>2022-07-10T07:13:23.000Z</time>
      </trkpt>
      <trkpt lat="47.26297" lon="-2.31893">
        <ele>7.8000001907349</ele>
        <time>2022-07-10T07:13:28.000Z</time>
      </trkpt>
      <trkpt lat="47.263" lon="-2.31897">
        <ele>7.8000001907349</ele>
        <time>2022-07-10T07:13:30.000Z</time>
      </trkpt>
      <trkpt lat="47.263" lon="-2.31906">
        <ele>7.8000001907349</ele>
        <time>2022-07-10T07:13:32.000Z</time>
      </trkpt>
      <trkpt lat="47.26303" lon="-2.31925">
        <ele>7.8000001907349</ele>
        <time>2022-07-10T07:13:36.000Z</time>
      </trkpt>
      <trkpt lat="47.26314" lon="-2.31926">
        <ele>7.8000001907349</ele>
        <time>2022-07-10T07:13:40.000Z</time>
      </trkpt>
      <trkpt lat="47.26333" lon="-2.31927">
        <ele>7.8000001907349</ele>
        <time>2022-07-10T07:13:45.000Z</time>
      </trkpt>
      <trkpt lat="47.26336" lon="-2.3193">
        <ele>7.8000001907349</ele>
        <time>2022-07-10T07:13:46.000Z</time>
      </trkpt>
      <trkpt lat="47.26345" lon="-2.31945">
        <ele>7.8000001907349</ele>
        <time>2022-07-10T07:13:49.000Z</time>
      </trkpt>
      <trkpt lat="47.26351" lon="-2.31955">
        <ele>7.8000001907349</ele>
        <time>2022-07-10T07:13:51.000Z</time>
      </trkpt>
      <trkpt lat="47.26363" lon="-2.31977">
        <ele>7.8000001907349</ele>
        <time>2022-07-10T07:13:56.000Z</time>
      </trkpt>
      <trkpt lat="47.26374" lon="-2.31982">
        <ele>8.1999998092651</ele>
        <time>2022-07-10T07:13:59.000Z</time>
      </trkpt>
      <trkpt lat="47.26377" lon="-2.31982">
        <ele>8.6000003814697</ele>
        <time>2022-07-10T07:14:00.000Z</time>
      </trkpt>
      <trkpt lat="47.2638" lon="-2.31983">
        <ele>9.1999998092651</ele>
        <time>2022-07-10T07:14:01.000Z</time>
      </trkpt>
      <trkpt lat="47.26383" lon="-2.31984">
        <ele>9.6000003814697</ele>
        <time>2022-07-10T07:14:02.000Z</time>
      </trkpt>
      <trkpt lat="47.26386" lon="-2.31985">
        <ele>10</ele>
        <time>2022-07-10T07:14:03.000Z</time>
      </trkpt>
      <trkpt lat="47.26396" lon="-2.31987">
        <ele>10</ele>
        <time>2022-07-10T07:14:06.000Z</time>
      </trkpt>
      <trkpt lat="47.26404" lon="-2.31989">
        <ele>10.39999961853</ele>
        <time>2022-07-10T07:14:09.000Z</time>
      </trkpt>
      <trkpt lat="47.26406" lon="-2.3199">
        <ele>10.800000190735</ele>
        <time>2022-07-10T07:14:10.000Z</time>
      </trkpt>
      <trkpt lat="47.26409" lon="-2.31991">
        <ele>11.199999809265</ele>
        <time>2022-07-10T07:14:11.000Z</time>
      </trkpt>
      <trkpt lat="47.26412" lon="-2.31992">
        <ele>11.60000038147</ele>
        <time>2022-07-10T07:14:12.000Z</time>
      </trkpt>
      <trkpt lat="47.26414" lon="-2.31993">
        <ele>12.199999809265</ele>
        <time>2022-07-10T07:14:13.000Z</time>
      </trkpt>
      <trkpt lat="47.2643" lon="-2.31995">
        <ele>12.199999809265</ele>
        <time>2022-07-10T07:14:18.000Z</time>
      </trkpt>
      <trkpt lat="47.2644" lon="-2.31995">
        <ele>12.60000038147</ele>
        <time>2022-07-10T07:14:21.000Z</time>
      </trkpt>
      <trkpt lat="47.26443" lon="-2.31996">
        <ele>13</ele>
        <time>2022-07-10T07:14:22.000Z</time>
      </trkpt>
      <trkpt lat="47.26446" lon="-2.31996">
        <ele>13.800000190735</ele>
        <time>2022-07-10T07:14:23.000Z</time>
      </trkpt>
      <trkpt lat="47.26449" lon="-2.31997">
        <ele>14.199999809265</ele>
        <time>2022-07-10T07:14:24.000Z</time>
      </trkpt>
      <trkpt lat="47.26452" lon="-2.31997">
        <ele>14.199999809265</ele>
        <time>2022-07-10T07:14:25.000Z</time>
      </trkpt>
      <trkpt lat="47.26473" lon="-2.31995">
        <ele>14.199999809265</ele>
        <time>2022-07-10T07:14:31.000Z</time>
      </trkpt>
      <trkpt lat="47.26476" lon="-2.31996">
        <ele>14.60000038147</ele>
        <time>2022-07-10T07:14:32.000Z</time>
      </trkpt>
      <trkpt lat="47.26479" lon="-2.31996">
        <ele>15</ele>
        <time>2022-07-10T07:14:33.000Z</time>
      </trkpt>
      <trkpt lat="47.26482" lon="-2.31996">
        <ele>15.39999961853</ele>
        <time>2022-07-10T07:14:34.000Z</time>
      </trkpt>
      <trkpt lat="47.26484" lon="-2.31996">
        <ele>15.800000190735</ele>
        <time>2022-07-10T07:14:35.000Z</time>
      </trkpt>
      <trkpt lat="47.26486" lon="-2.31997">
        <ele>16.200000762939</ele>
        <time>2022-07-10T07:14:36.000Z</time>
      </trkpt>
      <trkpt lat="47.26488" lon="-2.31997">
        <ele>16.200000762939</ele>
        <time>2022-07-10T07:14:37.000Z</time>
      </trkpt>
      <trkpt lat="47.26508" lon="-2.31995">
        <ele>16.60000038147</ele>
        <time>2022-07-10T07:14:44.000Z</time>
      </trkpt>
      <trkpt lat="47.2651" lon="-2.31994">
        <ele>17</ele>
        <time>2022-07-10T07:14:45.000Z</time>
      </trkpt>
      <trkpt lat="47.26512" lon="-2.31994">
        <ele>17.39999961853</ele>
        <time>2022-07-10T07:14:46.000Z</time>
      </trkpt>
      <trkpt lat="47.26514" lon="-2.31994">
        <ele>18</ele>
        <time>2022-07-10T07:14:47.000Z</time>
      </trkpt>
      <trkpt lat="47.26516" lon="-2.31994">
        <ele>18.39999961853</ele>
        <time>2022-07-10T07:14:48.000Z</time>
      </trkpt>
      <trkpt lat="47.26521" lon="-2.31995">
        <ele>18.39999961853</ele>
        <time>2022-07-10T07:14:50.000Z</time>
      </trkpt>
      <trkpt lat="47.26525" lon="-2.31998">
        <ele>18.39999961853</ele>
        <time>2022-07-10T07:14:52.000Z</time>
      </trkpt>
      <trkpt lat="47.26528" lon="-2.32">
        <ele>18.799999237061</ele>
        <time>2022-07-10T07:14:53.000Z</time>
      </trkpt>
      <trkpt lat="47.2653" lon="-2.32002">
        <ele>19.200000762939</ele>
        <time>2022-07-10T07:14:54.000Z</time>
      </trkpt>
      <trkpt lat="47.26531" lon="-2.32004">
        <ele>19.60000038147</ele>
        <time>2022-07-10T07:14:55.000Z</time>
      </trkpt>
      <trkpt lat="47.26533" lon="-2.32007">
        <ele>20</ele>
        <time>2022-07-10T07:14:56.000Z</time>
      </trkpt>
      <trkpt lat="47.26535" lon="-2.32009">
        <ele>20.39999961853</ele>
        <time>2022-07-10T07:14:57.000Z</time>
      </trkpt>
      <trkpt lat="47.26541" lon="-2.32025">
        <ele>20.39999961853</ele>
        <time>2022-07-10T07:15:03.000Z</time>
      </trkpt>
      <trkpt lat="47.26546" lon="-2.32033">
        <ele>20.39999961853</ele>
        <time>2022-07-10T07:15:06.000Z</time>
      </trkpt>
      <trkpt lat="47.26551" lon="-2.32033">
        <ele>20.39999961853</ele>
        <time>2022-07-10T07:15:08.000Z</time>
      </trkpt>
      <trkpt lat="47.26563" lon="-2.3203">
        <ele>21</ele>
        <time>2022-07-10T07:15:12.000Z</time>
      </trkpt>
      <trkpt lat="47.26567" lon="-2.3203">
        <ele>21.799999237061</ele>
        <time>2022-07-10T07:15:13.000Z</time>
      </trkpt>
      <trkpt lat="47.2657" lon="-2.32029">
        <ele>22.200000762939</ele>
        <time>2022-07-10T07:15:14.000Z</time>
      </trkpt>
      <trkpt lat="47.26573" lon="-2.32028">
        <ele>22.60000038147</ele>
        <time>2022-07-10T07:15:15.000Z</time>
      </trkpt>
      <trkpt lat="47.26599" lon="-2.32018">
        <ele>22.60000038147</ele>
        <time>2022-07-10T07:15:23.000Z</time>
      </trkpt>
      <trkpt lat="47.26612" lon="-2.32015">
        <ele>23</ele>
        <time>2022-07-10T07:15:27.000Z</time>
      </trkpt>
      <trkpt lat="47.26615" lon="-2.32014">
        <ele>23.39999961853</ele>
        <time>2022-07-10T07:15:28.000Z</time>
      </trkpt>
      <trkpt lat="47.26618" lon="-2.32013">
        <ele>23.799999237061</ele>
        <time>2022-07-10T07:15:29.000Z</time>
      </trkpt>
      <trkpt lat="47.26622" lon="-2.32012">
        <ele>24.200000762939</ele>
        <time>2022-07-10T07:15:30.000Z</time>
      </trkpt>
      <trkpt lat="47.26625" lon="-2.32011">
        <ele>24.60000038147</ele>
        <time>2022-07-10T07:15:31.000Z</time>
      </trkpt>
      <trkpt lat="47.26643" lon="-2.32001">
        <ele>24.60000038147</ele>
        <time>2022-07-10T07:15:38.000Z</time>
      </trkpt>
      <trkpt lat="47.26644" lon="-2.31992">
        <ele>24.60000038147</ele>
        <time>2022-07-10T07:15:40.000Z</time>
      </trkpt>
      <trkpt lat="47.26644" lon="-2.31985">
        <ele>24.60000038147</ele>
        <time>2022-07-10T07:15:41.000Z</time>
      </trkpt>
      <trkpt lat="47.26643" lon="-2.31965">
        <ele>24.60000038147</ele>
        <time>2022-07-10T07:15:44.000Z</time>
      </trkpt>
      <trkpt lat="47.26647" lon="-2.31952">
        <ele>24.60000038147</ele>
        <time>2022-07-10T07:15:46.000Z</time>
      </trkpt>
      <trkpt lat="47.26661" lon="-2.31931">
        <ele>24.60000038147</ele>
        <time>2022-07-10T07:15:50.000Z</time>
      </trkpt>
      <trkpt lat="47.2669" lon="-2.319">
        <ele>24.60000038147</ele>
        <time>2022-07-10T07:15:57.000Z</time>
      </trkpt>
      <trkpt lat="47.26718" lon="-2.31872">
        <ele>24.60000038147</ele>
        <time>2022-07-10T07:16:04.000Z</time>
      </trkpt>
      <trkpt lat="47.26753" lon="-2.31841">
        <ele>24.60000038147</ele>
        <time>2022-07-10T07:16:12.000Z</time>
      </trkpt>
      <trkpt lat="47.26783" lon="-2.31819">
        <ele>24.60000038147</ele>
        <time>2022-07-10T07:16:18.000Z</time>
      </trkpt>
      <trkpt lat="47.26813" lon="-2.31804">
        <ele>24.60000038147</ele>
        <time>2022-07-10T07:16:24.000Z</time>
      </trkpt>
      <trkpt lat="47.26818" lon="-2.31804">
        <ele>24.60000038147</ele>
        <time>2022-07-10T07:16:26.000Z</time>
      </trkpt>
      <trkpt lat="47.26819" lon="-2.31806">
        <ele>24.60000038147</ele>
        <time>2022-07-10T07:16:27.000Z</time>
      </trkpt>
      <trkpt lat="47.26818" lon="-2.31818">
        <ele>24.60000038147</ele>
        <time>2022-07-10T07:16:31.000Z</time>
      </trkpt>
      <trkpt lat="47.26824" lon="-2.31833">
        <ele>24.60000038147</ele>
        <time>2022-07-10T07:16:34.000Z</time>
      </trkpt>
      <trkpt lat="47.26826" lon="-2.31838">
        <ele>24.60000038147</ele>
        <time>2022-07-10T07:16:35.000Z</time>
      </trkpt>
      <trkpt lat="47.2683" lon="-2.3185">
        <ele>24.200000762939</ele>
        <time>2022-07-10T07:16:37.000Z</time>
      </trkpt>
      <trkpt lat="47.26832" lon="-2.31857">
        <ele>23.799999237061</ele>
        <time>2022-07-10T07:16:38.000Z</time>
      </trkpt>
      <trkpt lat="47.26835" lon="-2.31863">
        <ele>23.39999961853</ele>
        <time>2022-07-10T07:16:39.000Z</time>
      </trkpt>
      <trkpt lat="47.26837" lon="-2.3187">
        <ele>23</ele>
        <time>2022-07-10T07:16:40.000Z</time>
      </trkpt>
      <trkpt lat="47.26841" lon="-2.31876">
        <ele>22.60000038147</ele>
        <time>2022-07-10T07:16:41.000Z</time>
      </trkpt>
      <trkpt lat="47.26845" lon="-2.31883">
        <ele>22.60000038147</ele>
        <time>2022-07-10T07:16:42.000Z</time>
      </trkpt>
      <trkpt lat="47.26858" lon="-2.3189">
        <ele>22.200000762939</ele>
        <time>2022-07-10T07:16:44.000Z</time>
      </trkpt>
      <trkpt lat="47.26864" lon="-2.31893">
        <ele>21.799999237061</ele>
        <time>2022-07-10T07:16:45.000Z</time>
      </trkpt>
      <trkpt lat="47.2687" lon="-2.31894">
        <ele>21.39999961853</ele>
        <time>2022-07-10T07:16:46.000Z</time>
      </trkpt>
      <trkpt lat="47.26877" lon="-2.31897">
        <ele>21</ele>
        <time>2022-07-10T07:16:47.000Z</time>
      </trkpt>
      <trkpt lat="47.26882" lon="-2.31901">
        <ele>20.60000038147</ele>
        <time>2022-07-10T07:16:48.000Z</time>
      </trkpt>
      <trkpt lat="47.26887" lon="-2.31906">
        <ele>20.60000038147</ele>
        <time>2022-07-10T07:16:49.000Z</time>
      </trkpt>
      <trkpt lat="47.269" lon="-2.31927">
        <ele>19.60000038147</ele>
        <time>2022-07-10T07:16:52.000Z</time>
      </trkpt>
      <trkpt lat="47.26905" lon="-2.31934">
        <ele>19.200000762939</ele>
        <time>2022-07-10T07:16:53.000Z</time>
      </trkpt>
      <trkpt lat="47.2691" lon="-2.31942">
        <ele>18.60000038147</ele>
        <time>2022-07-10T07:16:54.000Z</time>
      </trkpt>
      <trkpt lat="47.26916" lon="-2.31949">
        <ele>18.200000762939</ele>
        <time>2022-07-10T07:16:55.000Z</time>
      </trkpt>
      <trkpt lat="47.26922" lon="-2.31956">
        <ele>17.60000038147</ele>
        <time>2022-07-10T07:16:56.000Z</time>
      </trkpt>
      <trkpt lat="47.26927" lon="-2.31962">
        <ele>17.200000762939</ele>
        <time>2022-07-10T07:16:57.000Z</time>
      </trkpt>
      <trkpt lat="47.26931" lon="-2.31969">
        <ele>16.60000038147</ele>
        <time>2022-07-10T07:16:58.000Z</time>
      </trkpt>
      <trkpt lat="47.26936" lon="-2.31975">
        <ele>16</ele>
        <time>2022-07-10T07:16:59.000Z</time>
      </trkpt>
      <trkpt lat="47.26945" lon="-2.31988">
        <ele>15.60000038147</ele>
        <time>2022-07-10T07:17:01.000Z</time>
      </trkpt>
      <trkpt lat="47.26949" lon="-2.31994">
        <ele>15.199999809265</ele>
        <time>2022-07-10T07:17:02.000Z</time>
      </trkpt>
      <trkpt lat="47.26954" lon="-2.31998">
        <ele>14.800000190735</ele>
        <time>2022-07-10T07:17:03.000Z</time>
      </trkpt>
      <trkpt lat="47.26958" lon="-2.31999">
        <ele>14.39999961853</ele>
        <time>2022-07-10T07:17:04.000Z</time>
      </trkpt>
      <trkpt lat="47.26962" lon="-2.31998">
        <ele>14</ele>
        <time>2022-07-10T07:17:05.000Z</time>
      </trkpt>
      <trkpt lat="47.26976" lon="-2.31994">
        <ele>14</ele>
        <time>2022-07-10T07:17:08.000Z</time>
      </trkpt>
      <trkpt lat="47.26989" lon="-2.31988">
        <ele>14</ele>
        <time>2022-07-10T07:17:11.000Z</time>
      </trkpt>
      <trkpt lat="47.27002" lon="-2.31977">
        <ele>14</ele>
        <time>2022-07-10T07:17:14.000Z</time>
      </trkpt>
      <trkpt lat="47.27006" lon="-2.31973">
        <ele>13.60000038147</ele>
        <time>2022-07-10T07:17:15.000Z</time>
      </trkpt>
      <trkpt lat="47.27012" lon="-2.3197">
        <ele>12.800000190735</ele>
        <time>2022-07-10T07:17:16.000Z</time>
      </trkpt>
      <trkpt lat="47.27017" lon="-2.31967">
        <ele>12.39999961853</ele>
        <time>2022-07-10T07:17:17.000Z</time>
      </trkpt>
      <trkpt lat="47.27021" lon="-2.31965">
        <ele>12</ele>
        <time>2022-07-10T07:17:18.000Z</time>
      </trkpt>
      <trkpt lat="47.27026" lon="-2.31962">
        <ele>12</ele>
        <time>2022-07-10T07:17:19.000Z</time>
      </trkpt>
      <trkpt lat="47.27039" lon="-2.31955">
        <ele>12</ele>
        <time>2022-07-10T07:17:22.000Z</time>
      </trkpt>
      <trkpt lat="47.27051" lon="-2.31954">
        <ele>12</ele>
        <time>2022-07-10T07:17:24.000Z</time>
      </trkpt>
      <trkpt lat="47.27066" lon="-2.31955">
        <ele>12</ele>
        <time>2022-07-10T07:17:28.000Z</time>
      </trkpt>
      <trkpt lat="47.27072" lon="-2.31954">
        <ele>12</ele>
        <time>2022-07-10T07:17:31.000Z</time>
      </trkpt>
      <trkpt lat="47.27073" lon="-2.31951">
        <ele>12</ele>
        <time>2022-07-10T07:17:32.000Z</time>
      </trkpt>
      <trkpt lat="47.27073" lon="-2.31923">
        <ele>12</ele>
        <time>2022-07-10T07:17:39.000Z</time>
      </trkpt>
      <trkpt lat="47.27071" lon="-2.319">
        <ele>12</ele>
        <time>2022-07-10T07:17:45.000Z</time>
      </trkpt>
      <trkpt lat="47.27073" lon="-2.3188">
        <ele>12</ele>
        <time>2022-07-10T07:17:51.000Z</time>
      </trkpt>
      <trkpt lat="47.27073" lon="-2.31869">
        <ele>12</ele>
        <time>2022-07-10T07:17:54.000Z</time>
      </trkpt>
      <trkpt lat="47.27069" lon="-2.31864">
        <ele>12</ele>
        <time>2022-07-10T07:17:56.000Z</time>
      </trkpt>
      <trkpt lat="47.27058" lon="-2.31845">
        <ele>12</ele>
        <time>2022-07-10T07:18:01.000Z</time>
      </trkpt>
      <trkpt lat="47.27056" lon="-2.31827">
        <ele>12.39999961853</ele>
        <time>2022-07-10T07:18:04.000Z</time>
      </trkpt>
      <trkpt lat="47.27055" lon="-2.31821">
        <ele>12.800000190735</ele>
        <time>2022-07-10T07:18:05.000Z</time>
      </trkpt>
      <trkpt lat="47.27055" lon="-2.31815">
        <ele>13.800000190735</ele>
        <time>2022-07-10T07:18:06.000Z</time>
      </trkpt>
      <trkpt lat="47.27054" lon="-2.31809">
        <ele>14.199999809265</ele>
        <time>2022-07-10T07:18:07.000Z</time>
      </trkpt>
      <trkpt lat="47.2705" lon="-2.31779">
        <ele>14.199999809265</ele>
        <time>2022-07-10T07:18:12.000Z</time>
      </trkpt>
      <trkpt lat="47.27046" lon="-2.31752">
        <ele>14.199999809265</ele>
        <time>2022-07-10T07:18:18.000Z</time>
      </trkpt>
      <trkpt lat="47.27044" lon="-2.31733">
        <ele>14.199999809265</ele>
        <time>2022-07-10T07:18:23.000Z</time>
      </trkpt>
      <trkpt lat="47.27039" lon="-2.31728">
        <ele>14.60000038147</ele>
        <time>2022-07-10T07:18:25.000Z</time>
      </trkpt>
      <trkpt lat="47.27036" lon="-2.31726">
        <ele>15</ele>
        <time>2022-07-10T07:18:26.000Z</time>
      </trkpt>
      <trkpt lat="47.27032" lon="-2.31723">
        <ele>15.39999961853</ele>
        <time>2022-07-10T07:18:27.000Z</time>
      </trkpt>
      <trkpt lat="47.27029" lon="-2.3172">
        <ele>15.800000190735</ele>
        <time>2022-07-10T07:18:28.000Z</time>
      </trkpt>
      <trkpt lat="47.27026" lon="-2.31718">
        <ele>16.200000762939</ele>
        <time>2022-07-10T07:18:29.000Z</time>
      </trkpt>
      <trkpt lat="47.27018" lon="-2.31704">
        <ele>16.200000762939</ele>
        <time>2022-07-10T07:18:33.000Z</time>
      </trkpt>
      <trkpt lat="47.2702" lon="-2.31679">
        <ele>16.200000762939</ele>
        <time>2022-07-10T07:18:38.000Z</time>
      </trkpt>
      <trkpt lat="47.27024" lon="-2.31665">
        <ele>16.60000038147</ele>
        <time>2022-07-10T07:18:41.000Z</time>
      </trkpt>
      <trkpt lat="47.27024" lon="-2.31661">
        <ele>17</ele>
        <time>2022-07-10T07:18:42.000Z</time>
      </trkpt>
      <trkpt lat="47.27025" lon="-2.31656">
        <ele>17.39999961853</ele>
        <time>2022-07-10T07:18:43.000Z</time>
      </trkpt>
      <trkpt lat="47.27026" lon="-2.31651">
        <ele>17.799999237061</ele>
        <time>2022-07-10T07:18:44.000Z</time>
      </trkpt>
      <trkpt lat="47.27027" lon="-2.31646">
        <ele>18.200000762939</ele>
        <time>2022-07-10T07:18:45.000Z</time>
      </trkpt>
      <trkpt lat="47.27026" lon="-2.31633">
        <ele>18.200000762939</ele>
        <time>2022-07-10T07:18:48.000Z</time>
      </trkpt>
      <trkpt lat="47.27026" lon="-2.31625">
        <ele>18.200000762939</ele>
        <time>2022-07-10T07:18:50.000Z</time>
      </trkpt>
      <trkpt lat="47.27025" lon="-2.31609">
        <ele>18.799999237061</ele>
        <time>2022-07-10T07:18:55.000Z</time>
      </trkpt>
      <trkpt lat="47.27025" lon="-2.31606">
        <ele>19.200000762939</ele>
        <time>2022-07-10T07:18:56.000Z</time>
      </trkpt>
      <trkpt lat="47.27025" lon="-2.31603">
        <ele>19.60000038147</ele>
        <time>2022-07-10T07:18:57.000Z</time>
      </trkpt>
      <trkpt lat="47.27025" lon="-2.316">
        <ele>20</ele>
        <time>2022-07-10T07:18:58.000Z</time>
      </trkpt>
      <trkpt lat="47.27025" lon="-2.31597">
        <ele>20.39999961853</ele>
        <time>2022-07-10T07:18:59.000Z</time>
      </trkpt>
      <trkpt lat="47.27023" lon="-2.31591">
        <ele>20.39999961853</ele>
        <time>2022-07-10T07:19:01.000Z</time>
      </trkpt>
      <trkpt lat="47.27019" lon="-2.31581">
        <ele>20.799999237061</ele>
        <time>2022-07-10T07:19:04.000Z</time>
      </trkpt>
      <trkpt lat="47.27018" lon="-2.31578">
        <ele>21.39999961853</ele>
        <time>2022-07-10T07:19:05.000Z</time>
      </trkpt>
      <trkpt lat="47.27017" lon="-2.31575">
        <ele>21.799999237061</ele>
        <time>2022-07-10T07:19:06.000Z</time>
      </trkpt>
      <trkpt lat="47.27015" lon="-2.31572">
        <ele>22.200000762939</ele>
        <time>2022-07-10T07:19:07.000Z</time>
      </trkpt>
      <trkpt lat="47.27014" lon="-2.31569">
        <ele>22.60000038147</ele>
        <time>2022-07-10T07:19:08.000Z</time>
      </trkpt>
      <trkpt lat="47.27006" lon="-2.31543">
        <ele>22.60000038147</ele>
        <time>2022-07-10T07:19:14.000Z</time>
      </trkpt>
      <trkpt lat="47.27001" lon="-2.31528">
        <ele>23</ele>
        <time>2022-07-10T07:19:18.000Z</time>
      </trkpt>
      <trkpt lat="47.27" lon="-2.31523">
        <ele>23.39999961853</ele>
        <time>2022-07-10T07:19:19.000Z</time>
      </trkpt>
      <trkpt lat="47.27" lon="-2.31519">
        <ele>24.200000762939</ele>
        <time>2022-07-10T07:19:20.000Z</time>
      </trkpt>
      <trkpt lat="47.26999" lon="-2.31514">
        <ele>24.60000038147</ele>
        <time>2022-07-10T07:19:21.000Z</time>
      </trkpt>
      <trkpt lat="47.26994" lon="-2.31492">
        <ele>24.60000038147</ele>
        <time>2022-07-10T07:19:27.000Z</time>
      </trkpt>
      <trkpt lat="47.26994" lon="-2.31489">
        <ele>25</ele>
        <time>2022-07-10T07:19:28.000Z</time>
      </trkpt>
      <trkpt lat="47.26993" lon="-2.31486">
        <ele>25.39999961853</ele>
        <time>2022-07-10T07:19:29.000Z</time>
      </trkpt>
      <trkpt lat="47.26992" lon="-2.31483">
        <ele>25.799999237061</ele>
        <time>2022-07-10T07:19:30.000Z</time>
      </trkpt>
      <trkpt lat="47.26992" lon="-2.3148">
        <ele>26.200000762939</ele>
        <time>2022-07-10T07:19:31.000Z</time>
      </trkpt>
      <trkpt lat="47.26991" lon="-2.31477">
        <ele>26.60000038147</ele>
        <time>2022-07-10T07:19:32.000Z</time>
      </trkpt>
      <trkpt lat="47.26989" lon="-2.31467">
        <ele>26.60000038147</ele>
        <time>2022-07-10T07:19:35.000Z</time>
      </trkpt>
      <trkpt lat="47.26985" lon="-2.31444">
        <ele>26.60000038147</ele>
        <time>2022-07-10T07:19:40.000Z</time>
      </trkpt>
      <trkpt lat="47.26982" lon="-2.31423">
        <ele>26.60000038147</ele>
        <time>2022-07-10T07:19:45.000Z</time>
      </trkpt>
      <trkpt lat="47.26982" lon="-2.31413">
        <ele>27</ele>
        <time>2022-07-10T07:19:47.000Z</time>
      </trkpt>
      <trkpt lat="47.26981" lon="-2.31408">
        <ele>27.39999961853</ele>
        <time>2022-07-10T07:19:48.000Z</time>
      </trkpt>
      <trkpt lat="47.26981" lon="-2.31403">
        <ele>27.799999237061</ele>
        <time>2022-07-10T07:19:49.000Z</time>
      </trkpt>
      <trkpt lat="47.26981" lon="-2.31398">
        <ele>28.39999961853</ele>
        <time>2022-07-10T07:19:50.000Z</time>
      </trkpt>
      <trkpt lat="47.26981" lon="-2.31392">
        <ele>28.799999237061</ele>
        <time>2022-07-10T07:19:51.000Z</time>
      </trkpt>
      <trkpt lat="47.2698" lon="-2.31351">
        <ele>28.799999237061</ele>
        <time>2022-07-10T07:19:58.000Z</time>
      </trkpt>
      <trkpt lat="47.26974" lon="-2.31318">
        <ele>28.799999237061</ele>
        <time>2022-07-10T07:20:05.000Z</time>
      </trkpt>
      <trkpt lat="47.26973" lon="-2.31314">
        <ele>29.200000762939</ele>
        <time>2022-07-10T07:20:06.000Z</time>
      </trkpt>
      <trkpt lat="47.26973" lon="-2.3131">
        <ele>29.60000038147</ele>
        <time>2022-07-10T07:20:07.000Z</time>
      </trkpt>
      <trkpt lat="47.26972" lon="-2.31307">
        <ele>30</ele>
        <time>2022-07-10T07:20:08.000Z</time>
      </trkpt>
      <trkpt lat="47.26972" lon="-2.31302">
        <ele>30.799999237061</ele>
        <time>2022-07-10T07:20:09.000Z</time>
      </trkpt>
      <trkpt lat="47.26972" lon="-2.31293">
        <ele>30.799999237061</ele>
        <time>2022-07-10T07:20:11.000Z</time>
      </trkpt>
      <trkpt lat="47.26969" lon="-2.31263">
        <ele>30.799999237061</ele>
        <time>2022-07-10T07:20:16.000Z</time>
      </trkpt>
      <trkpt lat="47.2697" lon="-2.31233">
        <ele>30.799999237061</ele>
        <time>2022-07-10T07:20:21.000Z</time>
      </trkpt>
      <trkpt lat="47.26978" lon="-2.31191">
        <ele>30.799999237061</ele>
        <time>2022-07-10T07:20:27.000Z</time>
      </trkpt>
      <trkpt lat="47.2698" lon="-2.31174">
        <ele>30.39999961853</ele>
        <time>2022-07-10T07:20:29.000Z</time>
      </trkpt>
      <trkpt lat="47.26981" lon="-2.31166">
        <ele>30</ele>
        <time>2022-07-10T07:20:30.000Z</time>
      </trkpt>
      <trkpt lat="47.26982" lon="-2.31159">
        <ele>29.60000038147</ele>
        <time>2022-07-10T07:20:31.000Z</time>
      </trkpt>
      <trkpt lat="47.26982" lon="-2.3115">
        <ele>29.200000762939</ele>
        <time>2022-07-10T07:20:32.000Z</time>
      </trkpt>
      <trkpt lat="47.26983" lon="-2.31141">
        <ele>28.799999237061</ele>
        <time>2022-07-10T07:20:33.000Z</time>
      </trkpt>
      <trkpt lat="47.26985" lon="-2.31114">
        <ele>28.799999237061</ele>
        <time>2022-07-10T07:20:36.000Z</time>
      </trkpt>
      <trkpt lat="47.26984" lon="-2.31088">
        <ele>28.39999961853</ele>
        <time>2022-07-10T07:20:39.000Z</time>
      </trkpt>
      <trkpt lat="47.26984" lon="-2.31082">
        <ele>28</ele>
        <time>2022-07-10T07:20:40.000Z</time>
      </trkpt>
      <trkpt lat="47.26985" lon="-2.31076">
        <ele>27.60000038147</ele>
        <time>2022-07-10T07:20:41.000Z</time>
      </trkpt>
      <trkpt lat="47.26987" lon="-2.31072">
        <ele>27.200000762939</ele>
        <time>2022-07-10T07:20:42.000Z</time>
      </trkpt>
      <trkpt lat="47.26989" lon="-2.31068">
        <ele>26.799999237061</ele>
        <time>2022-07-10T07:20:43.000Z</time>
      </trkpt>
      <trkpt lat="47.27" lon="-2.31056">
        <ele>26.799999237061</ele>
        <time>2022-07-10T07:20:46.000Z</time>
      </trkpt>
      <trkpt lat="47.27005" lon="-2.31053">
        <ele>26.39999961853</ele>
        <time>2022-07-10T07:20:47.000Z</time>
      </trkpt>
      <trkpt lat="47.2701" lon="-2.31049">
        <ele>25.799999237061</ele>
        <time>2022-07-10T07:20:48.000Z</time>
      </trkpt>
      <trkpt lat="47.27015" lon="-2.31045">
        <ele>25.39999961853</ele>
        <time>2022-07-10T07:20:49.000Z</time>
      </trkpt>
      <trkpt lat="47.27019" lon="-2.31042">
        <ele>25</ele>
        <time>2022-07-10T07:20:50.000Z</time>
      </trkpt>
      <trkpt lat="47.27023" lon="-2.31038">
        <ele>24.60000038147</ele>
        <time>2022-07-10T07:20:51.000Z</time>
      </trkpt>
      <trkpt lat="47.27034" lon="-2.31026">
        <ele>24.60000038147</ele>
        <time>2022-07-10T07:20:54.000Z</time>
      </trkpt>
      <trkpt lat="47.27046" lon="-2.31012">
        <ele>24.200000762939</ele>
        <time>2022-07-10T07:20:57.000Z</time>
      </trkpt>
      <trkpt lat="47.2705" lon="-2.31008">
        <ele>23.799999237061</ele>
        <time>2022-07-10T07:20:58.000Z</time>
      </trkpt>
      <trkpt lat="47.27052" lon="-2.31003">
        <ele>23.39999961853</ele>
        <time>2022-07-10T07:20:59.000Z</time>
      </trkpt>
      <trkpt lat="47.27053" lon="-2.30997">
        <ele>23</ele>
        <time>2022-07-10T07:21:00.000Z</time>
      </trkpt>
      <trkpt lat="47.27053" lon="-2.30991">
        <ele>22.60000038147</ele>
        <time>2022-07-10T07:21:01.000Z</time>
      </trkpt>
      <trkpt lat="47.27051" lon="-2.30975">
        <ele>22.60000038147</ele>
        <time>2022-07-10T07:21:04.000Z</time>
      </trkpt>
      <trkpt lat="47.27049" lon="-2.30945">
        <ele>22.60000038147</ele>
        <time>2022-07-10T07:21:10.000Z</time>
      </trkpt>
      <trkpt lat="47.27047" lon="-2.30938">
        <ele>22.60000038147</ele>
        <time>2022-07-10T07:21:12.000Z</time>
      </trkpt>
      <trkpt lat="47.27045" lon="-2.30928">
        <ele>22.60000038147</ele>
        <time>2022-07-10T07:21:15.000Z</time>
      </trkpt>
      <trkpt lat="47.27044" lon="-2.30924">
        <ele>22.60000038147</ele>
        <time>2022-07-10T07:21:20.000Z</time>
      </trkpt>
      <trkpt lat="47.27041" lon="-2.30903">
        <ele>22.60000038147</ele>
        <time>2022-07-10T07:21:25.000Z</time>
      </trkpt>
      <trkpt lat="47.27034" lon="-2.30887">
        <ele>22.60000038147</ele>
        <time>2022-07-10T07:21:28.000Z</time>
      </trkpt>
      <trkpt lat="47.27032" lon="-2.3088">
        <ele>22.60000038147</ele>
        <time>2022-07-10T07:21:29.000Z</time>
      </trkpt>
      <trkpt lat="47.27015" lon="-2.30848">
        <ele>22.60000038147</ele>
        <time>2022-07-10T07:21:35.000Z</time>
      </trkpt>
      <trkpt lat="47.26997" lon="-2.30815">
        <ele>22.60000038147</ele>
        <time>2022-07-10T07:21:41.000Z</time>
      </trkpt>
      <trkpt lat="47.26989" lon="-2.30803">
        <ele>23</ele>
        <time>2022-07-10T07:21:44.000Z</time>
      </trkpt>
      <trkpt lat="47.26986" lon="-2.30799">
        <ele>23.39999961853</ele>
        <time>2022-07-10T07:21:45.000Z</time>
      </trkpt>
      <trkpt lat="47.26983" lon="-2.30794">
        <ele>23.799999237061</ele>
        <time>2022-07-10T07:21:46.000Z</time>
      </trkpt>
      <trkpt lat="47.2698" lon="-2.30789">
        <ele>24.200000762939</ele>
        <time>2022-07-10T07:21:47.000Z</time>
      </trkpt>
      <trkpt lat="47.26977" lon="-2.30785">
        <ele>24.799999237061</ele>
        <time>2022-07-10T07:21:48.000Z</time>
      </trkpt>
      <trkpt lat="47.26963" lon="-2.30764">
        <ele>24.799999237061</ele>
        <time>2022-07-10T07:21:53.000Z</time>
      </trkpt>
      <trkpt lat="47.26957" lon="-2.30756">
        <ele>25.200000762939</ele>
        <time>2022-07-10T07:21:55.000Z</time>
      </trkpt>
      <trkpt lat="47.26954" lon="-2.30752">
        <ele>25.60000038147</ele>
        <time>2022-07-10T07:21:56.000Z</time>
      </trkpt>
      <trkpt lat="47.2695" lon="-2.30748">
        <ele>26</ele>
        <time>2022-07-10T07:21:57.000Z</time>
      </trkpt>
      <trkpt lat="47.26948" lon="-2.30744">
        <ele>26.39999961853</ele>
        <time>2022-07-10T07:21:58.000Z</time>
      </trkpt>
      <trkpt lat="47.26945" lon="-2.30739">
        <ele>26.799999237061</ele>
        <time>2022-07-10T07:21:59.000Z</time>
      </trkpt>
      <trkpt lat="47.2693" lon="-2.30711">
        <ele>27.60000038147</ele>
        <time>2022-07-10T07:22:05.000Z</time>
      </trkpt>
      <trkpt lat="47.26928" lon="-2.30707">
        <ele>28</ele>
        <time>2022-07-10T07:22:06.000Z</time>
      </trkpt>
      <trkpt lat="47.26926" lon="-2.30704">
        <ele>28.39999961853</ele>
        <time>2022-07-10T07:22:07.000Z</time>
      </trkpt>
      <trkpt lat="47.26923" lon="-2.307">
        <ele>28.799999237061</ele>
        <time>2022-07-10T07:22:08.000Z</time>
      </trkpt>
      <trkpt lat="47.26914" lon="-2.30687">
        <ele>28.799999237061</ele>
        <time>2022-07-10T07:22:11.000Z</time>
      </trkpt>
      <trkpt lat="47.269" lon="-2.30668">
        <ele>28.799999237061</ele>
        <time>2022-07-10T07:22:17.000Z</time>
      </trkpt>
      <trkpt lat="47.26897" lon="-2.30667">
        <ele>28.799999237061</ele>
        <time>2022-07-10T07:22:18.000Z</time>
      </trkpt>
      <trkpt lat="47.26889" lon="-2.30672">
        <ele>28.799999237061</ele>
        <time>2022-07-10T07:22:21.000Z</time>
      </trkpt>
      <trkpt lat="47.26886" lon="-2.30674">
        <ele>28.799999237061</ele>
        <time>2022-07-10T07:22:22.000Z</time>
      </trkpt>
      <trkpt lat="47.26873" lon="-2.30694">
        <ele>28.799999237061</ele>
        <time>2022-07-10T07:22:27.000Z</time>
      </trkpt>
      <trkpt lat="47.26852" lon="-2.30739">
        <ele>28.799999237061</ele>
        <time>2022-07-10T07:22:35.000Z</time>
      </trkpt>
      <trkpt lat="47.26835" lon="-2.30776">
        <ele>28.799999237061</ele>
        <time>2022-07-10T07:22:42.000Z</time>
      </trkpt>
      <trkpt lat="47.26827" lon="-2.30791">
        <ele>28.799999237061</ele>
        <time>2022-07-10T07:22:45.000Z</time>
      </trkpt>
      <trkpt lat="47.26819" lon="-2.30798">
        <ele>28.799999237061</ele>
        <time>2022-07-10T07:22:47.000Z</time>
      </trkpt>
      <trkpt lat="47.2681" lon="-2.30804">
        <ele>28.799999237061</ele>
        <time>2022-07-10T07:22:49.000Z</time>
      </trkpt>
      <trkpt lat="47.26798" lon="-2.30815">
        <ele>28.799999237061</ele>
        <time>2022-07-10T07:22:52.000Z</time>
      </trkpt>
      <trkpt lat="47.26764" lon="-2.30851">
        <ele>28.799999237061</ele>
        <time>2022-07-10T07:23:00.000Z</time>
      </trkpt>
      <trkpt lat="47.26741" lon="-2.30871">
        <ele>28.799999237061</ele>
        <time>2022-07-10T07:23:05.000Z</time>
      </trkpt>
      <trkpt lat="47.26737" lon="-2.3087">
        <ele>28.799999237061</ele>
        <time>2022-07-10T07:23:06.000Z</time>
      </trkpt>
      <trkpt lat="47.26724" lon="-2.30854">
        <ele>28.799999237061</ele>
        <time>2022-07-10T07:23:09.000Z</time>
      </trkpt>
      <trkpt lat="47.2672" lon="-2.30848">
        <ele>28.799999237061</ele>
        <time>2022-07-10T07:23:10.000Z</time>
      </trkpt>
      <trkpt lat="47.26705" lon="-2.30814">
        <ele>28.799999237061</ele>
        <time>2022-07-10T07:23:15.000Z</time>
      </trkpt>
      <trkpt lat="47.26682" lon="-2.30755">
        <ele>28.799999237061</ele>
        <time>2022-07-10T07:23:22.000Z</time>
      </trkpt>
      <trkpt lat="47.26671" lon="-2.30729">
        <ele>28.39999961853</ele>
        <time>2022-07-10T07:23:25.000Z</time>
      </trkpt>
      <trkpt lat="47.26667" lon="-2.30721">
        <ele>28</ele>
        <time>2022-07-10T07:23:26.000Z</time>
      </trkpt>
      <trkpt lat="47.26664" lon="-2.30713">
        <ele>27.60000038147</ele>
        <time>2022-07-10T07:23:27.000Z</time>
      </trkpt>
      <trkpt lat="47.26661" lon="-2.30706">
        <ele>27.200000762939</ele>
        <time>2022-07-10T07:23:28.000Z</time>
      </trkpt>
      <trkpt lat="47.26658" lon="-2.307">
        <ele>26.60000038147</ele>
        <time>2022-07-10T07:23:29.000Z</time>
      </trkpt>
      <trkpt lat="47.2665" lon="-2.30691">
        <ele>26.60000038147</ele>
        <time>2022-07-10T07:23:32.000Z</time>
      </trkpt>
      <trkpt lat="47.26643" lon="-2.30703">
        <ele>26.60000038147</ele>
        <time>2022-07-10T07:23:35.000Z</time>
      </trkpt>
      <trkpt lat="47.26638" lon="-2.30718">
        <ele>26.200000762939</ele>
        <time>2022-07-10T07:23:38.000Z</time>
      </trkpt>
      <trkpt lat="47.26636" lon="-2.30722">
        <ele>25.799999237061</ele>
        <time>2022-07-10T07:23:39.000Z</time>
      </trkpt>
      <trkpt lat="47.26633" lon="-2.30725">
        <ele>25.39999961853</ele>
        <time>2022-07-10T07:23:40.000Z</time>
      </trkpt>
      <trkpt lat="47.2663" lon="-2.3073">
        <ele>25</ele>
        <time>2022-07-10T07:23:41.000Z</time>
      </trkpt>
      <trkpt lat="47.26628" lon="-2.30734">
        <ele>24.60000038147</ele>
        <time>2022-07-10T07:23:42.000Z</time>
      </trkpt>
      <trkpt lat="47.26624" lon="-2.3074">
        <ele>24.60000038147</ele>
        <time>2022-07-10T07:23:44.000Z</time>
      </trkpt>
      <trkpt lat="47.26623" lon="-2.30745">
        <ele>24.60000038147</ele>
        <time>2022-07-10T07:23:45.000Z</time>
      </trkpt>
      <trkpt lat="47.26622" lon="-2.30754">
        <ele>24.60000038147</ele>
        <time>2022-07-10T07:23:48.000Z</time>
      </trkpt>
      <trkpt lat="47.26618" lon="-2.30759">
        <ele>24.60000038147</ele>
        <time>2022-07-10T07:23:50.000Z</time>
      </trkpt>
      <trkpt lat="47.26614" lon="-2.30767">
        <ele>24.60000038147</ele>
        <time>2022-07-10T07:23:53.000Z</time>
      </trkpt>
      <trkpt lat="47.26613" lon="-2.30769">
        <ele>24.200000762939</ele>
        <time>2022-07-10T07:23:54.000Z</time>
      </trkpt>
      <trkpt lat="47.26607" lon="-2.30775">
        <ele>23.799999237061</ele>
        <time>2022-07-10T07:23:55.000Z</time>
      </trkpt>
      <trkpt lat="47.26605" lon="-2.30778">
        <ele>23.39999961853</ele>
        <time>2022-07-10T07:23:56.000Z</time>
      </trkpt>
      <trkpt lat="47.26601" lon="-2.30781">
        <ele>23</ele>
        <time>2022-07-10T07:23:57.000Z</time>
      </trkpt>
      <trkpt lat="47.26597" lon="-2.30786">
        <ele>22.60000038147</ele>
        <time>2022-07-10T07:23:58.000Z</time>
      </trkpt>
      <trkpt lat="47.26593" lon="-2.30792">
        <ele>22.60000038147</ele>
        <time>2022-07-10T07:23:59.000Z</time>
      </trkpt>
      <trkpt lat="47.26587" lon="-2.30804">
        <ele>22.60000038147</ele>
        <time>2022-07-10T07:24:01.000Z</time>
      </trkpt>
      <trkpt lat="47.26581" lon="-2.30817">
        <ele>22.60000038147</ele>
        <time>2022-07-10T07:24:03.000Z</time>
      </trkpt>
      <trkpt lat="47.26579" lon="-2.3082">
        <ele>22.200000762939</ele>
        <time>2022-07-10T07:24:04.000Z</time>
      </trkpt>
      <trkpt lat="47.26577" lon="-2.30822">
        <ele>21.799999237061</ele>
        <time>2022-07-10T07:24:05.000Z</time>
      </trkpt>
      <trkpt lat="47.26575" lon="-2.30823">
        <ele>21.39999961853</ele>
        <time>2022-07-10T07:24:06.000Z</time>
      </trkpt>
      <trkpt lat="47.26572" lon="-2.30827">
        <ele>21</ele>
        <time>2022-07-10T07:24:07.000Z</time>
      </trkpt>
      <trkpt lat="47.2657" lon="-2.3083">
        <ele>20.60000038147</ele>
        <time>2022-07-10T07:24:08.000Z</time>
      </trkpt>
      <trkpt lat="47.26564" lon="-2.30844">
        <ele>20.60000038147</ele>
        <time>2022-07-10T07:24:12.000Z</time>
      </trkpt>
      <trkpt lat="47.26555" lon="-2.30854">
        <ele>20.60000038147</ele>
        <time>2022-07-10T07:24:14.000Z</time>
      </trkpt>
      <trkpt lat="47.26542" lon="-2.30865">
        <ele>20.60000038147</ele>
        <time>2022-07-10T07:24:16.000Z</time>
      </trkpt>
      <trkpt lat="47.26532" lon="-2.30872">
        <ele>20.200000762939</ele>
        <time>2022-07-10T07:24:18.000Z</time>
      </trkpt>
      <trkpt lat="47.26528" lon="-2.30874">
        <ele>19.799999237061</ele>
        <time>2022-07-10T07:24:19.000Z</time>
      </trkpt>
      <trkpt lat="47.26524" lon="-2.30875">
        <ele>19.39999961853</ele>
        <time>2022-07-10T07:24:20.000Z</time>
      </trkpt>
      <trkpt lat="47.26521" lon="-2.30874">
        <ele>19</ele>
        <time>2022-07-10T07:24:21.000Z</time>
      </trkpt>
      <trkpt lat="47.26517" lon="-2.30872">
        <ele>18.39999961853</ele>
        <time>2022-07-10T07:24:22.000Z</time>
      </trkpt>
      <trkpt lat="47.26506" lon="-2.30866">
        <ele>18.39999961853</ele>
        <time>2022-07-10T07:24:25.000Z</time>
      </trkpt>
      <trkpt lat="47.26502" lon="-2.30861">
        <ele>19</ele>
        <time>2022-07-10T07:24:27.000Z</time>
      </trkpt>
      <trkpt lat="47.265" lon="-2.30859">
        <ele>19.39999961853</ele>
        <time>2022-07-10T07:24:28.000Z</time>
      </trkpt>
      <trkpt lat="47.26498" lon="-2.30857">
        <ele>19.799999237061</ele>
        <time>2022-07-10T07:24:29.000Z</time>
      </trkpt>
      <trkpt lat="47.26497" lon="-2.30856">
        <ele>20.200000762939</ele>
        <time>2022-07-10T07:24:30.000Z</time>
      </trkpt>
      <trkpt lat="47.26496" lon="-2.30854">
        <ele>20.60000038147</ele>
        <time>2022-07-10T07:24:31.000Z</time>
      </trkpt>
      <trkpt lat="47.26487" lon="-2.30842">
        <ele>21.200000762939</ele>
        <time>2022-07-10T07:24:34.000Z</time>
      </trkpt>
      <trkpt lat="47.26484" lon="-2.30837">
        <ele>21.60000038147</ele>
        <time>2022-07-10T07:24:35.000Z</time>
      </trkpt>
      <trkpt lat="47.26482" lon="-2.30834">
        <ele>22</ele>
        <time>2022-07-10T07:24:36.000Z</time>
      </trkpt>
      <trkpt lat="47.2648" lon="-2.30831">
        <ele>22.39999961853</ele>
        <time>2022-07-10T07:24:37.000Z</time>
      </trkpt>
      <trkpt lat="47.26478" lon="-2.30827">
        <ele>22.799999237061</ele>
        <time>2022-07-10T07:24:38.000Z</time>
      </trkpt>
      <trkpt lat="47.26473" lon="-2.30815">
        <ele>22.799999237061</ele>
        <time>2022-07-10T07:24:41.000Z</time>
      </trkpt>
      <trkpt lat="47.26469" lon="-2.30808">
        <ele>23.39999961853</ele>
        <time>2022-07-10T07:24:43.000Z</time>
      </trkpt>
      <trkpt lat="47.26466" lon="-2.30803">
        <ele>23.799999237061</ele>
        <time>2022-07-10T07:24:44.000Z</time>
      </trkpt>
      <trkpt lat="47.26464" lon="-2.30799">
        <ele>24.200000762939</ele>
        <time>2022-07-10T07:24:45.000Z</time>
      </trkpt>
      <trkpt lat="47.26463" lon="-2.30794">
        <ele>24.60000038147</ele>
        <time>2022-07-10T07:24:46.000Z</time>
      </trkpt>
      <trkpt lat="47.26461" lon="-2.3079">
        <ele>25</ele>
        <time>2022-07-10T07:24:47.000Z</time>
      </trkpt>
      <trkpt lat="47.26448" lon="-2.30757">
        <ele>25</ele>
        <time>2022-07-10T07:24:54.000Z</time>
      </trkpt>
      <trkpt lat="47.26438" lon="-2.30733">
        <ele>25</ele>
        <time>2022-07-10T07:24:59.000Z</time>
      </trkpt>
      <trkpt lat="47.26428" lon="-2.30708">
        <ele>25.39999961853</ele>
        <time>2022-07-10T07:25:05.000Z</time>
      </trkpt>
      <trkpt lat="47.26426" lon="-2.30705">
        <ele>25.799999237061</ele>
        <time>2022-07-10T07:25:06.000Z</time>
      </trkpt>
      <trkpt lat="47.26424" lon="-2.30701">
        <ele>26.200000762939</ele>
        <time>2022-07-10T07:25:07.000Z</time>
      </trkpt>
      <trkpt lat="47.26423" lon="-2.30696">
        <ele>26.60000038147</ele>
        <time>2022-07-10T07:25:08.000Z</time>
      </trkpt>
      <trkpt lat="47.26422" lon="-2.30692">
        <ele>27</ele>
        <time>2022-07-10T07:25:09.000Z</time>
      </trkpt>
      <trkpt lat="47.26419" lon="-2.30689">
        <ele>27</ele>
        <time>2022-07-10T07:25:10.000Z</time>
      </trkpt>
      <trkpt lat="47.26403" lon="-2.30676">
        <ele>27</ele>
        <time>2022-07-10T07:25:15.000Z</time>
      </trkpt>
      <trkpt lat="47.2639" lon="-2.30667">
        <ele>27</ele>
        <time>2022-07-10T07:25:18.000Z</time>
      </trkpt>
      <trkpt lat="47.26382" lon="-2.3066">
        <ele>27</ele>
        <time>2022-07-10T07:25:20.000Z</time>
      </trkpt>
      <trkpt lat="47.26378" lon="-2.30655">
        <ele>27</ele>
        <time>2022-07-10T07:25:21.000Z</time>
      </trkpt>
      <trkpt lat="47.26367" lon="-2.30635">
        <ele>27</ele>
        <time>2022-07-10T07:25:25.000Z</time>
      </trkpt>
      <trkpt lat="47.26357" lon="-2.30613">
        <ele>27</ele>
        <time>2022-07-10T07:25:29.000Z</time>
      </trkpt>
      <trkpt lat="47.26351" lon="-2.30603">
        <ele>27</ele>
        <time>2022-07-10T07:25:31.000Z</time>
      </trkpt>
      <trkpt lat="47.26344" lon="-2.30579">
        <ele>27</ele>
        <time>2022-07-10T07:25:36.000Z</time>
      </trkpt>
      <trkpt lat="47.26342" lon="-2.3055">
        <ele>27</ele>
        <time>2022-07-10T07:25:42.000Z</time>
      </trkpt>
      <trkpt lat="47.26339" lon="-2.30533">
        <ele>27.39999961853</ele>
        <time>2022-07-10T07:25:45.000Z</time>
      </trkpt>
      <trkpt lat="47.26338" lon="-2.30527">
        <ele>27.799999237061</ele>
        <time>2022-07-10T07:25:46.000Z</time>
      </trkpt>
      <trkpt lat="47.26337" lon="-2.30521">
        <ele>28.39999961853</ele>
        <time>2022-07-10T07:25:47.000Z</time>
      </trkpt>
      <trkpt lat="47.26335" lon="-2.30515">
        <ele>29.200000762939</ele>
        <time>2022-07-10T07:25:48.000Z</time>
      </trkpt>
      <trkpt lat="47.26325" lon="-2.30459">
        <ele>29.200000762939</ele>
        <time>2022-07-10T07:25:56.000Z</time>
      </trkpt>
      <trkpt lat="47.26311" lon="-2.30399">
        <ele>29.200000762939</ele>
        <time>2022-07-10T07:26:05.000Z</time>
      </trkpt>
      <trkpt lat="47.26304" lon="-2.30353">
        <ele>29.200000762939</ele>
        <time>2022-07-10T07:26:11.000Z</time>
      </trkpt>
      <trkpt lat="47.26296" lon="-2.30317">
        <ele>29.200000762939</ele>
        <time>2022-07-10T07:26:16.000Z</time>
      </trkpt>
      <trkpt lat="47.2629" lon="-2.30304">
        <ele>29.200000762939</ele>
        <time>2022-07-10T07:26:18.000Z</time>
      </trkpt>
      <trkpt lat="47.26288" lon="-2.30297">
        <ele>29.200000762939</ele>
        <time>2022-07-10T07:26:19.000Z</time>
      </trkpt>
      <trkpt lat="47.26282" lon="-2.3027">
        <ele>29.200000762939</ele>
        <time>2022-07-10T07:26:23.000Z</time>
      </trkpt>
      <trkpt lat="47.26272" lon="-2.30211">
        <ele>29.200000762939</ele>
        <time>2022-07-10T07:26:31.000Z</time>
      </trkpt>
      <trkpt lat="47.26271" lon="-2.30205">
        <ele>29.200000762939</ele>
        <time>2022-07-10T07:26:32.000Z</time>
      </trkpt>
      <trkpt lat="47.26266" lon="-2.30172">
        <ele>29.200000762939</ele>
        <time>2022-07-10T07:26:37.000Z</time>
      </trkpt>
      <trkpt lat="47.26262" lon="-2.30159">
        <ele>29.200000762939</ele>
        <time>2022-07-10T07:26:39.000Z</time>
      </trkpt>
      <trkpt lat="47.26252" lon="-2.30139">
        <ele>29.60000038147</ele>
        <time>2022-07-10T07:26:43.000Z</time>
      </trkpt>
      <trkpt lat="47.26249" lon="-2.30134">
        <ele>30</ele>
        <time>2022-07-10T07:26:44.000Z</time>
      </trkpt>
      <trkpt lat="47.26246" lon="-2.30131">
        <ele>30.39999961853</ele>
        <time>2022-07-10T07:26:45.000Z</time>
      </trkpt>
      <trkpt lat="47.26242" lon="-2.3013">
        <ele>30.799999237061</ele>
        <time>2022-07-10T07:26:46.000Z</time>
      </trkpt>
      <trkpt lat="47.26237" lon="-2.30133">
        <ele>31.200000762939</ele>
        <time>2022-07-10T07:26:47.000Z</time>
      </trkpt>
      <trkpt lat="47.26211" lon="-2.30144">
        <ele>31.200000762939</ele>
        <time>2022-07-10T07:26:52.000Z</time>
      </trkpt>
      <trkpt lat="47.26179" lon="-2.30156">
        <ele>31.200000762939</ele>
        <time>2022-07-10T07:26:58.000Z</time>
      </trkpt>
      <trkpt lat="47.26176" lon="-2.30156">
        <ele>30.799999237061</ele>
        <time>2022-07-10T07:26:59.000Z</time>
      </trkpt>
      <trkpt lat="47.26174" lon="-2.30153">
        <ele>30.39999961853</ele>
        <time>2022-07-10T07:27:00.000Z</time>
      </trkpt>
      <trkpt lat="47.26172" lon="-2.3015">
        <ele>30</ele>
        <time>2022-07-10T07:27:01.000Z</time>
      </trkpt>
      <trkpt lat="47.26171" lon="-2.30146">
        <ele>29</ele>
        <time>2022-07-10T07:27:02.000Z</time>
      </trkpt>
      <trkpt lat="47.26167" lon="-2.30145">
        <ele>29</ele>
        <time>2022-07-10T07:27:04.000Z</time>
      </trkpt>
      <trkpt lat="47.26164" lon="-2.30145">
        <ele>29</ele>
        <time>2022-07-10T07:27:05.000Z</time>
      </trkpt>
      <trkpt lat="47.26144" lon="-2.30153">
        <ele>29</ele>
        <time>2022-07-10T07:27:10.000Z</time>
      </trkpt>
      <trkpt lat="47.26138" lon="-2.30155">
        <ele>28.60000038147</ele>
        <time>2022-07-10T07:27:11.000Z</time>
      </trkpt>
      <trkpt lat="47.26133" lon="-2.30157">
        <ele>28.200000762939</ele>
        <time>2022-07-10T07:27:12.000Z</time>
      </trkpt>
      <trkpt lat="47.26127" lon="-2.30158">
        <ele>27.799999237061</ele>
        <time>2022-07-10T07:27:13.000Z</time>
      </trkpt>
      <trkpt lat="47.26122" lon="-2.3016">
        <ele>27.200000762939</ele>
        <time>2022-07-10T07:27:14.000Z</time>
      </trkpt>
      <trkpt lat="47.26117" lon="-2.30161">
        <ele>26.799999237061</ele>
        <time>2022-07-10T07:27:15.000Z</time>
      </trkpt>
      <trkpt lat="47.26112" lon="-2.30162">
        <ele>26.39999961853</ele>
        <time>2022-07-10T07:27:16.000Z</time>
      </trkpt>
      <trkpt lat="47.26109" lon="-2.30163">
        <ele>26</ele>
        <time>2022-07-10T07:27:17.000Z</time>
      </trkpt>
      <trkpt lat="47.26106" lon="-2.30162">
        <ele>25.60000038147</ele>
        <time>2022-07-10T07:27:18.000Z</time>
      </trkpt>
      <trkpt lat="47.26104" lon="-2.3016">
        <ele>25.200000762939</ele>
        <time>2022-07-10T07:27:19.000Z</time>
      </trkpt>
      <trkpt lat="47.26103" lon="-2.30156">
        <ele>24.799999237061</ele>
        <time>2022-07-10T07:27:20.000Z</time>
      </trkpt>
      <trkpt lat="47.26098" lon="-2.3015">
        <ele>24.799999237061</ele>
        <time>2022-07-10T07:27:23.000Z</time>
      </trkpt>
      <trkpt lat="47.26094" lon="-2.3015">
        <ele>24.799999237061</ele>
        <time>2022-07-10T07:27:25.000Z</time>
      </trkpt>
      <trkpt lat="47.26086" lon="-2.30151">
        <ele>24.39999961853</ele>
        <time>2022-07-10T07:27:27.000Z</time>
      </trkpt>
      <trkpt lat="47.26082" lon="-2.3015">
        <ele>24</ele>
        <time>2022-07-10T07:27:28.000Z</time>
      </trkpt>
      <trkpt lat="47.26078" lon="-2.30147">
        <ele>23.60000038147</ele>
        <time>2022-07-10T07:27:29.000Z</time>
      </trkpt>
      <trkpt lat="47.26074" lon="-2.30143">
        <ele>23</ele>
        <time>2022-07-10T07:27:30.000Z</time>
      </trkpt>
      <trkpt lat="47.26069" lon="-2.30139">
        <ele>22.60000038147</ele>
        <time>2022-07-10T07:27:31.000Z</time>
      </trkpt>
      <trkpt lat="47.26064" lon="-2.30138">
        <ele>22.60000038147</ele>
        <time>2022-07-10T07:27:32.000Z</time>
      </trkpt>
      <trkpt lat="47.26053" lon="-2.30141">
        <ele>22.60000038147</ele>
        <time>2022-07-10T07:27:34.000Z</time>
      </trkpt>
      <trkpt lat="47.26036" lon="-2.30143">
        <ele>22.60000038147</ele>
        <time>2022-07-10T07:27:37.000Z</time>
      </trkpt>
      <trkpt lat="47.26022" lon="-2.3014">
        <ele>22.200000762939</ele>
        <time>2022-07-10T07:27:40.000Z</time>
      </trkpt>
      <trkpt lat="47.26017" lon="-2.3014">
        <ele>21.799999237061</ele>
        <time>2022-07-10T07:27:41.000Z</time>
      </trkpt>
      <trkpt lat="47.26012" lon="-2.3014">
        <ele>21.39999961853</ele>
        <time>2022-07-10T07:27:42.000Z</time>
      </trkpt>
      <trkpt lat="47.26006" lon="-2.30141">
        <ele>21</ele>
        <time>2022-07-10T07:27:43.000Z</time>
      </trkpt>
      <trkpt lat="47.26" lon="-2.30142">
        <ele>20.39999961853</ele>
        <time>2022-07-10T07:27:44.000Z</time>
      </trkpt>
      <trkpt lat="47.25982" lon="-2.30145">
        <ele>20.39999961853</ele>
        <time>2022-07-10T07:27:47.000Z</time>
      </trkpt>
      <trkpt lat="47.25975" lon="-2.30149">
        <ele>19.60000038147</ele>
        <time>2022-07-10T07:27:48.000Z</time>
      </trkpt>
      <trkpt lat="47.25965" lon="-2.30159">
        <ele>19.200000762939</ele>
        <time>2022-07-10T07:27:50.000Z</time>
      </trkpt>
      <trkpt lat="47.25959" lon="-2.30164">
        <ele>18.39999961853</ele>
        <time>2022-07-10T07:27:51.000Z</time>
      </trkpt>
      <trkpt lat="47.25942" lon="-2.30169">
        <ele>18.39999961853</ele>
        <time>2022-07-10T07:27:54.000Z</time>
      </trkpt>
      <trkpt lat="47.25936" lon="-2.30169">
        <ele>18.39999961853</ele>
        <time>2022-07-10T07:27:55.000Z</time>
      </trkpt>
      <trkpt lat="47.25919" lon="-2.3017">
        <ele>18.39999961853</ele>
        <time>2022-07-10T07:27:59.000Z</time>
      </trkpt>
      <trkpt lat="47.25901" lon="-2.30174">
        <ele>18.39999961853</ele>
        <time>2022-07-10T07:28:05.000Z</time>
      </trkpt>
      <trkpt lat="47.25899" lon="-2.30177">
        <ele>18.799999237061</ele>
        <time>2022-07-10T07:28:06.000Z</time>
      </trkpt>
      <trkpt lat="47.25897" lon="-2.3018">
        <ele>19.200000762939</ele>
        <time>2022-07-10T07:28:07.000Z</time>
      </trkpt>
      <trkpt lat="47.25895" lon="-2.30185">
        <ele>19.60000038147</ele>
        <time>2022-07-10T07:28:08.000Z</time>
      </trkpt>
      <trkpt lat="47.25893" lon="-2.30189">
        <ele>20</ele>
        <time>2022-07-10T07:28:09.000Z</time>
      </trkpt>
      <trkpt lat="47.25892" lon="-2.30194">
        <ele>20.39999961853</ele>
        <time>2022-07-10T07:28:10.000Z</time>
      </trkpt>
      <trkpt lat="47.25892" lon="-2.30206">
        <ele>20.39999961853</ele>
        <time>2022-07-10T07:28:12.000Z</time>
      </trkpt>
      <trkpt lat="47.25893" lon="-2.30219">
        <ele>20.39999961853</ele>
        <time>2022-07-10T07:28:14.000Z</time>
      </trkpt>
      <trkpt lat="47.25896" lon="-2.30271">
        <ele>20.39999961853</ele>
        <time>2022-07-10T07:28:22.000Z</time>
      </trkpt>
      <trkpt lat="47.25896" lon="-2.3029">
        <ele>20.39999961853</ele>
        <time>2022-07-10T07:28:25.000Z</time>
      </trkpt>
      <trkpt lat="47.25891" lon="-2.30304">
        <ele>20.39999961853</ele>
        <time>2022-07-10T07:28:28.000Z</time>
      </trkpt>
      <trkpt lat="47.25877" lon="-2.30304">
        <ele>20.39999961853</ele>
        <time>2022-07-10T07:28:31.000Z</time>
      </trkpt>
      <trkpt lat="47.25864" lon="-2.3029">
        <ele>20.39999961853</ele>
        <time>2022-07-10T07:28:34.000Z</time>
      </trkpt>
      <trkpt lat="47.25858" lon="-2.30285">
        <ele>20.39999961853</ele>
        <time>2022-07-10T07:28:35.000Z</time>
      </trkpt>
      <trkpt lat="47.25833" lon="-2.30271">
        <ele>20.39999961853</ele>
        <time>2022-07-10T07:28:39.000Z</time>
      </trkpt>
      <trkpt lat="47.25781" lon="-2.30247">
        <ele>20.39999961853</ele>
        <time>2022-07-10T07:28:46.000Z</time>
      </trkpt>
      <trkpt lat="47.25744" lon="-2.30228">
        <ele>20.39999961853</ele>
        <time>2022-07-10T07:28:52.000Z</time>
      </trkpt>
      <trkpt lat="47.25721" lon="-2.30218">
        <ele>20.39999961853</ele>
        <time>2022-07-10T07:28:56.000Z</time>
      </trkpt>
      <trkpt lat="47.2571" lon="-2.30219">
        <ele>20.39999961853</ele>
        <time>2022-07-10T07:28:58.000Z</time>
      </trkpt>
      <trkpt lat="47.25693" lon="-2.30238">
        <ele>20.39999961853</ele>
        <time>2022-07-10T07:29:02.000Z</time>
      </trkpt>
      <trkpt lat="47.25688" lon="-2.30254">
        <ele>20.799999237061</ele>
        <time>2022-07-10T07:29:04.000Z</time>
      </trkpt>
      <trkpt lat="47.25687" lon="-2.30262">
        <ele>21.60000038147</ele>
        <time>2022-07-10T07:29:05.000Z</time>
      </trkpt>
      <trkpt lat="47.25687" lon="-2.3027">
        <ele>22</ele>
        <time>2022-07-10T07:29:06.000Z</time>
      </trkpt>
      <trkpt lat="47.25687" lon="-2.30278">
        <ele>22.39999961853</ele>
        <time>2022-07-10T07:29:07.000Z</time>
      </trkpt>
      <trkpt lat="47.25687" lon="-2.30285">
        <ele>22.39999961853</ele>
        <time>2022-07-10T07:29:08.000Z</time>
      </trkpt>
      <trkpt lat="47.25686" lon="-2.30301">
        <ele>22.39999961853</ele>
        <time>2022-07-10T07:29:10.000Z</time>
      </trkpt>
      <trkpt lat="47.25684" lon="-2.30307">
        <ele>22.39999961853</ele>
        <time>2022-07-10T07:29:11.000Z</time>
      </trkpt>
      <trkpt lat="47.25671" lon="-2.3032">
        <ele>22.39999961853</ele>
        <time>2022-07-10T07:29:14.000Z</time>
      </trkpt>
      <trkpt lat="47.25666" lon="-2.30323">
        <ele>22.39999961853</ele>
        <time>2022-07-10T07:29:15.000Z</time>
      </trkpt>
      <trkpt lat="47.25646" lon="-2.30338">
        <ele>22.39999961853</ele>
        <time>2022-07-10T07:29:19.000Z</time>
      </trkpt>
      <trkpt lat="47.25641" lon="-2.30342">
        <ele>22.39999961853</ele>
        <time>2022-07-10T07:29:20.000Z</time>
      </trkpt>
      <trkpt lat="47.25631" lon="-2.30338">
        <ele>22.39999961853</ele>
        <time>2022-07-10T07:29:23.000Z</time>
      </trkpt>
      <trkpt lat="47.25626" lon="-2.3032">
        <ele>22.39999961853</ele>
        <time>2022-07-10T07:29:26.000Z</time>
      </trkpt>
      <trkpt lat="47.25625" lon="-2.30312">
        <ele>22.39999961853</ele>
        <time>2022-07-10T07:29:27.000Z</time>
      </trkpt>
      <trkpt lat="47.25622" lon="-2.30272">
        <ele>22.39999961853</ele>
        <time>2022-07-10T07:29:32.000Z</time>
      </trkpt>
      <trkpt lat="47.25612" lon="-2.30225">
        <ele>22.39999961853</ele>
        <time>2022-07-10T07:29:38.000Z</time>
      </trkpt>
      <trkpt lat="47.25599" lon="-2.30202">
        <ele>22.39999961853</ele>
        <time>2022-07-10T07:29:42.000Z</time>
      </trkpt>
      <trkpt lat="47.25586" lon="-2.30191">
        <ele>22.39999961853</ele>
        <time>2022-07-10T07:29:45.000Z</time>
      </trkpt>
      <trkpt lat="47.25582" lon="-2.30188">
        <ele>22.39999961853</ele>
        <time>2022-07-10T07:29:46.000Z</time>
      </trkpt>
      <trkpt lat="47.25577" lon="-2.30186">
        <ele>22.39999961853</ele>
        <time>2022-07-10T07:29:47.000Z</time>
      </trkpt>
      <trkpt lat="47.25567" lon="-2.30183">
        <ele>22.39999961853</ele>
        <time>2022-07-10T07:29:49.000Z</time>
      </trkpt>
      <trkpt lat="47.25557" lon="-2.30185">
        <ele>22.39999961853</ele>
        <time>2022-07-10T07:29:51.000Z</time>
      </trkpt>
      <trkpt lat="47.25528" lon="-2.30197">
        <ele>22.39999961853</ele>
        <time>2022-07-10T07:29:57.000Z</time>
      </trkpt>
      <trkpt lat="47.25523" lon="-2.30198">
        <ele>22.799999237061</ele>
        <time>2022-07-10T07:29:58.000Z</time>
      </trkpt>
      <trkpt lat="47.25519" lon="-2.30198">
        <ele>23.200000762939</ele>
        <time>2022-07-10T07:29:59.000Z</time>
      </trkpt>
      <trkpt lat="47.25515" lon="-2.30199">
        <ele>23.60000038147</ele>
        <time>2022-07-10T07:30:00.000Z</time>
      </trkpt>
      <trkpt lat="47.25511" lon="-2.30199">
        <ele>24</ele>
        <time>2022-07-10T07:30:01.000Z</time>
      </trkpt>
      <trkpt lat="47.25507" lon="-2.302">
        <ele>24.39999961853</ele>
        <time>2022-07-10T07:30:02.000Z</time>
      </trkpt>
      <trkpt lat="47.25496" lon="-2.30208">
        <ele>24.39999961853</ele>
        <time>2022-07-10T07:30:05.000Z</time>
      </trkpt>
      <trkpt lat="47.2549" lon="-2.30216">
        <ele>24.39999961853</ele>
        <time>2022-07-10T07:30:07.000Z</time>
      </trkpt>
      <trkpt lat="47.25483" lon="-2.30233">
        <ele>24.39999961853</ele>
        <time>2022-07-10T07:30:10.000Z</time>
      </trkpt>
      <trkpt lat="47.25474" lon="-2.30246">
        <ele>24.39999961853</ele>
        <time>2022-07-10T07:30:14.000Z</time>
      </trkpt>
      <trkpt lat="47.25467" lon="-2.30244">
        <ele>24.39999961853</ele>
        <time>2022-07-10T07:30:16.000Z</time>
      </trkpt>
      <trkpt lat="47.25456" lon="-2.30241">
        <ele>24.39999961853</ele>
        <time>2022-07-10T07:30:19.000Z</time>
      </trkpt>
      <trkpt lat="47.25451" lon="-2.3024">
        <ele>24.799999237061</ele>
        <time>2022-07-10T07:30:20.000Z</time>
      </trkpt>
      <trkpt lat="47.25446" lon="-2.30239">
        <ele>25.200000762939</ele>
        <time>2022-07-10T07:30:21.000Z</time>
      </trkpt>
      <trkpt lat="47.25442" lon="-2.30238">
        <ele>25.60000038147</ele>
        <time>2022-07-10T07:30:22.000Z</time>
      </trkpt>
      <trkpt lat="47.25437" lon="-2.30237">
        <ele>26</ele>
        <time>2022-07-10T07:30:23.000Z</time>
      </trkpt>
      <trkpt lat="47.25432" lon="-2.30235">
        <ele>26.60000038147</ele>
        <time>2022-07-10T07:30:24.000Z</time>
      </trkpt>
      <trkpt lat="47.25427" lon="-2.30234">
        <ele>26.60000038147</ele>
        <time>2022-07-10T07:30:25.000Z</time>
      </trkpt>
      <trkpt lat="47.25416" lon="-2.30231">
        <ele>26.60000038147</ele>
        <time>2022-07-10T07:30:27.000Z</time>
      </trkpt>
      <trkpt lat="47.25394" lon="-2.30222">
        <ele>26.60000038147</ele>
        <time>2022-07-10T07:30:31.000Z</time>
      </trkpt>
      <trkpt lat="47.25379" lon="-2.30216">
        <ele>26.60000038147</ele>
        <time>2022-07-10T07:30:35.000Z</time>
      </trkpt>
      <trkpt lat="47.25375" lon="-2.30215">
        <ele>26.60000038147</ele>
        <time>2022-07-10T07:30:36.000Z</time>
      </trkpt>
      <trkpt lat="47.25361" lon="-2.30213">
        <ele>26.60000038147</ele>
        <time>2022-07-10T07:30:39.000Z</time>
      </trkpt>
      <trkpt lat="47.25351" lon="-2.30212">
        <ele>27</ele>
        <time>2022-07-10T07:30:41.000Z</time>
      </trkpt>
      <trkpt lat="47.25345" lon="-2.30212">
        <ele>27.39999961853</ele>
        <time>2022-07-10T07:30:42.000Z</time>
      </trkpt>
      <trkpt lat="47.2534" lon="-2.30212">
        <ele>27.799999237061</ele>
        <time>2022-07-10T07:30:43.000Z</time>
      </trkpt>
      <trkpt lat="47.25335" lon="-2.30212">
        <ele>28.60000038147</ele>
        <time>2022-07-10T07:30:44.000Z</time>
      </trkpt>
      <trkpt lat="47.2533" lon="-2.30211">
        <ele>28.60000038147</ele>
        <time>2022-07-10T07:30:45.000Z</time>
      </trkpt>
      <trkpt lat="47.25325" lon="-2.30209">
        <ele>28.60000038147</ele>
        <time>2022-07-10T07:30:46.000Z</time>
      </trkpt>
      <trkpt lat="47.2531" lon="-2.30209">
        <ele>28.60000038147</ele>
        <time>2022-07-10T07:30:50.000Z</time>
      </trkpt>
      <trkpt lat="47.25304" lon="-2.30211">
        <ele>28.60000038147</ele>
        <time>2022-07-10T07:30:52.000Z</time>
      </trkpt>
      <trkpt lat="47.25299" lon="-2.30208">
        <ele>28.60000038147</ele>
        <time>2022-07-10T07:30:54.000Z</time>
      </trkpt>
      <trkpt lat="47.25277" lon="-2.30199">
        <ele>28.60000038147</ele>
        <time>2022-07-10T07:31:00.000Z</time>
      </trkpt>
      <trkpt lat="47.25265" lon="-2.30193">
        <ele>29</ele>
        <time>2022-07-10T07:31:03.000Z</time>
      </trkpt>
      <trkpt lat="47.25261" lon="-2.30191">
        <ele>29.39999961853</ele>
        <time>2022-07-10T07:31:04.000Z</time>
      </trkpt>
      <trkpt lat="47.25257" lon="-2.30189">
        <ele>30</ele>
        <time>2022-07-10T07:31:05.000Z</time>
      </trkpt>
      <trkpt lat="47.25254" lon="-2.30187">
        <ele>30.39999961853</ele>
        <time>2022-07-10T07:31:06.000Z</time>
      </trkpt>
      <trkpt lat="47.25251" lon="-2.30186">
        <ele>30.799999237061</ele>
        <time>2022-07-10T07:31:07.000Z</time>
      </trkpt>
      <trkpt lat="47.25228" lon="-2.30178">
        <ele>30.799999237061</ele>
        <time>2022-07-10T07:31:14.000Z</time>
      </trkpt>
      <trkpt lat="47.25221" lon="-2.30172">
        <ele>31.200000762939</ele>
        <time>2022-07-10T07:31:16.000Z</time>
      </trkpt>
      <trkpt lat="47.25217" lon="-2.30168">
        <ele>31.60000038147</ele>
        <time>2022-07-10T07:31:17.000Z</time>
      </trkpt>
      <trkpt lat="47.25213" lon="-2.30164">
        <ele>32</ele>
        <time>2022-07-10T07:31:18.000Z</time>
      </trkpt>
      <trkpt lat="47.25208" lon="-2.30159">
        <ele>32.400001525879</ele>
        <time>2022-07-10T07:31:19.000Z</time>
      </trkpt>
      <trkpt lat="47.25203" lon="-2.30154">
        <ele>32.799999237061</ele>
        <time>2022-07-10T07:31:20.000Z</time>
      </trkpt>
      <trkpt lat="47.25199" lon="-2.3015">
        <ele>32.799999237061</ele>
        <time>2022-07-10T07:31:21.000Z</time>
      </trkpt>
      <trkpt lat="47.2519" lon="-2.30133">
        <ele>32.799999237061</ele>
        <time>2022-07-10T07:31:24.000Z</time>
      </trkpt>
      <trkpt lat="47.25177" lon="-2.3012">
        <ele>32.799999237061</ele>
        <time>2022-07-10T07:31:28.000Z</time>
      </trkpt>
      <trkpt lat="47.25159" lon="-2.30126">
        <ele>32.799999237061</ele>
        <time>2022-07-10T07:31:32.000Z</time>
      </trkpt>
      <trkpt lat="47.25149" lon="-2.30129">
        <ele>33.200000762939</ele>
        <time>2022-07-10T07:31:34.000Z</time>
      </trkpt>
      <trkpt lat="47.25144" lon="-2.3013">
        <ele>33.599998474121</ele>
        <time>2022-07-10T07:31:35.000Z</time>
      </trkpt>
      <trkpt lat="47.25139" lon="-2.30131">
        <ele>34</ele>
        <time>2022-07-10T07:31:36.000Z</time>
      </trkpt>
      <trkpt lat="47.25133" lon="-2.30132">
        <ele>34.400001525879</ele>
        <time>2022-07-10T07:31:37.000Z</time>
      </trkpt>
      <trkpt lat="47.25128" lon="-2.30132">
        <ele>34.799999237061</ele>
        <time>2022-07-10T07:31:38.000Z</time>
      </trkpt>
      <trkpt lat="47.25109" lon="-2.30136">
        <ele>34.799999237061</ele>
        <time>2022-07-10T07:31:42.000Z</time>
      </trkpt>
      <trkpt lat="47.25099" lon="-2.30138">
        <ele>34.799999237061</ele>
        <time>2022-07-10T07:31:44.000Z</time>
      </trkpt>
      <trkpt lat="47.2508" lon="-2.30138">
        <ele>34.799999237061</ele>
        <time>2022-07-10T07:31:48.000Z</time>
      </trkpt>
      <trkpt lat="47.25071" lon="-2.30129">
        <ele>34.799999237061</ele>
        <time>2022-07-10T07:31:51.000Z</time>
      </trkpt>
      <trkpt lat="47.25071" lon="-2.30117">
        <ele>35.200000762939</ele>
        <time>2022-07-10T07:31:53.000Z</time>
      </trkpt>
      <trkpt lat="47.25071" lon="-2.30111">
        <ele>35.799999237061</ele>
        <time>2022-07-10T07:31:54.000Z</time>
      </trkpt>
      <trkpt lat="47.25071" lon="-2.30105">
        <ele>36.200000762939</ele>
        <time>2022-07-10T07:31:55.000Z</time>
      </trkpt>
      <trkpt lat="47.25071" lon="-2.30098">
        <ele>36.599998474121</ele>
        <time>2022-07-10T07:31:56.000Z</time>
      </trkpt>
      <trkpt lat="47.25072" lon="-2.30092">
        <ele>37</ele>
        <time>2022-07-10T07:31:57.000Z</time>
      </trkpt>
      <trkpt lat="47.25073" lon="-2.30061">
        <ele>37</ele>
        <time>2022-07-10T07:32:02.000Z</time>
      </trkpt>
      <trkpt lat="47.25071" lon="-2.30058">
        <ele>37</ele>
        <time>2022-07-10T07:32:03.000Z</time>
      </trkpt>
      <trkpt lat="47.25068" lon="-2.30056">
        <ele>37</ele>
        <time>2022-07-10T07:32:04.000Z</time>
      </trkpt>
      <trkpt lat="47.2505" lon="-2.30054">
        <ele>37</ele>
        <time>2022-07-10T07:32:09.000Z</time>
      </trkpt>
      <trkpt lat="47.25024" lon="-2.30052">
        <ele>37</ele>
        <time>2022-07-10T07:32:15.000Z</time>
      </trkpt>
      <trkpt lat="47.24988" lon="-2.30053">
        <ele>37</ele>
        <time>2022-07-10T07:32:23.000Z</time>
      </trkpt>
      <trkpt lat="47.24973" lon="-2.30054">
        <ele>37.400001525879</ele>
        <time>2022-07-10T07:32:26.000Z</time>
      </trkpt>
      <trkpt lat="47.24968" lon="-2.30054">
        <ele>37.799999237061</ele>
        <time>2022-07-10T07:32:27.000Z</time>
      </trkpt>
      <trkpt lat="47.24962" lon="-2.30054">
        <ele>38.200000762939</ele>
        <time>2022-07-10T07:32:28.000Z</time>
      </trkpt>
      <trkpt lat="47.24957" lon="-2.30054">
        <ele>38.599998474121</ele>
        <time>2022-07-10T07:32:29.000Z</time>
      </trkpt>
      <trkpt lat="47.24951" lon="-2.30054">
        <ele>39</ele>
        <time>2022-07-10T07:32:30.000Z</time>
      </trkpt>
      <trkpt lat="47.24914" lon="-2.30054">
        <ele>39</ele>
        <time>2022-07-10T07:32:37.000Z</time>
      </trkpt>
      <trkpt lat="47.24906" lon="-2.30052">
        <ele>39</ele>
        <time>2022-07-10T07:32:39.000Z</time>
      </trkpt>
      <trkpt lat="47.24903" lon="-2.30047">
        <ele>39</ele>
        <time>2022-07-10T07:32:40.000Z</time>
      </trkpt>
      <trkpt lat="47.24902" lon="-2.30027">
        <ele>39</ele>
        <time>2022-07-10T07:32:43.000Z</time>
      </trkpt>
      <trkpt lat="47.24899" lon="-2.30006">
        <ele>39</ele>
        <time>2022-07-10T07:32:46.000Z</time>
      </trkpt>
      <trkpt lat="47.24897" lon="-2.29992">
        <ele>39</ele>
        <time>2022-07-10T07:32:48.000Z</time>
      </trkpt>
      <trkpt lat="47.2488" lon="-2.29927">
        <ele>39</ele>
        <time>2022-07-10T07:32:57.000Z</time>
      </trkpt>
      <trkpt lat="47.24877" lon="-2.29912">
        <ele>39</ele>
        <time>2022-07-10T07:32:59.000Z</time>
      </trkpt>
      <trkpt lat="47.24874" lon="-2.29882">
        <ele>39</ele>
        <time>2022-07-10T07:33:03.000Z</time>
      </trkpt>
      <trkpt lat="47.24865" lon="-2.29835">
        <ele>39</ele>
        <time>2022-07-10T07:33:10.000Z</time>
      </trkpt>
      <trkpt lat="47.24864" lon="-2.29831">
        <ele>39.400001525879</ele>
        <time>2022-07-10T07:33:11.000Z</time>
      </trkpt>
      <trkpt lat="47.24861" lon="-2.29829">
        <ele>39.799999237061</ele>
        <time>2022-07-10T07:33:12.000Z</time>
      </trkpt>
      <trkpt lat="47.24858" lon="-2.2983">
        <ele>40.599998474121</ele>
        <time>2022-07-10T07:33:13.000Z</time>
      </trkpt>
      <trkpt lat="47.24854" lon="-2.29832">
        <ele>41</ele>
        <time>2022-07-10T07:33:14.000Z</time>
      </trkpt>
      <trkpt lat="47.24842" lon="-2.29841">
        <ele>41</ele>
        <time>2022-07-10T07:33:17.000Z</time>
      </trkpt>
      <trkpt lat="47.24814" lon="-2.29851">
        <ele>41</ele>
        <time>2022-07-10T07:33:23.000Z</time>
      </trkpt>
      <trkpt lat="47.24798" lon="-2.29857">
        <ele>41</ele>
        <time>2022-07-10T07:33:26.000Z</time>
      </trkpt>
      <trkpt lat="47.24783" lon="-2.29866">
        <ele>41</ele>
        <time>2022-07-10T07:33:29.000Z</time>
      </trkpt>
      <trkpt lat="47.24749" lon="-2.29894">
        <ele>40.599998474121</ele>
        <time>2022-07-10T07:33:37.000Z</time>
      </trkpt>
      <trkpt lat="47.24746" lon="-2.29898">
        <ele>40.200000762939</ele>
        <time>2022-07-10T07:33:38.000Z</time>
      </trkpt>
      <trkpt lat="47.24745" lon="-2.29903">
        <ele>39.799999237061</ele>
        <time>2022-07-10T07:33:39.000Z</time>
      </trkpt>
      <trkpt lat="47.24744" lon="-2.29909">
        <ele>39.400001525879</ele>
        <time>2022-07-10T07:33:40.000Z</time>
      </trkpt>
      <trkpt lat="47.24744" lon="-2.29915">
        <ele>39</ele>
        <time>2022-07-10T07:33:41.000Z</time>
      </trkpt>
      <trkpt lat="47.24745" lon="-2.29922">
        <ele>39</ele>
        <time>2022-07-10T07:33:42.000Z</time>
      </trkpt>
      <trkpt lat="47.24745" lon="-2.29953">
        <ele>39</ele>
        <time>2022-07-10T07:33:46.000Z</time>
      </trkpt>
      <trkpt lat="47.24743" lon="-2.29976">
        <ele>39</ele>
        <time>2022-07-10T07:33:49.000Z</time>
      </trkpt>
      <trkpt lat="47.24737" lon="-2.29997">
        <ele>39</ele>
        <time>2022-07-10T07:33:52.000Z</time>
      </trkpt>
      <trkpt lat="47.24721" lon="-2.30022">
        <ele>39</ele>
        <time>2022-07-10T07:33:56.000Z</time>
      </trkpt>
      <trkpt lat="47.24689" lon="-2.30052">
        <ele>39</ele>
        <time>2022-07-10T07:34:02.000Z</time>
      </trkpt>
      <trkpt lat="47.24684" lon="-2.30056">
        <ele>38.599998474121</ele>
        <time>2022-07-10T07:34:03.000Z</time>
      </trkpt>
      <trkpt lat="47.24679" lon="-2.3006">
        <ele>38.200000762939</ele>
        <time>2022-07-10T07:34:04.000Z</time>
      </trkpt>
      <trkpt lat="47.24674" lon="-2.30064">
        <ele>37.799999237061</ele>
        <time>2022-07-10T07:34:05.000Z</time>
      </trkpt>
      <trkpt lat="47.24668" lon="-2.30067">
        <ele>37.400001525879</ele>
        <time>2022-07-10T07:34:06.000Z</time>
      </trkpt>
      <trkpt lat="47.24663" lon="-2.30071">
        <ele>37</ele>
        <time>2022-07-10T07:34:07.000Z</time>
      </trkpt>
      <trkpt lat="47.24654" lon="-2.30078">
        <ele>37</ele>
        <time>2022-07-10T07:34:09.000Z</time>
      </trkpt>
      <trkpt lat="47.24648" lon="-2.30083">
        <ele>37</ele>
        <time>2022-07-10T07:34:12.000Z</time>
      </trkpt>
      <trkpt lat="47.24644" lon="-2.30086">
        <ele>36.599998474121</ele>
        <time>2022-07-10T07:34:14.000Z</time>
      </trkpt>
      <trkpt lat="47.24642" lon="-2.30088">
        <ele>36.200000762939</ele>
        <time>2022-07-10T07:34:15.000Z</time>
      </trkpt>
      <trkpt lat="47.24639" lon="-2.30091">
        <ele>35.799999237061</ele>
        <time>2022-07-10T07:34:16.000Z</time>
      </trkpt>
      <trkpt lat="47.24637" lon="-2.30093">
        <ele>35.400001525879</ele>
        <time>2022-07-10T07:34:17.000Z</time>
      </trkpt>
      <trkpt lat="47.24635" lon="-2.30096">
        <ele>35</ele>
        <time>2022-07-10T07:34:18.000Z</time>
      </trkpt>
      <trkpt lat="47.24619" lon="-2.30109">
        <ele>35</ele>
        <time>2022-07-10T07:34:24.000Z</time>
      </trkpt>
      <trkpt lat="47.24605" lon="-2.30124">
        <ele>35</ele>
        <time>2022-07-10T07:34:29.000Z</time>
      </trkpt>
      <trkpt lat="47.24594" lon="-2.30139">
        <ele>35</ele>
        <time>2022-07-10T07:34:32.000Z</time>
      </trkpt>
      <trkpt lat="47.24586" lon="-2.30151">
        <ele>35</ele>
        <time>2022-07-10T07:34:34.000Z</time>
      </trkpt>
      <trkpt lat="47.24554" lon="-2.30198">
        <ele>35</ele>
        <time>2022-07-10T07:34:42.000Z</time>
      </trkpt>
      <trkpt lat="47.24532" lon="-2.30223">
        <ele>35</ele>
        <time>2022-07-10T07:34:47.000Z</time>
      </trkpt>
      <trkpt lat="47.24527" lon="-2.30228">
        <ele>35</ele>
        <time>2022-07-10T07:34:48.000Z</time>
      </trkpt>
      <trkpt lat="47.24495" lon="-2.30254">
        <ele>34.599998474121</ele>
        <time>2022-07-10T07:34:54.000Z</time>
      </trkpt>
      <trkpt lat="47.2449" lon="-2.30259">
        <ele>34</ele>
        <time>2022-07-10T07:34:55.000Z</time>
      </trkpt>
      <trkpt lat="47.24485" lon="-2.30265">
        <ele>33.599998474121</ele>
        <time>2022-07-10T07:34:56.000Z</time>
      </trkpt>
      <trkpt lat="47.2448" lon="-2.30272">
        <ele>33.200000762939</ele>
        <time>2022-07-10T07:34:57.000Z</time>
      </trkpt>
      <trkpt lat="47.24476" lon="-2.30279">
        <ele>32.799999237061</ele>
        <time>2022-07-10T07:34:58.000Z</time>
      </trkpt>
      <trkpt lat="47.24473" lon="-2.30288">
        <ele>32.799999237061</ele>
        <time>2022-07-10T07:34:59.000Z</time>
      </trkpt>
      <trkpt lat="47.24469" lon="-2.30308">
        <ele>32.400001525879</ele>
        <time>2022-07-10T07:35:01.000Z</time>
      </trkpt>
      <trkpt lat="47.24468" lon="-2.30319">
        <ele>32</ele>
        <time>2022-07-10T07:35:02.000Z</time>
      </trkpt>
      <trkpt lat="47.24467" lon="-2.30329">
        <ele>31.60000038147</ele>
        <time>2022-07-10T07:35:03.000Z</time>
      </trkpt>
      <trkpt lat="47.24467" lon="-2.3034">
        <ele>31.200000762939</ele>
        <time>2022-07-10T07:35:04.000Z</time>
      </trkpt>
      <trkpt lat="47.24466" lon="-2.30352">
        <ele>30.799999237061</ele>
        <time>2022-07-10T07:35:05.000Z</time>
      </trkpt>
      <trkpt lat="47.24465" lon="-2.30388">
        <ele>30.39999961853</ele>
        <time>2022-07-10T07:35:08.000Z</time>
      </trkpt>
      <trkpt lat="47.24464" lon="-2.30401">
        <ele>30</ele>
        <time>2022-07-10T07:35:09.000Z</time>
      </trkpt>
      <trkpt lat="47.24463" lon="-2.30414">
        <ele>29.60000038147</ele>
        <time>2022-07-10T07:35:10.000Z</time>
      </trkpt>
      <trkpt lat="47.24463" lon="-2.30427">
        <ele>29</ele>
        <time>2022-07-10T07:35:11.000Z</time>
      </trkpt>
      <trkpt lat="47.24462" lon="-2.3044">
        <ele>28.60000038147</ele>
        <time>2022-07-10T07:35:12.000Z</time>
      </trkpt>
      <trkpt lat="47.24463" lon="-2.30452">
        <ele>28.200000762939</ele>
        <time>2022-07-10T07:35:13.000Z</time>
      </trkpt>
      <trkpt lat="47.24464" lon="-2.30462">
        <ele>27.799999237061</ele>
        <time>2022-07-10T07:35:14.000Z</time>
      </trkpt>
      <trkpt lat="47.24466" lon="-2.30471">
        <ele>27.39999961853</ele>
        <time>2022-07-10T07:35:15.000Z</time>
      </trkpt>
      <trkpt lat="47.24469" lon="-2.30479">
        <ele>26.60000038147</ele>
        <time>2022-07-10T07:35:16.000Z</time>
      </trkpt>
      <trkpt lat="47.24475" lon="-2.30485">
        <ele>26.60000038147</ele>
        <time>2022-07-10T07:35:17.000Z</time>
      </trkpt>
      <trkpt lat="47.24481" lon="-2.30507">
        <ele>26.60000038147</ele>
        <time>2022-07-10T07:35:20.000Z</time>
      </trkpt>
      <trkpt lat="47.24478" lon="-2.30522">
        <ele>26.60000038147</ele>
        <time>2022-07-10T07:35:22.000Z</time>
      </trkpt>
      <trkpt lat="47.24473" lon="-2.30538">
        <ele>26.60000038147</ele>
        <time>2022-07-10T07:35:24.000Z</time>
      </trkpt>
      <trkpt lat="47.2447" lon="-2.30544">
        <ele>26.60000038147</ele>
        <time>2022-07-10T07:35:25.000Z</time>
      </trkpt>
      <trkpt lat="47.24458" lon="-2.30557">
        <ele>26.60000038147</ele>
        <time>2022-07-10T07:35:28.000Z</time>
      </trkpt>
      <trkpt lat="47.24453" lon="-2.30562">
        <ele>26.60000038147</ele>
        <time>2022-07-10T07:35:29.000Z</time>
      </trkpt>
      <trkpt lat="47.24447" lon="-2.30567">
        <ele>26.200000762939</ele>
        <time>2022-07-10T07:35:30.000Z</time>
      </trkpt>
      <trkpt lat="47.24442" lon="-2.30572">
        <ele>25.799999237061</ele>
        <time>2022-07-10T07:35:31.000Z</time>
      </trkpt>
      <trkpt lat="47.24436" lon="-2.30576">
        <ele>25.39999961853</ele>
        <time>2022-07-10T07:35:32.000Z</time>
      </trkpt>
      <trkpt lat="47.2443" lon="-2.3058">
        <ele>25</ele>
        <time>2022-07-10T07:35:33.000Z</time>
      </trkpt>
      <trkpt lat="47.24424" lon="-2.30584">
        <ele>24.39999961853</ele>
        <time>2022-07-10T07:35:34.000Z</time>
      </trkpt>
      <trkpt lat="47.24418" lon="-2.30587">
        <ele>24.39999961853</ele>
        <time>2022-07-10T07:35:35.000Z</time>
      </trkpt>
      <trkpt lat="47.24412" lon="-2.30588">
        <ele>24.39999961853</ele>
        <time>2022-07-10T07:35:36.000Z</time>
      </trkpt>
      <trkpt lat="47.24406" lon="-2.30587">
        <ele>24</ele>
        <time>2022-07-10T07:35:37.000Z</time>
      </trkpt>
      <trkpt lat="47.24401" lon="-2.30585">
        <ele>23.60000038147</ele>
        <time>2022-07-10T07:35:38.000Z</time>
      </trkpt>
      <trkpt lat="47.24396" lon="-2.30584">
        <ele>23.200000762939</ele>
        <time>2022-07-10T07:35:39.000Z</time>
      </trkpt>
      <trkpt lat="47.24391" lon="-2.30581">
        <ele>22.799999237061</ele>
        <time>2022-07-10T07:35:40.000Z</time>
      </trkpt>
      <trkpt lat="47.24387" lon="-2.30578">
        <ele>22.39999961853</ele>
        <time>2022-07-10T07:35:41.000Z</time>
      </trkpt>
      <trkpt lat="47.24379" lon="-2.30569">
        <ele>22.39999961853</ele>
        <time>2022-07-10T07:35:43.000Z</time>
      </trkpt>
      <trkpt lat="47.24376" lon="-2.30563">
        <ele>22.39999961853</ele>
        <time>2022-07-10T07:35:44.000Z</time>
      </trkpt>
      <trkpt lat="47.24373" lon="-2.30557">
        <ele>22.39999961853</ele>
        <time>2022-07-10T07:35:45.000Z</time>
      </trkpt>
      <trkpt lat="47.24363" lon="-2.30533">
        <ele>22.39999961853</ele>
        <time>2022-07-10T07:35:49.000Z</time>
      </trkpt>
      <trkpt lat="47.24366" lon="-2.30504">
        <ele>22.799999237061</ele>
        <time>2022-07-10T07:35:53.000Z</time>
      </trkpt>
      <trkpt lat="47.24367" lon="-2.30498">
        <ele>23.200000762939</ele>
        <time>2022-07-10T07:35:54.000Z</time>
      </trkpt>
      <trkpt lat="47.24369" lon="-2.30492">
        <ele>23.60000038147</ele>
        <time>2022-07-10T07:35:55.000Z</time>
      </trkpt>
      <trkpt lat="47.2437" lon="-2.30486">
        <ele>24</ele>
        <time>2022-07-10T07:35:56.000Z</time>
      </trkpt>
      <trkpt lat="47.24372" lon="-2.3048">
        <ele>24.60000038147</ele>
        <time>2022-07-10T07:35:57.000Z</time>
      </trkpt>
      <trkpt lat="47.24376" lon="-2.30463">
        <ele>25</ele>
        <time>2022-07-10T07:36:00.000Z</time>
      </trkpt>
      <trkpt lat="47.24376" lon="-2.30458">
        <ele>25.39999961853</ele>
        <time>2022-07-10T07:36:01.000Z</time>
      </trkpt>
      <trkpt lat="47.24376" lon="-2.30454">
        <ele>25.799999237061</ele>
        <time>2022-07-10T07:36:02.000Z</time>
      </trkpt>
      <trkpt lat="47.24376" lon="-2.30451">
        <ele>26.200000762939</ele>
        <time>2022-07-10T07:36:03.000Z</time>
      </trkpt>
      <trkpt lat="47.24374" lon="-2.3045">
        <ele>26.60000038147</ele>
        <time>2022-07-10T07:36:04.000Z</time>
      </trkpt>
      <trkpt lat="47.24371" lon="-2.30451">
        <ele>26.60000038147</ele>
        <time>2022-07-10T07:36:05.000Z</time>
      </trkpt>
      <trkpt lat="47.24357" lon="-2.30453">
        <ele>26.60000038147</ele>
        <time>2022-07-10T07:36:09.000Z</time>
      </trkpt>
      <trkpt lat="47.24337" lon="-2.30448">
        <ele>26.60000038147</ele>
        <time>2022-07-10T07:36:16.000Z</time>
      </trkpt>
      <trkpt lat="47.24328" lon="-2.30443">
        <ele>27</ele>
        <time>2022-07-10T07:36:19.000Z</time>
      </trkpt>
      <trkpt lat="47.24325" lon="-2.30441">
        <ele>27.39999961853</ele>
        <time>2022-07-10T07:36:20.000Z</time>
      </trkpt>
      <trkpt lat="47.24323" lon="-2.3044">
        <ele>27.799999237061</ele>
        <time>2022-07-10T07:36:21.000Z</time>
      </trkpt>
      <trkpt lat="47.2432" lon="-2.30438">
        <ele>28.200000762939</ele>
        <time>2022-07-10T07:36:22.000Z</time>
      </trkpt>
      <trkpt lat="47.24318" lon="-2.30436">
        <ele>28.60000038147</ele>
        <time>2022-07-10T07:36:23.000Z</time>
      </trkpt>
      <trkpt lat="47.24314" lon="-2.30433">
        <ele>28.60000038147</ele>
        <time>2022-07-10T07:36:25.000Z</time>
      </trkpt>
      <trkpt lat="47.24298" lon="-2.3042">
        <ele>28.60000038147</ele>
        <time>2022-07-10T07:36:30.000Z</time>
      </trkpt>
      <trkpt lat="47.24278" lon="-2.30394">
        <ele>28.60000038147</ele>
        <time>2022-07-10T07:36:36.000Z</time>
      </trkpt>
      <trkpt lat="47.24258" lon="-2.30358">
        <ele>28.60000038147</ele>
        <time>2022-07-10T07:36:42.000Z</time>
      </trkpt>
      <trkpt lat="47.24234" lon="-2.30324">
        <ele>28.60000038147</ele>
        <time>2022-07-10T07:36:49.000Z</time>
      </trkpt>
      <trkpt lat="47.24216" lon="-2.30329">
        <ele>28.60000038147</ele>
        <time>2022-07-10T07:36:53.000Z</time>
      </trkpt>
      <trkpt lat="47.24211" lon="-2.3033">
        <ele>28.60000038147</ele>
        <time>2022-07-10T07:36:54.000Z</time>
      </trkpt>
      <trkpt lat="47.24207" lon="-2.30329">
        <ele>28.200000762939</ele>
        <time>2022-07-10T07:36:55.000Z</time>
      </trkpt>
      <trkpt lat="47.24203" lon="-2.30327">
        <ele>27.60000038147</ele>
        <time>2022-07-10T07:36:56.000Z</time>
      </trkpt>
      <trkpt lat="47.24199" lon="-2.30325">
        <ele>27.200000762939</ele>
        <time>2022-07-10T07:36:57.000Z</time>
      </trkpt>
      <trkpt lat="47.24195" lon="-2.30319">
        <ele>26.799999237061</ele>
        <time>2022-07-10T07:36:58.000Z</time>
      </trkpt>
      <trkpt lat="47.24191" lon="-2.30313">
        <ele>26.200000762939</ele>
        <time>2022-07-10T07:36:59.000Z</time>
      </trkpt>
      <trkpt lat="47.24189" lon="-2.30304">
        <ele>26.200000762939</ele>
        <time>2022-07-10T07:37:00.000Z</time>
      </trkpt>
      <trkpt lat="47.24187" lon="-2.30296">
        <ele>26.200000762939</ele>
        <time>2022-07-10T07:37:01.000Z</time>
      </trkpt>
      <trkpt lat="47.24185" lon="-2.30277">
        <ele>25.799999237061</ele>
        <time>2022-07-10T07:37:03.000Z</time>
      </trkpt>
      <trkpt lat="47.24184" lon="-2.30268">
        <ele>25.39999961853</ele>
        <time>2022-07-10T07:37:04.000Z</time>
      </trkpt>
      <trkpt lat="47.24183" lon="-2.30259">
        <ele>25</ele>
        <time>2022-07-10T07:37:05.000Z</time>
      </trkpt>
      <trkpt lat="47.24182" lon="-2.30252">
        <ele>24.60000038147</ele>
        <time>2022-07-10T07:37:06.000Z</time>
      </trkpt>
      <trkpt lat="47.24182" lon="-2.30247">
        <ele>24.200000762939</ele>
        <time>2022-07-10T07:37:07.000Z</time>
      </trkpt>
      <trkpt lat="47.24181" lon="-2.30244">
        <ele>24.200000762939</ele>
        <time>2022-07-10T07:37:08.000Z</time>
      </trkpt>
      <trkpt lat="47.2418" lon="-2.30243">
        <ele>24.200000762939</ele>
        <time>2022-07-10T07:37:09.000Z</time>
      </trkpt>
      <trkpt lat="47.24172" lon="-2.30247">
        <ele>24.200000762939</ele>
        <time>2022-07-10T07:37:12.000Z</time>
      </trkpt>
      <trkpt lat="47.24164" lon="-2.30245">
        <ele>24.200000762939</ele>
        <time>2022-07-10T07:37:14.000Z</time>
      </trkpt>
      <trkpt lat="47.24161" lon="-2.30243">
        <ele>24.200000762939</ele>
        <time>2022-07-10T07:37:15.000Z</time>
      </trkpt>
      <trkpt lat="47.24153" lon="-2.30223">
        <ele>24.200000762939</ele>
        <time>2022-07-10T07:37:19.000Z</time>
      </trkpt>
      <trkpt lat="47.24145" lon="-2.30195">
        <ele>24.60000038147</ele>
        <time>2022-07-10T07:37:24.000Z</time>
      </trkpt>
      <trkpt lat="47.24143" lon="-2.30191">
        <ele>25</ele>
        <time>2022-07-10T07:37:25.000Z</time>
      </trkpt>
      <trkpt lat="47.24142" lon="-2.30187">
        <ele>25.39999961853</ele>
        <time>2022-07-10T07:37:26.000Z</time>
      </trkpt>
      <trkpt lat="47.24142" lon="-2.30183">
        <ele>25.799999237061</ele>
        <time>2022-07-10T07:37:27.000Z</time>
      </trkpt>
      <trkpt lat="47.24141" lon="-2.30179">
        <ele>26.200000762939</ele>
        <time>2022-07-10T07:37:28.000Z</time>
      </trkpt>
      <trkpt lat="47.24139" lon="-2.3017">
        <ele>26.200000762939</ele>
        <time>2022-07-10T07:37:30.000Z</time>
      </trkpt>
      <trkpt lat="47.24137" lon="-2.30164">
        <ele>26.60000038147</ele>
        <time>2022-07-10T07:37:32.000Z</time>
      </trkpt>
      <trkpt lat="47.24137" lon="-2.30161">
        <ele>27.200000762939</ele>
        <time>2022-07-10T07:37:33.000Z</time>
      </trkpt>
      <trkpt lat="47.24136" lon="-2.30159">
        <ele>27.60000038147</ele>
        <time>2022-07-10T07:37:34.000Z</time>
      </trkpt>
      <trkpt lat="47.24135" lon="-2.30159">
        <ele>28</ele>
        <time>2022-07-10T07:37:35.000Z</time>
      </trkpt>
      <trkpt lat="47.24134" lon="-2.30159">
        <ele>28.60000038147</ele>
        <time>2022-07-10T07:37:36.000Z</time>
      </trkpt>
      <trkpt lat="47.24129" lon="-2.30162">
        <ele>30.60000038147</ele>
        <time>2022-07-10T07:38:42.000Z</time>
      </trkpt>
      <trkpt lat="47.24127" lon="-2.30165">
        <ele>30.60000038147</ele>
        <time>2022-07-10T07:38:44.000Z</time>
      </trkpt>
      <trkpt lat="47.24124" lon="-2.30166">
        <ele>30.60000038147</ele>
        <time>2022-07-10T07:38:46.000Z</time>
      </trkpt>
      <trkpt lat="47.24122" lon="-2.30165">
        <ele>30.60000038147</ele>
        <time>2022-07-10T07:38:47.000Z</time>
      </trkpt>
      <trkpt lat="47.2412" lon="-2.30165">
        <ele>30.60000038147</ele>
        <time>2022-07-10T07:38:48.000Z</time>
      </trkpt>
      <trkpt lat="47.241" lon="-2.30166">
        <ele>30.60000038147</ele>
        <time>2022-07-10T07:38:54.000Z</time>
      </trkpt>
      <trkpt lat="47.2409" lon="-2.30173">
        <ele>30.60000038147</ele>
        <time>2022-07-10T07:38:58.000Z</time>
      </trkpt>
      <trkpt lat="47.2408" lon="-2.30172">
        <ele>30.60000038147</ele>
        <time>2022-07-10T07:39:02.000Z</time>
      </trkpt>
      <trkpt lat="47.2408" lon="-2.3016">
        <ele>30.60000038147</ele>
        <time>2022-07-10T07:39:07.000Z</time>
      </trkpt>
      <trkpt lat="47.24087" lon="-2.30158">
        <ele>30.60000038147</ele>
        <time>2022-07-10T07:39:12.000Z</time>
      </trkpt>
      <trkpt lat="47.24091" lon="-2.30155">
        <ele>30.60000038147</ele>
        <time>2022-07-10T07:39:14.000Z</time>
      </trkpt>
      <trkpt lat="47.24093" lon="-2.30148">
        <ele>30.60000038147</ele>
        <time>2022-07-10T07:39:17.000Z</time>
      </trkpt>
      <trkpt lat="47.24094" lon="-2.30144">
        <ele>30.60000038147</ele>
        <time>2022-07-10T07:39:19.000Z</time>
      </trkpt>
      <trkpt lat="47.24093" lon="-2.30132">
        <ele>30.60000038147</ele>
        <time>2022-07-10T07:39:23.000Z</time>
      </trkpt>
      <trkpt lat="47.24101" lon="-2.30114">
        <ele>30.60000038147</ele>
        <time>2022-07-10T07:39:28.000Z</time>
      </trkpt>
      <trkpt lat="47.24114" lon="-2.30096">
        <ele>30.60000038147</ele>
        <time>2022-07-10T07:39:33.000Z</time>
      </trkpt>
      <trkpt lat="47.24122" lon="-2.30091">
        <ele>30.60000038147</ele>
        <time>2022-07-10T07:39:36.000Z</time>
      </trkpt>
      <trkpt lat="47.24127" lon="-2.30091">
        <ele>30.60000038147</ele>
        <time>2022-07-10T07:39:38.000Z</time>
      </trkpt>
      <trkpt lat="47.24137" lon="-2.3009">
        <ele>30.60000038147</ele>
        <time>2022-07-10T07:39:41.000Z</time>
      </trkpt>
      <trkpt lat="47.24144" lon="-2.3009">
        <ele>30.60000038147</ele>
        <time>2022-07-10T07:39:44.000Z</time>
      </trkpt>
      <trkpt lat="47.24153" lon="-2.30095">
        <ele>30.200000762939</ele>
        <time>2022-07-10T07:39:48.000Z</time>
      </trkpt>
      <trkpt lat="47.24155" lon="-2.30096">
        <ele>29.799999237061</ele>
        <time>2022-07-10T07:39:49.000Z</time>
      </trkpt>
      <trkpt lat="47.24156" lon="-2.30096">
        <ele>29.39999961853</ele>
        <time>2022-07-10T07:39:50.000Z</time>
      </trkpt>
      <trkpt lat="47.24157" lon="-2.30096">
        <ele>29</ele>
        <time>2022-07-10T07:39:51.000Z</time>
      </trkpt>
      <trkpt lat="47.24159" lon="-2.30097">
        <ele>28.60000038147</ele>
        <time>2022-07-10T07:39:52.000Z</time>
      </trkpt>
      <trkpt lat="47.24165" lon="-2.301">
        <ele>28.60000038147</ele>
        <time>2022-07-10T07:39:56.000Z</time>
      </trkpt>
      <trkpt lat="47.24173" lon="-2.30107">
        <ele>28.60000038147</ele>
        <time>2022-07-10T07:40:02.000Z</time>
      </trkpt>
      <trkpt lat="47.24161" lon="-2.30146">
        <ele>26.60000038147</ele>
        <time>2022-07-10T07:41:16.000Z</time>
      </trkpt>
      <trkpt lat="47.2415" lon="-2.30153">
        <ele>26.60000038147</ele>
        <time>2022-07-10T07:41:23.000Z</time>
      </trkpt>
      <trkpt lat="47.24138" lon="-2.30159">
        <ele>27</ele>
        <time>2022-07-10T07:41:27.000Z</time>
      </trkpt>
      <trkpt lat="47.24136" lon="-2.30159">
        <ele>27.39999961853</ele>
        <time>2022-07-10T07:41:28.000Z</time>
      </trkpt>
      <trkpt lat="47.24134" lon="-2.30159">
        <ele>27.799999237061</ele>
        <time>2022-07-10T07:41:29.000Z</time>
      </trkpt>
      <trkpt lat="47.24132" lon="-2.30158">
        <ele>28.200000762939</ele>
        <time>2022-07-10T07:41:30.000Z</time>
      </trkpt>
      <trkpt lat="47.24131" lon="-2.30157">
        <ele>28.60000038147</ele>
        <time>2022-07-10T07:41:31.000Z</time>
      </trkpt>
      <trkpt lat="47.2413" lon="-2.30155">
        <ele>28.60000038147</ele>
        <time>2022-07-10T07:41:34.000Z</time>
      </trkpt>
      <trkpt lat="47.24131" lon="-2.30152">
        <ele>28.60000038147</ele>
        <time>2022-07-10T07:41:52.000Z</time>
      </trkpt>
      <trkpt lat="47.24135" lon="-2.30142">
        <ele>28.60000038147</ele>
        <time>2022-07-10T07:41:55.000Z</time>
      </trkpt>
      <trkpt lat="47.2414" lon="-2.30128">
        <ele>28.60000038147</ele>
        <time>2022-07-10T07:41:58.000Z</time>
      </trkpt>
      <trkpt lat="47.24143" lon="-2.30111">
        <ele>28.60000038147</ele>
        <time>2022-07-10T07:42:02.000Z</time>
      </trkpt>
      <trkpt lat="47.24148" lon="-2.30081">
        <ele>28.60000038147</ele>
        <time>2022-07-10T07:42:09.000Z</time>
      </trkpt>
      <trkpt lat="47.24149" lon="-2.30077">
        <ele>29</ele>
        <time>2022-07-10T07:42:10.000Z</time>
      </trkpt>
      <trkpt lat="47.24149" lon="-2.30073">
        <ele>29.39999961853</ele>
        <time>2022-07-10T07:42:11.000Z</time>
      </trkpt>
      <trkpt lat="47.24151" lon="-2.30071">
        <ele>29.799999237061</ele>
        <time>2022-07-10T07:42:12.000Z</time>
      </trkpt>
      <trkpt lat="47.24152" lon="-2.30068">
        <ele>30.200000762939</ele>
        <time>2022-07-10T07:42:13.000Z</time>
      </trkpt>
      <trkpt lat="47.24153" lon="-2.30066">
        <ele>30.60000038147</ele>
        <time>2022-07-10T07:42:14.000Z</time>
      </trkpt>
      <trkpt lat="47.24153" lon="-2.30063">
        <ele>30.60000038147</ele>
        <time>2022-07-10T07:42:15.000Z</time>
      </trkpt>
      <trkpt lat="47.24154" lon="-2.3006">
        <ele>31</ele>
        <time>2022-07-10T07:42:16.000Z</time>
      </trkpt>
      <trkpt lat="47.24156" lon="-2.30057">
        <ele>31.39999961853</ele>
        <time>2022-07-10T07:42:17.000Z</time>
      </trkpt>
      <trkpt lat="47.24157" lon="-2.30055">
        <ele>31.799999237061</ele>
        <time>2022-07-10T07:42:18.000Z</time>
      </trkpt>
      <trkpt lat="47.24157" lon="-2.30054">
        <ele>32.200000762939</ele>
        <time>2022-07-10T07:42:19.000Z</time>
      </trkpt>
      <trkpt lat="47.24159" lon="-2.30052">
        <ele>32.599998474121</ele>
        <time>2022-07-10T07:42:20.000Z</time>
      </trkpt>
      <trkpt lat="47.24162" lon="-2.30049">
        <ele>32.599998474121</ele>
        <time>2022-07-10T07:42:22.000Z</time>
      </trkpt>
      <trkpt lat="47.24167" lon="-2.30038">
        <ele>32.599998474121</ele>
        <time>2022-07-10T07:42:25.000Z</time>
      </trkpt>
      <trkpt lat="47.24168" lon="-2.30032">
        <ele>32.599998474121</ele>
        <time>2022-07-10T07:42:27.000Z</time>
      </trkpt>
      <trkpt lat="47.24167" lon="-2.30027">
        <ele>32.599998474121</ele>
        <time>2022-07-10T07:42:29.000Z</time>
      </trkpt>
      <trkpt lat="47.24164" lon="-2.30011">
        <ele>32.599998474121</ele>
        <time>2022-07-10T07:42:34.000Z</time>
      </trkpt>
      <trkpt lat="47.2416" lon="-2.29998">
        <ele>33</ele>
        <time>2022-07-10T07:42:38.000Z</time>
      </trkpt>
      <trkpt lat="47.2416" lon="-2.29994">
        <ele>33.400001525879</ele>
        <time>2022-07-10T07:42:39.000Z</time>
      </trkpt>
      <trkpt lat="47.24159" lon="-2.29992">
        <ele>33.799999237061</ele>
        <time>2022-07-10T07:42:40.000Z</time>
      </trkpt>
      <trkpt lat="47.24159" lon="-2.2999">
        <ele>34.599998474121</ele>
        <time>2022-07-10T07:42:41.000Z</time>
      </trkpt>
      <trkpt lat="47.24158" lon="-2.29988">
        <ele>34.599998474121</ele>
        <time>2022-07-10T07:42:42.000Z</time>
      </trkpt>
      <trkpt lat="47.24158" lon="-2.29984">
        <ele>34.599998474121</ele>
        <time>2022-07-10T07:42:55.000Z</time>
      </trkpt>
      <trkpt lat="47.24158" lon="-2.29981">
        <ele>34.599998474121</ele>
        <time>2022-07-10T07:42:56.000Z</time>
      </trkpt>
      <trkpt lat="47.24158" lon="-2.29967">
        <ele>34.599998474121</ele>
        <time>2022-07-10T07:42:59.000Z</time>
      </trkpt>
      <trkpt lat="47.24156" lon="-2.29956">
        <ele>34.599998474121</ele>
        <time>2022-07-10T07:43:01.000Z</time>
      </trkpt>
      <trkpt lat="47.24154" lon="-2.29921">
        <ele>34.599998474121</ele>
        <time>2022-07-10T07:43:08.000Z</time>
      </trkpt>
      <trkpt lat="47.24154" lon="-2.2989">
        <ele>34.599998474121</ele>
        <time>2022-07-10T07:43:14.000Z</time>
      </trkpt>
      <trkpt lat="47.24166" lon="-2.29875">
        <ele>34.599998474121</ele>
        <time>2022-07-10T07:43:19.000Z</time>
      </trkpt>
      <trkpt lat="47.24172" lon="-2.29841">
        <ele>34.599998474121</ele>
        <time>2022-07-10T07:43:25.000Z</time>
      </trkpt>
      <trkpt lat="47.24171" lon="-2.29836">
        <ele>34.599998474121</ele>
        <time>2022-07-10T07:43:26.000Z</time>
      </trkpt>
      <trkpt lat="47.24164" lon="-2.29834">
        <ele>34.599998474121</ele>
        <time>2022-07-10T07:43:28.000Z</time>
      </trkpt>
      <trkpt lat="47.24142" lon="-2.29841">
        <ele>34.599998474121</ele>
        <time>2022-07-10T07:43:35.000Z</time>
      </trkpt>
      <trkpt lat="47.24117" lon="-2.29848">
        <ele>34.599998474121</ele>
        <time>2022-07-10T07:43:42.000Z</time>
      </trkpt>
      <trkpt lat="47.241" lon="-2.29844">
        <ele>34.599998474121</ele>
        <time>2022-07-10T07:43:47.000Z</time>
      </trkpt>
      <trkpt lat="47.24098" lon="-2.29841">
        <ele>34.599998474121</ele>
        <time>2022-07-10T07:43:48.000Z</time>
      </trkpt>
      <trkpt lat="47.24094" lon="-2.2982">
        <ele>34.599998474121</ele>
        <time>2022-07-10T07:43:52.000Z</time>
      </trkpt>
      <trkpt lat="47.24093" lon="-2.29809">
        <ele>34.599998474121</ele>
        <time>2022-07-10T07:43:54.000Z</time>
      </trkpt>
      <trkpt lat="47.2409" lon="-2.29786">
        <ele>34.599998474121</ele>
        <time>2022-07-10T07:43:58.000Z</time>
      </trkpt>
      <trkpt lat="47.24079" lon="-2.29742">
        <ele>34.599998474121</ele>
        <time>2022-07-10T07:44:05.000Z</time>
      </trkpt>
      <trkpt lat="47.24063" lon="-2.29688">
        <ele>34.599998474121</ele>
        <time>2022-07-10T07:44:13.000Z</time>
      </trkpt>
      <trkpt lat="47.24051" lon="-2.29649">
        <ele>34.599998474121</ele>
        <time>2022-07-10T07:44:19.000Z</time>
      </trkpt>
      <trkpt lat="47.24054" lon="-2.29622">
        <ele>34.599998474121</ele>
        <time>2022-07-10T07:44:24.000Z</time>
      </trkpt>
      <trkpt lat="47.24057" lon="-2.29617">
        <ele>34.599998474121</ele>
        <time>2022-07-10T07:44:25.000Z</time>
      </trkpt>
      <trkpt lat="47.24068" lon="-2.29611">
        <ele>34.599998474121</ele>
        <time>2022-07-10T07:44:27.000Z</time>
      </trkpt>
      <trkpt lat="47.24092" lon="-2.29596">
        <ele>34.599998474121</ele>
        <time>2022-07-10T07:44:32.000Z</time>
      </trkpt>
      <trkpt lat="47.24101" lon="-2.2959">
        <ele>34.599998474121</ele>
        <time>2022-07-10T07:44:34.000Z</time>
      </trkpt>
      <trkpt lat="47.2411" lon="-2.29564">
        <ele>34.599998474121</ele>
        <time>2022-07-10T07:44:38.000Z</time>
      </trkpt>
      <trkpt lat="47.24107" lon="-2.29533">
        <ele>34.599998474121</ele>
        <time>2022-07-10T07:44:42.000Z</time>
      </trkpt>
      <trkpt lat="47.24098" lon="-2.29493">
        <ele>34.599998474121</ele>
        <time>2022-07-10T07:44:47.000Z</time>
      </trkpt>
      <trkpt lat="47.24099" lon="-2.29484">
        <ele>34.599998474121</ele>
        <time>2022-07-10T07:44:48.000Z</time>
      </trkpt>
      <trkpt lat="47.24104" lon="-2.29472">
        <ele>34.200000762939</ele>
        <time>2022-07-10T07:44:50.000Z</time>
      </trkpt>
      <trkpt lat="47.24108" lon="-2.29469">
        <ele>33.799999237061</ele>
        <time>2022-07-10T07:44:51.000Z</time>
      </trkpt>
      <trkpt lat="47.24112" lon="-2.29466">
        <ele>33.200000762939</ele>
        <time>2022-07-10T07:44:52.000Z</time>
      </trkpt>
      <trkpt lat="47.24117" lon="-2.29463">
        <ele>32.799999237061</ele>
        <time>2022-07-10T07:44:53.000Z</time>
      </trkpt>
      <trkpt lat="47.24122" lon="-2.2946">
        <ele>32.400001525879</ele>
        <time>2022-07-10T07:44:54.000Z</time>
      </trkpt>
      <trkpt lat="47.24133" lon="-2.29453">
        <ele>32.400001525879</ele>
        <time>2022-07-10T07:44:56.000Z</time>
      </trkpt>
      <trkpt lat="47.24147" lon="-2.29446">
        <ele>32.400001525879</ele>
        <time>2022-07-10T07:44:58.000Z</time>
      </trkpt>
      <trkpt lat="47.24167" lon="-2.2944">
        <ele>32.400001525879</ele>
        <time>2022-07-10T07:45:01.000Z</time>
      </trkpt>
      <trkpt lat="47.24202" lon="-2.29444">
        <ele>32.400001525879</ele>
        <time>2022-07-10T07:45:06.000Z</time>
      </trkpt>
      <trkpt lat="47.24208" lon="-2.29446">
        <ele>32.400001525879</ele>
        <time>2022-07-10T07:45:07.000Z</time>
      </trkpt>
      <trkpt lat="47.24232" lon="-2.29458">
        <ele>32.400001525879</ele>
        <time>2022-07-10T07:45:11.000Z</time>
      </trkpt>
      <trkpt lat="47.24243" lon="-2.29462">
        <ele>32.400001525879</ele>
        <time>2022-07-10T07:45:13.000Z</time>
      </trkpt>
      <trkpt lat="47.24248" lon="-2.29461">
        <ele>32</ele>
        <time>2022-07-10T07:45:14.000Z</time>
      </trkpt>
      <trkpt lat="47.24253" lon="-2.29459">
        <ele>31.60000038147</ele>
        <time>2022-07-10T07:45:15.000Z</time>
      </trkpt>
      <trkpt lat="47.24258" lon="-2.29456">
        <ele>31.200000762939</ele>
        <time>2022-07-10T07:45:16.000Z</time>
      </trkpt>
      <trkpt lat="47.24263" lon="-2.29453">
        <ele>30.799999237061</ele>
        <time>2022-07-10T07:45:17.000Z</time>
      </trkpt>
      <trkpt lat="47.24267" lon="-2.2945">
        <ele>30.39999961853</ele>
        <time>2022-07-10T07:45:18.000Z</time>
      </trkpt>
      <trkpt lat="47.24272" lon="-2.29446">
        <ele>30.39999961853</ele>
        <time>2022-07-10T07:45:19.000Z</time>
      </trkpt>
      <trkpt lat="47.24295" lon="-2.29433">
        <ele>30.39999961853</ele>
        <time>2022-07-10T07:45:23.000Z</time>
      </trkpt>
      <trkpt lat="47.24301" lon="-2.29432">
        <ele>30.39999961853</ele>
        <time>2022-07-10T07:45:24.000Z</time>
      </trkpt>
      <trkpt lat="47.24325" lon="-2.29442">
        <ele>30.39999961853</ele>
        <time>2022-07-10T07:45:28.000Z</time>
      </trkpt>
      <trkpt lat="47.24335" lon="-2.29451">
        <ele>30.39999961853</ele>
        <time>2022-07-10T07:45:30.000Z</time>
      </trkpt>
      <trkpt lat="47.24355" lon="-2.29468">
        <ele>30.39999961853</ele>
        <time>2022-07-10T07:45:34.000Z</time>
      </trkpt>
      <trkpt lat="47.24371" lon="-2.29457">
        <ele>30.39999961853</ele>
        <time>2022-07-10T07:45:37.000Z</time>
      </trkpt>
      <trkpt lat="47.24381" lon="-2.29447">
        <ele>30.39999961853</ele>
        <time>2022-07-10T07:45:39.000Z</time>
      </trkpt>
      <trkpt lat="47.24392" lon="-2.29438">
        <ele>30.39999961853</ele>
        <time>2022-07-10T07:45:41.000Z</time>
      </trkpt>
      <trkpt lat="47.24398" lon="-2.29434">
        <ele>30.39999961853</ele>
        <time>2022-07-10T07:45:42.000Z</time>
      </trkpt>
      <trkpt lat="47.24422" lon="-2.2943">
        <ele>30.39999961853</ele>
        <time>2022-07-10T07:45:46.000Z</time>
      </trkpt>
      <trkpt lat="47.24446" lon="-2.29428">
        <ele>30.799999237061</ele>
        <time>2022-07-10T07:45:50.000Z</time>
      </trkpt>
      <trkpt lat="47.24452" lon="-2.29427">
        <ele>31.200000762939</ele>
        <time>2022-07-10T07:45:51.000Z</time>
      </trkpt>
      <trkpt lat="47.24458" lon="-2.29426">
        <ele>31.60000038147</ele>
        <time>2022-07-10T07:45:52.000Z</time>
      </trkpt>
      <trkpt lat="47.24463" lon="-2.29425">
        <ele>32</ele>
        <time>2022-07-10T07:45:53.000Z</time>
      </trkpt>
      <trkpt lat="47.24468" lon="-2.29425">
        <ele>32.599998474121</ele>
        <time>2022-07-10T07:45:54.000Z</time>
      </trkpt>
      <trkpt lat="47.24495" lon="-2.2942">
        <ele>33</ele>
        <time>2022-07-10T07:45:59.000Z</time>
      </trkpt>
      <trkpt lat="47.24501" lon="-2.29419">
        <ele>33.400001525879</ele>
        <time>2022-07-10T07:46:00.000Z</time>
      </trkpt>
      <trkpt lat="47.24506" lon="-2.29418">
        <ele>33.799999237061</ele>
        <time>2022-07-10T07:46:01.000Z</time>
      </trkpt>
      <trkpt lat="47.2451" lon="-2.29415">
        <ele>34.200000762939</ele>
        <time>2022-07-10T07:46:02.000Z</time>
      </trkpt>
      <trkpt lat="47.24514" lon="-2.29411">
        <ele>34.599998474121</ele>
        <time>2022-07-10T07:46:03.000Z</time>
      </trkpt>
      <trkpt lat="47.24518" lon="-2.29406">
        <ele>34.599998474121</ele>
        <time>2022-07-10T07:46:04.000Z</time>
      </trkpt>
      <trkpt lat="47.24519" lon="-2.29399">
        <ele>35</ele>
        <time>2022-07-10T07:46:05.000Z</time>
      </trkpt>
      <trkpt lat="47.24519" lon="-2.29392">
        <ele>35.599998474121</ele>
        <time>2022-07-10T07:46:06.000Z</time>
      </trkpt>
      <trkpt lat="47.24519" lon="-2.29385">
        <ele>36</ele>
        <time>2022-07-10T07:46:07.000Z</time>
      </trkpt>
      <trkpt lat="47.24519" lon="-2.29378">
        <ele>36.400001525879</ele>
        <time>2022-07-10T07:46:08.000Z</time>
      </trkpt>
      <trkpt lat="47.24518" lon="-2.29371">
        <ele>36.799999237061</ele>
        <time>2022-07-10T07:46:09.000Z</time>
      </trkpt>
      <trkpt lat="47.24517" lon="-2.29364">
        <ele>36.799999237061</ele>
        <time>2022-07-10T07:46:10.000Z</time>
      </trkpt>
      <trkpt lat="47.24515" lon="-2.29347">
        <ele>36.799999237061</ele>
        <time>2022-07-10T07:46:12.000Z</time>
      </trkpt>
      <trkpt lat="47.24515" lon="-2.29338">
        <ele>36.799999237061</ele>
        <time>2022-07-10T07:46:13.000Z</time>
      </trkpt>
      <trkpt lat="47.24514" lon="-2.29303">
        <ele>36.799999237061</ele>
        <time>2022-07-10T07:46:17.000Z</time>
      </trkpt>
      <trkpt lat="47.24513" lon="-2.2923">
        <ele>36.799999237061</ele>
        <time>2022-07-10T07:46:25.000Z</time>
      </trkpt>
      <trkpt lat="47.24521" lon="-2.29177">
        <ele>36.799999237061</ele>
        <time>2022-07-10T07:46:31.000Z</time>
      </trkpt>
      <trkpt lat="47.24537" lon="-2.29116">
        <ele>36.799999237061</ele>
        <time>2022-07-10T07:46:38.000Z</time>
      </trkpt>
      <trkpt lat="47.24541" lon="-2.29099">
        <ele>36.400001525879</ele>
        <time>2022-07-10T07:46:40.000Z</time>
      </trkpt>
      <trkpt lat="47.24543" lon="-2.2909">
        <ele>36</ele>
        <time>2022-07-10T07:46:41.000Z</time>
      </trkpt>
      <trkpt lat="47.24544" lon="-2.29081">
        <ele>35.599998474121</ele>
        <time>2022-07-10T07:46:42.000Z</time>
      </trkpt>
      <trkpt lat="47.24546" lon="-2.29072">
        <ele>35.200000762939</ele>
        <time>2022-07-10T07:46:43.000Z</time>
      </trkpt>
      <trkpt lat="47.24547" lon="-2.29063">
        <ele>34.599998474121</ele>
        <time>2022-07-10T07:46:44.000Z</time>
      </trkpt>
      <trkpt lat="47.24552" lon="-2.28993">
        <ele>34.599998474121</ele>
        <time>2022-07-10T07:46:52.000Z</time>
      </trkpt>
      <trkpt lat="47.24543" lon="-2.28955">
        <ele>34.599998474121</ele>
        <time>2022-07-10T07:46:57.000Z</time>
      </trkpt>
      <trkpt lat="47.24539" lon="-2.2894">
        <ele>34.200000762939</ele>
        <time>2022-07-10T07:46:59.000Z</time>
      </trkpt>
      <trkpt lat="47.24536" lon="-2.28932">
        <ele>33.799999237061</ele>
        <time>2022-07-10T07:47:00.000Z</time>
      </trkpt>
      <trkpt lat="47.24534" lon="-2.28924">
        <ele>33.400001525879</ele>
        <time>2022-07-10T07:47:01.000Z</time>
      </trkpt>
      <trkpt lat="47.2453" lon="-2.28916">
        <ele>33</ele>
        <time>2022-07-10T07:47:02.000Z</time>
      </trkpt>
      <trkpt lat="47.24527" lon="-2.28907">
        <ele>32.599998474121</ele>
        <time>2022-07-10T07:47:03.000Z</time>
      </trkpt>
      <trkpt lat="47.24521" lon="-2.28889">
        <ele>32.599998474121</ele>
        <time>2022-07-10T07:47:05.000Z</time>
      </trkpt>
      <trkpt lat="47.2452" lon="-2.2887">
        <ele>32.599998474121</ele>
        <time>2022-07-10T07:47:07.000Z</time>
      </trkpt>
      <trkpt lat="47.2453" lon="-2.2885">
        <ele>32.599998474121</ele>
        <time>2022-07-10T07:47:10.000Z</time>
      </trkpt>
      <trkpt lat="47.24541" lon="-2.2884">
        <ele>32.599998474121</ele>
        <time>2022-07-10T07:47:12.000Z</time>
      </trkpt>
      <trkpt lat="47.24557" lon="-2.28826">
        <ele>32.599998474121</ele>
        <time>2022-07-10T07:47:15.000Z</time>
      </trkpt>
      <trkpt lat="47.24578" lon="-2.28805">
        <ele>32.599998474121</ele>
        <time>2022-07-10T07:47:19.000Z</time>
      </trkpt>
      <trkpt lat="47.24583" lon="-2.288">
        <ele>32.599998474121</ele>
        <time>2022-07-10T07:47:20.000Z</time>
      </trkpt>
      <trkpt lat="47.24604" lon="-2.28782">
        <ele>32.599998474121</ele>
        <time>2022-07-10T07:47:24.000Z</time>
      </trkpt>
      <trkpt lat="47.24609" lon="-2.28778">
        <ele>32.599998474121</ele>
        <time>2022-07-10T07:47:25.000Z</time>
      </trkpt>
      <trkpt lat="47.24624" lon="-2.2876">
        <ele>32.599998474121</ele>
        <time>2022-07-10T07:47:28.000Z</time>
      </trkpt>
      <trkpt lat="47.24628" lon="-2.28753">
        <ele>32.599998474121</ele>
        <time>2022-07-10T07:47:29.000Z</time>
      </trkpt>
      <trkpt lat="47.24632" lon="-2.28747">
        <ele>32.599998474121</ele>
        <time>2022-07-10T07:47:30.000Z</time>
      </trkpt>
      <trkpt lat="47.24657" lon="-2.28711">
        <ele>32.599998474121</ele>
        <time>2022-07-10T07:47:36.000Z</time>
      </trkpt>
      <trkpt lat="47.24689" lon="-2.28672">
        <ele>32.599998474121</ele>
        <time>2022-07-10T07:47:43.000Z</time>
      </trkpt>
      <trkpt lat="47.24706" lon="-2.28648">
        <ele>32.599998474121</ele>
        <time>2022-07-10T07:47:47.000Z</time>
      </trkpt>
      <trkpt lat="47.24717" lon="-2.28638">
        <ele>32.599998474121</ele>
        <time>2022-07-10T07:47:49.000Z</time>
      </trkpt>
      <trkpt lat="47.24736" lon="-2.28614">
        <ele>32.599998474121</ele>
        <time>2022-07-10T07:47:53.000Z</time>
      </trkpt>
      <trkpt lat="47.24739" lon="-2.28606">
        <ele>32.599998474121</ele>
        <time>2022-07-10T07:47:54.000Z</time>
      </trkpt>
      <trkpt lat="47.24747" lon="-2.28573">
        <ele>32.599998474121</ele>
        <time>2022-07-10T07:47:58.000Z</time>
      </trkpt>
      <trkpt lat="47.2475" lon="-2.28565">
        <ele>32.599998474121</ele>
        <time>2022-07-10T07:47:59.000Z</time>
      </trkpt>
      <trkpt lat="47.24762" lon="-2.28548">
        <ele>32.599998474121</ele>
        <time>2022-07-10T07:48:02.000Z</time>
      </trkpt>
      <trkpt lat="47.24772" lon="-2.28538">
        <ele>32.599998474121</ele>
        <time>2022-07-10T07:48:04.000Z</time>
      </trkpt>
      <trkpt lat="47.24787" lon="-2.28523">
        <ele>32.599998474121</ele>
        <time>2022-07-10T07:48:07.000Z</time>
      </trkpt>
      <trkpt lat="47.24828" lon="-2.28492">
        <ele>32.599998474121</ele>
        <time>2022-07-10T07:48:14.000Z</time>
      </trkpt>
      <trkpt lat="47.24862" lon="-2.28464">
        <ele>32.599998474121</ele>
        <time>2022-07-10T07:48:20.000Z</time>
      </trkpt>
      <trkpt lat="47.24889" lon="-2.28434">
        <ele>32.599998474121</ele>
        <time>2022-07-10T07:48:25.000Z</time>
      </trkpt>
      <trkpt lat="47.24902" lon="-2.28425">
        <ele>31.799999237061</ele>
        <time>2022-07-10T07:48:27.000Z</time>
      </trkpt>
      <trkpt lat="47.24909" lon="-2.28421">
        <ele>31.39999961853</ele>
        <time>2022-07-10T07:48:28.000Z</time>
      </trkpt>
      <trkpt lat="47.24916" lon="-2.28418">
        <ele>31</ele>
        <time>2022-07-10T07:48:29.000Z</time>
      </trkpt>
      <trkpt lat="47.24923" lon="-2.28415">
        <ele>30.60000038147</ele>
        <time>2022-07-10T07:48:30.000Z</time>
      </trkpt>
      <trkpt lat="47.24936" lon="-2.2841">
        <ele>30.60000038147</ele>
        <time>2022-07-10T07:48:32.000Z</time>
      </trkpt>
      <trkpt lat="47.24943" lon="-2.28409">
        <ele>30.200000762939</ele>
        <time>2022-07-10T07:48:33.000Z</time>
      </trkpt>
      <trkpt lat="47.2495" lon="-2.28407">
        <ele>29.799999237061</ele>
        <time>2022-07-10T07:48:34.000Z</time>
      </trkpt>
      <trkpt lat="47.24957" lon="-2.28404">
        <ele>29.39999961853</ele>
        <time>2022-07-10T07:48:35.000Z</time>
      </trkpt>
      <trkpt lat="47.24963" lon="-2.28401">
        <ele>28.799999237061</ele>
        <time>2022-07-10T07:48:36.000Z</time>
      </trkpt>
      <trkpt lat="47.24969" lon="-2.28398">
        <ele>28.39999961853</ele>
        <time>2022-07-10T07:48:37.000Z</time>
      </trkpt>
      <trkpt lat="47.24982" lon="-2.28388">
        <ele>28</ele>
        <time>2022-07-10T07:48:39.000Z</time>
      </trkpt>
      <trkpt lat="47.24987" lon="-2.28381">
        <ele>27.60000038147</ele>
        <time>2022-07-10T07:48:40.000Z</time>
      </trkpt>
      <trkpt lat="47.24991" lon="-2.28372">
        <ele>27.200000762939</ele>
        <time>2022-07-10T07:48:41.000Z</time>
      </trkpt>
      <trkpt lat="47.24995" lon="-2.28364">
        <ele>26.799999237061</ele>
        <time>2022-07-10T07:48:42.000Z</time>
      </trkpt>
      <trkpt lat="47.24998" lon="-2.28355">
        <ele>26.200000762939</ele>
        <time>2022-07-10T07:48:43.000Z</time>
      </trkpt>
      <trkpt lat="47.25011" lon="-2.28336">
        <ele>26.200000762939</ele>
        <time>2022-07-10T07:48:46.000Z</time>
      </trkpt>
      <trkpt lat="47.2502" lon="-2.28328">
        <ele>26.200000762939</ele>
        <time>2022-07-10T07:48:48.000Z</time>
      </trkpt>
      <trkpt lat="47.25027" lon="-2.2832">
        <ele>26.200000762939</ele>
        <time>2022-07-10T07:48:50.000Z</time>
      </trkpt>
      <trkpt lat="47.25029" lon="-2.2831">
        <ele>26.200000762939</ele>
        <time>2022-07-10T07:48:52.000Z</time>
      </trkpt>
      <trkpt lat="47.2503" lon="-2.28305">
        <ele>26.799999237061</ele>
        <time>2022-07-10T07:48:53.000Z</time>
      </trkpt>
      <trkpt lat="47.25029" lon="-2.283">
        <ele>27.200000762939</ele>
        <time>2022-07-10T07:48:54.000Z</time>
      </trkpt>
      <trkpt lat="47.2503" lon="-2.28294">
        <ele>27.60000038147</ele>
        <time>2022-07-10T07:48:55.000Z</time>
      </trkpt>
      <trkpt lat="47.2503" lon="-2.28286">
        <ele>28</ele>
        <time>2022-07-10T07:48:56.000Z</time>
      </trkpt>
      <trkpt lat="47.25031" lon="-2.28278">
        <ele>28.39999961853</ele>
        <time>2022-07-10T07:48:57.000Z</time>
      </trkpt>
      <trkpt lat="47.25037" lon="-2.28236">
        <ele>28.39999961853</ele>
        <time>2022-07-10T07:49:02.000Z</time>
      </trkpt>
      <trkpt lat="47.2505" lon="-2.28172">
        <ele>28.39999961853</ele>
        <time>2022-07-10T07:49:10.000Z</time>
      </trkpt>
      <trkpt lat="47.25054" lon="-2.28158">
        <ele>28.39999961853</ele>
        <time>2022-07-10T07:49:12.000Z</time>
      </trkpt>
      <trkpt lat="47.25061" lon="-2.28137">
        <ele>28.799999237061</ele>
        <time>2022-07-10T07:49:15.000Z</time>
      </trkpt>
      <trkpt lat="47.25065" lon="-2.28131">
        <ele>29.799999237061</ele>
        <time>2022-07-10T07:49:16.000Z</time>
      </trkpt>
      <trkpt lat="47.25067" lon="-2.28125">
        <ele>30.200000762939</ele>
        <time>2022-07-10T07:49:17.000Z</time>
      </trkpt>
      <trkpt lat="47.2507" lon="-2.28118">
        <ele>30.60000038147</ele>
        <time>2022-07-10T07:49:18.000Z</time>
      </trkpt>
      <trkpt lat="47.25072" lon="-2.28105">
        <ele>30.60000038147</ele>
        <time>2022-07-10T07:49:20.000Z</time>
      </trkpt>
      <trkpt lat="47.25074" lon="-2.28092">
        <ele>30.60000038147</ele>
        <time>2022-07-10T07:49:22.000Z</time>
      </trkpt>
      <trkpt lat="47.25079" lon="-2.28068">
        <ele>30.60000038147</ele>
        <time>2022-07-10T07:49:25.000Z</time>
      </trkpt>
      <trkpt lat="47.25085" lon="-2.28052">
        <ele>30.60000038147</ele>
        <time>2022-07-10T07:49:27.000Z</time>
      </trkpt>
      <trkpt lat="47.25106" lon="-2.28006">
        <ele>30.60000038147</ele>
        <time>2022-07-10T07:49:33.000Z</time>
      </trkpt>
      <trkpt lat="47.25119" lon="-2.27977">
        <ele>30.60000038147</ele>
        <time>2022-07-10T07:49:37.000Z</time>
      </trkpt>
      <trkpt lat="47.25128" lon="-2.27965">
        <ele>30.60000038147</ele>
        <time>2022-07-10T07:49:39.000Z</time>
      </trkpt>
      <trkpt lat="47.25138" lon="-2.27955">
        <ele>30.60000038147</ele>
        <time>2022-07-10T07:49:41.000Z</time>
      </trkpt>
      <trkpt lat="47.25148" lon="-2.27947">
        <ele>30.60000038147</ele>
        <time>2022-07-10T07:49:43.000Z</time>
      </trkpt>
      <trkpt lat="47.25154" lon="-2.27943">
        <ele>30.60000038147</ele>
        <time>2022-07-10T07:49:44.000Z</time>
      </trkpt>
      <trkpt lat="47.2516" lon="-2.2794">
        <ele>30.60000038147</ele>
        <time>2022-07-10T07:49:45.000Z</time>
      </trkpt>
      <trkpt lat="47.25176" lon="-2.27929">
        <ele>31.200000762939</ele>
        <time>2022-07-10T07:49:48.000Z</time>
      </trkpt>
      <trkpt lat="47.25182" lon="-2.27925">
        <ele>31.60000038147</ele>
        <time>2022-07-10T07:49:49.000Z</time>
      </trkpt>
      <trkpt lat="47.25187" lon="-2.27921">
        <ele>32</ele>
        <time>2022-07-10T07:49:50.000Z</time>
      </trkpt>
      <trkpt lat="47.25192" lon="-2.27917">
        <ele>32.400001525879</ele>
        <time>2022-07-10T07:49:51.000Z</time>
      </trkpt>
      <trkpt lat="47.25198" lon="-2.27913">
        <ele>32.799999237061</ele>
        <time>2022-07-10T07:49:52.000Z</time>
      </trkpt>
      <trkpt lat="47.25203" lon="-2.2791">
        <ele>32.799999237061</ele>
        <time>2022-07-10T07:49:53.000Z</time>
      </trkpt>
      <trkpt lat="47.25214" lon="-2.27905">
        <ele>32.799999237061</ele>
        <time>2022-07-10T07:49:55.000Z</time>
      </trkpt>
      <trkpt lat="47.25231" lon="-2.27897">
        <ele>32.799999237061</ele>
        <time>2022-07-10T07:49:58.000Z</time>
      </trkpt>
      <trkpt lat="47.25252" lon="-2.27884">
        <ele>32.799999237061</ele>
        <time>2022-07-10T07:50:02.000Z</time>
      </trkpt>
      <trkpt lat="47.25286" lon="-2.27874">
        <ele>32.799999237061</ele>
        <time>2022-07-10T07:50:08.000Z</time>
      </trkpt>
      <trkpt lat="47.25303" lon="-2.27871">
        <ele>33.200000762939</ele>
        <time>2022-07-10T07:50:11.000Z</time>
      </trkpt>
      <trkpt lat="47.25309" lon="-2.2787">
        <ele>33.599998474121</ele>
        <time>2022-07-10T07:50:12.000Z</time>
      </trkpt>
      <trkpt lat="47.25315" lon="-2.27868">
        <ele>34.200000762939</ele>
        <time>2022-07-10T07:50:13.000Z</time>
      </trkpt>
      <trkpt lat="47.25321" lon="-2.27868">
        <ele>34.599998474121</ele>
        <time>2022-07-10T07:50:14.000Z</time>
      </trkpt>
      <trkpt lat="47.25327" lon="-2.27867">
        <ele>35</ele>
        <time>2022-07-10T07:50:15.000Z</time>
      </trkpt>
      <trkpt lat="47.25359" lon="-2.2786">
        <ele>35</ele>
        <time>2022-07-10T07:50:21.000Z</time>
      </trkpt>
      <trkpt lat="47.25396" lon="-2.27847">
        <ele>35</ele>
        <time>2022-07-10T07:50:28.000Z</time>
      </trkpt>
      <trkpt lat="47.25421" lon="-2.27834">
        <ele>35.400001525879</ele>
        <time>2022-07-10T07:50:33.000Z</time>
      </trkpt>
      <trkpt lat="47.25426" lon="-2.27831">
        <ele>35.799999237061</ele>
        <time>2022-07-10T07:50:34.000Z</time>
      </trkpt>
      <trkpt lat="47.25431" lon="-2.27827">
        <ele>36.200000762939</ele>
        <time>2022-07-10T07:50:35.000Z</time>
      </trkpt>
      <trkpt lat="47.25435" lon="-2.27824">
        <ele>36.599998474121</ele>
        <time>2022-07-10T07:50:36.000Z</time>
      </trkpt>
      <trkpt lat="47.2544" lon="-2.27819">
        <ele>37</ele>
        <time>2022-07-10T07:50:37.000Z</time>
      </trkpt>
      <trkpt lat="47.25444" lon="-2.27814">
        <ele>37</ele>
        <time>2022-07-10T07:50:38.000Z</time>
      </trkpt>
      <trkpt lat="47.25453" lon="-2.27805">
        <ele>37</ele>
        <time>2022-07-10T07:50:40.000Z</time>
      </trkpt>
      <trkpt lat="47.25479" lon="-2.27771">
        <ele>37</ele>
        <time>2022-07-10T07:50:47.000Z</time>
      </trkpt>
      <trkpt lat="47.25497" lon="-2.27751">
        <ele>37</ele>
        <time>2022-07-10T07:50:52.000Z</time>
      </trkpt>
      <trkpt lat="47.25499" lon="-2.27746">
        <ele>37</ele>
        <time>2022-07-10T07:50:53.000Z</time>
      </trkpt>
      <trkpt lat="47.25499" lon="-2.27739">
        <ele>37.400001525879</ele>
        <time>2022-07-10T07:50:54.000Z</time>
      </trkpt>
      <trkpt lat="47.255" lon="-2.27733">
        <ele>38.200000762939</ele>
        <time>2022-07-10T07:50:55.000Z</time>
      </trkpt>
      <trkpt lat="47.25501" lon="-2.27727">
        <ele>38.599998474121</ele>
        <time>2022-07-10T07:50:56.000Z</time>
      </trkpt>
      <trkpt lat="47.25501" lon="-2.27721">
        <ele>39</ele>
        <time>2022-07-10T07:50:57.000Z</time>
      </trkpt>
      <trkpt lat="47.255" lon="-2.27715">
        <ele>39</ele>
        <time>2022-07-10T07:50:58.000Z</time>
      </trkpt>
      <trkpt lat="47.25498" lon="-2.27702">
        <ele>39</ele>
        <time>2022-07-10T07:51:00.000Z</time>
      </trkpt>
      <trkpt lat="47.25492" lon="-2.27672">
        <ele>39</ele>
        <time>2022-07-10T07:51:06.000Z</time>
      </trkpt>
      <trkpt lat="47.2549" lon="-2.2765">
        <ele>39</ele>
        <time>2022-07-10T07:51:12.000Z</time>
      </trkpt>
      <trkpt lat="47.25485" lon="-2.27629">
        <ele>39</ele>
        <time>2022-07-10T07:51:19.000Z</time>
      </trkpt>
      <trkpt lat="47.25484" lon="-2.27624">
        <ele>39</ele>
        <time>2022-07-10T07:51:23.000Z</time>
      </trkpt>
      <trkpt lat="47.25482" lon="-2.27621">
        <ele>39</ele>
        <time>2022-07-10T07:51:41.000Z</time>
      </trkpt>
      <trkpt lat="47.25476" lon="-2.27613">
        <ele>39</ele>
        <time>2022-07-10T07:51:44.000Z</time>
      </trkpt>
      <trkpt lat="47.25465" lon="-2.27588">
        <ele>39</ele>
        <time>2022-07-10T07:51:50.000Z</time>
      </trkpt>
      <trkpt lat="47.25454" lon="-2.27547">
        <ele>39</ele>
        <time>2022-07-10T07:51:58.000Z</time>
      </trkpt>
      <trkpt lat="47.25446" lon="-2.27522">
        <ele>39</ele>
        <time>2022-07-10T07:52:03.000Z</time>
      </trkpt>
      <trkpt lat="47.25437" lon="-2.27498">
        <ele>39</ele>
        <time>2022-07-10T07:52:09.000Z</time>
      </trkpt>
      <trkpt lat="47.25425" lon="-2.27473">
        <ele>39</ele>
        <time>2022-07-10T07:52:13.000Z</time>
      </trkpt>
      <trkpt lat="47.25407" lon="-2.27427">
        <ele>39</ele>
        <time>2022-07-10T07:52:20.000Z</time>
      </trkpt>
      <trkpt lat="47.25398" lon="-2.27396">
        <ele>39</ele>
        <time>2022-07-10T07:52:26.000Z</time>
      </trkpt>
      <trkpt lat="47.25394" lon="-2.27386">
        <ele>39</ele>
        <time>2022-07-10T07:52:30.000Z</time>
      </trkpt>
      <trkpt lat="47.25393" lon="-2.27385">
        <ele>39</ele>
        <time>2022-07-10T07:52:31.000Z</time>
      </trkpt>
      <trkpt lat="47.2538" lon="-2.27375">
        <ele>39</ele>
        <time>2022-07-10T07:52:36.000Z</time>
      </trkpt>
      <trkpt lat="47.25369" lon="-2.27357">
        <ele>39</ele>
        <time>2022-07-10T07:52:40.000Z</time>
      </trkpt>
      <trkpt lat="47.25365" lon="-2.27341">
        <ele>39</ele>
        <time>2022-07-10T07:52:44.000Z</time>
      </trkpt>
      <trkpt lat="47.25363" lon="-2.27336">
        <ele>39</ele>
        <time>2022-07-10T07:52:45.000Z</time>
      </trkpt>
      <trkpt lat="47.25354" lon="-2.27321">
        <ele>39</ele>
        <time>2022-07-10T07:52:48.000Z</time>
      </trkpt>
      <trkpt lat="47.25348" lon="-2.27302">
        <ele>39</ele>
        <time>2022-07-10T07:52:51.000Z</time>
      </trkpt>
      <trkpt lat="47.25346" lon="-2.27296">
        <ele>39</ele>
        <time>2022-07-10T07:52:52.000Z</time>
      </trkpt>
      <trkpt lat="47.25335" lon="-2.27278">
        <ele>39</ele>
        <time>2022-07-10T07:52:56.000Z</time>
      </trkpt>
      <trkpt lat="47.25332" lon="-2.27273">
        <ele>39</ele>
        <time>2022-07-10T07:52:57.000Z</time>
      </trkpt>
      <trkpt lat="47.25317" lon="-2.27257">
        <ele>39</ele>
        <time>2022-07-10T07:53:01.000Z</time>
      </trkpt>
      <trkpt lat="47.25313" lon="-2.27252">
        <ele>39</ele>
        <time>2022-07-10T07:53:02.000Z</time>
      </trkpt>
      <trkpt lat="47.25301" lon="-2.27227">
        <ele>39</ele>
        <time>2022-07-10T07:53:06.000Z</time>
      </trkpt>
      <trkpt lat="47.25298" lon="-2.2722">
        <ele>39</ele>
        <time>2022-07-10T07:53:07.000Z</time>
      </trkpt>
      <trkpt lat="47.2529" lon="-2.27195">
        <ele>39</ele>
        <time>2022-07-10T07:53:11.000Z</time>
      </trkpt>
      <trkpt lat="47.2528" lon="-2.27179">
        <ele>39</ele>
        <time>2022-07-10T07:53:14.000Z</time>
      </trkpt>
      <trkpt lat="47.25256" lon="-2.27141">
        <ele>39</ele>
        <time>2022-07-10T07:53:21.000Z</time>
      </trkpt>
      <trkpt lat="47.25251" lon="-2.27139">
        <ele>39</ele>
        <time>2022-07-10T07:53:22.000Z</time>
      </trkpt>
      <trkpt lat="47.25239" lon="-2.2712">
        <ele>39</ele>
        <time>2022-07-10T07:53:25.000Z</time>
      </trkpt>
      <trkpt lat="47.25214" lon="-2.27072">
        <ele>39</ele>
        <time>2022-07-10T07:53:33.000Z</time>
      </trkpt>
      <trkpt lat="47.252" lon="-2.27047">
        <ele>39</ele>
        <time>2022-07-10T07:53:37.000Z</time>
      </trkpt>
      <trkpt lat="47.25194" lon="-2.27034">
        <ele>39</ele>
        <time>2022-07-10T07:53:39.000Z</time>
      </trkpt>
      <trkpt lat="47.2518" lon="-2.27007">
        <ele>39</ele>
        <time>2022-07-10T07:53:44.000Z</time>
      </trkpt>
      <trkpt lat="47.25178" lon="-2.26999">
        <ele>39</ele>
        <time>2022-07-10T07:53:45.000Z</time>
      </trkpt>
      <trkpt lat="47.25173" lon="-2.2698">
        <ele>39</ele>
        <time>2022-07-10T07:53:48.000Z</time>
      </trkpt>
      <trkpt lat="47.2517" lon="-2.26968">
        <ele>39</ele>
        <time>2022-07-10T07:53:52.000Z</time>
      </trkpt>
      <trkpt lat="47.25166" lon="-2.26968">
        <ele>39</ele>
        <time>2022-07-10T07:53:54.000Z</time>
      </trkpt>
      <trkpt lat="47.25162" lon="-2.26963">
        <ele>39</ele>
        <time>2022-07-10T07:53:56.000Z</time>
      </trkpt>
      <trkpt lat="47.25154" lon="-2.26947">
        <ele>39</ele>
        <time>2022-07-10T07:54:00.000Z</time>
      </trkpt>
      <trkpt lat="47.25151" lon="-2.26942">
        <ele>39</ele>
        <time>2022-07-10T07:54:01.000Z</time>
      </trkpt>
      <trkpt lat="47.25149" lon="-2.26936">
        <ele>39</ele>
        <time>2022-07-10T07:54:02.000Z</time>
      </trkpt>
      <trkpt lat="47.25146" lon="-2.26923">
        <ele>39</ele>
        <time>2022-07-10T07:54:04.000Z</time>
      </trkpt>
      <trkpt lat="47.25146" lon="-2.26908">
        <ele>39</ele>
        <time>2022-07-10T07:54:06.000Z</time>
      </trkpt>
      <trkpt lat="47.25146" lon="-2.26902">
        <ele>39</ele>
        <time>2022-07-10T07:54:07.000Z</time>
      </trkpt>
      <trkpt lat="47.25148" lon="-2.26888">
        <ele>39</ele>
        <time>2022-07-10T07:54:09.000Z</time>
      </trkpt>
      <trkpt lat="47.25148" lon="-2.26875">
        <ele>39</ele>
        <time>2022-07-10T07:54:11.000Z</time>
      </trkpt>
      <trkpt lat="47.2515" lon="-2.26855">
        <ele>39</ele>
        <time>2022-07-10T07:54:14.000Z</time>
      </trkpt>
      <trkpt lat="47.25161" lon="-2.26816">
        <ele>39</ele>
        <time>2022-07-10T07:54:20.000Z</time>
      </trkpt>
      <trkpt lat="47.25166" lon="-2.26804">
        <ele>39</ele>
        <time>2022-07-10T07:54:22.000Z</time>
      </trkpt>
      <trkpt lat="47.25177" lon="-2.26788">
        <ele>39</ele>
        <time>2022-07-10T07:54:25.000Z</time>
      </trkpt>
      <trkpt lat="47.25185" lon="-2.26779">
        <ele>39</ele>
        <time>2022-07-10T07:54:27.000Z</time>
      </trkpt>
      <trkpt lat="47.25194" lon="-2.26774">
        <ele>39</ele>
        <time>2022-07-10T07:54:29.000Z</time>
      </trkpt>
      <trkpt lat="47.25223" lon="-2.26753">
        <ele>39</ele>
        <time>2022-07-10T07:54:35.000Z</time>
      </trkpt>
      <trkpt lat="47.25252" lon="-2.26731">
        <ele>39</ele>
        <time>2022-07-10T07:54:41.000Z</time>
      </trkpt>
      <trkpt lat="47.25263" lon="-2.26725">
        <ele>39</ele>
        <time>2022-07-10T07:54:43.000Z</time>
      </trkpt>
      <trkpt lat="47.2528" lon="-2.26721">
        <ele>39</ele>
        <time>2022-07-10T07:54:46.000Z</time>
      </trkpt>
      <trkpt lat="47.25285" lon="-2.26721">
        <ele>39</ele>
        <time>2022-07-10T07:54:47.000Z</time>
      </trkpt>
      <trkpt lat="47.25304" lon="-2.26722">
        <ele>39</ele>
        <time>2022-07-10T07:54:51.000Z</time>
      </trkpt>
      <trkpt lat="47.25338" lon="-2.26732">
        <ele>39</ele>
        <time>2022-07-10T07:54:57.000Z</time>
      </trkpt>
      <trkpt lat="47.25382" lon="-2.26736">
        <ele>39</ele>
        <time>2022-07-10T07:55:04.000Z</time>
      </trkpt>
      <trkpt lat="47.25423" lon="-2.26742">
        <ele>38.599998474121</ele>
        <time>2022-07-10T07:55:11.000Z</time>
      </trkpt>
      <trkpt lat="47.25429" lon="-2.26744">
        <ele>38.200000762939</ele>
        <time>2022-07-10T07:55:12.000Z</time>
      </trkpt>
      <trkpt lat="47.25433" lon="-2.26746">
        <ele>37.799999237061</ele>
        <time>2022-07-10T07:55:13.000Z</time>
      </trkpt>
      <trkpt lat="47.25438" lon="-2.26747">
        <ele>37.400001525879</ele>
        <time>2022-07-10T07:55:14.000Z</time>
      </trkpt>
      <trkpt lat="47.25443" lon="-2.26749">
        <ele>37</ele>
        <time>2022-07-10T07:55:15.000Z</time>
      </trkpt>
      <trkpt lat="47.2545" lon="-2.26743">
        <ele>37</ele>
        <time>2022-07-10T07:55:17.000Z</time>
      </trkpt>
      <trkpt lat="47.25461" lon="-2.26722">
        <ele>37</ele>
        <time>2022-07-10T07:55:21.000Z</time>
      </trkpt>
      <trkpt lat="47.25469" lon="-2.26719">
        <ele>36.599998474121</ele>
        <time>2022-07-10T07:55:24.000Z</time>
      </trkpt>
      <trkpt lat="47.2547" lon="-2.26717">
        <ele>36.200000762939</ele>
        <time>2022-07-10T07:55:25.000Z</time>
      </trkpt>
      <trkpt lat="47.2547" lon="-2.26716">
        <ele>35.799999237061</ele>
        <time>2022-07-10T07:55:26.000Z</time>
      </trkpt>
      <trkpt lat="47.2547" lon="-2.26713">
        <ele>35</ele>
        <time>2022-07-10T07:55:27.000Z</time>
      </trkpt>
      <trkpt lat="47.25469" lon="-2.26694">
        <ele>35</ele>
        <time>2022-07-10T07:55:31.000Z</time>
      </trkpt>
      <trkpt lat="47.25459" lon="-2.26678">
        <ele>35</ele>
        <time>2022-07-10T07:55:35.000Z</time>
      </trkpt>
      <trkpt lat="47.25446" lon="-2.26647">
        <ele>35</ele>
        <time>2022-07-10T07:55:40.000Z</time>
      </trkpt>
      <trkpt lat="47.25444" lon="-2.26625">
        <ele>35</ele>
        <time>2022-07-10T07:55:43.000Z</time>
      </trkpt>
      <trkpt lat="47.25443" lon="-2.26608">
        <ele>35</ele>
        <time>2022-07-10T07:55:45.000Z</time>
      </trkpt>
      <trkpt lat="47.2544" lon="-2.2659">
        <ele>34.599998474121</ele>
        <time>2022-07-10T07:55:47.000Z</time>
      </trkpt>
      <trkpt lat="47.25437" lon="-2.26581">
        <ele>34.200000762939</ele>
        <time>2022-07-10T07:55:48.000Z</time>
      </trkpt>
      <trkpt lat="47.25433" lon="-2.26572">
        <ele>33.799999237061</ele>
        <time>2022-07-10T07:55:49.000Z</time>
      </trkpt>
      <trkpt lat="47.2543" lon="-2.26564">
        <ele>33.400001525879</ele>
        <time>2022-07-10T07:55:50.000Z</time>
      </trkpt>
      <trkpt lat="47.25428" lon="-2.26556">
        <ele>33</ele>
        <time>2022-07-10T07:55:51.000Z</time>
      </trkpt>
      <trkpt lat="47.25426" lon="-2.2654">
        <ele>33</ele>
        <time>2022-07-10T07:55:53.000Z</time>
      </trkpt>
      <trkpt lat="47.25431" lon="-2.26522">
        <ele>33</ele>
        <time>2022-07-10T07:55:56.000Z</time>
      </trkpt>
      <trkpt lat="47.25448" lon="-2.26513">
        <ele>33</ele>
        <time>2022-07-10T07:56:00.000Z</time>
      </trkpt>
      <trkpt lat="47.2546" lon="-2.26521">
        <ele>33</ele>
        <time>2022-07-10T07:56:03.000Z</time>
      </trkpt>
      <trkpt lat="47.25466" lon="-2.26526">
        <ele>33</ele>
        <time>2022-07-10T07:56:05.000Z</time>
      </trkpt>
      <trkpt lat="47.2547" lon="-2.26525">
        <ele>33</ele>
        <time>2022-07-10T07:56:06.000Z</time>
      </trkpt>
      <trkpt lat="47.25473" lon="-2.26521">
        <ele>33</ele>
        <time>2022-07-10T07:56:07.000Z</time>
      </trkpt>
      <trkpt lat="47.25476" lon="-2.26505">
        <ele>33</ele>
        <time>2022-07-10T07:56:10.000Z</time>
      </trkpt>
      <trkpt lat="47.25472" lon="-2.26492">
        <ele>32.400001525879</ele>
        <time>2022-07-10T07:56:12.000Z</time>
      </trkpt>
      <trkpt lat="47.2547" lon="-2.26487">
        <ele>32</ele>
        <time>2022-07-10T07:56:13.000Z</time>
      </trkpt>
      <trkpt lat="47.25467" lon="-2.26481">
        <ele>31.60000038147</ele>
        <time>2022-07-10T07:56:14.000Z</time>
      </trkpt>
      <trkpt lat="47.25464" lon="-2.26474">
        <ele>31</ele>
        <time>2022-07-10T07:56:15.000Z</time>
      </trkpt>
      <trkpt lat="47.25461" lon="-2.26466">
        <ele>29.60000038147</ele>
        <time>2022-07-10T07:56:16.000Z</time>
      </trkpt>
      <trkpt lat="47.2546" lon="-2.2646">
        <ele>29</ele>
        <time>2022-07-10T07:56:17.000Z</time>
      </trkpt>
      <trkpt lat="47.25458" lon="-2.26453">
        <ele>28.200000762939</ele>
        <time>2022-07-10T07:56:18.000Z</time>
      </trkpt>
      <trkpt lat="47.25458" lon="-2.26446">
        <ele>28.200000762939</ele>
        <time>2022-07-10T07:56:19.000Z</time>
      </trkpt>
      <trkpt lat="47.25456" lon="-2.26438">
        <ele>27.799999237061</ele>
        <time>2022-07-10T07:56:21.000Z</time>
      </trkpt>
      <trkpt lat="47.25452" lon="-2.26437">
        <ele>27.39999961853</ele>
        <time>2022-07-10T07:56:22.000Z</time>
      </trkpt>
      <trkpt lat="47.25449" lon="-2.26437">
        <ele>27</ele>
        <time>2022-07-10T07:56:23.000Z</time>
      </trkpt>
      <trkpt lat="47.25444" lon="-2.26437">
        <ele>26.60000038147</ele>
        <time>2022-07-10T07:56:24.000Z</time>
      </trkpt>
      <trkpt lat="47.2544" lon="-2.26437">
        <ele>26.200000762939</ele>
        <time>2022-07-10T07:56:25.000Z</time>
      </trkpt>
      <trkpt lat="47.25437" lon="-2.26436">
        <ele>26.200000762939</ele>
        <time>2022-07-10T07:56:26.000Z</time>
      </trkpt>
      <trkpt lat="47.25434" lon="-2.26433">
        <ele>26.200000762939</ele>
        <time>2022-07-10T07:56:27.000Z</time>
      </trkpt>
      <trkpt lat="47.25432" lon="-2.2642">
        <ele>26.200000762939</ele>
        <time>2022-07-10T07:56:29.000Z</time>
      </trkpt>
      <trkpt lat="47.25429" lon="-2.26398">
        <ele>26.200000762939</ele>
        <time>2022-07-10T07:56:32.000Z</time>
      </trkpt>
      <trkpt lat="47.25427" lon="-2.26389">
        <ele>26.200000762939</ele>
        <time>2022-07-10T07:56:34.000Z</time>
      </trkpt>
      <trkpt lat="47.25419" lon="-2.26373">
        <ele>26.200000762939</ele>
        <time>2022-07-10T07:56:39.000Z</time>
      </trkpt>
      <trkpt lat="47.25415" lon="-2.26368">
        <ele>27</ele>
        <time>2022-07-10T07:56:41.000Z</time>
      </trkpt>
      <trkpt lat="47.25414" lon="-2.26366">
        <ele>27.60000038147</ele>
        <time>2022-07-10T07:56:42.000Z</time>
      </trkpt>
      <trkpt lat="47.25413" lon="-2.26363">
        <ele>28</ele>
        <time>2022-07-10T07:56:43.000Z</time>
      </trkpt>
      <trkpt lat="47.25412" lon="-2.2636">
        <ele>28.39999961853</ele>
        <time>2022-07-10T07:56:44.000Z</time>
      </trkpt>
      <trkpt lat="47.25411" lon="-2.26355">
        <ele>28.39999961853</ele>
        <time>2022-07-10T07:56:45.000Z</time>
      </trkpt>
      <trkpt lat="47.25406" lon="-2.26331">
        <ele>28.39999961853</ele>
        <time>2022-07-10T07:56:49.000Z</time>
      </trkpt>
      <trkpt lat="47.25401" lon="-2.26316">
        <ele>28.39999961853</ele>
        <time>2022-07-10T07:56:53.000Z</time>
      </trkpt>
      <trkpt lat="47.25397" lon="-2.26296">
        <ele>28.799999237061</ele>
        <time>2022-07-10T07:56:57.000Z</time>
      </trkpt>
      <trkpt lat="47.25397" lon="-2.26292">
        <ele>29.39999961853</ele>
        <time>2022-07-10T07:56:58.000Z</time>
      </trkpt>
      <trkpt lat="47.25396" lon="-2.26289">
        <ele>29.799999237061</ele>
        <time>2022-07-10T07:56:59.000Z</time>
      </trkpt>
      <trkpt lat="47.25396" lon="-2.26285">
        <ele>30.200000762939</ele>
        <time>2022-07-10T07:57:00.000Z</time>
      </trkpt>
      <trkpt lat="47.25396" lon="-2.2628">
        <ele>30.60000038147</ele>
        <time>2022-07-10T07:57:01.000Z</time>
      </trkpt>
      <trkpt lat="47.25397" lon="-2.26267">
        <ele>30.60000038147</ele>
        <time>2022-07-10T07:57:03.000Z</time>
      </trkpt>
      <trkpt lat="47.25397" lon="-2.26258">
        <ele>30.200000762939</ele>
        <time>2022-07-10T07:57:04.000Z</time>
      </trkpt>
      <trkpt lat="47.25394" lon="-2.26249">
        <ele>29.799999237061</ele>
        <time>2022-07-10T07:57:05.000Z</time>
      </trkpt>
      <trkpt lat="47.25392" lon="-2.26241">
        <ele>29</ele>
        <time>2022-07-10T07:57:06.000Z</time>
      </trkpt>
      <trkpt lat="47.25389" lon="-2.26235">
        <ele>28.60000038147</ele>
        <time>2022-07-10T07:57:07.000Z</time>
      </trkpt>
      <trkpt lat="47.2538" lon="-2.26221">
        <ele>28.60000038147</ele>
        <time>2022-07-10T07:57:10.000Z</time>
      </trkpt>
      <trkpt lat="47.25376" lon="-2.26211">
        <ele>28.60000038147</ele>
        <time>2022-07-10T07:57:12.000Z</time>
      </trkpt>
      <trkpt lat="47.25373" lon="-2.26199">
        <ele>28.60000038147</ele>
        <time>2022-07-10T07:57:14.000Z</time>
      </trkpt>
      <trkpt lat="47.25371" lon="-2.26187">
        <ele>28.200000762939</ele>
        <time>2022-07-10T07:57:16.000Z</time>
      </trkpt>
      <trkpt lat="47.2537" lon="-2.26181">
        <ele>27.799999237061</ele>
        <time>2022-07-10T07:57:17.000Z</time>
      </trkpt>
      <trkpt lat="47.25369" lon="-2.26176">
        <ele>27.200000762939</ele>
        <time>2022-07-10T07:57:18.000Z</time>
      </trkpt>
      <trkpt lat="47.25368" lon="-2.26172">
        <ele>26.799999237061</ele>
        <time>2022-07-10T07:57:19.000Z</time>
      </trkpt>
      <trkpt lat="47.25366" lon="-2.26169">
        <ele>26.39999961853</ele>
        <time>2022-07-10T07:57:20.000Z</time>
      </trkpt>
      <trkpt lat="47.25365" lon="-2.26167">
        <ele>26.39999961853</ele>
        <time>2022-07-10T07:57:21.000Z</time>
      </trkpt>
      <trkpt lat="47.25363" lon="-2.26166">
        <ele>26.39999961853</ele>
        <time>2022-07-10T07:57:22.000Z</time>
      </trkpt>
      <trkpt lat="47.25352" lon="-2.26162">
        <ele>26.39999961853</ele>
        <time>2022-07-10T07:57:26.000Z</time>
      </trkpt>
      <trkpt lat="47.2535" lon="-2.26162">
        <ele>27</ele>
        <time>2022-07-10T07:57:28.000Z</time>
      </trkpt>
      <trkpt lat="47.2535" lon="-2.26164">
        <ele>27.39999961853</ele>
        <time>2022-07-10T07:57:29.000Z</time>
      </trkpt>
      <trkpt lat="47.25349" lon="-2.26165">
        <ele>27.799999237061</ele>
        <time>2022-07-10T07:57:30.000Z</time>
      </trkpt>
      <trkpt lat="47.25349" lon="-2.26167">
        <ele>28.60000038147</ele>
        <time>2022-07-10T07:57:31.000Z</time>
      </trkpt>
      <trkpt lat="47.25344" lon="-2.26167">
        <ele>28.60000038147</ele>
        <time>2022-07-10T07:57:35.000Z</time>
      </trkpt>
      <trkpt lat="47.25338" lon="-2.26166">
        <ele>29</ele>
        <time>2022-07-10T07:57:37.000Z</time>
      </trkpt>
      <trkpt lat="47.25336" lon="-2.26164">
        <ele>29.60000038147</ele>
        <time>2022-07-10T07:57:38.000Z</time>
      </trkpt>
      <trkpt lat="47.25335" lon="-2.26164">
        <ele>30</ele>
        <time>2022-07-10T07:57:39.000Z</time>
      </trkpt>
      <trkpt lat="47.25335" lon="-2.26164">
        <ele>30.39999961853</ele>
        <time>2022-07-10T07:57:40.000Z</time>
      </trkpt>
      <trkpt lat="47.25337" lon="-2.2616">
        <ele>30.799999237061</ele>
        <time>2022-07-10T07:58:22.000Z</time>
      </trkpt>
      <trkpt lat="47.2534" lon="-2.26158">
        <ele>30.39999961853</ele>
        <time>2022-07-10T07:58:25.000Z</time>
      </trkpt>
      <trkpt lat="47.2534" lon="-2.26158">
        <ele>30</ele>
        <time>2022-07-10T07:58:26.000Z</time>
      </trkpt>
      <trkpt lat="47.25341" lon="-2.26157">
        <ele>29.39999961853</ele>
        <time>2022-07-10T07:58:27.000Z</time>
      </trkpt>
      <trkpt lat="47.25342" lon="-2.26157">
        <ele>29</ele>
        <time>2022-07-10T07:58:28.000Z</time>
      </trkpt>
      <trkpt lat="47.25345" lon="-2.26157">
        <ele>28.60000038147</ele>
        <time>2022-07-10T07:58:29.000Z</time>
      </trkpt>
      <trkpt lat="47.25354" lon="-2.26156">
        <ele>28.200000762939</ele>
        <time>2022-07-10T07:58:33.000Z</time>
      </trkpt>
      <trkpt lat="47.25356" lon="-2.26153">
        <ele>27.799999237061</ele>
        <time>2022-07-10T07:58:34.000Z</time>
      </trkpt>
      <trkpt lat="47.25358" lon="-2.26151">
        <ele>27.200000762939</ele>
        <time>2022-07-10T07:58:35.000Z</time>
      </trkpt>
      <trkpt lat="47.2536" lon="-2.2615">
        <ele>26.799999237061</ele>
        <time>2022-07-10T07:58:36.000Z</time>
      </trkpt>
      <trkpt lat="47.25362" lon="-2.26149">
        <ele>26.39999961853</ele>
        <time>2022-07-10T07:58:37.000Z</time>
      </trkpt>
      <trkpt lat="47.25366" lon="-2.26143">
        <ele>26.39999961853</ele>
        <time>2022-07-10T07:58:39.000Z</time>
      </trkpt>
      <trkpt lat="47.2537" lon="-2.26132">
        <ele>26</ele>
        <time>2022-07-10T07:58:42.000Z</time>
      </trkpt>
      <trkpt lat="47.25371" lon="-2.26129">
        <ele>25.60000038147</ele>
        <time>2022-07-10T07:58:43.000Z</time>
      </trkpt>
      <trkpt lat="47.25372" lon="-2.26128">
        <ele>25.200000762939</ele>
        <time>2022-07-10T07:58:44.000Z</time>
      </trkpt>
      <trkpt lat="47.25374" lon="-2.26127">
        <ele>24.39999961853</ele>
        <time>2022-07-10T07:58:45.000Z</time>
      </trkpt>
      <trkpt lat="47.2538" lon="-2.26121">
        <ele>24.39999961853</ele>
        <time>2022-07-10T07:58:47.000Z</time>
      </trkpt>
      <trkpt lat="47.25382" lon="-2.26117">
        <ele>24</ele>
        <time>2022-07-10T07:58:48.000Z</time>
      </trkpt>
      <trkpt lat="47.25383" lon="-2.26113">
        <ele>23.39999961853</ele>
        <time>2022-07-10T07:58:49.000Z</time>
      </trkpt>
      <trkpt lat="47.25384" lon="-2.26109">
        <ele>23</ele>
        <time>2022-07-10T07:58:50.000Z</time>
      </trkpt>
      <trkpt lat="47.25385" lon="-2.26104">
        <ele>22.60000038147</ele>
        <time>2022-07-10T07:58:51.000Z</time>
      </trkpt>
      <trkpt lat="47.25386" lon="-2.26101">
        <ele>22.200000762939</ele>
        <time>2022-07-10T07:58:52.000Z</time>
      </trkpt>
      <trkpt lat="47.25389" lon="-2.26079">
        <ele>22.200000762939</ele>
        <time>2022-07-10T07:58:56.000Z</time>
      </trkpt>
      <trkpt lat="47.25388" lon="-2.26062">
        <ele>22.200000762939</ele>
        <time>2022-07-10T07:59:00.000Z</time>
      </trkpt>
      <trkpt lat="47.25379" lon="-2.26036">
        <ele>22.200000762939</ele>
        <time>2022-07-10T07:59:06.000Z</time>
      </trkpt>
      <trkpt lat="47.25376" lon="-2.26031">
        <ele>22.60000038147</ele>
        <time>2022-07-10T07:59:08.000Z</time>
      </trkpt>
      <trkpt lat="47.25374" lon="-2.2603">
        <ele>23.39999961853</ele>
        <time>2022-07-10T07:59:09.000Z</time>
      </trkpt>
      <trkpt lat="47.25372" lon="-2.26028">
        <ele>24</ele>
        <time>2022-07-10T07:59:10.000Z</time>
      </trkpt>
      <trkpt lat="47.2537" lon="-2.26027">
        <ele>24.39999961853</ele>
        <time>2022-07-10T07:59:11.000Z</time>
      </trkpt>
      <trkpt lat="47.25368" lon="-2.26026">
        <ele>24.39999961853</ele>
        <time>2022-07-10T07:59:12.000Z</time>
      </trkpt>
      <trkpt lat="47.25365" lon="-2.26027">
        <ele>24.799999237061</ele>
        <time>2022-07-10T07:59:13.000Z</time>
      </trkpt>
      <trkpt lat="47.25363" lon="-2.26028">
        <ele>25.200000762939</ele>
        <time>2022-07-10T07:59:14.000Z</time>
      </trkpt>
      <trkpt lat="47.2536" lon="-2.26029">
        <ele>25.60000038147</ele>
        <time>2022-07-10T07:59:15.000Z</time>
      </trkpt>
      <trkpt lat="47.25358" lon="-2.26031">
        <ele>26</ele>
        <time>2022-07-10T07:59:16.000Z</time>
      </trkpt>
      <trkpt lat="47.25355" lon="-2.26033">
        <ele>26.60000038147</ele>
        <time>2022-07-10T07:59:17.000Z</time>
      </trkpt>
      <trkpt lat="47.25343" lon="-2.26039">
        <ele>27</ele>
        <time>2022-07-10T07:59:23.000Z</time>
      </trkpt>
      <trkpt lat="47.25342" lon="-2.26039">
        <ele>27.39999961853</ele>
        <time>2022-07-10T07:59:24.000Z</time>
      </trkpt>
      <trkpt lat="47.25341" lon="-2.26037">
        <ele>27.799999237061</ele>
        <time>2022-07-10T07:59:25.000Z</time>
      </trkpt>
      <trkpt lat="47.2534" lon="-2.26036">
        <ele>28.39999961853</ele>
        <time>2022-07-10T07:59:26.000Z</time>
      </trkpt>
      <trkpt lat="47.25339" lon="-2.26035">
        <ele>28.799999237061</ele>
        <time>2022-07-10T07:59:27.000Z</time>
      </trkpt>
      <trkpt lat="47.25338" lon="-2.26035">
        <ele>28.799999237061</ele>
        <time>2022-07-10T07:59:28.000Z</time>
      </trkpt>
      <trkpt lat="47.25337" lon="-2.2603">
        <ele>28.799999237061</ele>
        <time>2022-07-10T07:59:44.000Z</time>
      </trkpt>
      <trkpt lat="47.25336" lon="-2.26027">
        <ele>28.799999237061</ele>
        <time>2022-07-10T07:59:45.000Z</time>
      </trkpt>
      <trkpt lat="47.25335" lon="-2.26011">
        <ele>28.799999237061</ele>
        <time>2022-07-10T07:59:49.000Z</time>
      </trkpt>
      <trkpt lat="47.25341" lon="-2.25982">
        <ele>28.799999237061</ele>
        <time>2022-07-10T07:59:54.000Z</time>
      </trkpt>
      <trkpt lat="47.25343" lon="-2.25975">
        <ele>28.39999961853</ele>
        <time>2022-07-10T07:59:55.000Z</time>
      </trkpt>
      <trkpt lat="47.25344" lon="-2.25969">
        <ele>27.799999237061</ele>
        <time>2022-07-10T07:59:56.000Z</time>
      </trkpt>
      <trkpt lat="47.25346" lon="-2.25962">
        <ele>27.39999961853</ele>
        <time>2022-07-10T07:59:57.000Z</time>
      </trkpt>
      <trkpt lat="47.25348" lon="-2.25955">
        <ele>26.60000038147</ele>
        <time>2022-07-10T07:59:58.000Z</time>
      </trkpt>
      <trkpt lat="47.25352" lon="-2.25942">
        <ele>26.60000038147</ele>
        <time>2022-07-10T08:00:00.000Z</time>
      </trkpt>
      <trkpt lat="47.25358" lon="-2.25922">
        <ele>26.60000038147</ele>
        <time>2022-07-10T08:00:04.000Z</time>
      </trkpt>
      <trkpt lat="47.25358" lon="-2.25911">
        <ele>26.60000038147</ele>
        <time>2022-07-10T08:00:09.000Z</time>
      </trkpt>
      <trkpt lat="47.25359" lon="-2.25903">
        <ele>26.60000038147</ele>
        <time>2022-07-10T08:00:15.000Z</time>
      </trkpt>
      <trkpt lat="47.2536" lon="-2.25902">
        <ele>26.60000038147</ele>
        <time>2022-07-10T08:00:16.000Z</time>
      </trkpt>
      <trkpt lat="47.25363" lon="-2.25899">
        <ele>26</ele>
        <time>2022-07-10T08:00:19.000Z</time>
      </trkpt>
      <trkpt lat="47.25364" lon="-2.25898">
        <ele>25.60000038147</ele>
        <time>2022-07-10T08:00:20.000Z</time>
      </trkpt>
      <trkpt lat="47.25367" lon="-2.25897">
        <ele>24.799999237061</ele>
        <time>2022-07-10T08:00:21.000Z</time>
      </trkpt>
      <trkpt lat="47.25371" lon="-2.25897">
        <ele>24</ele>
        <time>2022-07-10T08:00:22.000Z</time>
      </trkpt>
      <trkpt lat="47.25374" lon="-2.25896">
        <ele>21.60000038147</ele>
        <time>2022-07-10T08:00:23.000Z</time>
      </trkpt>
      <trkpt lat="47.25377" lon="-2.25894">
        <ele>20.39999961853</ele>
        <time>2022-07-10T08:00:24.000Z</time>
      </trkpt>
      <trkpt lat="47.2538" lon="-2.25893">
        <ele>19.200000762939</ele>
        <time>2022-07-10T08:00:25.000Z</time>
      </trkpt>
      <trkpt lat="47.25382" lon="-2.2589">
        <ele>18</ele>
        <time>2022-07-10T08:00:26.000Z</time>
      </trkpt>
      <trkpt lat="47.25383" lon="-2.25888">
        <ele>16.799999237061</ele>
        <time>2022-07-10T08:00:27.000Z</time>
      </trkpt>
      <trkpt lat="47.25385" lon="-2.25885">
        <ele>15.60000038147</ele>
        <time>2022-07-10T08:00:28.000Z</time>
      </trkpt>
      <trkpt lat="47.25386" lon="-2.25879">
        <ele>15.60000038147</ele>
        <time>2022-07-10T08:00:30.000Z</time>
      </trkpt>
      <trkpt lat="47.25386" lon="-2.25874">
        <ele>15.60000038147</ele>
        <time>2022-07-10T08:00:32.000Z</time>
      </trkpt>
      <trkpt lat="47.25386" lon="-2.25868">
        <ele>15.60000038147</ele>
        <time>2022-07-10T08:00:34.000Z</time>
      </trkpt>
      <trkpt lat="47.25387" lon="-2.25852">
        <ele>15.60000038147</ele>
        <time>2022-07-10T08:00:39.000Z</time>
      </trkpt>
      <trkpt lat="47.25384" lon="-2.25834">
        <ele>15.60000038147</ele>
        <time>2022-07-10T08:00:45.000Z</time>
      </trkpt>
      <trkpt lat="47.25369" lon="-2.25815">
        <ele>15.60000038147</ele>
        <time>2022-07-10T08:00:52.000Z</time>
      </trkpt>
      <trkpt lat="47.25366" lon="-2.25814">
        <ele>15.60000038147</ele>
        <time>2022-07-10T08:00:53.000Z</time>
      </trkpt>
      <trkpt lat="47.25354" lon="-2.25816">
        <ele>16</ele>
        <time>2022-07-10T08:01:00.000Z</time>
      </trkpt>
      <trkpt lat="47.25353" lon="-2.25817">
        <ele>16.39999961853</ele>
        <time>2022-07-10T08:01:01.000Z</time>
      </trkpt>
      <trkpt lat="47.25353" lon="-2.25819">
        <ele>16.799999237061</ele>
        <time>2022-07-10T08:01:02.000Z</time>
      </trkpt>
      <trkpt lat="47.25352" lon="-2.25821">
        <ele>17.200000762939</ele>
        <time>2022-07-10T08:01:03.000Z</time>
      </trkpt>
      <trkpt lat="47.25351" lon="-2.25822">
        <ele>17.60000038147</ele>
        <time>2022-07-10T08:01:04.000Z</time>
      </trkpt>
      <trkpt lat="47.2535" lon="-2.25828">
        <ele>18</ele>
        <time>2022-07-10T08:01:07.000Z</time>
      </trkpt>
      <trkpt lat="47.25349" lon="-2.2583">
        <ele>18.39999961853</ele>
        <time>2022-07-10T08:01:08.000Z</time>
      </trkpt>
      <trkpt lat="47.25349" lon="-2.25832">
        <ele>18.799999237061</ele>
        <time>2022-07-10T08:01:09.000Z</time>
      </trkpt>
      <trkpt lat="47.25348" lon="-2.25834">
        <ele>19.200000762939</ele>
        <time>2022-07-10T08:01:10.000Z</time>
      </trkpt>
      <trkpt lat="47.25348" lon="-2.25835">
        <ele>19.60000038147</ele>
        <time>2022-07-10T08:01:11.000Z</time>
      </trkpt>
      <trkpt lat="47.25342" lon="-2.25836">
        <ele>23.799999237061</ele>
        <time>2022-07-10T08:02:07.000Z</time>
      </trkpt>
      <trkpt lat="47.25343" lon="-2.2583">
        <ele>23.799999237061</ele>
        <time>2022-07-10T08:02:09.000Z</time>
      </trkpt>
      <trkpt lat="47.25345" lon="-2.2581">
        <ele>23.799999237061</ele>
        <time>2022-07-10T08:02:13.000Z</time>
      </trkpt>
      <trkpt lat="47.25348" lon="-2.25785">
        <ele>23.799999237061</ele>
        <time>2022-07-10T08:02:19.000Z</time>
      </trkpt>
      <trkpt lat="47.25348" lon="-2.25761">
        <ele>23.39999961853</ele>
        <time>2022-07-10T08:02:25.000Z</time>
      </trkpt>
      <trkpt lat="47.25348" lon="-2.25756">
        <ele>23</ele>
        <time>2022-07-10T08:02:26.000Z</time>
      </trkpt>
      <trkpt lat="47.25348" lon="-2.25752">
        <ele>22.60000038147</ele>
        <time>2022-07-10T08:02:27.000Z</time>
      </trkpt>
      <trkpt lat="47.25348" lon="-2.25747">
        <ele>21.799999237061</ele>
        <time>2022-07-10T08:02:28.000Z</time>
      </trkpt>
      <trkpt lat="47.25348" lon="-2.25732">
        <ele>21.799999237061</ele>
        <time>2022-07-10T08:02:31.000Z</time>
      </trkpt>
      <trkpt lat="47.25349" lon="-2.25706">
        <ele>21.799999237061</ele>
        <time>2022-07-10T08:02:36.000Z</time>
      </trkpt>
      <trkpt lat="47.25349" lon="-2.25675">
        <ele>21.799999237061</ele>
        <time>2022-07-10T08:02:42.000Z</time>
      </trkpt>
      <trkpt lat="47.25344" lon="-2.2564">
        <ele>21.799999237061</ele>
        <time>2022-07-10T08:02:48.000Z</time>
      </trkpt>
      <trkpt lat="47.25336" lon="-2.25598">
        <ele>21.799999237061</ele>
        <time>2022-07-10T08:02:55.000Z</time>
      </trkpt>
      <trkpt lat="47.25333" lon="-2.25543">
        <ele>21.799999237061</ele>
        <time>2022-07-10T08:03:03.000Z</time>
      </trkpt>
      <trkpt lat="47.25332" lon="-2.25536">
        <ele>21.39999961853</ele>
        <time>2022-07-10T08:03:04.000Z</time>
      </trkpt>
      <trkpt lat="47.25332" lon="-2.25527">
        <ele>21</ele>
        <time>2022-07-10T08:03:05.000Z</time>
      </trkpt>
      <trkpt lat="47.25331" lon="-2.25517">
        <ele>20.60000038147</ele>
        <time>2022-07-10T08:03:06.000Z</time>
      </trkpt>
      <trkpt lat="47.2533" lon="-2.25506">
        <ele>20.200000762939</ele>
        <time>2022-07-10T08:03:07.000Z</time>
      </trkpt>
      <trkpt lat="47.25329" lon="-2.25495">
        <ele>19.799999237061</ele>
        <time>2022-07-10T08:03:08.000Z</time>
      </trkpt>
      <trkpt lat="47.25329" lon="-2.25486">
        <ele>19.39999961853</ele>
        <time>2022-07-10T08:03:09.000Z</time>
      </trkpt>
      <trkpt lat="47.25328" lon="-2.25477">
        <ele>19</ele>
        <time>2022-07-10T08:03:10.000Z</time>
      </trkpt>
      <trkpt lat="47.25327" lon="-2.25468">
        <ele>18.60000038147</ele>
        <time>2022-07-10T08:03:11.000Z</time>
      </trkpt>
      <trkpt lat="47.25327" lon="-2.2546">
        <ele>18</ele>
        <time>2022-07-10T08:03:12.000Z</time>
      </trkpt>
      <trkpt lat="47.25325" lon="-2.25452">
        <ele>17.39999961853</ele>
        <time>2022-07-10T08:03:13.000Z</time>
      </trkpt>
      <trkpt lat="47.25325" lon="-2.25445">
        <ele>16.799999237061</ele>
        <time>2022-07-10T08:03:14.000Z</time>
      </trkpt>
      <trkpt lat="47.25324" lon="-2.25438">
        <ele>16</ele>
        <time>2022-07-10T08:03:15.000Z</time>
      </trkpt>
      <trkpt lat="47.25324" lon="-2.25431">
        <ele>15.39999961853</ele>
        <time>2022-07-10T08:03:16.000Z</time>
      </trkpt>
      <trkpt lat="47.25324" lon="-2.25426">
        <ele>14</ele>
        <time>2022-07-10T08:03:17.000Z</time>
      </trkpt>
      <trkpt lat="47.25325" lon="-2.25423">
        <ele>13.39999961853</ele>
        <time>2022-07-10T08:03:18.000Z</time>
      </trkpt>
      <trkpt lat="47.25327" lon="-2.25422">
        <ele>12.800000190735</ele>
        <time>2022-07-10T08:03:19.000Z</time>
      </trkpt>
      <trkpt lat="47.25329" lon="-2.25421">
        <ele>12</ele>
        <time>2022-07-10T08:03:20.000Z</time>
      </trkpt>
      <trkpt lat="47.2533" lon="-2.25422">
        <ele>11.39999961853</ele>
        <time>2022-07-10T08:03:21.000Z</time>
      </trkpt>
      <trkpt lat="47.25332" lon="-2.25424">
        <ele>10.800000190735</ele>
        <time>2022-07-10T08:03:22.000Z</time>
      </trkpt>
      <trkpt lat="47.25335" lon="-2.25435">
        <ele>10.800000190735</ele>
        <time>2022-07-10T08:03:26.000Z</time>
      </trkpt>
      <trkpt lat="47.25336" lon="-2.25439">
        <ele>10.800000190735</ele>
        <time>2022-07-10T08:03:27.000Z</time>
      </trkpt>
      <trkpt lat="47.25345" lon="-2.25461">
        <ele>10.800000190735</ele>
        <time>2022-07-10T08:03:32.000Z</time>
      </trkpt>
      <trkpt lat="47.25361" lon="-2.25481">
        <ele>10.800000190735</ele>
        <time>2022-07-10T08:03:38.000Z</time>
      </trkpt>
      <trkpt lat="47.25377" lon="-2.25499">
        <ele>10.800000190735</ele>
        <time>2022-07-10T08:03:45.000Z</time>
      </trkpt>
      <trkpt lat="47.25382" lon="-2.25516">
        <ele>10.800000190735</ele>
        <time>2022-07-10T08:03:50.000Z</time>
      </trkpt>
      <trkpt lat="47.25383" lon="-2.25532">
        <ele>10.800000190735</ele>
        <time>2022-07-10T08:03:53.000Z</time>
      </trkpt>
      <trkpt lat="47.25386" lon="-2.25544">
        <ele>10.800000190735</ele>
        <time>2022-07-10T08:03:55.000Z</time>
      </trkpt>
      <trkpt lat="47.2539" lon="-2.25552">
        <ele>10.800000190735</ele>
        <time>2022-07-10T08:03:57.000Z</time>
      </trkpt>
      <trkpt lat="47.25396" lon="-2.25561">
        <ele>10.800000190735</ele>
        <time>2022-07-10T08:04:00.000Z</time>
      </trkpt>
      <trkpt lat="47.25398" lon="-2.25562">
        <ele>10.800000190735</ele>
        <time>2022-07-10T08:04:01.000Z</time>
      </trkpt>
      <trkpt lat="47.25405" lon="-2.25561">
        <ele>10.800000190735</ele>
        <time>2022-07-10T08:04:04.000Z</time>
      </trkpt>
      <trkpt lat="47.25411" lon="-2.25559">
        <ele>11.199999809265</ele>
        <time>2022-07-10T08:04:06.000Z</time>
      </trkpt>
      <trkpt lat="47.25414" lon="-2.25557">
        <ele>12</ele>
        <time>2022-07-10T08:04:07.000Z</time>
      </trkpt>
      <trkpt lat="47.25417" lon="-2.25556">
        <ele>12.60000038147</ele>
        <time>2022-07-10T08:04:08.000Z</time>
      </trkpt>
      <trkpt lat="47.2542" lon="-2.25553">
        <ele>13</ele>
        <time>2022-07-10T08:04:09.000Z</time>
      </trkpt>
      <trkpt lat="47.25427" lon="-2.2555">
        <ele>13.39999961853</ele>
        <time>2022-07-10T08:04:11.000Z</time>
      </trkpt>
      <trkpt lat="47.25431" lon="-2.2555">
        <ele>13.800000190735</ele>
        <time>2022-07-10T08:04:12.000Z</time>
      </trkpt>
      <trkpt lat="47.25435" lon="-2.2555">
        <ele>14.199999809265</ele>
        <time>2022-07-10T08:04:13.000Z</time>
      </trkpt>
      <trkpt lat="47.25438" lon="-2.25552">
        <ele>14.60000038147</ele>
        <time>2022-07-10T08:04:14.000Z</time>
      </trkpt>
      <trkpt lat="47.25441" lon="-2.25554">
        <ele>15</ele>
        <time>2022-07-10T08:04:15.000Z</time>
      </trkpt>
      <trkpt lat="47.25445" lon="-2.25559">
        <ele>15.39999961853</ele>
        <time>2022-07-10T08:04:17.000Z</time>
      </trkpt>
      <trkpt lat="47.25447" lon="-2.2556">
        <ele>15.800000190735</ele>
        <time>2022-07-10T08:04:18.000Z</time>
      </trkpt>
      <trkpt lat="47.25447" lon="-2.25562">
        <ele>16.39999961853</ele>
        <time>2022-07-10T08:04:19.000Z</time>
      </trkpt>
      <trkpt lat="47.25448" lon="-2.25563">
        <ele>16.799999237061</ele>
        <time>2022-07-10T08:04:20.000Z</time>
      </trkpt>
      <trkpt lat="47.25448" lon="-2.25565">
        <ele>17.200000762939</ele>
        <time>2022-07-10T08:04:21.000Z</time>
      </trkpt>
      <trkpt lat="47.25447" lon="-2.25566">
        <ele>17.200000762939</ele>
        <time>2022-07-10T08:04:23.000Z</time>
      </trkpt>
      <trkpt lat="47.25446" lon="-2.25568">
        <ele>17.200000762939</ele>
        <time>2022-07-10T08:04:24.000Z</time>
      </trkpt>
      <trkpt lat="47.25441" lon="-2.25576">
        <ele>17.200000762939</ele>
        <time>2022-07-10T08:04:27.000Z</time>
      </trkpt>
      <trkpt lat="47.2544" lon="-2.25595">
        <ele>17.200000762939</ele>
        <time>2022-07-10T08:04:31.000Z</time>
      </trkpt>
      <trkpt lat="47.2544" lon="-2.25624">
        <ele>17.200000762939</ele>
        <time>2022-07-10T08:04:36.000Z</time>
      </trkpt>
      <trkpt lat="47.25434" lon="-2.25645">
        <ele>17.200000762939</ele>
        <time>2022-07-10T08:04:41.000Z</time>
      </trkpt>
      <trkpt lat="47.25434" lon="-2.25649">
        <ele>16.799999237061</ele>
        <time>2022-07-10T08:04:42.000Z</time>
      </trkpt>
      <trkpt lat="47.25436" lon="-2.25653">
        <ele>16.200000762939</ele>
        <time>2022-07-10T08:04:43.000Z</time>
      </trkpt>
      <trkpt lat="47.25438" lon="-2.25656">
        <ele>15.800000190735</ele>
        <time>2022-07-10T08:04:44.000Z</time>
      </trkpt>
      <trkpt lat="47.2544" lon="-2.25658">
        <ele>15.39999961853</ele>
        <time>2022-07-10T08:04:45.000Z</time>
      </trkpt>
      <trkpt lat="47.25442" lon="-2.2566">
        <ele>15</ele>
        <time>2022-07-10T08:04:46.000Z</time>
      </trkpt>
      <trkpt lat="47.25448" lon="-2.25662">
        <ele>15</ele>
        <time>2022-07-10T08:04:49.000Z</time>
      </trkpt>
      <trkpt lat="47.25454" lon="-2.25663">
        <ele>15</ele>
        <time>2022-07-10T08:04:52.000Z</time>
      </trkpt>
      <trkpt lat="47.25458" lon="-2.25664">
        <ele>15.39999961853</ele>
        <time>2022-07-10T08:04:55.000Z</time>
      </trkpt>
      <trkpt lat="47.25459" lon="-2.25664">
        <ele>16.200000762939</ele>
        <time>2022-07-10T08:04:56.000Z</time>
      </trkpt>
      <trkpt lat="47.25461" lon="-2.25666">
        <ele>16.799999237061</ele>
        <time>2022-07-10T08:04:57.000Z</time>
      </trkpt>
      <trkpt lat="47.25462" lon="-2.25667">
        <ele>17.200000762939</ele>
        <time>2022-07-10T08:04:58.000Z</time>
      </trkpt>
      <trkpt lat="47.25464" lon="-2.25677">
        <ele>17.200000762939</ele>
        <time>2022-07-10T08:05:04.000Z</time>
      </trkpt>
      <trkpt lat="47.25462" lon="-2.2568">
        <ele>17.200000762939</ele>
        <time>2022-07-10T08:05:06.000Z</time>
      </trkpt>
      <trkpt lat="47.25462" lon="-2.25689">
        <ele>17.200000762939</ele>
        <time>2022-07-10T08:05:10.000Z</time>
      </trkpt>
      <trkpt lat="47.25463" lon="-2.2569">
        <ele>17.200000762939</ele>
        <time>2022-07-10T08:05:12.000Z</time>
      </trkpt>
      <trkpt lat="47.25463" lon="-2.25696">
        <ele>17.200000762939</ele>
        <time>2022-07-10T08:05:36.000Z</time>
      </trkpt>
      <trkpt lat="47.25462" lon="-2.25703">
        <ele>17.200000762939</ele>
        <time>2022-07-10T08:05:38.000Z</time>
      </trkpt>
      <trkpt lat="47.25462" lon="-2.25705">
        <ele>17.60000038147</ele>
        <time>2022-07-10T08:05:39.000Z</time>
      </trkpt>
      <trkpt lat="47.25462" lon="-2.25708">
        <ele>18</ele>
        <time>2022-07-10T08:05:40.000Z</time>
      </trkpt>
      <trkpt lat="47.25462" lon="-2.2571">
        <ele>18.39999961853</ele>
        <time>2022-07-10T08:05:41.000Z</time>
      </trkpt>
      <trkpt lat="47.25462" lon="-2.25713">
        <ele>18.799999237061</ele>
        <time>2022-07-10T08:05:42.000Z</time>
      </trkpt>
      <trkpt lat="47.25462" lon="-2.25715">
        <ele>19.200000762939</ele>
        <time>2022-07-10T08:05:43.000Z</time>
      </trkpt>
      <trkpt lat="47.25463" lon="-2.25718">
        <ele>19.200000762939</ele>
        <time>2022-07-10T08:05:44.000Z</time>
      </trkpt>
      <trkpt lat="47.25462" lon="-2.2572">
        <ele>19.60000038147</ele>
        <time>2022-07-10T08:05:45.000Z</time>
      </trkpt>
      <trkpt lat="47.25462" lon="-2.25723">
        <ele>20</ele>
        <time>2022-07-10T08:05:46.000Z</time>
      </trkpt>
      <trkpt lat="47.25462" lon="-2.25726">
        <ele>20.60000038147</ele>
        <time>2022-07-10T08:05:47.000Z</time>
      </trkpt>
      <trkpt lat="47.25462" lon="-2.25729">
        <ele>21</ele>
        <time>2022-07-10T08:05:48.000Z</time>
      </trkpt>
      <trkpt lat="47.25462" lon="-2.25732">
        <ele>21.39999961853</ele>
        <time>2022-07-10T08:05:49.000Z</time>
      </trkpt>
      <trkpt lat="47.25461" lon="-2.25738">
        <ele>21.39999961853</ele>
        <time>2022-07-10T08:05:51.000Z</time>
      </trkpt>
      <trkpt lat="47.25462" lon="-2.2575">
        <ele>21.799999237061</ele>
        <time>2022-07-10T08:05:56.000Z</time>
      </trkpt>
      <trkpt lat="47.25462" lon="-2.25751">
        <ele>22.200000762939</ele>
        <time>2022-07-10T08:05:57.000Z</time>
      </trkpt>
      <trkpt lat="47.25464" lon="-2.25753">
        <ele>22.60000038147</ele>
        <time>2022-07-10T08:05:58.000Z</time>
      </trkpt>
      <trkpt lat="47.25465" lon="-2.25755">
        <ele>23</ele>
        <time>2022-07-10T08:05:59.000Z</time>
      </trkpt>
      <trkpt lat="47.25466" lon="-2.25758">
        <ele>23.39999961853</ele>
        <time>2022-07-10T08:06:00.000Z</time>
      </trkpt>
      <trkpt lat="47.25468" lon="-2.25768">
        <ele>23.39999961853</ele>
        <time>2022-07-10T08:06:03.000Z</time>
      </trkpt>
      <trkpt lat="47.25469" lon="-2.25771">
        <ele>23.39999961853</ele>
        <time>2022-07-10T08:06:04.000Z</time>
      </trkpt>
      <trkpt lat="47.25469" lon="-2.25778">
        <ele>23.799999237061</ele>
        <time>2022-07-10T08:06:06.000Z</time>
      </trkpt>
      <trkpt lat="47.25469" lon="-2.25781">
        <ele>24.200000762939</ele>
        <time>2022-07-10T08:06:07.000Z</time>
      </trkpt>
      <trkpt lat="47.25469" lon="-2.25784">
        <ele>24.60000038147</ele>
        <time>2022-07-10T08:06:08.000Z</time>
      </trkpt>
      <trkpt lat="47.25469" lon="-2.25788">
        <ele>25</ele>
        <time>2022-07-10T08:06:09.000Z</time>
      </trkpt>
      <trkpt lat="47.25468" lon="-2.2579">
        <ele>25.39999961853</ele>
        <time>2022-07-10T08:06:10.000Z</time>
      </trkpt>
      <trkpt lat="47.25456" lon="-2.25795">
        <ele>24.799999237061</ele>
        <time>2022-07-10T08:06:17.000Z</time>
      </trkpt>
      <trkpt lat="47.25455" lon="-2.25796">
        <ele>24.39999961853</ele>
        <time>2022-07-10T08:06:18.000Z</time>
      </trkpt>
      <trkpt lat="47.25454" lon="-2.25798">
        <ele>23.799999237061</ele>
        <time>2022-07-10T08:06:19.000Z</time>
      </trkpt>
      <trkpt lat="47.25453" lon="-2.258">
        <ele>23.39999961853</ele>
        <time>2022-07-10T08:06:20.000Z</time>
      </trkpt>
      <trkpt lat="47.25452" lon="-2.25803">
        <ele>22.799999237061</ele>
        <time>2022-07-10T08:06:21.000Z</time>
      </trkpt>
      <trkpt lat="47.25452" lon="-2.25806">
        <ele>22.799999237061</ele>
        <time>2022-07-10T08:06:22.000Z</time>
      </trkpt>
      <trkpt lat="47.25452" lon="-2.25826">
        <ele>22.799999237061</ele>
        <time>2022-07-10T08:06:27.000Z</time>
      </trkpt>
      <trkpt lat="47.25449" lon="-2.25845">
        <ele>22.39999961853</ele>
        <time>2022-07-10T08:06:31.000Z</time>
      </trkpt>
      <trkpt lat="47.25448" lon="-2.2585">
        <ele>22</ele>
        <time>2022-07-10T08:06:32.000Z</time>
      </trkpt>
      <trkpt lat="47.25446" lon="-2.25854">
        <ele>21.60000038147</ele>
        <time>2022-07-10T08:06:33.000Z</time>
      </trkpt>
      <trkpt lat="47.25445" lon="-2.25857">
        <ele>21</ele>
        <time>2022-07-10T08:06:34.000Z</time>
      </trkpt>
      <trkpt lat="47.25444" lon="-2.2586">
        <ele>20.60000038147</ele>
        <time>2022-07-10T08:06:35.000Z</time>
      </trkpt>
      <trkpt lat="47.25441" lon="-2.25873">
        <ele>20.60000038147</ele>
        <time>2022-07-10T08:06:39.000Z</time>
      </trkpt>
      <trkpt lat="47.25442" lon="-2.25898">
        <ele>20.60000038147</ele>
        <time>2022-07-10T08:06:45.000Z</time>
      </trkpt>
      <trkpt lat="47.2544" lon="-2.25909">
        <ele>20.60000038147</ele>
        <time>2022-07-10T08:06:47.000Z</time>
      </trkpt>
      <trkpt lat="47.25435" lon="-2.25918">
        <ele>20.60000038147</ele>
        <time>2022-07-10T08:06:49.000Z</time>
      </trkpt>
      <trkpt lat="47.25427" lon="-2.25926">
        <ele>20.60000038147</ele>
        <time>2022-07-10T08:06:52.000Z</time>
      </trkpt>
      <trkpt lat="47.25423" lon="-2.25933">
        <ele>20.200000762939</ele>
        <time>2022-07-10T08:06:54.000Z</time>
      </trkpt>
      <trkpt lat="47.25421" lon="-2.25936">
        <ele>19.799999237061</ele>
        <time>2022-07-10T08:06:55.000Z</time>
      </trkpt>
      <trkpt lat="47.2542" lon="-2.25939">
        <ele>19.39999961853</ele>
        <time>2022-07-10T08:06:56.000Z</time>
      </trkpt>
      <trkpt lat="47.25418" lon="-2.25943">
        <ele>19</ele>
        <time>2022-07-10T08:06:57.000Z</time>
      </trkpt>
      <trkpt lat="47.25416" lon="-2.25947">
        <ele>18.60000038147</ele>
        <time>2022-07-10T08:06:58.000Z</time>
      </trkpt>
      <trkpt lat="47.25409" lon="-2.25961">
        <ele>18.60000038147</ele>
        <time>2022-07-10T08:07:02.000Z</time>
      </trkpt>
      <trkpt lat="47.25396" lon="-2.25976">
        <ele>19</ele>
        <time>2022-07-10T08:07:08.000Z</time>
      </trkpt>
      <trkpt lat="47.25394" lon="-2.25978">
        <ele>19.60000038147</ele>
        <time>2022-07-10T08:07:09.000Z</time>
      </trkpt>
      <trkpt lat="47.25393" lon="-2.25979">
        <ele>20</ele>
        <time>2022-07-10T08:07:10.000Z</time>
      </trkpt>
      <trkpt lat="47.25392" lon="-2.2598">
        <ele>20.60000038147</ele>
        <time>2022-07-10T08:07:11.000Z</time>
      </trkpt>
      <trkpt lat="47.2539" lon="-2.25981">
        <ele>21</ele>
        <time>2022-07-10T08:07:12.000Z</time>
      </trkpt>
      <trkpt lat="47.25389" lon="-2.25981">
        <ele>21.60000038147</ele>
        <time>2022-07-10T08:07:13.000Z</time>
      </trkpt>
      <trkpt lat="47.25388" lon="-2.25982">
        <ele>22</ele>
        <time>2022-07-10T08:07:14.000Z</time>
      </trkpt>
      <trkpt lat="47.25386" lon="-2.25982">
        <ele>22.60000038147</ele>
        <time>2022-07-10T08:07:15.000Z</time>
      </trkpt>
      <trkpt lat="47.25385" lon="-2.25983">
        <ele>23.200000762939</ele>
        <time>2022-07-10T08:07:16.000Z</time>
      </trkpt>
      <trkpt lat="47.25383" lon="-2.25982">
        <ele>23.60000038147</ele>
        <time>2022-07-10T08:07:17.000Z</time>
      </trkpt>
      <trkpt lat="47.25382" lon="-2.25982">
        <ele>24</ele>
        <time>2022-07-10T08:07:18.000Z</time>
      </trkpt>
      <trkpt lat="47.2538" lon="-2.2598">
        <ele>24.39999961853</ele>
        <time>2022-07-10T08:07:19.000Z</time>
      </trkpt>
      <trkpt lat="47.25378" lon="-2.25979">
        <ele>24.799999237061</ele>
        <time>2022-07-10T08:07:20.000Z</time>
      </trkpt>
      <trkpt lat="47.25375" lon="-2.25979">
        <ele>25.200000762939</ele>
        <time>2022-07-10T08:07:21.000Z</time>
      </trkpt>
      <trkpt lat="47.25371" lon="-2.25979">
        <ele>25.200000762939</ele>
        <time>2022-07-10T08:07:22.000Z</time>
      </trkpt>
      <trkpt lat="47.25363" lon="-2.25987">
        <ele>25.200000762939</ele>
        <time>2022-07-10T08:07:27.000Z</time>
      </trkpt>
      <trkpt lat="47.25363" lon="-2.25993">
        <ele>25.60000038147</ele>
        <time>2022-07-10T08:07:30.000Z</time>
      </trkpt>
      <trkpt lat="47.25364" lon="-2.25995">
        <ele>26</ele>
        <time>2022-07-10T08:07:31.000Z</time>
      </trkpt>
      <trkpt lat="47.25363" lon="-2.25997">
        <ele>26.39999961853</ele>
        <time>2022-07-10T08:07:32.000Z</time>
      </trkpt>
      <trkpt lat="47.25363" lon="-2.25999">
        <ele>26.799999237061</ele>
        <time>2022-07-10T08:07:33.000Z</time>
      </trkpt>
      <trkpt lat="47.25362" lon="-2.26001">
        <ele>27.39999961853</ele>
        <time>2022-07-10T08:07:34.000Z</time>
      </trkpt>
      <trkpt lat="47.2536" lon="-2.26008">
        <ele>27.39999961853</ele>
        <time>2022-07-10T08:07:39.000Z</time>
      </trkpt>
      <trkpt lat="47.25364" lon="-2.26012">
        <ele>27.39999961853</ele>
        <time>2022-07-10T08:09:21.000Z</time>
      </trkpt>
      <trkpt lat="47.25376" lon="-2.26022">
        <ele>27.39999961853</ele>
        <time>2022-07-10T08:09:27.000Z</time>
      </trkpt>
      <trkpt lat="47.25378" lon="-2.26024">
        <ele>26.799999237061</ele>
        <time>2022-07-10T08:09:28.000Z</time>
      </trkpt>
      <trkpt lat="47.2538" lon="-2.26026">
        <ele>26.200000762939</ele>
        <time>2022-07-10T08:09:29.000Z</time>
      </trkpt>
      <trkpt lat="47.25382" lon="-2.26028">
        <ele>25.799999237061</ele>
        <time>2022-07-10T08:09:30.000Z</time>
      </trkpt>
      <trkpt lat="47.25383" lon="-2.2603">
        <ele>25.200000762939</ele>
        <time>2022-07-10T08:09:31.000Z</time>
      </trkpt>
      <trkpt lat="47.25384" lon="-2.26032">
        <ele>24.799999237061</ele>
        <time>2022-07-10T08:09:32.000Z</time>
      </trkpt>
      <trkpt lat="47.25385" lon="-2.26034">
        <ele>24.799999237061</ele>
        <time>2022-07-10T08:09:33.000Z</time>
      </trkpt>
      <trkpt lat="47.25385" lon="-2.26039">
        <ele>24.799999237061</ele>
        <time>2022-07-10T08:09:35.000Z</time>
      </trkpt>
      <trkpt lat="47.25387" lon="-2.26049">
        <ele>24.799999237061</ele>
        <time>2022-07-10T08:09:39.000Z</time>
      </trkpt>
      <trkpt lat="47.25393" lon="-2.26076">
        <ele>24.799999237061</ele>
        <time>2022-07-10T08:09:45.000Z</time>
      </trkpt>
      <trkpt lat="47.25404" lon="-2.261">
        <ele>24.39999961853</ele>
        <time>2022-07-10T08:09:49.000Z</time>
      </trkpt>
      <trkpt lat="47.25407" lon="-2.26107">
        <ele>23.799999237061</ele>
        <time>2022-07-10T08:09:50.000Z</time>
      </trkpt>
      <trkpt lat="47.25411" lon="-2.26114">
        <ele>23.39999961853</ele>
        <time>2022-07-10T08:09:51.000Z</time>
      </trkpt>
      <trkpt lat="47.25414" lon="-2.26122">
        <ele>22.60000038147</ele>
        <time>2022-07-10T08:09:52.000Z</time>
      </trkpt>
      <trkpt lat="47.25422" lon="-2.2615">
        <ele>22.60000038147</ele>
        <time>2022-07-10T08:09:56.000Z</time>
      </trkpt>
      <trkpt lat="47.25425" lon="-2.26178">
        <ele>22.60000038147</ele>
        <time>2022-07-10T08:10:01.000Z</time>
      </trkpt>
      <trkpt lat="47.25423" lon="-2.26209">
        <ele>22.60000038147</ele>
        <time>2022-07-10T08:10:07.000Z</time>
      </trkpt>
      <trkpt lat="47.25423" lon="-2.26214">
        <ele>23</ele>
        <time>2022-07-10T08:10:08.000Z</time>
      </trkpt>
      <trkpt lat="47.25423" lon="-2.26218">
        <ele>23.39999961853</ele>
        <time>2022-07-10T08:10:09.000Z</time>
      </trkpt>
      <trkpt lat="47.25423" lon="-2.26225">
        <ele>23.799999237061</ele>
        <time>2022-07-10T08:10:10.000Z</time>
      </trkpt>
      <trkpt lat="47.25424" lon="-2.26233">
        <ele>24.200000762939</ele>
        <time>2022-07-10T08:10:11.000Z</time>
      </trkpt>
      <trkpt lat="47.25423" lon="-2.26242">
        <ele>24.799999237061</ele>
        <time>2022-07-10T08:10:12.000Z</time>
      </trkpt>
      <trkpt lat="47.25423" lon="-2.26251">
        <ele>24.799999237061</ele>
        <time>2022-07-10T08:10:13.000Z</time>
      </trkpt>
      <trkpt lat="47.25429" lon="-2.2628">
        <ele>24.799999237061</ele>
        <time>2022-07-10T08:10:18.000Z</time>
      </trkpt>
      <trkpt lat="47.2543" lon="-2.26285">
        <ele>25.200000762939</ele>
        <time>2022-07-10T08:10:19.000Z</time>
      </trkpt>
      <trkpt lat="47.25432" lon="-2.26288">
        <ele>25.60000038147</ele>
        <time>2022-07-10T08:10:20.000Z</time>
      </trkpt>
      <trkpt lat="47.25434" lon="-2.26289">
        <ele>26.200000762939</ele>
        <time>2022-07-10T08:10:21.000Z</time>
      </trkpt>
      <trkpt lat="47.25436" lon="-2.2629">
        <ele>26.60000038147</ele>
        <time>2022-07-10T08:10:22.000Z</time>
      </trkpt>
      <trkpt lat="47.25439" lon="-2.26291">
        <ele>27.200000762939</ele>
        <time>2022-07-10T08:10:23.000Z</time>
      </trkpt>
      <trkpt lat="47.25451" lon="-2.263">
        <ele>27.200000762939</ele>
        <time>2022-07-10T08:10:27.000Z</time>
      </trkpt>
      <trkpt lat="47.25458" lon="-2.26319">
        <ele>27.200000762939</ele>
        <time>2022-07-10T08:10:31.000Z</time>
      </trkpt>
      <trkpt lat="47.25463" lon="-2.26351">
        <ele>27.200000762939</ele>
        <time>2022-07-10T08:10:37.000Z</time>
      </trkpt>
      <trkpt lat="47.25463" lon="-2.26357">
        <ele>27.200000762939</ele>
        <time>2022-07-10T08:10:38.000Z</time>
      </trkpt>
      <trkpt lat="47.2546" lon="-2.26385">
        <ele>27.200000762939</ele>
        <time>2022-07-10T08:10:42.000Z</time>
      </trkpt>
      <trkpt lat="47.25459" lon="-2.26399">
        <ele>27.200000762939</ele>
        <time>2022-07-10T08:10:44.000Z</time>
      </trkpt>
      <trkpt lat="47.25461" lon="-2.26418">
        <ele>27.200000762939</ele>
        <time>2022-07-10T08:10:47.000Z</time>
      </trkpt>
      <trkpt lat="47.25462" lon="-2.2644">
        <ele>27.60000038147</ele>
        <time>2022-07-10T08:10:51.000Z</time>
      </trkpt>
      <trkpt lat="47.25463" lon="-2.26446">
        <ele>28</ele>
        <time>2022-07-10T08:10:52.000Z</time>
      </trkpt>
      <trkpt lat="47.25464" lon="-2.26452">
        <ele>28.39999961853</ele>
        <time>2022-07-10T08:10:53.000Z</time>
      </trkpt>
      <trkpt lat="47.25465" lon="-2.26459">
        <ele>28.799999237061</ele>
        <time>2022-07-10T08:10:54.000Z</time>
      </trkpt>
      <trkpt lat="47.25467" lon="-2.26465">
        <ele>29.200000762939</ele>
        <time>2022-07-10T08:10:55.000Z</time>
      </trkpt>
      <trkpt lat="47.25473" lon="-2.26478">
        <ele>29.200000762939</ele>
        <time>2022-07-10T08:10:58.000Z</time>
      </trkpt>
      <trkpt lat="47.25477" lon="-2.26486">
        <ele>29.799999237061</ele>
        <time>2022-07-10T08:11:00.000Z</time>
      </trkpt>
      <trkpt lat="47.25478" lon="-2.2649">
        <ele>30.200000762939</ele>
        <time>2022-07-10T08:11:01.000Z</time>
      </trkpt>
      <trkpt lat="47.2548" lon="-2.26493">
        <ele>30.60000038147</ele>
        <time>2022-07-10T08:11:02.000Z</time>
      </trkpt>
      <trkpt lat="47.25481" lon="-2.26497">
        <ele>31</ele>
        <time>2022-07-10T08:11:03.000Z</time>
      </trkpt>
      <trkpt lat="47.25482" lon="-2.26501">
        <ele>31.39999961853</ele>
        <time>2022-07-10T08:11:04.000Z</time>
      </trkpt>
      <trkpt lat="47.25483" lon="-2.26506">
        <ele>31.799999237061</ele>
        <time>2022-07-10T08:11:05.000Z</time>
      </trkpt>
      <trkpt lat="47.25484" lon="-2.2651">
        <ele>32.799999237061</ele>
        <time>2022-07-10T08:11:06.000Z</time>
      </trkpt>
      <trkpt lat="47.25484" lon="-2.26515">
        <ele>33.200000762939</ele>
        <time>2022-07-10T08:11:07.000Z</time>
      </trkpt>
      <trkpt lat="47.25485" lon="-2.2652">
        <ele>33.599998474121</ele>
        <time>2022-07-10T08:11:08.000Z</time>
      </trkpt>
      <trkpt lat="47.25487" lon="-2.26534">
        <ele>33.599998474121</ele>
        <time>2022-07-10T08:11:11.000Z</time>
      </trkpt>
      <trkpt lat="47.25494" lon="-2.26565">
        <ele>33.599998474121</ele>
        <time>2022-07-10T08:11:17.000Z</time>
      </trkpt>
      <trkpt lat="47.25492" lon="-2.26599">
        <ele>33.599998474121</ele>
        <time>2022-07-10T08:11:23.000Z</time>
      </trkpt>
      <trkpt lat="47.25492" lon="-2.26638">
        <ele>33.599998474121</ele>
        <time>2022-07-10T08:11:30.000Z</time>
      </trkpt>
      <trkpt lat="47.25492" lon="-2.26659">
        <ele>34</ele>
        <time>2022-07-10T08:11:34.000Z</time>
      </trkpt>
      <trkpt lat="47.25492" lon="-2.26664">
        <ele>34.400001525879</ele>
        <time>2022-07-10T08:11:35.000Z</time>
      </trkpt>
      <trkpt lat="47.25492" lon="-2.26668">
        <ele>34.799999237061</ele>
        <time>2022-07-10T08:11:36.000Z</time>
      </trkpt>
      <trkpt lat="47.25491" lon="-2.26673">
        <ele>35.200000762939</ele>
        <time>2022-07-10T08:11:37.000Z</time>
      </trkpt>
      <trkpt lat="47.2549" lon="-2.26677">
        <ele>35.599998474121</ele>
        <time>2022-07-10T08:11:38.000Z</time>
      </trkpt>
      <trkpt lat="47.25482" lon="-2.26702">
        <ele>35.599998474121</ele>
        <time>2022-07-10T08:11:45.000Z</time>
      </trkpt>
      <trkpt lat="47.25482" lon="-2.2672">
        <ele>35.599998474121</ele>
        <time>2022-07-10T08:11:50.000Z</time>
      </trkpt>
      <trkpt lat="47.25483" lon="-2.26731">
        <ele>36</ele>
        <time>2022-07-10T08:11:53.000Z</time>
      </trkpt>
      <trkpt lat="47.25483" lon="-2.26734">
        <ele>36.400001525879</ele>
        <time>2022-07-10T08:11:54.000Z</time>
      </trkpt>
      <trkpt lat="47.25483" lon="-2.26737">
        <ele>37.200000762939</ele>
        <time>2022-07-10T08:11:55.000Z</time>
      </trkpt>
      <trkpt lat="47.25484" lon="-2.26741">
        <ele>37.799999237061</ele>
        <time>2022-07-10T08:11:56.000Z</time>
      </trkpt>
      <trkpt lat="47.25491" lon="-2.2676">
        <ele>37.799999237061</ele>
        <time>2022-07-10T08:12:00.000Z</time>
      </trkpt>
      <trkpt lat="47.25507" lon="-2.26786">
        <ele>37.799999237061</ele>
        <time>2022-07-10T08:12:06.000Z</time>
      </trkpt>
      <trkpt lat="47.25512" lon="-2.26793">
        <ele>38.200000762939</ele>
        <time>2022-07-10T08:12:08.000Z</time>
      </trkpt>
      <trkpt lat="47.25515" lon="-2.26797">
        <ele>38.599998474121</ele>
        <time>2022-07-10T08:12:09.000Z</time>
      </trkpt>
      <trkpt lat="47.25517" lon="-2.268">
        <ele>39</ele>
        <time>2022-07-10T08:12:10.000Z</time>
      </trkpt>
      <trkpt lat="47.25519" lon="-2.26803">
        <ele>39.400001525879</ele>
        <time>2022-07-10T08:12:11.000Z</time>
      </trkpt>
      <trkpt lat="47.25521" lon="-2.26806">
        <ele>39.799999237061</ele>
        <time>2022-07-10T08:12:12.000Z</time>
      </trkpt>
      <trkpt lat="47.25538" lon="-2.26825">
        <ele>39.799999237061</ele>
        <time>2022-07-10T08:12:18.000Z</time>
      </trkpt>
      <trkpt lat="47.2555" lon="-2.26837">
        <ele>40.200000762939</ele>
        <time>2022-07-10T08:12:22.000Z</time>
      </trkpt>
      <trkpt lat="47.25553" lon="-2.2684">
        <ele>40.599998474121</ele>
        <time>2022-07-10T08:12:23.000Z</time>
      </trkpt>
      <trkpt lat="47.25556" lon="-2.26843">
        <ele>41</ele>
        <time>2022-07-10T08:12:24.000Z</time>
      </trkpt>
      <trkpt lat="47.25559" lon="-2.26845">
        <ele>41.400001525879</ele>
        <time>2022-07-10T08:12:25.000Z</time>
      </trkpt>
      <trkpt lat="47.25562" lon="-2.26847">
        <ele>41.799999237061</ele>
        <time>2022-07-10T08:12:26.000Z</time>
      </trkpt>
      <trkpt lat="47.25576" lon="-2.26866">
        <ele>41.799999237061</ele>
        <time>2022-07-10T08:12:31.000Z</time>
      </trkpt>
      <trkpt lat="47.25589" lon="-2.26876">
        <ele>42.200000762939</ele>
        <time>2022-07-10T08:12:35.000Z</time>
      </trkpt>
      <trkpt lat="47.25592" lon="-2.26877">
        <ele>42.599998474121</ele>
        <time>2022-07-10T08:12:36.000Z</time>
      </trkpt>
      <trkpt lat="47.25595" lon="-2.26878">
        <ele>43</ele>
        <time>2022-07-10T08:12:37.000Z</time>
      </trkpt>
      <trkpt lat="47.25599" lon="-2.26879">
        <ele>43.400001525879</ele>
        <time>2022-07-10T08:12:38.000Z</time>
      </trkpt>
      <trkpt lat="47.25602" lon="-2.26879">
        <ele>43.799999237061</ele>
        <time>2022-07-10T08:12:39.000Z</time>
      </trkpt>
      <trkpt lat="47.25609" lon="-2.26884">
        <ele>43.799999237061</ele>
        <time>2022-07-10T08:12:42.000Z</time>
      </trkpt>
      <trkpt lat="47.25617" lon="-2.26885">
        <ele>44.200000762939</ele>
        <time>2022-07-10T08:12:45.000Z</time>
      </trkpt>
      <trkpt lat="47.2562" lon="-2.26884">
        <ele>44.599998474121</ele>
        <time>2022-07-10T08:12:46.000Z</time>
      </trkpt>
      <trkpt lat="47.25622" lon="-2.26881">
        <ele>45</ele>
        <time>2022-07-10T08:12:47.000Z</time>
      </trkpt>
      <trkpt lat="47.25625" lon="-2.26876">
        <ele>45.400001525879</ele>
        <time>2022-07-10T08:12:48.000Z</time>
      </trkpt>
      <trkpt lat="47.25628" lon="-2.2687">
        <ele>45.799999237061</ele>
        <time>2022-07-10T08:12:49.000Z</time>
      </trkpt>
      <trkpt lat="47.25639" lon="-2.26851">
        <ele>45.799999237061</ele>
        <time>2022-07-10T08:12:53.000Z</time>
      </trkpt>
      <trkpt lat="47.25661" lon="-2.26828">
        <ele>45.799999237061</ele>
        <time>2022-07-10T08:13:00.000Z</time>
      </trkpt>
      <trkpt lat="47.25673" lon="-2.2682">
        <ele>45.799999237061</ele>
        <time>2022-07-10T08:13:03.000Z</time>
      </trkpt>
      <trkpt lat="47.25686" lon="-2.26817">
        <ele>45.799999237061</ele>
        <time>2022-07-10T08:13:06.000Z</time>
      </trkpt>
      <trkpt lat="47.25708" lon="-2.26822">
        <ele>45.799999237061</ele>
        <time>2022-07-10T08:13:11.000Z</time>
      </trkpt>
      <trkpt lat="47.25719" lon="-2.2683">
        <ele>45.799999237061</ele>
        <time>2022-07-10T08:13:14.000Z</time>
      </trkpt>
      <trkpt lat="47.25726" lon="-2.26837">
        <ele>45.799999237061</ele>
        <time>2022-07-10T08:13:16.000Z</time>
      </trkpt>
      <trkpt lat="47.25733" lon="-2.26846">
        <ele>45.799999237061</ele>
        <time>2022-07-10T08:13:18.000Z</time>
      </trkpt>
      <trkpt lat="47.25741" lon="-2.26862">
        <ele>45.799999237061</ele>
        <time>2022-07-10T08:13:21.000Z</time>
      </trkpt>
      <trkpt lat="47.25744" lon="-2.26873">
        <ele>45.799999237061</ele>
        <time>2022-07-10T08:13:23.000Z</time>
      </trkpt>
      <trkpt lat="47.25748" lon="-2.2689">
        <ele>45.799999237061</ele>
        <time>2022-07-10T08:13:26.000Z</time>
      </trkpt>
      <trkpt lat="47.25752" lon="-2.26898">
        <ele>45.799999237061</ele>
        <time>2022-07-10T08:13:28.000Z</time>
      </trkpt>
      <trkpt lat="47.25755" lon="-2.26899">
        <ele>45.799999237061</ele>
        <time>2022-07-10T08:13:29.000Z</time>
      </trkpt>
      <trkpt lat="47.25769" lon="-2.26897">
        <ele>45.799999237061</ele>
        <time>2022-07-10T08:13:33.000Z</time>
      </trkpt>
      <trkpt lat="47.25778" lon="-2.26894">
        <ele>45.799999237061</ele>
        <time>2022-07-10T08:13:35.000Z</time>
      </trkpt>
      <trkpt lat="47.25791" lon="-2.26888">
        <ele>45.799999237061</ele>
        <time>2022-07-10T08:13:38.000Z</time>
      </trkpt>
      <trkpt lat="47.25826" lon="-2.26869">
        <ele>45.799999237061</ele>
        <time>2022-07-10T08:13:45.000Z</time>
      </trkpt>
      <trkpt lat="47.25863" lon="-2.2685">
        <ele>45.799999237061</ele>
        <time>2022-07-10T08:13:52.000Z</time>
      </trkpt>
      <trkpt lat="47.25885" lon="-2.2684">
        <ele>45.400001525879</ele>
        <time>2022-07-10T08:13:56.000Z</time>
      </trkpt>
      <trkpt lat="47.25891" lon="-2.26838">
        <ele>45</ele>
        <time>2022-07-10T08:13:57.000Z</time>
      </trkpt>
      <trkpt lat="47.25896" lon="-2.26835">
        <ele>44.599998474121</ele>
        <time>2022-07-10T08:13:58.000Z</time>
      </trkpt>
      <trkpt lat="47.25902" lon="-2.26832">
        <ele>43.799999237061</ele>
        <time>2022-07-10T08:13:59.000Z</time>
      </trkpt>
      <trkpt lat="47.25919" lon="-2.26823">
        <ele>43.799999237061</ele>
        <time>2022-07-10T08:14:02.000Z</time>
      </trkpt>
      <trkpt lat="47.2593" lon="-2.26816">
        <ele>43.799999237061</ele>
        <time>2022-07-10T08:14:04.000Z</time>
      </trkpt>
      <trkpt lat="47.25943" lon="-2.26814">
        <ele>43.799999237061</ele>
        <time>2022-07-10T08:14:06.000Z</time>
      </trkpt>
      <trkpt lat="47.25973" lon="-2.26807">
        <ele>43.400001525879</ele>
        <time>2022-07-10T08:14:11.000Z</time>
      </trkpt>
      <trkpt lat="47.25978" lon="-2.26808">
        <ele>43</ele>
        <time>2022-07-10T08:14:12.000Z</time>
      </trkpt>
      <trkpt lat="47.25983" lon="-2.26811">
        <ele>42.400001525879</ele>
        <time>2022-07-10T08:14:13.000Z</time>
      </trkpt>
      <trkpt lat="47.25986" lon="-2.26816">
        <ele>42</ele>
        <time>2022-07-10T08:14:14.000Z</time>
      </trkpt>
      <trkpt lat="47.25988" lon="-2.26823">
        <ele>41.599998474121</ele>
        <time>2022-07-10T08:14:15.000Z</time>
      </trkpt>
      <trkpt lat="47.25991" lon="-2.26837">
        <ele>41.599998474121</ele>
        <time>2022-07-10T08:14:17.000Z</time>
      </trkpt>
      <trkpt lat="47.25991" lon="-2.26861">
        <ele>41.599998474121</ele>
        <time>2022-07-10T08:14:20.000Z</time>
      </trkpt>
      <trkpt lat="47.25992" lon="-2.26878">
        <ele>41.599998474121</ele>
        <time>2022-07-10T08:14:22.000Z</time>
      </trkpt>
      <trkpt lat="47.25993" lon="-2.26897">
        <ele>41.599998474121</ele>
        <time>2022-07-10T08:14:24.000Z</time>
      </trkpt>
      <trkpt lat="47.25999" lon="-2.26923">
        <ele>41.599998474121</ele>
        <time>2022-07-10T08:14:27.000Z</time>
      </trkpt>
      <trkpt lat="47.26016" lon="-2.26948">
        <ele>41.599998474121</ele>
        <time>2022-07-10T08:14:31.000Z</time>
      </trkpt>
      <trkpt lat="47.26021" lon="-2.26954">
        <ele>41.599998474121</ele>
        <time>2022-07-10T08:14:32.000Z</time>
      </trkpt>
      <trkpt lat="47.26045" lon="-2.26981">
        <ele>41.599998474121</ele>
        <time>2022-07-10T08:14:37.000Z</time>
      </trkpt>
      <trkpt lat="47.26069" lon="-2.27022">
        <ele>41.599998474121</ele>
        <time>2022-07-10T08:14:43.000Z</time>
      </trkpt>
      <trkpt lat="47.26085" lon="-2.27059">
        <ele>41.599998474121</ele>
        <time>2022-07-10T08:14:48.000Z</time>
      </trkpt>
      <trkpt lat="47.26087" lon="-2.27067">
        <ele>41.599998474121</ele>
        <time>2022-07-10T08:14:49.000Z</time>
      </trkpt>
      <trkpt lat="47.26094" lon="-2.27122">
        <ele>41.599998474121</ele>
        <time>2022-07-10T08:14:56.000Z</time>
      </trkpt>
      <trkpt lat="47.26108" lon="-2.27175">
        <ele>41.599998474121</ele>
        <time>2022-07-10T08:15:02.000Z</time>
      </trkpt>
      <trkpt lat="47.26132" lon="-2.27235">
        <ele>41.599998474121</ele>
        <time>2022-07-10T08:15:10.000Z</time>
      </trkpt>
      <trkpt lat="47.26143" lon="-2.27281">
        <ele>41.599998474121</ele>
        <time>2022-07-10T08:15:16.000Z</time>
      </trkpt>
      <trkpt lat="47.26144" lon="-2.27289">
        <ele>41.599998474121</ele>
        <time>2022-07-10T08:15:17.000Z</time>
      </trkpt>
      <trkpt lat="47.26149" lon="-2.27311">
        <ele>41.599998474121</ele>
        <time>2022-07-10T08:15:20.000Z</time>
      </trkpt>
      <trkpt lat="47.26153" lon="-2.27315">
        <ele>41.599998474121</ele>
        <time>2022-07-10T08:15:21.000Z</time>
      </trkpt>
      <trkpt lat="47.26168" lon="-2.27318">
        <ele>41.599998474121</ele>
        <time>2022-07-10T08:15:24.000Z</time>
      </trkpt>
      <trkpt lat="47.2618" lon="-2.27315">
        <ele>41.599998474121</ele>
        <time>2022-07-10T08:15:26.000Z</time>
      </trkpt>
      <trkpt lat="47.26186" lon="-2.27313">
        <ele>41.599998474121</ele>
        <time>2022-07-10T08:15:27.000Z</time>
      </trkpt>
      <trkpt lat="47.26197" lon="-2.2731">
        <ele>41.599998474121</ele>
        <time>2022-07-10T08:15:29.000Z</time>
      </trkpt>
      <trkpt lat="47.26227" lon="-2.2731">
        <ele>41.599998474121</ele>
        <time>2022-07-10T08:15:34.000Z</time>
      </trkpt>
      <trkpt lat="47.26246" lon="-2.27316">
        <ele>41.599998474121</ele>
        <time>2022-07-10T08:15:37.000Z</time>
      </trkpt>
      <trkpt lat="47.2626" lon="-2.27316">
        <ele>41.599998474121</ele>
        <time>2022-07-10T08:15:39.000Z</time>
      </trkpt>
      <trkpt lat="47.26275" lon="-2.27318">
        <ele>41.599998474121</ele>
        <time>2022-07-10T08:15:41.000Z</time>
      </trkpt>
      <trkpt lat="47.26297" lon="-2.27321">
        <ele>41.599998474121</ele>
        <time>2022-07-10T08:15:44.000Z</time>
      </trkpt>
      <trkpt lat="47.26305" lon="-2.27323">
        <ele>41.599998474121</ele>
        <time>2022-07-10T08:15:45.000Z</time>
      </trkpt>
      <trkpt lat="47.2632" lon="-2.27324">
        <ele>41.599998474121</ele>
        <time>2022-07-10T08:15:47.000Z</time>
      </trkpt>
      <trkpt lat="47.26327" lon="-2.27325">
        <ele>41.599998474121</ele>
        <time>2022-07-10T08:15:48.000Z</time>
      </trkpt>
      <trkpt lat="47.26334" lon="-2.27326">
        <ele>41.599998474121</ele>
        <time>2022-07-10T08:15:49.000Z</time>
      </trkpt>
      <trkpt lat="47.26363" lon="-2.27327">
        <ele>41.599998474121</ele>
        <time>2022-07-10T08:15:53.000Z</time>
      </trkpt>
      <trkpt lat="47.26384" lon="-2.27327">
        <ele>41.200000762939</ele>
        <time>2022-07-10T08:15:56.000Z</time>
      </trkpt>
      <trkpt lat="47.26391" lon="-2.27327">
        <ele>40.799999237061</ele>
        <time>2022-07-10T08:15:57.000Z</time>
      </trkpt>
      <trkpt lat="47.26398" lon="-2.27327">
        <ele>40.400001525879</ele>
        <time>2022-07-10T08:15:58.000Z</time>
      </trkpt>
      <trkpt lat="47.26404" lon="-2.27329">
        <ele>40</ele>
        <time>2022-07-10T08:15:59.000Z</time>
      </trkpt>
      <trkpt lat="47.26412" lon="-2.27331">
        <ele>39.599998474121</ele>
        <time>2022-07-10T08:16:00.000Z</time>
      </trkpt>
      <trkpt lat="47.26428" lon="-2.27345">
        <ele>39.599998474121</ele>
        <time>2022-07-10T08:16:03.000Z</time>
      </trkpt>
      <trkpt lat="47.26435" lon="-2.2736">
        <ele>39.599998474121</ele>
        <time>2022-07-10T08:16:05.000Z</time>
      </trkpt>
      <trkpt lat="47.26441" lon="-2.27375">
        <ele>39.599998474121</ele>
        <time>2022-07-10T08:16:07.000Z</time>
      </trkpt>
      <trkpt lat="47.26444" lon="-2.27383">
        <ele>39</ele>
        <time>2022-07-10T08:16:08.000Z</time>
      </trkpt>
      <trkpt lat="47.26446" lon="-2.27391">
        <ele>38.599998474121</ele>
        <time>2022-07-10T08:16:09.000Z</time>
      </trkpt>
      <trkpt lat="47.26449" lon="-2.27399">
        <ele>38.200000762939</ele>
        <time>2022-07-10T08:16:10.000Z</time>
      </trkpt>
      <trkpt lat="47.26451" lon="-2.27408">
        <ele>37.799999237061</ele>
        <time>2022-07-10T08:16:11.000Z</time>
      </trkpt>
      <trkpt lat="47.26454" lon="-2.27417">
        <ele>37.400001525879</ele>
        <time>2022-07-10T08:16:12.000Z</time>
      </trkpt>
      <trkpt lat="47.26474" lon="-2.2748">
        <ele>37.400001525879</ele>
        <time>2022-07-10T08:16:18.000Z</time>
      </trkpt>
      <trkpt lat="47.26485" lon="-2.27521">
        <ele>37</ele>
        <time>2022-07-10T08:16:22.000Z</time>
      </trkpt>
      <trkpt lat="47.26487" lon="-2.27531">
        <ele>36.400001525879</ele>
        <time>2022-07-10T08:16:23.000Z</time>
      </trkpt>
      <trkpt lat="47.26489" lon="-2.27541">
        <ele>36</ele>
        <time>2022-07-10T08:16:24.000Z</time>
      </trkpt>
      <trkpt lat="47.26491" lon="-2.2755">
        <ele>35.599998474121</ele>
        <time>2022-07-10T08:16:25.000Z</time>
      </trkpt>
      <trkpt lat="47.26492" lon="-2.27559">
        <ele>35</ele>
        <time>2022-07-10T08:16:26.000Z</time>
      </trkpt>
      <trkpt lat="47.26494" lon="-2.27566">
        <ele>35</ele>
        <time>2022-07-10T08:16:27.000Z</time>
      </trkpt>
      <trkpt lat="47.26496" lon="-2.27572">
        <ele>35</ele>
        <time>2022-07-10T08:16:28.000Z</time>
      </trkpt>
      <trkpt lat="47.26509" lon="-2.27576">
        <ele>34.599998474121</ele>
        <time>2022-07-10T08:16:31.000Z</time>
      </trkpt>
      <trkpt lat="47.26514" lon="-2.27575">
        <ele>34.200000762939</ele>
        <time>2022-07-10T08:16:32.000Z</time>
      </trkpt>
      <trkpt lat="47.26518" lon="-2.27575">
        <ele>33.799999237061</ele>
        <time>2022-07-10T08:16:33.000Z</time>
      </trkpt>
      <trkpt lat="47.26523" lon="-2.27575">
        <ele>33.400001525879</ele>
        <time>2022-07-10T08:16:34.000Z</time>
      </trkpt>
      <trkpt lat="47.26528" lon="-2.27575">
        <ele>33</ele>
        <time>2022-07-10T08:16:35.000Z</time>
      </trkpt>
      <trkpt lat="47.26536" lon="-2.27578">
        <ele>33</ele>
        <time>2022-07-10T08:16:37.000Z</time>
      </trkpt>
      <trkpt lat="47.26544" lon="-2.2758">
        <ele>33</ele>
        <time>2022-07-10T08:16:41.000Z</time>
      </trkpt>
      <trkpt lat="47.26544" lon="-2.2758">
        <ele>33</ele>
        <time>2022-07-10T08:16:42.000Z</time>
      </trkpt>
      <trkpt lat="47.26546" lon="-2.27579">
        <ele>33</ele>
        <time>2022-07-10T08:17:33.000Z</time>
      </trkpt>
      <trkpt lat="47.26551" lon="-2.27579">
        <ele>33</ele>
        <time>2022-07-10T08:17:35.000Z</time>
      </trkpt>
      <trkpt lat="47.26574" lon="-2.2758">
        <ele>33</ele>
        <time>2022-07-10T08:17:41.000Z</time>
      </trkpt>
      <trkpt lat="47.26579" lon="-2.27581">
        <ele>33</ele>
        <time>2022-07-10T08:17:42.000Z</time>
      </trkpt>
      <trkpt lat="47.266" lon="-2.2759">
        <ele>33</ele>
        <time>2022-07-10T08:17:46.000Z</time>
      </trkpt>
      <trkpt lat="47.26615" lon="-2.27598">
        <ele>33</ele>
        <time>2022-07-10T08:17:49.000Z</time>
      </trkpt>
      <trkpt lat="47.26631" lon="-2.27606">
        <ele>33</ele>
        <time>2022-07-10T08:17:52.000Z</time>
      </trkpt>
      <trkpt lat="47.26659" lon="-2.27619">
        <ele>33</ele>
        <time>2022-07-10T08:17:57.000Z</time>
      </trkpt>
      <trkpt lat="47.26675" lon="-2.27626">
        <ele>33</ele>
        <time>2022-07-10T08:18:00.000Z</time>
      </trkpt>
      <trkpt lat="47.26713" lon="-2.27643">
        <ele>33</ele>
        <time>2022-07-10T08:18:07.000Z</time>
      </trkpt>
      <trkpt lat="47.26744" lon="-2.27652">
        <ele>33</ele>
        <time>2022-07-10T08:18:13.000Z</time>
      </trkpt>
      <trkpt lat="47.26753" lon="-2.27654">
        <ele>33</ele>
        <time>2022-07-10T08:18:15.000Z</time>
      </trkpt>
      <trkpt lat="47.26764" lon="-2.27645">
        <ele>33</ele>
        <time>2022-07-10T08:18:18.000Z</time>
      </trkpt>
      <trkpt lat="47.26763" lon="-2.27624">
        <ele>33</ele>
        <time>2022-07-10T08:18:21.000Z</time>
      </trkpt>
      <trkpt lat="47.26761" lon="-2.27617">
        <ele>33</ele>
        <time>2022-07-10T08:18:22.000Z</time>
      </trkpt>
      <trkpt lat="47.26754" lon="-2.27578">
        <ele>33</ele>
        <time>2022-07-10T08:18:27.000Z</time>
      </trkpt>
      <trkpt lat="47.26754" lon="-2.2757">
        <ele>33</ele>
        <time>2022-07-10T08:18:28.000Z</time>
      </trkpt>
      <trkpt lat="47.26753" lon="-2.27547">
        <ele>33</ele>
        <time>2022-07-10T08:18:31.000Z</time>
      </trkpt>
      <trkpt lat="47.26752" lon="-2.27518">
        <ele>33</ele>
        <time>2022-07-10T08:18:35.000Z</time>
      </trkpt>
      <trkpt lat="47.26753" lon="-2.2751">
        <ele>33</ele>
        <time>2022-07-10T08:18:36.000Z</time>
      </trkpt>
      <trkpt lat="47.26753" lon="-2.27503">
        <ele>33.400001525879</ele>
        <time>2022-07-10T08:18:37.000Z</time>
      </trkpt>
      <trkpt lat="47.26753" lon="-2.27495">
        <ele>33.799999237061</ele>
        <time>2022-07-10T08:18:38.000Z</time>
      </trkpt>
      <trkpt lat="47.26753" lon="-2.27487">
        <ele>34.200000762939</ele>
        <time>2022-07-10T08:18:39.000Z</time>
      </trkpt>
      <trkpt lat="47.26753" lon="-2.2748">
        <ele>34.799999237061</ele>
        <time>2022-07-10T08:18:40.000Z</time>
      </trkpt>
      <trkpt lat="47.26754" lon="-2.27472">
        <ele>35.200000762939</ele>
        <time>2022-07-10T08:18:41.000Z</time>
      </trkpt>
      <trkpt lat="47.26754" lon="-2.27465">
        <ele>35.200000762939</ele>
        <time>2022-07-10T08:18:42.000Z</time>
      </trkpt>
      <trkpt lat="47.26755" lon="-2.2745">
        <ele>35.200000762939</ele>
        <time>2022-07-10T08:18:44.000Z</time>
      </trkpt>
      <trkpt lat="47.26754" lon="-2.27427">
        <ele>35.200000762939</ele>
        <time>2022-07-10T08:18:47.000Z</time>
      </trkpt>
      <trkpt lat="47.26755" lon="-2.2742">
        <ele>35.200000762939</ele>
        <time>2022-07-10T08:18:48.000Z</time>
      </trkpt>
      <trkpt lat="47.26761" lon="-2.27411">
        <ele>35.200000762939</ele>
        <time>2022-07-10T08:18:50.000Z</time>
      </trkpt>
      <trkpt lat="47.26772" lon="-2.27408">
        <ele>35.200000762939</ele>
        <time>2022-07-10T08:18:53.000Z</time>
      </trkpt>
      <trkpt lat="47.26776" lon="-2.27408">
        <ele>35.200000762939</ele>
        <time>2022-07-10T08:18:54.000Z</time>
      </trkpt>
      <trkpt lat="47.26806" lon="-2.27408">
        <ele>34.799999237061</ele>
        <time>2022-07-10T08:19:00.000Z</time>
      </trkpt>
      <trkpt lat="47.2681" lon="-2.27408">
        <ele>34.400001525879</ele>
        <time>2022-07-10T08:19:01.000Z</time>
      </trkpt>
      <trkpt lat="47.26815" lon="-2.27409">
        <ele>34</ele>
        <time>2022-07-10T08:19:02.000Z</time>
      </trkpt>
      <trkpt lat="47.26819" lon="-2.27408">
        <ele>33.599998474121</ele>
        <time>2022-07-10T08:19:03.000Z</time>
      </trkpt>
      <trkpt lat="47.26824" lon="-2.27407">
        <ele>33</ele>
        <time>2022-07-10T08:19:04.000Z</time>
      </trkpt>
      <trkpt lat="47.26833" lon="-2.27405">
        <ele>33</ele>
        <time>2022-07-10T08:19:06.000Z</time>
      </trkpt>
      <trkpt lat="47.26859" lon="-2.27397">
        <ele>32.599998474121</ele>
        <time>2022-07-10T08:19:12.000Z</time>
      </trkpt>
      <trkpt lat="47.26864" lon="-2.27395">
        <ele>32.200000762939</ele>
        <time>2022-07-10T08:19:13.000Z</time>
      </trkpt>
      <trkpt lat="47.26869" lon="-2.27392">
        <ele>31.799999237061</ele>
        <time>2022-07-10T08:19:14.000Z</time>
      </trkpt>
      <trkpt lat="47.26874" lon="-2.2739">
        <ele>31.39999961853</ele>
        <time>2022-07-10T08:19:15.000Z</time>
      </trkpt>
      <trkpt lat="47.26879" lon="-2.27387">
        <ele>31</ele>
        <time>2022-07-10T08:19:16.000Z</time>
      </trkpt>
      <trkpt lat="47.26892" lon="-2.27381">
        <ele>30.60000038147</ele>
        <time>2022-07-10T08:19:19.000Z</time>
      </trkpt>
      <trkpt lat="47.26896" lon="-2.27379">
        <ele>29.799999237061</ele>
        <time>2022-07-10T08:19:20.000Z</time>
      </trkpt>
      <trkpt lat="47.269" lon="-2.27375">
        <ele>29.39999961853</ele>
        <time>2022-07-10T08:19:21.000Z</time>
      </trkpt>
      <trkpt lat="47.26903" lon="-2.27371">
        <ele>28.799999237061</ele>
        <time>2022-07-10T08:19:22.000Z</time>
      </trkpt>
      <trkpt lat="47.26905" lon="-2.27367">
        <ele>28.799999237061</ele>
        <time>2022-07-10T08:19:23.000Z</time>
      </trkpt>
      <trkpt lat="47.2691" lon="-2.2735">
        <ele>28.799999237061</ele>
        <time>2022-07-10T08:19:27.000Z</time>
      </trkpt>
      <trkpt lat="47.26916" lon="-2.27339">
        <ele>28.799999237061</ele>
        <time>2022-07-10T08:19:31.000Z</time>
      </trkpt>
      <trkpt lat="47.26923" lon="-2.27322">
        <ele>28.799999237061</ele>
        <time>2022-07-10T08:19:37.000Z</time>
      </trkpt>
      <trkpt lat="47.26928" lon="-2.27306">
        <ele>28.799999237061</ele>
        <time>2022-07-10T08:19:43.000Z</time>
      </trkpt>
      <trkpt lat="47.26928" lon="-2.27304">
        <ele>28.799999237061</ele>
        <time>2022-07-10T08:19:44.000Z</time>
      </trkpt>
      <trkpt lat="47.2693" lon="-2.27291">
        <ele>28.799999237061</ele>
        <time>2022-07-10T08:19:48.000Z</time>
      </trkpt>
      <trkpt lat="47.26935" lon="-2.27274">
        <ele>28.799999237061</ele>
        <time>2022-07-10T08:19:53.000Z</time>
      </trkpt>
      <trkpt lat="47.26947" lon="-2.27266">
        <ele>28.799999237061</ele>
        <time>2022-07-10T08:19:58.000Z</time>
      </trkpt>
      <trkpt lat="47.26952" lon="-2.2726">
        <ele>28.799999237061</ele>
        <time>2022-07-10T08:20:01.000Z</time>
      </trkpt>
      <trkpt lat="47.26954" lon="-2.27254">
        <ele>28.799999237061</ele>
        <time>2022-07-10T08:20:03.000Z</time>
      </trkpt>
      <trkpt lat="47.26962" lon="-2.27236">
        <ele>28.799999237061</ele>
        <time>2022-07-10T08:20:08.000Z</time>
      </trkpt>
      <trkpt lat="47.26964" lon="-2.27216">
        <ele>28.799999237061</ele>
        <time>2022-07-10T08:20:14.000Z</time>
      </trkpt>
      <trkpt lat="47.26965" lon="-2.2721">
        <ele>28.799999237061</ele>
        <time>2022-07-10T08:20:16.000Z</time>
      </trkpt>
      <trkpt lat="47.26968" lon="-2.27209">
        <ele>28.799999237061</ele>
        <time>2022-07-10T08:20:18.000Z</time>
      </trkpt>
      <trkpt lat="47.2697" lon="-2.27208">
        <ele>28.799999237061</ele>
        <time>2022-07-10T08:20:19.000Z</time>
      </trkpt>
      <trkpt lat="47.26972" lon="-2.272">
        <ele>28.799999237061</ele>
        <time>2022-07-10T08:20:22.000Z</time>
      </trkpt>
      <trkpt lat="47.26974" lon="-2.27192">
        <ele>28.799999237061</ele>
        <time>2022-07-10T08:20:24.000Z</time>
      </trkpt>
      <trkpt lat="47.26978" lon="-2.27189">
        <ele>28.799999237061</ele>
        <time>2022-07-10T08:20:26.000Z</time>
      </trkpt>
      <trkpt lat="47.26988" lon="-2.27186">
        <ele>28.799999237061</ele>
        <time>2022-07-10T08:20:31.000Z</time>
      </trkpt>
      <trkpt lat="47.26995" lon="-2.27179">
        <ele>28.799999237061</ele>
        <time>2022-07-10T08:20:35.000Z</time>
      </trkpt>
      <trkpt lat="47.26999" lon="-2.27175">
        <ele>28.799999237061</ele>
        <time>2022-07-10T08:20:37.000Z</time>
      </trkpt>
      <trkpt lat="47.27001" lon="-2.27175">
        <ele>28.799999237061</ele>
        <time>2022-07-10T08:20:38.000Z</time>
      </trkpt>
      <trkpt lat="47.27007" lon="-2.27177">
        <ele>28.799999237061</ele>
        <time>2022-07-10T08:20:42.000Z</time>
      </trkpt>
      <trkpt lat="47.27008" lon="-2.27177">
        <ele>28.39999961853</ele>
        <time>2022-07-10T08:20:43.000Z</time>
      </trkpt>
      <trkpt lat="47.2701" lon="-2.27176">
        <ele>28</ele>
        <time>2022-07-10T08:20:44.000Z</time>
      </trkpt>
      <trkpt lat="47.27012" lon="-2.27174">
        <ele>27.60000038147</ele>
        <time>2022-07-10T08:20:45.000Z</time>
      </trkpt>
      <trkpt lat="47.27013" lon="-2.27172">
        <ele>27.200000762939</ele>
        <time>2022-07-10T08:20:46.000Z</time>
      </trkpt>
      <trkpt lat="47.27013" lon="-2.2717">
        <ele>26.799999237061</ele>
        <time>2022-07-10T08:20:47.000Z</time>
      </trkpt>
      <trkpt lat="47.27015" lon="-2.27166">
        <ele>26.799999237061</ele>
        <time>2022-07-10T08:20:50.000Z</time>
      </trkpt>
      <trkpt lat="47.27017" lon="-2.27161">
        <ele>26.799999237061</ele>
        <time>2022-07-10T08:20:52.000Z</time>
      </trkpt>
      <trkpt lat="47.27019" lon="-2.27157">
        <ele>26.799999237061</ele>
        <time>2022-07-10T08:20:54.000Z</time>
      </trkpt>
      <trkpt lat="47.27022" lon="-2.27152">
        <ele>26.39999961853</ele>
        <time>2022-07-10T08:20:56.000Z</time>
      </trkpt>
      <trkpt lat="47.27023" lon="-2.27149">
        <ele>26</ele>
        <time>2022-07-10T08:20:57.000Z</time>
      </trkpt>
      <trkpt lat="47.27023" lon="-2.27146">
        <ele>25.60000038147</ele>
        <time>2022-07-10T08:20:58.000Z</time>
      </trkpt>
      <trkpt lat="47.27023" lon="-2.27143">
        <ele>24.799999237061</ele>
        <time>2022-07-10T08:20:59.000Z</time>
      </trkpt>
      <trkpt lat="47.27022" lon="-2.27134">
        <ele>24.799999237061</ele>
        <time>2022-07-10T08:21:02.000Z</time>
      </trkpt>
      <trkpt lat="47.27019" lon="-2.27117">
        <ele>25.200000762939</ele>
        <time>2022-07-10T08:21:08.000Z</time>
      </trkpt>
      <trkpt lat="47.27019" lon="-2.27115">
        <ele>25.60000038147</ele>
        <time>2022-07-10T08:21:09.000Z</time>
      </trkpt>
      <trkpt lat="47.27018" lon="-2.27112">
        <ele>26</ele>
        <time>2022-07-10T08:21:10.000Z</time>
      </trkpt>
      <trkpt lat="47.27017" lon="-2.2711">
        <ele>26.39999961853</ele>
        <time>2022-07-10T08:21:11.000Z</time>
      </trkpt>
      <trkpt lat="47.27016" lon="-2.27107">
        <ele>26.799999237061</ele>
        <time>2022-07-10T08:21:12.000Z</time>
      </trkpt>
      <trkpt lat="47.27012" lon="-2.27094">
        <ele>26.799999237061</ele>
        <time>2022-07-10T08:21:16.000Z</time>
      </trkpt>
      <trkpt lat="47.27006" lon="-2.27066">
        <ele>26.799999237061</ele>
        <time>2022-07-10T08:21:22.000Z</time>
      </trkpt>
      <trkpt lat="47.26998" lon="-2.27049">
        <ele>26.799999237061</ele>
        <time>2022-07-10T08:21:26.000Z</time>
      </trkpt>
      <trkpt lat="47.26983" lon="-2.27026">
        <ele>26.799999237061</ele>
        <time>2022-07-10T08:21:31.000Z</time>
      </trkpt>
      <trkpt lat="47.26975" lon="-2.27018">
        <ele>26.799999237061</ele>
        <time>2022-07-10T08:21:33.000Z</time>
      </trkpt>
      <trkpt lat="47.26966" lon="-2.27003">
        <ele>26.799999237061</ele>
        <time>2022-07-10T08:21:36.000Z</time>
      </trkpt>
      <trkpt lat="47.26963" lon="-2.26995">
        <ele>26.799999237061</ele>
        <time>2022-07-10T08:21:37.000Z</time>
      </trkpt>
      <trkpt lat="47.26961" lon="-2.26987">
        <ele>26.799999237061</ele>
        <time>2022-07-10T08:21:38.000Z</time>
      </trkpt>
      <trkpt lat="47.26961" lon="-2.26971">
        <ele>26.799999237061</ele>
        <time>2022-07-10T08:21:40.000Z</time>
      </trkpt>
      <trkpt lat="47.26965" lon="-2.26948">
        <ele>26.799999237061</ele>
        <time>2022-07-10T08:21:43.000Z</time>
      </trkpt>
      <trkpt lat="47.26968" lon="-2.26925">
        <ele>26.39999961853</ele>
        <time>2022-07-10T08:21:46.000Z</time>
      </trkpt>
      <trkpt lat="47.26968" lon="-2.26915">
        <ele>26</ele>
        <time>2022-07-10T08:21:47.000Z</time>
      </trkpt>
      <trkpt lat="47.26967" lon="-2.26907">
        <ele>25.60000038147</ele>
        <time>2022-07-10T08:21:48.000Z</time>
      </trkpt>
      <trkpt lat="47.26967" lon="-2.26898">
        <ele>24.799999237061</ele>
        <time>2022-07-10T08:21:49.000Z</time>
      </trkpt>
      <trkpt lat="47.26965" lon="-2.2689">
        <ele>24.799999237061</ele>
        <time>2022-07-10T08:21:50.000Z</time>
      </trkpt>
      <trkpt lat="47.2696" lon="-2.26844">
        <ele>24.799999237061</ele>
        <time>2022-07-10T08:21:56.000Z</time>
      </trkpt>
      <trkpt lat="47.2696" lon="-2.26838">
        <ele>24.799999237061</ele>
        <time>2022-07-10T08:21:57.000Z</time>
      </trkpt>
      <trkpt lat="47.26965" lon="-2.26821">
        <ele>24.799999237061</ele>
        <time>2022-07-10T08:22:00.000Z</time>
      </trkpt>
      <trkpt lat="47.26973" lon="-2.2681">
        <ele>24.799999237061</ele>
        <time>2022-07-10T08:22:03.000Z</time>
      </trkpt>
      <trkpt lat="47.26977" lon="-2.26807">
        <ele>24.799999237061</ele>
        <time>2022-07-10T08:22:05.000Z</time>
      </trkpt>
      <trkpt lat="47.26988" lon="-2.26793">
        <ele>24.799999237061</ele>
        <time>2022-07-10T08:22:11.000Z</time>
      </trkpt>
      <trkpt lat="47.26995" lon="-2.26788">
        <ele>24.39999961853</ele>
        <time>2022-07-10T08:22:15.000Z</time>
      </trkpt>
      <trkpt lat="47.26997" lon="-2.26785">
        <ele>24</ele>
        <time>2022-07-10T08:22:16.000Z</time>
      </trkpt>
      <trkpt lat="47.26999" lon="-2.26781">
        <ele>23.60000038147</ele>
        <time>2022-07-10T08:22:17.000Z</time>
      </trkpt>
      <trkpt lat="47.27001" lon="-2.26779">
        <ele>23.200000762939</ele>
        <time>2022-07-10T08:22:18.000Z</time>
      </trkpt>
      <trkpt lat="47.27003" lon="-2.26776">
        <ele>22.799999237061</ele>
        <time>2022-07-10T08:22:19.000Z</time>
      </trkpt>
      <trkpt lat="47.27006" lon="-2.26771">
        <ele>22.799999237061</ele>
        <time>2022-07-10T08:22:21.000Z</time>
      </trkpt>
      <trkpt lat="47.27012" lon="-2.26762">
        <ele>22.799999237061</ele>
        <time>2022-07-10T08:22:26.000Z</time>
      </trkpt>
      <trkpt lat="47.27022" lon="-2.26752">
        <ele>22.799999237061</ele>
        <time>2022-07-10T08:22:32.000Z</time>
      </trkpt>
      <trkpt lat="47.27023" lon="-2.2675">
        <ele>22.799999237061</ele>
        <time>2022-07-10T08:22:33.000Z</time>
      </trkpt>
      <trkpt lat="47.27028" lon="-2.26737">
        <ele>22.799999237061</ele>
        <time>2022-07-10T08:22:37.000Z</time>
      </trkpt>
      <trkpt lat="47.27028" lon="-2.26733">
        <ele>22.799999237061</ele>
        <time>2022-07-10T08:22:38.000Z</time>
      </trkpt>
      <trkpt lat="47.2703" lon="-2.26705">
        <ele>22.799999237061</ele>
        <time>2022-07-10T08:22:43.000Z</time>
      </trkpt>
      <trkpt lat="47.27031" lon="-2.26665">
        <ele>22.799999237061</ele>
        <time>2022-07-10T08:22:49.000Z</time>
      </trkpt>
      <trkpt lat="47.2703" lon="-2.26652">
        <ele>22.799999237061</ele>
        <time>2022-07-10T08:22:51.000Z</time>
      </trkpt>
      <trkpt lat="47.27028" lon="-2.26646">
        <ele>22.799999237061</ele>
        <time>2022-07-10T08:22:52.000Z</time>
      </trkpt>
      <trkpt lat="47.27012" lon="-2.26618">
        <ele>23.200000762939</ele>
        <time>2022-07-10T08:22:58.000Z</time>
      </trkpt>
      <trkpt lat="47.27008" lon="-2.26613">
        <ele>23.60000038147</ele>
        <time>2022-07-10T08:22:59.000Z</time>
      </trkpt>
      <trkpt lat="47.27005" lon="-2.26607">
        <ele>24</ele>
        <time>2022-07-10T08:23:00.000Z</time>
      </trkpt>
      <trkpt lat="47.27003" lon="-2.26602">
        <ele>24.39999961853</ele>
        <time>2022-07-10T08:23:01.000Z</time>
      </trkpt>
      <trkpt lat="47.26999" lon="-2.26597">
        <ele>24.799999237061</ele>
        <time>2022-07-10T08:23:02.000Z</time>
      </trkpt>
      <trkpt lat="47.2699" lon="-2.26587">
        <ele>24.799999237061</ele>
        <time>2022-07-10T08:23:04.000Z</time>
      </trkpt>
      <trkpt lat="47.26975" lon="-2.26555">
        <ele>24.799999237061</ele>
        <time>2022-07-10T08:23:08.000Z</time>
      </trkpt>
      <trkpt lat="47.26972" lon="-2.26547">
        <ele>24.799999237061</ele>
        <time>2022-07-10T08:23:09.000Z</time>
      </trkpt>
      <trkpt lat="47.26965" lon="-2.26528">
        <ele>25.200000762939</ele>
        <time>2022-07-10T08:23:12.000Z</time>
      </trkpt>
      <trkpt lat="47.26964" lon="-2.26522">
        <ele>25.60000038147</ele>
        <time>2022-07-10T08:23:13.000Z</time>
      </trkpt>
      <trkpt lat="47.26963" lon="-2.26516">
        <ele>26.200000762939</ele>
        <time>2022-07-10T08:23:14.000Z</time>
      </trkpt>
      <trkpt lat="47.26964" lon="-2.26512">
        <ele>26.60000038147</ele>
        <time>2022-07-10T08:23:15.000Z</time>
      </trkpt>
      <trkpt lat="47.26965" lon="-2.26507">
        <ele>27</ele>
        <time>2022-07-10T08:23:16.000Z</time>
      </trkpt>
      <trkpt lat="47.26972" lon="-2.26494">
        <ele>27</ele>
        <time>2022-07-10T08:23:19.000Z</time>
      </trkpt>
      <trkpt lat="47.26983" lon="-2.26478">
        <ele>27</ele>
        <time>2022-07-10T08:23:24.000Z</time>
      </trkpt>
      <trkpt lat="47.26984" lon="-2.26477">
        <ele>27</ele>
        <time>2022-07-10T08:23:27.000Z</time>
      </trkpt>
      <trkpt lat="47.26986" lon="-2.26474">
        <ele>27</ele>
        <time>2022-07-10T08:23:59.000Z</time>
      </trkpt>
      <trkpt lat="47.26996" lon="-2.2646">
        <ele>27</ele>
        <time>2022-07-10T08:24:03.000Z</time>
      </trkpt>
      <trkpt lat="47.27018" lon="-2.26427">
        <ele>27</ele>
        <time>2022-07-10T08:24:11.000Z</time>
      </trkpt>
      <trkpt lat="47.27029" lon="-2.2641">
        <ele>27.39999961853</ele>
        <time>2022-07-10T08:24:15.000Z</time>
      </trkpt>
      <trkpt lat="47.27032" lon="-2.26406">
        <ele>27.799999237061</ele>
        <time>2022-07-10T08:24:16.000Z</time>
      </trkpt>
      <trkpt lat="47.27036" lon="-2.26401">
        <ele>28.60000038147</ele>
        <time>2022-07-10T08:24:17.000Z</time>
      </trkpt>
      <trkpt lat="47.27039" lon="-2.26396">
        <ele>29</ele>
        <time>2022-07-10T08:24:18.000Z</time>
      </trkpt>
      <trkpt lat="47.27064" lon="-2.26361">
        <ele>29</ele>
        <time>2022-07-10T08:24:24.000Z</time>
      </trkpt>
      <trkpt lat="47.27088" lon="-2.26326">
        <ele>29</ele>
        <time>2022-07-10T08:24:30.000Z</time>
      </trkpt>
      <trkpt lat="47.27128" lon="-2.26265">
        <ele>29</ele>
        <time>2022-07-10T08:24:40.000Z</time>
      </trkpt>
      <trkpt lat="47.27165" lon="-2.26218">
        <ele>29</ele>
        <time>2022-07-10T08:24:47.000Z</time>
      </trkpt>
      <trkpt lat="47.27177" lon="-2.26205">
        <ele>28.60000038147</ele>
        <time>2022-07-10T08:24:49.000Z</time>
      </trkpt>
      <trkpt lat="47.27183" lon="-2.26199">
        <ele>28.200000762939</ele>
        <time>2022-07-10T08:24:50.000Z</time>
      </trkpt>
      <trkpt lat="47.2719" lon="-2.26193">
        <ele>27.799999237061</ele>
        <time>2022-07-10T08:24:51.000Z</time>
      </trkpt>
      <trkpt lat="47.27197" lon="-2.26187">
        <ele>27.39999961853</ele>
        <time>2022-07-10T08:24:52.000Z</time>
      </trkpt>
      <trkpt lat="47.27204" lon="-2.26182">
        <ele>27</ele>
        <time>2022-07-10T08:24:53.000Z</time>
      </trkpt>
      <trkpt lat="47.27211" lon="-2.26177">
        <ele>27</ele>
        <time>2022-07-10T08:24:54.000Z</time>
      </trkpt>
      <trkpt lat="47.27248" lon="-2.26153">
        <ele>27</ele>
        <time>2022-07-10T08:25:00.000Z</time>
      </trkpt>
      <trkpt lat="47.27286" lon="-2.26135">
        <ele>27</ele>
        <time>2022-07-10T08:25:06.000Z</time>
      </trkpt>
      <trkpt lat="47.27333" lon="-2.26121">
        <ele>27</ele>
        <time>2022-07-10T08:25:14.000Z</time>
      </trkpt>
      <trkpt lat="47.27337" lon="-2.26118">
        <ele>27</ele>
        <time>2022-07-10T08:25:15.000Z</time>
      </trkpt>
      <trkpt lat="47.27341" lon="-2.26104">
        <ele>27</ele>
        <time>2022-07-10T08:25:17.000Z</time>
      </trkpt>
      <trkpt lat="47.27337" lon="-2.26092">
        <ele>26.60000038147</ele>
        <time>2022-07-10T08:25:19.000Z</time>
      </trkpt>
      <trkpt lat="47.27333" lon="-2.26085">
        <ele>26</ele>
        <time>2022-07-10T08:25:20.000Z</time>
      </trkpt>
      <trkpt lat="47.27329" lon="-2.26078">
        <ele>25.60000038147</ele>
        <time>2022-07-10T08:25:21.000Z</time>
      </trkpt>
      <trkpt lat="47.27326" lon="-2.2607">
        <ele>25.200000762939</ele>
        <time>2022-07-10T08:25:22.000Z</time>
      </trkpt>
      <trkpt lat="47.27322" lon="-2.26062">
        <ele>24.799999237061</ele>
        <time>2022-07-10T08:25:23.000Z</time>
      </trkpt>
      <trkpt lat="47.27308" lon="-2.26032">
        <ele>24.799999237061</ele>
        <time>2022-07-10T08:25:27.000Z</time>
      </trkpt>
      <trkpt lat="47.27289" lon="-2.25997">
        <ele>24.799999237061</ele>
        <time>2022-07-10T08:25:33.000Z</time>
      </trkpt>
      <trkpt lat="47.27292" lon="-2.25987">
        <ele>24.799999237061</ele>
        <time>2022-07-10T08:25:36.000Z</time>
      </trkpt>
      <trkpt lat="47.27293" lon="-2.25985">
        <ele>24.799999237061</ele>
        <time>2022-07-10T08:25:37.000Z</time>
      </trkpt>
      <trkpt lat="47.27303" lon="-2.25974">
        <ele>24.799999237061</ele>
        <time>2022-07-10T08:25:41.000Z</time>
      </trkpt>
      <trkpt lat="47.27324" lon="-2.25963">
        <ele>24.799999237061</ele>
        <time>2022-07-10T08:25:46.000Z</time>
      </trkpt>
      <trkpt lat="47.27351" lon="-2.2595">
        <ele>24.799999237061</ele>
        <time>2022-07-10T08:25:52.000Z</time>
      </trkpt>
      <trkpt lat="47.27356" lon="-2.25946">
        <ele>24.799999237061</ele>
        <time>2022-07-10T08:25:53.000Z</time>
      </trkpt>
      <trkpt lat="47.27369" lon="-2.25928">
        <ele>24.799999237061</ele>
        <time>2022-07-10T08:25:56.000Z</time>
      </trkpt>
      <trkpt lat="47.27378" lon="-2.25917">
        <ele>24.799999237061</ele>
        <time>2022-07-10T08:25:58.000Z</time>
      </trkpt>
      <trkpt lat="47.27395" lon="-2.25897">
        <ele>24.799999237061</ele>
        <time>2022-07-10T08:26:02.000Z</time>
      </trkpt>
      <trkpt lat="47.27403" lon="-2.25886">
        <ele>24.799999237061</ele>
        <time>2022-07-10T08:26:04.000Z</time>
      </trkpt>
      <trkpt lat="47.2741" lon="-2.25873">
        <ele>24.799999237061</ele>
        <time>2022-07-10T08:26:06.000Z</time>
      </trkpt>
      <trkpt lat="47.27413" lon="-2.25867">
        <ele>24.799999237061</ele>
        <time>2022-07-10T08:26:07.000Z</time>
      </trkpt>
      <trkpt lat="47.27434" lon="-2.2583">
        <ele>24.799999237061</ele>
        <time>2022-07-10T08:26:13.000Z</time>
      </trkpt>
      <trkpt lat="47.2744" lon="-2.25818">
        <ele>24.799999237061</ele>
        <time>2022-07-10T08:26:15.000Z</time>
      </trkpt>
      <trkpt lat="47.27447" lon="-2.25806">
        <ele>24.799999237061</ele>
        <time>2022-07-10T08:26:17.000Z</time>
      </trkpt>
      <trkpt lat="47.27455" lon="-2.25797">
        <ele>24.799999237061</ele>
        <time>2022-07-10T08:26:19.000Z</time>
      </trkpt>
      <trkpt lat="47.27464" lon="-2.25793">
        <ele>24.799999237061</ele>
        <time>2022-07-10T08:26:21.000Z</time>
      </trkpt>
      <trkpt lat="47.27468" lon="-2.2579">
        <ele>24.799999237061</ele>
        <time>2022-07-10T08:26:22.000Z</time>
      </trkpt>
      <trkpt lat="47.27471" lon="-2.25786">
        <ele>24.799999237061</ele>
        <time>2022-07-10T08:26:23.000Z</time>
      </trkpt>
      <trkpt lat="47.27495" lon="-2.25757">
        <ele>24.799999237061</ele>
        <time>2022-07-10T08:26:30.000Z</time>
      </trkpt>
      <trkpt lat="47.27518" lon="-2.25722">
        <ele>24.39999961853</ele>
        <time>2022-07-10T08:26:37.000Z</time>
      </trkpt>
      <trkpt lat="47.27522" lon="-2.25716">
        <ele>24</ele>
        <time>2022-07-10T08:26:38.000Z</time>
      </trkpt>
      <trkpt lat="47.27525" lon="-2.2571">
        <ele>23.60000038147</ele>
        <time>2022-07-10T08:26:39.000Z</time>
      </trkpt>
      <trkpt lat="47.27529" lon="-2.25703">
        <ele>23.200000762939</ele>
        <time>2022-07-10T08:26:40.000Z</time>
      </trkpt>
      <trkpt lat="47.27532" lon="-2.25697">
        <ele>22.799999237061</ele>
        <time>2022-07-10T08:26:41.000Z</time>
      </trkpt>
      <trkpt lat="47.27546" lon="-2.25672">
        <ele>22.39999961853</ele>
        <time>2022-07-10T08:26:45.000Z</time>
      </trkpt>
      <trkpt lat="47.2755" lon="-2.25666">
        <ele>22</ele>
        <time>2022-07-10T08:26:46.000Z</time>
      </trkpt>
      <trkpt lat="47.27553" lon="-2.25661">
        <ele>21.60000038147</ele>
        <time>2022-07-10T08:26:47.000Z</time>
      </trkpt>
      <trkpt lat="47.27556" lon="-2.25656">
        <ele>21.200000762939</ele>
        <time>2022-07-10T08:26:48.000Z</time>
      </trkpt>
      <trkpt lat="47.27558" lon="-2.25654">
        <ele>20.799999237061</ele>
        <time>2022-07-10T08:26:49.000Z</time>
      </trkpt>
      <trkpt lat="47.27559" lon="-2.25648">
        <ele>20.799999237061</ele>
        <time>2022-07-10T08:26:51.000Z</time>
      </trkpt>
      <trkpt lat="47.27558" lon="-2.25636">
        <ele>20.799999237061</ele>
        <time>2022-07-10T08:26:55.000Z</time>
      </trkpt>
      <trkpt lat="47.27559" lon="-2.25634">
        <ele>20.799999237061</ele>
        <time>2022-07-10T08:26:56.000Z</time>
      </trkpt>
      <trkpt lat="47.27558" lon="-2.25627">
        <ele>20.799999237061</ele>
        <time>2022-07-10T08:27:00.000Z</time>
      </trkpt>
      <trkpt lat="47.2756" lon="-2.25608">
        <ele>20.799999237061</ele>
        <time>2022-07-10T08:27:06.000Z</time>
      </trkpt>
      <trkpt lat="47.27559" lon="-2.25577">
        <ele>20.799999237061</ele>
        <time>2022-07-10T08:27:11.000Z</time>
      </trkpt>
      <trkpt lat="47.27554" lon="-2.25563">
        <ele>20.799999237061</ele>
        <time>2022-07-10T08:27:13.000Z</time>
      </trkpt>
      <trkpt lat="47.2755" lon="-2.25546">
        <ele>20.799999237061</ele>
        <time>2022-07-10T08:27:15.000Z</time>
      </trkpt>
      <trkpt lat="47.27535" lon="-2.25505">
        <ele>20.799999237061</ele>
        <time>2022-07-10T08:27:21.000Z</time>
      </trkpt>
      <trkpt lat="47.27528" lon="-2.25493">
        <ele>20.799999237061</ele>
        <time>2022-07-10T08:27:23.000Z</time>
      </trkpt>
      <trkpt lat="47.27517" lon="-2.25476">
        <ele>20.799999237061</ele>
        <time>2022-07-10T08:27:26.000Z</time>
      </trkpt>
      <trkpt lat="47.27512" lon="-2.25472">
        <ele>20.799999237061</ele>
        <time>2022-07-10T08:27:27.000Z</time>
      </trkpt>
      <trkpt lat="47.27496" lon="-2.25455">
        <ele>20.799999237061</ele>
        <time>2022-07-10T08:27:31.000Z</time>
      </trkpt>
      <trkpt lat="47.27487" lon="-2.25453">
        <ele>20.200000762939</ele>
        <time>2022-07-10T08:27:33.000Z</time>
      </trkpt>
      <trkpt lat="47.27483" lon="-2.25452">
        <ele>19.799999237061</ele>
        <time>2022-07-10T08:27:34.000Z</time>
      </trkpt>
      <trkpt lat="47.27479" lon="-2.25452">
        <ele>19</ele>
        <time>2022-07-10T08:27:35.000Z</time>
      </trkpt>
      <trkpt lat="47.27475" lon="-2.25453">
        <ele>18.60000038147</ele>
        <time>2022-07-10T08:27:36.000Z</time>
      </trkpt>
      <trkpt lat="47.27468" lon="-2.25454">
        <ele>18.60000038147</ele>
        <time>2022-07-10T08:27:38.000Z</time>
      </trkpt>
      <trkpt lat="47.27453" lon="-2.25447">
        <ele>18.60000038147</ele>
        <time>2022-07-10T08:27:42.000Z</time>
      </trkpt>
      <trkpt lat="47.2745" lon="-2.25445">
        <ele>18.60000038147</ele>
        <time>2022-07-10T08:27:43.000Z</time>
      </trkpt>
      <trkpt lat="47.27441" lon="-2.25435">
        <ele>18.60000038147</ele>
        <time>2022-07-10T08:27:48.000Z</time>
      </trkpt>
      <trkpt lat="47.27426" lon="-2.25418">
        <ele>18.60000038147</ele>
        <time>2022-07-10T08:27:54.000Z</time>
      </trkpt>
      <trkpt lat="47.27423" lon="-2.25414">
        <ele>18.60000038147</ele>
        <time>2022-07-10T08:27:55.000Z</time>
      </trkpt>
      <trkpt lat="47.2742" lon="-2.25406">
        <ele>19</ele>
        <time>2022-07-10T08:27:57.000Z</time>
      </trkpt>
      <trkpt lat="47.27418" lon="-2.25402">
        <ele>19.39999961853</ele>
        <time>2022-07-10T08:27:58.000Z</time>
      </trkpt>
      <trkpt lat="47.27417" lon="-2.25398">
        <ele>20.200000762939</ele>
        <time>2022-07-10T08:27:59.000Z</time>
      </trkpt>
      <trkpt lat="47.27414" lon="-2.25394">
        <ele>20.60000038147</ele>
        <time>2022-07-10T08:28:00.000Z</time>
      </trkpt>
      <trkpt lat="47.27409" lon="-2.25387">
        <ele>20.60000038147</ele>
        <time>2022-07-10T08:28:02.000Z</time>
      </trkpt>
      <trkpt lat="47.27407" lon="-2.25379">
        <ele>20.60000038147</ele>
        <time>2022-07-10T08:28:04.000Z</time>
      </trkpt>
      <trkpt lat="47.27407" lon="-2.25357">
        <ele>20.60000038147</ele>
        <time>2022-07-10T08:28:09.000Z</time>
      </trkpt>
      <trkpt lat="47.27403" lon="-2.25333">
        <ele>20.60000038147</ele>
        <time>2022-07-10T08:28:13.000Z</time>
      </trkpt>
      <trkpt lat="47.27396" lon="-2.25312">
        <ele>20.60000038147</ele>
        <time>2022-07-10T08:28:17.000Z</time>
      </trkpt>
      <trkpt lat="47.27397" lon="-2.25287">
        <ele>20.60000038147</ele>
        <time>2022-07-10T08:28:22.000Z</time>
      </trkpt>
      <trkpt lat="47.27392" lon="-2.25253">
        <ele>20.60000038147</ele>
        <time>2022-07-10T08:28:28.000Z</time>
      </trkpt>
      <trkpt lat="47.2739" lon="-2.25226">
        <ele>20.60000038147</ele>
        <time>2022-07-10T08:28:33.000Z</time>
      </trkpt>
      <trkpt lat="47.27392" lon="-2.25218">
        <ele>20.60000038147</ele>
        <time>2022-07-10T08:28:34.000Z</time>
      </trkpt>
      <trkpt lat="47.27391" lon="-2.2519">
        <ele>20.60000038147</ele>
        <time>2022-07-10T08:28:38.000Z</time>
      </trkpt>
      <trkpt lat="47.27385" lon="-2.25169">
        <ele>20.60000038147</ele>
        <time>2022-07-10T08:28:42.000Z</time>
      </trkpt>
      <trkpt lat="47.27384" lon="-2.25164">
        <ele>20.60000038147</ele>
        <time>2022-07-10T08:28:43.000Z</time>
      </trkpt>
      <trkpt lat="47.27375" lon="-2.25137">
        <ele>20.60000038147</ele>
        <time>2022-07-10T08:28:48.000Z</time>
      </trkpt>
      <trkpt lat="47.27372" lon="-2.2513">
        <ele>20.60000038147</ele>
        <time>2022-07-10T08:28:49.000Z</time>
      </trkpt>
      <trkpt lat="47.27359" lon="-2.25097">
        <ele>20.60000038147</ele>
        <time>2022-07-10T08:28:54.000Z</time>
      </trkpt>
      <trkpt lat="47.27347" lon="-2.25067">
        <ele>20.60000038147</ele>
        <time>2022-07-10T08:29:00.000Z</time>
      </trkpt>
      <trkpt lat="47.27337" lon="-2.25038">
        <ele>20.60000038147</ele>
        <time>2022-07-10T08:29:07.000Z</time>
      </trkpt>
      <trkpt lat="47.27329" lon="-2.25008">
        <ele>20.60000038147</ele>
        <time>2022-07-10T08:29:14.000Z</time>
      </trkpt>
      <trkpt lat="47.27328" lon="-2.24987">
        <ele>20.60000038147</ele>
        <time>2022-07-10T08:29:18.000Z</time>
      </trkpt>
      <trkpt lat="47.27336" lon="-2.2497">
        <ele>20.60000038147</ele>
        <time>2022-07-10T08:29:22.000Z</time>
      </trkpt>
      <trkpt lat="47.27351" lon="-2.24951">
        <ele>20.60000038147</ele>
        <time>2022-07-10T08:29:27.000Z</time>
      </trkpt>
      <trkpt lat="47.27373" lon="-2.24922">
        <ele>20.60000038147</ele>
        <time>2022-07-10T08:29:33.000Z</time>
      </trkpt>
      <trkpt lat="47.27395" lon="-2.24892">
        <ele>20.60000038147</ele>
        <time>2022-07-10T08:29:40.000Z</time>
      </trkpt>
      <trkpt lat="47.27401" lon="-2.24877">
        <ele>20.60000038147</ele>
        <time>2022-07-10T08:29:44.000Z</time>
      </trkpt>
      <trkpt lat="47.27418" lon="-2.24819">
        <ele>20.60000038147</ele>
        <time>2022-07-10T08:29:56.000Z</time>
      </trkpt>
      <trkpt lat="47.27421" lon="-2.24813">
        <ele>20.60000038147</ele>
        <time>2022-07-10T08:29:57.000Z</time>
      </trkpt>
      <trkpt lat="47.27434" lon="-2.24795">
        <ele>20.60000038147</ele>
        <time>2022-07-10T08:30:01.000Z</time>
      </trkpt>
      <trkpt lat="47.27441" lon="-2.24789">
        <ele>21.39999961853</ele>
        <time>2022-07-10T08:30:03.000Z</time>
      </trkpt>
      <trkpt lat="47.27446" lon="-2.24787">
        <ele>21.799999237061</ele>
        <time>2022-07-10T08:30:04.000Z</time>
      </trkpt>
      <trkpt lat="47.27451" lon="-2.24785">
        <ele>22.39999961853</ele>
        <time>2022-07-10T08:30:05.000Z</time>
      </trkpt>
      <trkpt lat="47.27455" lon="-2.24786">
        <ele>22.799999237061</ele>
        <time>2022-07-10T08:30:06.000Z</time>
      </trkpt>
      <trkpt lat="47.27461" lon="-2.24786">
        <ele>23.200000762939</ele>
        <time>2022-07-10T08:30:07.000Z</time>
      </trkpt>
      <trkpt lat="47.27465" lon="-2.24787">
        <ele>23.60000038147</ele>
        <time>2022-07-10T08:30:08.000Z</time>
      </trkpt>
      <trkpt lat="47.27469" lon="-2.24786">
        <ele>24</ele>
        <time>2022-07-10T08:30:09.000Z</time>
      </trkpt>
      <trkpt lat="47.27474" lon="-2.24786">
        <ele>24.60000038147</ele>
        <time>2022-07-10T08:30:10.000Z</time>
      </trkpt>
      <trkpt lat="47.27478" lon="-2.24786">
        <ele>25</ele>
        <time>2022-07-10T08:30:11.000Z</time>
      </trkpt>
      <trkpt lat="47.27496" lon="-2.24786">
        <ele>25.39999961853</ele>
        <time>2022-07-10T08:30:15.000Z</time>
      </trkpt>
      <trkpt lat="47.275" lon="-2.24786">
        <ele>25.799999237061</ele>
        <time>2022-07-10T08:30:16.000Z</time>
      </trkpt>
      <trkpt lat="47.27504" lon="-2.24786">
        <ele>26.200000762939</ele>
        <time>2022-07-10T08:30:17.000Z</time>
      </trkpt>
      <trkpt lat="47.27508" lon="-2.24786">
        <ele>26.60000038147</ele>
        <time>2022-07-10T08:30:18.000Z</time>
      </trkpt>
      <trkpt lat="47.27512" lon="-2.24785">
        <ele>27</ele>
        <time>2022-07-10T08:30:19.000Z</time>
      </trkpt>
      <trkpt lat="47.27527" lon="-2.24784">
        <ele>27</ele>
        <time>2022-07-10T08:30:23.000Z</time>
      </trkpt>
      <trkpt lat="47.27557" lon="-2.24783">
        <ele>27</ele>
        <time>2022-07-10T08:30:30.000Z</time>
      </trkpt>
      <trkpt lat="47.27582" lon="-2.24788">
        <ele>27</ele>
        <time>2022-07-10T08:30:36.000Z</time>
      </trkpt>
      <trkpt lat="47.27603" lon="-2.24789">
        <ele>27.39999961853</ele>
        <time>2022-07-10T08:30:41.000Z</time>
      </trkpt>
      <trkpt lat="47.27608" lon="-2.24788">
        <ele>27.799999237061</ele>
        <time>2022-07-10T08:30:42.000Z</time>
      </trkpt>
      <trkpt lat="47.27612" lon="-2.24788">
        <ele>28.200000762939</ele>
        <time>2022-07-10T08:30:43.000Z</time>
      </trkpt>
      <trkpt lat="47.27616" lon="-2.24788">
        <ele>28.60000038147</ele>
        <time>2022-07-10T08:30:44.000Z</time>
      </trkpt>
      <trkpt lat="47.2762" lon="-2.24788">
        <ele>29</ele>
        <time>2022-07-10T08:30:45.000Z</time>
      </trkpt>
      <trkpt lat="47.27635" lon="-2.2479">
        <ele>29</ele>
        <time>2022-07-10T08:30:49.000Z</time>
      </trkpt>
      <trkpt lat="47.27644" lon="-2.24794">
        <ele>29</ele>
        <time>2022-07-10T08:30:51.000Z</time>
      </trkpt>
      <trkpt lat="47.27663" lon="-2.24799">
        <ele>29</ele>
        <time>2022-07-10T08:30:53.000Z</time>
      </trkpt>
      <trkpt lat="47.27686" lon="-2.248">
        <ele>29</ele>
        <time>2022-07-10T08:30:57.000Z</time>
      </trkpt>
      <trkpt lat="47.27721" lon="-2.24801">
        <ele>29</ele>
        <time>2022-07-10T08:31:04.000Z</time>
      </trkpt>
      <trkpt lat="47.27754" lon="-2.24801">
        <ele>29</ele>
        <time>2022-07-10T08:31:11.000Z</time>
      </trkpt>
      <trkpt lat="47.27778" lon="-2.24801">
        <ele>29</ele>
        <time>2022-07-10T08:31:18.000Z</time>
      </trkpt>
      <trkpt lat="47.2779" lon="-2.24801">
        <ele>29</ele>
        <time>2022-07-10T08:31:23.000Z</time>
      </trkpt>
      <trkpt lat="47.27811" lon="-2.248">
        <ele>29</ele>
        <time>2022-07-10T08:31:29.000Z</time>
      </trkpt>
      <trkpt lat="47.27829" lon="-2.24796">
        <ele>29</ele>
        <time>2022-07-10T08:31:33.000Z</time>
      </trkpt>
      <trkpt lat="47.27837" lon="-2.24794">
        <ele>29</ele>
        <time>2022-07-10T08:31:35.000Z</time>
      </trkpt>
      <trkpt lat="47.27852" lon="-2.24783">
        <ele>29</ele>
        <time>2022-07-10T08:31:40.000Z</time>
      </trkpt>
      <trkpt lat="47.27857" lon="-2.24773">
        <ele>29</ele>
        <time>2022-07-10T08:31:45.000Z</time>
      </trkpt>
      <trkpt lat="47.27858" lon="-2.24773">
        <ele>29</ele>
        <time>2022-07-10T08:31:48.000Z</time>
      </trkpt>
      <trkpt lat="47.27861" lon="-2.24772">
        <ele>29</ele>
        <time>2022-07-10T08:32:10.000Z</time>
      </trkpt>
      <trkpt lat="47.27865" lon="-2.24773">
        <ele>29</ele>
        <time>2022-07-10T08:32:11.000Z</time>
      </trkpt>
      <trkpt lat="47.27872" lon="-2.24782">
        <ele>29</ele>
        <time>2022-07-10T08:32:15.000Z</time>
      </trkpt>
      <trkpt lat="47.27875" lon="-2.24782">
        <ele>29</ele>
        <time>2022-07-10T08:32:16.000Z</time>
      </trkpt>
      <trkpt lat="47.27881" lon="-2.24782">
        <ele>29</ele>
        <time>2022-07-10T08:32:19.000Z</time>
      </trkpt>
      <trkpt lat="47.27882" lon="-2.24782">
        <ele>29.39999961853</ele>
        <time>2022-07-10T08:32:20.000Z</time>
      </trkpt>
      <trkpt lat="47.27883" lon="-2.24782">
        <ele>29.799999237061</ele>
        <time>2022-07-10T08:32:21.000Z</time>
      </trkpt>
      <trkpt lat="47.27883" lon="-2.24782">
        <ele>30.200000762939</ele>
        <time>2022-07-10T08:32:22.000Z</time>
      </trkpt>
      <trkpt lat="47.27885" lon="-2.24781">
        <ele>30.799999237061</ele>
        <time>2022-07-10T08:32:23.000Z</time>
      </trkpt>
      <trkpt lat="47.27888" lon="-2.24781">
        <ele>31.200000762939</ele>
        <time>2022-07-10T08:32:24.000Z</time>
      </trkpt>
      <trkpt lat="47.27891" lon="-2.24781">
        <ele>31.200000762939</ele>
        <time>2022-07-10T08:32:26.000Z</time>
      </trkpt>
      <trkpt lat="47.27895" lon="-2.24785">
        <ele>31.200000762939</ele>
        <time>2022-07-10T08:32:31.000Z</time>
      </trkpt>
      <trkpt lat="47.27895" lon="-2.24785">
        <ele>31.200000762939</ele>
        <time>2022-07-10T08:32:32.000Z</time>
      </trkpt>
      <trkpt lat="47.27896" lon="-2.24791">
        <ele>31.200000762939</ele>
        <time>2022-07-10T08:33:45.000Z</time>
      </trkpt>
      <trkpt lat="47.27898" lon="-2.24797">
        <ele>31.200000762939</ele>
        <time>2022-07-10T08:33:47.000Z</time>
      </trkpt>
      <trkpt lat="47.27906" lon="-2.24801">
        <ele>31.200000762939</ele>
        <time>2022-07-10T08:33:50.000Z</time>
      </trkpt>
      <trkpt lat="47.2793" lon="-2.24814">
        <ele>31.200000762939</ele>
        <time>2022-07-10T08:33:57.000Z</time>
      </trkpt>
      <trkpt lat="47.27934" lon="-2.24815">
        <ele>31.200000762939</ele>
        <time>2022-07-10T08:33:58.000Z</time>
      </trkpt>
      <trkpt lat="47.27948" lon="-2.24819">
        <ele>31.200000762939</ele>
        <time>2022-07-10T08:34:01.000Z</time>
      </trkpt>
      <trkpt lat="47.2797" lon="-2.24825">
        <ele>31.200000762939</ele>
        <time>2022-07-10T08:34:06.000Z</time>
      </trkpt>
      <trkpt lat="47.27989" lon="-2.24831">
        <ele>31.200000762939</ele>
        <time>2022-07-10T08:34:10.000Z</time>
      </trkpt>
      <trkpt lat="47.27999" lon="-2.24832">
        <ele>31.200000762939</ele>
        <time>2022-07-10T08:34:12.000Z</time>
      </trkpt>
      <trkpt lat="47.28017" lon="-2.24836">
        <ele>31.200000762939</ele>
        <time>2022-07-10T08:34:16.000Z</time>
      </trkpt>
      <trkpt lat="47.28026" lon="-2.24838">
        <ele>31.200000762939</ele>
        <time>2022-07-10T08:34:18.000Z</time>
      </trkpt>
      <trkpt lat="47.28035" lon="-2.2484">
        <ele>31.200000762939</ele>
        <time>2022-07-10T08:34:20.000Z</time>
      </trkpt>
      <trkpt lat="47.28048" lon="-2.24842">
        <ele>31.200000762939</ele>
        <time>2022-07-10T08:34:23.000Z</time>
      </trkpt>
      <trkpt lat="47.28069" lon="-2.24848">
        <ele>31.200000762939</ele>
        <time>2022-07-10T08:34:28.000Z</time>
      </trkpt>
      <trkpt lat="47.28073" lon="-2.24848">
        <ele>31.200000762939</ele>
        <time>2022-07-10T08:34:29.000Z</time>
      </trkpt>
      <trkpt lat="47.28088" lon="-2.24846">
        <ele>31.200000762939</ele>
        <time>2022-07-10T08:34:32.000Z</time>
      </trkpt>
      <trkpt lat="47.28092" lon="-2.24847">
        <ele>31.200000762939</ele>
        <time>2022-07-10T08:34:33.000Z</time>
      </trkpt>
      <trkpt lat="47.28108" lon="-2.24854">
        <ele>31.200000762939</ele>
        <time>2022-07-10T08:34:36.000Z</time>
      </trkpt>
      <trkpt lat="47.28113" lon="-2.24856">
        <ele>31.200000762939</ele>
        <time>2022-07-10T08:34:37.000Z</time>
      </trkpt>
      <trkpt lat="47.28132" lon="-2.24859">
        <ele>31.200000762939</ele>
        <time>2022-07-10T08:34:40.000Z</time>
      </trkpt>
      <trkpt lat="47.28139" lon="-2.24858">
        <ele>31.200000762939</ele>
        <time>2022-07-10T08:34:41.000Z</time>
      </trkpt>
      <trkpt lat="47.2815" lon="-2.24857">
        <ele>30.60000038147</ele>
        <time>2022-07-10T08:34:43.000Z</time>
      </trkpt>
      <trkpt lat="47.28155" lon="-2.24856">
        <ele>30.200000762939</ele>
        <time>2022-07-10T08:34:44.000Z</time>
      </trkpt>
      <trkpt lat="47.28159" lon="-2.24854">
        <ele>29.60000038147</ele>
        <time>2022-07-10T08:34:45.000Z</time>
      </trkpt>
      <trkpt lat="47.28162" lon="-2.24851">
        <ele>29.200000762939</ele>
        <time>2022-07-10T08:34:46.000Z</time>
      </trkpt>
      <trkpt lat="47.28164" lon="-2.24848">
        <ele>28.799999237061</ele>
        <time>2022-07-10T08:34:47.000Z</time>
      </trkpt>
      <trkpt lat="47.28169" lon="-2.24841">
        <ele>28.799999237061</ele>
        <time>2022-07-10T08:34:49.000Z</time>
      </trkpt>
      <trkpt lat="47.28174" lon="-2.24818">
        <ele>28.200000762939</ele>
        <time>2022-07-10T08:34:54.000Z</time>
      </trkpt>
      <trkpt lat="47.28176" lon="-2.24816">
        <ele>27.799999237061</ele>
        <time>2022-07-10T08:34:55.000Z</time>
      </trkpt>
      <trkpt lat="47.28178" lon="-2.24814">
        <ele>27.39999961853</ele>
        <time>2022-07-10T08:34:56.000Z</time>
      </trkpt>
      <trkpt lat="47.2818" lon="-2.24813">
        <ele>27</ele>
        <time>2022-07-10T08:34:57.000Z</time>
      </trkpt>
      <trkpt lat="47.28182" lon="-2.24813">
        <ele>26.200000762939</ele>
        <time>2022-07-10T08:34:58.000Z</time>
      </trkpt>
      <trkpt lat="47.28184" lon="-2.24813">
        <ele>25.799999237061</ele>
        <time>2022-07-10T08:34:59.000Z</time>
      </trkpt>
      <trkpt lat="47.28186" lon="-2.24814">
        <ele>25.200000762939</ele>
        <time>2022-07-10T08:35:00.000Z</time>
      </trkpt>
      <trkpt lat="47.28189" lon="-2.24815">
        <ele>24.799999237061</ele>
        <time>2022-07-10T08:35:01.000Z</time>
      </trkpt>
      <trkpt lat="47.28193" lon="-2.24816">
        <ele>24.39999961853</ele>
        <time>2022-07-10T08:35:02.000Z</time>
      </trkpt>
      <trkpt lat="47.28197" lon="-2.24818">
        <ele>23.799999237061</ele>
        <time>2022-07-10T08:35:03.000Z</time>
      </trkpt>
      <trkpt lat="47.28202" lon="-2.24819">
        <ele>23.39999961853</ele>
        <time>2022-07-10T08:35:04.000Z</time>
      </trkpt>
      <trkpt lat="47.28208" lon="-2.2482">
        <ele>22.799999237061</ele>
        <time>2022-07-10T08:35:05.000Z</time>
      </trkpt>
      <trkpt lat="47.28214" lon="-2.24821">
        <ele>22.39999961853</ele>
        <time>2022-07-10T08:35:06.000Z</time>
      </trkpt>
      <trkpt lat="47.28221" lon="-2.24822">
        <ele>21.799999237061</ele>
        <time>2022-07-10T08:35:07.000Z</time>
      </trkpt>
      <trkpt lat="47.28227" lon="-2.24821">
        <ele>21.200000762939</ele>
        <time>2022-07-10T08:35:08.000Z</time>
      </trkpt>
      <trkpt lat="47.28234" lon="-2.2482">
        <ele>20.60000038147</ele>
        <time>2022-07-10T08:35:09.000Z</time>
      </trkpt>
      <trkpt lat="47.28241" lon="-2.24817">
        <ele>20</ele>
        <time>2022-07-10T08:35:10.000Z</time>
      </trkpt>
      <trkpt lat="47.28248" lon="-2.24814">
        <ele>19.39999961853</ele>
        <time>2022-07-10T08:35:11.000Z</time>
      </trkpt>
      <trkpt lat="47.28254" lon="-2.2481">
        <ele>19.39999961853</ele>
        <time>2022-07-10T08:35:12.000Z</time>
      </trkpt>
      <trkpt lat="47.2828" lon="-2.24794">
        <ele>19</ele>
        <time>2022-07-10T08:35:16.000Z</time>
      </trkpt>
      <trkpt lat="47.28287" lon="-2.24789">
        <ele>18.60000038147</ele>
        <time>2022-07-10T08:35:17.000Z</time>
      </trkpt>
      <trkpt lat="47.28293" lon="-2.24786">
        <ele>18.200000762939</ele>
        <time>2022-07-10T08:35:18.000Z</time>
      </trkpt>
      <trkpt lat="47.28299" lon="-2.24782">
        <ele>17.799999237061</ele>
        <time>2022-07-10T08:35:19.000Z</time>
      </trkpt>
      <trkpt lat="47.28306" lon="-2.24778">
        <ele>17.39999961853</ele>
        <time>2022-07-10T08:35:20.000Z</time>
      </trkpt>
      <trkpt lat="47.2832" lon="-2.24769">
        <ele>17.39999961853</ele>
        <time>2022-07-10T08:35:22.000Z</time>
      </trkpt>
      <trkpt lat="47.28334" lon="-2.24765">
        <ele>17</ele>
        <time>2022-07-10T08:35:24.000Z</time>
      </trkpt>
      <trkpt lat="47.28341" lon="-2.24765">
        <ele>16.60000038147</ele>
        <time>2022-07-10T08:35:25.000Z</time>
      </trkpt>
      <trkpt lat="47.28348" lon="-2.24766">
        <ele>16.200000762939</ele>
        <time>2022-07-10T08:35:26.000Z</time>
      </trkpt>
      <trkpt lat="47.28355" lon="-2.24768">
        <ele>15.800000190735</ele>
        <time>2022-07-10T08:35:27.000Z</time>
      </trkpt>
      <trkpt lat="47.28361" lon="-2.2477">
        <ele>15.39999961853</ele>
        <time>2022-07-10T08:35:28.000Z</time>
      </trkpt>
      <trkpt lat="47.2837" lon="-2.24775">
        <ele>15.39999961853</ele>
        <time>2022-07-10T08:35:30.000Z</time>
      </trkpt>
      <trkpt lat="47.28378" lon="-2.24779">
        <ele>15.39999961853</ele>
        <time>2022-07-10T08:35:32.000Z</time>
      </trkpt>
      <trkpt lat="47.28384" lon="-2.24788">
        <ele>15</ele>
        <time>2022-07-10T08:35:34.000Z</time>
      </trkpt>
      <trkpt lat="47.28386" lon="-2.24794">
        <ele>14.39999961853</ele>
        <time>2022-07-10T08:35:35.000Z</time>
      </trkpt>
      <trkpt lat="47.28388" lon="-2.248">
        <ele>14</ele>
        <time>2022-07-10T08:35:36.000Z</time>
      </trkpt>
      <trkpt lat="47.2839" lon="-2.24805">
        <ele>13.60000038147</ele>
        <time>2022-07-10T08:35:37.000Z</time>
      </trkpt>
      <trkpt lat="47.28393" lon="-2.2481">
        <ele>13.199999809265</ele>
        <time>2022-07-10T08:35:38.000Z</time>
      </trkpt>
      <trkpt lat="47.284" lon="-2.24825">
        <ele>13.199999809265</ele>
        <time>2022-07-10T08:35:41.000Z</time>
      </trkpt>
      <trkpt lat="47.28405" lon="-2.2483">
        <ele>13.199999809265</ele>
        <time>2022-07-10T08:35:43.000Z</time>
      </trkpt>
      <trkpt lat="47.28408" lon="-2.24828">
        <ele>13.199999809265</ele>
        <time>2022-07-10T08:35:44.000Z</time>
      </trkpt>
      <trkpt lat="47.28421" lon="-2.2482">
        <ele>13.199999809265</ele>
        <time>2022-07-10T08:35:48.000Z</time>
      </trkpt>
      <trkpt lat="47.28423" lon="-2.24818">
        <ele>13.199999809265</ele>
        <time>2022-07-10T08:35:49.000Z</time>
      </trkpt>
      <trkpt lat="47.28431" lon="-2.24814">
        <ele>13.199999809265</ele>
        <time>2022-07-10T08:35:53.000Z</time>
      </trkpt>
      <trkpt lat="47.28446" lon="-2.24805">
        <ele>13.199999809265</ele>
        <time>2022-07-10T08:35:57.000Z</time>
      </trkpt>
      <trkpt lat="47.28475" lon="-2.2479">
        <ele>13.199999809265</ele>
        <time>2022-07-10T08:36:02.000Z</time>
      </trkpt>
      <trkpt lat="47.28504" lon="-2.24773">
        <ele>13.199999809265</ele>
        <time>2022-07-10T08:36:06.000Z</time>
      </trkpt>
      <trkpt lat="47.28517" lon="-2.24764">
        <ele>13.199999809265</ele>
        <time>2022-07-10T08:36:08.000Z</time>
      </trkpt>
      <trkpt lat="47.28558" lon="-2.24744">
        <ele>13.199999809265</ele>
        <time>2022-07-10T08:36:14.000Z</time>
      </trkpt>
      <trkpt lat="47.28592" lon="-2.24733">
        <ele>13.199999809265</ele>
        <time>2022-07-10T08:36:19.000Z</time>
      </trkpt>
      <trkpt lat="47.28625" lon="-2.24725">
        <ele>13.199999809265</ele>
        <time>2022-07-10T08:36:25.000Z</time>
      </trkpt>
      <trkpt lat="47.2864" lon="-2.24719">
        <ele>13.199999809265</ele>
        <time>2022-07-10T08:36:29.000Z</time>
      </trkpt>
      <trkpt lat="47.28651" lon="-2.24714">
        <ele>13.199999809265</ele>
        <time>2022-07-10T08:36:34.000Z</time>
      </trkpt>
      <trkpt lat="47.28662" lon="-2.2471">
        <ele>13.199999809265</ele>
        <time>2022-07-10T08:36:40.000Z</time>
      </trkpt>
      <trkpt lat="47.28681" lon="-2.24705">
        <ele>13.199999809265</ele>
        <time>2022-07-10T08:36:45.000Z</time>
      </trkpt>
      <trkpt lat="47.28696" lon="-2.24688">
        <ele>13.199999809265</ele>
        <time>2022-07-10T08:36:49.000Z</time>
      </trkpt>
      <trkpt lat="47.28715" lon="-2.2465">
        <ele>13.199999809265</ele>
        <time>2022-07-10T08:36:55.000Z</time>
      </trkpt>
      <trkpt lat="47.28729" lon="-2.24619">
        <ele>13.199999809265</ele>
        <time>2022-07-10T08:37:00.000Z</time>
      </trkpt>
      <trkpt lat="47.28734" lon="-2.24604">
        <ele>13.199999809265</ele>
        <time>2022-07-10T08:37:02.000Z</time>
      </trkpt>
      <trkpt lat="47.28753" lon="-2.24551">
        <ele>13.199999809265</ele>
        <time>2022-07-10T08:37:09.000Z</time>
      </trkpt>
      <trkpt lat="47.28763" lon="-2.24524">
        <ele>13.199999809265</ele>
        <time>2022-07-10T08:37:13.000Z</time>
      </trkpt>
      <trkpt lat="47.28765" lon="-2.24517">
        <ele>13.199999809265</ele>
        <time>2022-07-10T08:37:14.000Z</time>
      </trkpt>
      <trkpt lat="47.28777" lon="-2.24483">
        <ele>13.199999809265</ele>
        <time>2022-07-10T08:37:19.000Z</time>
      </trkpt>
      <trkpt lat="47.28781" lon="-2.24469">
        <ele>13.199999809265</ele>
        <time>2022-07-10T08:37:21.000Z</time>
      </trkpt>
      <trkpt lat="47.28789" lon="-2.2445">
        <ele>13.199999809265</ele>
        <time>2022-07-10T08:37:24.000Z</time>
      </trkpt>
      <trkpt lat="47.28802" lon="-2.24407">
        <ele>13.199999809265</ele>
        <time>2022-07-10T08:37:30.000Z</time>
      </trkpt>
      <trkpt lat="47.28809" lon="-2.24385">
        <ele>13.199999809265</ele>
        <time>2022-07-10T08:37:33.000Z</time>
      </trkpt>
      <trkpt lat="47.28816" lon="-2.24365">
        <ele>13.60000038147</ele>
        <time>2022-07-10T08:37:36.000Z</time>
      </trkpt>
      <trkpt lat="47.28817" lon="-2.24359">
        <ele>14</ele>
        <time>2022-07-10T08:37:37.000Z</time>
      </trkpt>
      <trkpt lat="47.28818" lon="-2.24354">
        <ele>14.39999961853</ele>
        <time>2022-07-10T08:37:38.000Z</time>
      </trkpt>
      <trkpt lat="47.28818" lon="-2.24349">
        <ele>14.800000190735</ele>
        <time>2022-07-10T08:37:39.000Z</time>
      </trkpt>
      <trkpt lat="47.2882" lon="-2.24343">
        <ele>15.199999809265</ele>
        <time>2022-07-10T08:37:40.000Z</time>
      </trkpt>
      <trkpt lat="47.28823" lon="-2.24337">
        <ele>15.199999809265</ele>
        <time>2022-07-10T08:37:41.000Z</time>
      </trkpt>
      <trkpt lat="47.28824" lon="-2.24332">
        <ele>15.199999809265</ele>
        <time>2022-07-10T08:37:42.000Z</time>
      </trkpt>
      <trkpt lat="47.28826" lon="-2.24325">
        <ele>15.60000038147</ele>
        <time>2022-07-10T08:37:43.000Z</time>
      </trkpt>
      <trkpt lat="47.28828" lon="-2.24319">
        <ele>16.200000762939</ele>
        <time>2022-07-10T08:37:44.000Z</time>
      </trkpt>
      <trkpt lat="47.28829" lon="-2.24313">
        <ele>16.60000038147</ele>
        <time>2022-07-10T08:37:45.000Z</time>
      </trkpt>
      <trkpt lat="47.28831" lon="-2.24307">
        <ele>17</ele>
        <time>2022-07-10T08:37:46.000Z</time>
      </trkpt>
      <trkpt lat="47.28833" lon="-2.243">
        <ele>17.39999961853</ele>
        <time>2022-07-10T08:37:47.000Z</time>
      </trkpt>
      <trkpt lat="47.28837" lon="-2.24278">
        <ele>17.39999961853</ele>
        <time>2022-07-10T08:37:50.000Z</time>
      </trkpt>
      <trkpt lat="47.28841" lon="-2.24261">
        <ele>17.39999961853</ele>
        <time>2022-07-10T08:37:52.000Z</time>
      </trkpt>
      <trkpt lat="47.2885" lon="-2.24227">
        <ele>17.39999961853</ele>
        <time>2022-07-10T08:37:57.000Z</time>
      </trkpt>
      <trkpt lat="47.28857" lon="-2.2421">
        <ele>17.39999961853</ele>
        <time>2022-07-10T08:38:01.000Z</time>
      </trkpt>
      <trkpt lat="47.28864" lon="-2.24185">
        <ele>17.39999961853</ele>
        <time>2022-07-10T08:38:05.000Z</time>
      </trkpt>
      <trkpt lat="47.28878" lon="-2.24139">
        <ele>17.39999961853</ele>
        <time>2022-07-10T08:38:12.000Z</time>
      </trkpt>
      <trkpt lat="47.2889" lon="-2.24099">
        <ele>17.39999961853</ele>
        <time>2022-07-10T08:38:18.000Z</time>
      </trkpt>
      <trkpt lat="47.28891" lon="-2.24092">
        <ele>17.39999961853</ele>
        <time>2022-07-10T08:38:19.000Z</time>
      </trkpt>
      <trkpt lat="47.28898" lon="-2.24061">
        <ele>17.39999961853</ele>
        <time>2022-07-10T08:38:24.000Z</time>
      </trkpt>
      <trkpt lat="47.28901" lon="-2.24038">
        <ele>17.39999961853</ele>
        <time>2022-07-10T08:38:29.000Z</time>
      </trkpt>
      <trkpt lat="47.28903" lon="-2.24033">
        <ele>17.39999961853</ele>
        <time>2022-07-10T08:38:34.000Z</time>
      </trkpt>
      <trkpt lat="47.28903" lon="-2.24029">
        <ele>17.39999961853</ele>
        <time>2022-07-10T08:38:49.000Z</time>
      </trkpt>
      <trkpt lat="47.28905" lon="-2.24023">
        <ele>17.39999961853</ele>
        <time>2022-07-10T08:38:51.000Z</time>
      </trkpt>
      <trkpt lat="47.28913" lon="-2.23996">
        <ele>17.39999961853</ele>
        <time>2022-07-10T08:38:57.000Z</time>
      </trkpt>
      <trkpt lat="47.28923" lon="-2.23959">
        <ele>17.39999961853</ele>
        <time>2022-07-10T08:39:03.000Z</time>
      </trkpt>
      <trkpt lat="47.28924" lon="-2.23952">
        <ele>17.39999961853</ele>
        <time>2022-07-10T08:39:04.000Z</time>
      </trkpt>
      <trkpt lat="47.28931" lon="-2.23923">
        <ele>17.39999961853</ele>
        <time>2022-07-10T08:39:08.000Z</time>
      </trkpt>
      <trkpt lat="47.28945" lon="-2.23871">
        <ele>17.39999961853</ele>
        <time>2022-07-10T08:39:16.000Z</time>
      </trkpt>
      <trkpt lat="47.28954" lon="-2.23841">
        <ele>17.39999961853</ele>
        <time>2022-07-10T08:39:21.000Z</time>
      </trkpt>
      <trkpt lat="47.28957" lon="-2.23828">
        <ele>17.39999961853</ele>
        <time>2022-07-10T08:39:23.000Z</time>
      </trkpt>
      <trkpt lat="47.28964" lon="-2.23795">
        <ele>17.39999961853</ele>
        <time>2022-07-10T08:39:28.000Z</time>
      </trkpt>
      <trkpt lat="47.28977" lon="-2.2373">
        <ele>17.39999961853</ele>
        <time>2022-07-10T08:39:36.000Z</time>
      </trkpt>
      <trkpt lat="47.28985" lon="-2.23685">
        <ele>17.39999961853</ele>
        <time>2022-07-10T08:39:42.000Z</time>
      </trkpt>
      <trkpt lat="47.28985" lon="-2.23679">
        <ele>17.39999961853</ele>
        <time>2022-07-10T08:39:44.000Z</time>
      </trkpt>
      <trkpt lat="47.28985" lon="-2.23678">
        <ele>17.39999961853</ele>
        <time>2022-07-10T08:39:45.000Z</time>
      </trkpt>
      <trkpt lat="47.28984" lon="-2.23674">
        <ele>17.39999961853</ele>
        <time>2022-07-10T08:39:49.000Z</time>
      </trkpt>
      <trkpt lat="47.28982" lon="-2.23669">
        <ele>17.39999961853</ele>
        <time>2022-07-10T08:39:57.000Z</time>
      </trkpt>
      <trkpt lat="47.2898" lon="-2.23655">
        <ele>17.39999961853</ele>
        <time>2022-07-10T08:40:01.000Z</time>
      </trkpt>
      <trkpt lat="47.28975" lon="-2.23623">
        <ele>17.39999961853</ele>
        <time>2022-07-10T08:40:06.000Z</time>
      </trkpt>
      <trkpt lat="47.28974" lon="-2.23615">
        <ele>17.39999961853</ele>
        <time>2022-07-10T08:40:07.000Z</time>
      </trkpt>
      <trkpt lat="47.28971" lon="-2.23582">
        <ele>17.39999961853</ele>
        <time>2022-07-10T08:40:12.000Z</time>
      </trkpt>
      <trkpt lat="47.28969" lon="-2.23538">
        <ele>17.39999961853</ele>
        <time>2022-07-10T08:40:18.000Z</time>
      </trkpt>
      <trkpt lat="47.28968" lon="-2.23525">
        <ele>17.799999237061</ele>
        <time>2022-07-10T08:40:20.000Z</time>
      </trkpt>
      <trkpt lat="47.28967" lon="-2.23519">
        <ele>18.200000762939</ele>
        <time>2022-07-10T08:40:21.000Z</time>
      </trkpt>
      <trkpt lat="47.28967" lon="-2.23512">
        <ele>18.60000038147</ele>
        <time>2022-07-10T08:40:22.000Z</time>
      </trkpt>
      <trkpt lat="47.28966" lon="-2.23506">
        <ele>19</ele>
        <time>2022-07-10T08:40:23.000Z</time>
      </trkpt>
      <trkpt lat="47.28965" lon="-2.235">
        <ele>19.39999961853</ele>
        <time>2022-07-10T08:40:24.000Z</time>
      </trkpt>
      <trkpt lat="47.28962" lon="-2.23495">
        <ele>19.39999961853</ele>
        <time>2022-07-10T08:40:25.000Z</time>
      </trkpt>
      <trkpt lat="47.28951" lon="-2.2349">
        <ele>19.39999961853</ele>
        <time>2022-07-10T08:40:28.000Z</time>
      </trkpt>
      <trkpt lat="47.28937" lon="-2.23492">
        <ele>19.39999961853</ele>
        <time>2022-07-10T08:40:31.000Z</time>
      </trkpt>
      <trkpt lat="47.28927" lon="-2.23495">
        <ele>19.39999961853</ele>
        <time>2022-07-10T08:40:33.000Z</time>
      </trkpt>
      <trkpt lat="47.28922" lon="-2.23497">
        <ele>19.39999961853</ele>
        <time>2022-07-10T08:40:34.000Z</time>
      </trkpt>
      <trkpt lat="47.28907" lon="-2.23503">
        <ele>19.39999961853</ele>
        <time>2022-07-10T08:40:37.000Z</time>
      </trkpt>
      <trkpt lat="47.28879" lon="-2.23504">
        <ele>19.39999961853</ele>
        <time>2022-07-10T08:40:42.000Z</time>
      </trkpt>
      <trkpt lat="47.28873" lon="-2.23504">
        <ele>19.39999961853</ele>
        <time>2022-07-10T08:40:43.000Z</time>
      </trkpt>
      <trkpt lat="47.28848" lon="-2.23507">
        <ele>19.39999961853</ele>
        <time>2022-07-10T08:40:47.000Z</time>
      </trkpt>
      <trkpt lat="47.28828" lon="-2.23508">
        <ele>19</ele>
        <time>2022-07-10T08:40:50.000Z</time>
      </trkpt>
      <trkpt lat="47.28822" lon="-2.23508">
        <ele>18.60000038147</ele>
        <time>2022-07-10T08:40:51.000Z</time>
      </trkpt>
      <trkpt lat="47.28816" lon="-2.23509">
        <ele>18.200000762939</ele>
        <time>2022-07-10T08:40:52.000Z</time>
      </trkpt>
      <trkpt lat="47.28809" lon="-2.23509">
        <ele>17.799999237061</ele>
        <time>2022-07-10T08:40:53.000Z</time>
      </trkpt>
      <trkpt lat="47.28803" lon="-2.2351">
        <ele>17.39999961853</ele>
        <time>2022-07-10T08:40:54.000Z</time>
      </trkpt>
      <trkpt lat="47.28772" lon="-2.2352">
        <ele>17</ele>
        <time>2022-07-10T08:40:59.000Z</time>
      </trkpt>
      <trkpt lat="47.28766" lon="-2.23523">
        <ele>16.39999961853</ele>
        <time>2022-07-10T08:41:00.000Z</time>
      </trkpt>
      <trkpt lat="47.2876" lon="-2.23527">
        <ele>16</ele>
        <time>2022-07-10T08:41:01.000Z</time>
      </trkpt>
      <trkpt lat="47.28754" lon="-2.23531">
        <ele>15.60000038147</ele>
        <time>2022-07-10T08:41:02.000Z</time>
      </trkpt>
      <trkpt lat="47.28748" lon="-2.23536">
        <ele>15.199999809265</ele>
        <time>2022-07-10T08:41:03.000Z</time>
      </trkpt>
      <trkpt lat="47.28743" lon="-2.23541">
        <ele>14.800000190735</ele>
        <time>2022-07-10T08:41:04.000Z</time>
      </trkpt>
      <trkpt lat="47.28738" lon="-2.23547">
        <ele>14.39999961853</ele>
        <time>2022-07-10T08:41:05.000Z</time>
      </trkpt>
      <trkpt lat="47.28733" lon="-2.23553">
        <ele>14</ele>
        <time>2022-07-10T08:41:06.000Z</time>
      </trkpt>
      <trkpt lat="47.28729" lon="-2.23561">
        <ele>13.60000038147</ele>
        <time>2022-07-10T08:41:07.000Z</time>
      </trkpt>
      <trkpt lat="47.28725" lon="-2.23569">
        <ele>13.199999809265</ele>
        <time>2022-07-10T08:41:08.000Z</time>
      </trkpt>
      <trkpt lat="47.28716" lon="-2.23584">
        <ele>13.199999809265</ele>
        <time>2022-07-10T08:41:10.000Z</time>
      </trkpt>
      <trkpt lat="47.28711" lon="-2.23589">
        <ele>12.800000190735</ele>
        <time>2022-07-10T08:41:11.000Z</time>
      </trkpt>
      <trkpt lat="47.28706" lon="-2.23592">
        <ele>12.39999961853</ele>
        <time>2022-07-10T08:41:12.000Z</time>
      </trkpt>
      <trkpt lat="47.28701" lon="-2.23594">
        <ele>12</ele>
        <time>2022-07-10T08:41:13.000Z</time>
      </trkpt>
      <trkpt lat="47.28697" lon="-2.23596">
        <ele>11.60000038147</ele>
        <time>2022-07-10T08:41:14.000Z</time>
      </trkpt>
      <trkpt lat="47.28693" lon="-2.23594">
        <ele>11.199999809265</ele>
        <time>2022-07-10T08:41:15.000Z</time>
      </trkpt>
      <trkpt lat="47.2869" lon="-2.23591">
        <ele>11.199999809265</ele>
        <time>2022-07-10T08:41:16.000Z</time>
      </trkpt>
      <trkpt lat="47.28675" lon="-2.23572">
        <ele>11.199999809265</ele>
        <time>2022-07-10T08:41:20.000Z</time>
      </trkpt>
      <trkpt lat="47.28654" lon="-2.23551">
        <ele>11.199999809265</ele>
        <time>2022-07-10T08:41:26.000Z</time>
      </trkpt>
      <trkpt lat="47.28653" lon="-2.23538">
        <ele>11.199999809265</ele>
        <time>2022-07-10T08:41:30.000Z</time>
      </trkpt>
      <trkpt lat="47.28652" lon="-2.23507">
        <ele>11.199999809265</ele>
        <time>2022-07-10T08:41:36.000Z</time>
      </trkpt>
      <trkpt lat="47.28653" lon="-2.23483">
        <ele>11.199999809265</ele>
        <time>2022-07-10T08:41:40.000Z</time>
      </trkpt>
      <trkpt lat="47.28653" lon="-2.23471">
        <ele>11.199999809265</ele>
        <time>2022-07-10T08:41:42.000Z</time>
      </trkpt>
      <trkpt lat="47.28648" lon="-2.23433">
        <ele>11.199999809265</ele>
        <time>2022-07-10T08:41:47.000Z</time>
      </trkpt>
      <trkpt lat="47.28639" lon="-2.23404">
        <ele>11.199999809265</ele>
        <time>2022-07-10T08:41:51.000Z</time>
      </trkpt>
      <trkpt lat="47.28638" lon="-2.23397">
        <ele>11.199999809265</ele>
        <time>2022-07-10T08:41:52.000Z</time>
      </trkpt>
      <trkpt lat="47.28646" lon="-2.23371">
        <ele>11.199999809265</ele>
        <time>2022-07-10T08:41:56.000Z</time>
      </trkpt>
      <trkpt lat="47.28661" lon="-2.23368">
        <ele>11.199999809265</ele>
        <time>2022-07-10T08:42:00.000Z</time>
      </trkpt>
      <trkpt lat="47.28666" lon="-2.23358">
        <ele>11.199999809265</ele>
        <time>2022-07-10T08:42:03.000Z</time>
      </trkpt>
      <trkpt lat="47.28667" lon="-2.2335">
        <ele>11.199999809265</ele>
        <time>2022-07-10T08:42:05.000Z</time>
      </trkpt>
      <trkpt lat="47.28668" lon="-2.23336">
        <ele>11.199999809265</ele>
        <time>2022-07-10T08:42:08.000Z</time>
      </trkpt>
      <trkpt lat="47.28673" lon="-2.23314">
        <ele>11.199999809265</ele>
        <time>2022-07-10T08:42:14.000Z</time>
      </trkpt>
      <trkpt lat="47.28675" lon="-2.23295">
        <ele>11.199999809265</ele>
        <time>2022-07-10T08:42:19.000Z</time>
      </trkpt>
      <trkpt lat="47.28679" lon="-2.23279">
        <ele>11.199999809265</ele>
        <time>2022-07-10T08:42:22.000Z</time>
      </trkpt>
      <trkpt lat="47.28687" lon="-2.23258">
        <ele>11.60000038147</ele>
        <time>2022-07-10T08:42:27.000Z</time>
      </trkpt>
      <trkpt lat="47.28688" lon="-2.23256">
        <ele>12</ele>
        <time>2022-07-10T08:42:28.000Z</time>
      </trkpt>
      <trkpt lat="47.28689" lon="-2.23253">
        <ele>12.60000038147</ele>
        <time>2022-07-10T08:42:29.000Z</time>
      </trkpt>
      <trkpt lat="47.28689" lon="-2.2325">
        <ele>13</ele>
        <time>2022-07-10T08:42:30.000Z</time>
      </trkpt>
      <trkpt lat="47.28688" lon="-2.23247">
        <ele>13.39999961853</ele>
        <time>2022-07-10T08:42:31.000Z</time>
      </trkpt>
      <trkpt lat="47.28678" lon="-2.23234">
        <ele>13.39999961853</ele>
        <time>2022-07-10T08:42:35.000Z</time>
      </trkpt>
      <trkpt lat="47.28676" lon="-2.23227">
        <ele>13.39999961853</ele>
        <time>2022-07-10T08:42:36.000Z</time>
      </trkpt>
      <trkpt lat="47.28669" lon="-2.23212">
        <ele>12.800000190735</ele>
        <time>2022-07-10T08:42:38.000Z</time>
      </trkpt>
      <trkpt lat="47.28665" lon="-2.23205">
        <ele>12.39999961853</ele>
        <time>2022-07-10T08:42:39.000Z</time>
      </trkpt>
      <trkpt lat="47.28662" lon="-2.23198">
        <ele>11.800000190735</ele>
        <time>2022-07-10T08:42:40.000Z</time>
      </trkpt>
      <trkpt lat="47.28658" lon="-2.23193">
        <ele>11.39999961853</ele>
        <time>2022-07-10T08:42:41.000Z</time>
      </trkpt>
      <trkpt lat="47.28654" lon="-2.2319">
        <ele>10.800000190735</ele>
        <time>2022-07-10T08:42:42.000Z</time>
      </trkpt>
      <trkpt lat="47.28645" lon="-2.23185">
        <ele>10.800000190735</ele>
        <time>2022-07-10T08:42:44.000Z</time>
      </trkpt>
      <trkpt lat="47.28627" lon="-2.23191">
        <ele>10.800000190735</ele>
        <time>2022-07-10T08:42:49.000Z</time>
      </trkpt>
      <trkpt lat="47.28609" lon="-2.23203">
        <ele>10.800000190735</ele>
        <time>2022-07-10T08:42:54.000Z</time>
      </trkpt>
      <trkpt lat="47.28604" lon="-2.23211">
        <ele>10.800000190735</ele>
        <time>2022-07-10T08:42:56.000Z</time>
      </trkpt>
      <trkpt lat="47.28599" lon="-2.23222">
        <ele>10.800000190735</ele>
        <time>2022-07-10T08:42:58.000Z</time>
      </trkpt>
      <trkpt lat="47.28593" lon="-2.23246">
        <ele>10.800000190735</ele>
        <time>2022-07-10T08:43:02.000Z</time>
      </trkpt>
      <trkpt lat="47.28592" lon="-2.23252">
        <ele>10.800000190735</ele>
        <time>2022-07-10T08:43:03.000Z</time>
      </trkpt>
      <trkpt lat="47.28592" lon="-2.23275">
        <ele>10.800000190735</ele>
        <time>2022-07-10T08:43:07.000Z</time>
      </trkpt>
      <trkpt lat="47.28593" lon="-2.23281">
        <ele>10.800000190735</ele>
        <time>2022-07-10T08:43:08.000Z</time>
      </trkpt>
      <trkpt lat="47.286" lon="-2.23296">
        <ele>10.800000190735</ele>
        <time>2022-07-10T08:43:11.000Z</time>
      </trkpt>
      <trkpt lat="47.28613" lon="-2.23301">
        <ele>10.800000190735</ele>
        <time>2022-07-10T08:43:14.000Z</time>
      </trkpt>
      <trkpt lat="47.28627" lon="-2.23303">
        <ele>10.800000190735</ele>
        <time>2022-07-10T08:43:17.000Z</time>
      </trkpt>
      <trkpt lat="47.28637" lon="-2.23302">
        <ele>10.800000190735</ele>
        <time>2022-07-10T08:43:19.000Z</time>
      </trkpt>
      <trkpt lat="47.28646" lon="-2.23301">
        <ele>10.800000190735</ele>
        <time>2022-07-10T08:43:21.000Z</time>
      </trkpt>
      <trkpt lat="47.28655" lon="-2.23302">
        <ele>10.800000190735</ele>
        <time>2022-07-10T08:43:23.000Z</time>
      </trkpt>
      <trkpt lat="47.28659" lon="-2.23304">
        <ele>10.800000190735</ele>
        <time>2022-07-10T08:43:24.000Z</time>
      </trkpt>
      <trkpt lat="47.28663" lon="-2.23304">
        <ele>10.800000190735</ele>
        <time>2022-07-10T08:43:25.000Z</time>
      </trkpt>
      <trkpt lat="47.28669" lon="-2.23303">
        <ele>10.800000190735</ele>
        <time>2022-07-10T08:43:27.000Z</time>
      </trkpt>
      <trkpt lat="47.2867" lon="-2.23302">
        <ele>10.800000190735</ele>
        <time>2022-07-10T08:43:28.000Z</time>
      </trkpt>
      <trkpt lat="47.28673" lon="-2.233">
        <ele>11.199999809265</ele>
        <time>2022-07-10T08:43:30.000Z</time>
      </trkpt>
      <trkpt lat="47.28675" lon="-2.23301">
        <ele>11.60000038147</ele>
        <time>2022-07-10T08:43:31.000Z</time>
      </trkpt>
      <trkpt lat="47.28676" lon="-2.23303">
        <ele>12</ele>
        <time>2022-07-10T08:43:32.000Z</time>
      </trkpt>
      <trkpt lat="47.28677" lon="-2.23306">
        <ele>12.39999961853</ele>
        <time>2022-07-10T08:43:33.000Z</time>
      </trkpt>
      <trkpt lat="47.28677" lon="-2.23308">
        <ele>12.800000190735</ele>
        <time>2022-07-10T08:43:34.000Z</time>
      </trkpt>
      <trkpt lat="47.28678" lon="-2.23311">
        <ele>12.800000190735</ele>
        <time>2022-07-10T08:43:36.000Z</time>
      </trkpt>
      <trkpt lat="47.28666" lon="-2.23294">
        <ele>12.800000190735</ele>
        <time>2022-07-10T08:54:58.000Z</time>
      </trkpt>
      <trkpt lat="47.28661" lon="-2.233">
        <ele>12.800000190735</ele>
        <time>2022-07-10T08:55:00.000Z</time>
      </trkpt>
      <trkpt lat="47.28658" lon="-2.23323">
        <ele>12.800000190735</ele>
        <time>2022-07-10T08:55:03.000Z</time>
      </trkpt>
      <trkpt lat="47.28658" lon="-2.23336">
        <ele>12.800000190735</ele>
        <time>2022-07-10T08:55:05.000Z</time>
      </trkpt>
      <trkpt lat="47.28659" lon="-2.23352">
        <ele>12.800000190735</ele>
        <time>2022-07-10T08:55:08.000Z</time>
      </trkpt>
      <trkpt lat="47.28654" lon="-2.23372">
        <ele>12.800000190735</ele>
        <time>2022-07-10T08:55:12.000Z</time>
      </trkpt>
      <trkpt lat="47.2865" lon="-2.23393">
        <ele>12.800000190735</ele>
        <time>2022-07-10T08:55:16.000Z</time>
      </trkpt>
      <trkpt lat="47.28653" lon="-2.23418">
        <ele>12.800000190735</ele>
        <time>2022-07-10T08:55:22.000Z</time>
      </trkpt>
      <trkpt lat="47.2866" lon="-2.23448">
        <ele>12.800000190735</ele>
        <time>2022-07-10T08:55:29.000Z</time>
      </trkpt>
      <trkpt lat="47.28658" lon="-2.23473">
        <ele>12.800000190735</ele>
        <time>2022-07-10T08:55:34.000Z</time>
      </trkpt>
      <trkpt lat="47.28653" lon="-2.23511">
        <ele>12.800000190735</ele>
        <time>2022-07-10T08:55:40.000Z</time>
      </trkpt>
      <trkpt lat="47.28653" lon="-2.23544">
        <ele>12.800000190735</ele>
        <time>2022-07-10T08:55:45.000Z</time>
      </trkpt>
      <trkpt lat="47.28645" lon="-2.23556">
        <ele>12.800000190735</ele>
        <time>2022-07-10T08:55:48.000Z</time>
      </trkpt>
      <trkpt lat="47.28626" lon="-2.2356">
        <ele>12.800000190735</ele>
        <time>2022-07-10T08:55:52.000Z</time>
      </trkpt>
      <trkpt lat="47.28607" lon="-2.2356">
        <ele>12.800000190735</ele>
        <time>2022-07-10T08:55:57.000Z</time>
      </trkpt>
      <trkpt lat="47.28591" lon="-2.23552">
        <ele>12.800000190735</ele>
        <time>2022-07-10T08:56:03.000Z</time>
      </trkpt>
      <trkpt lat="47.28579" lon="-2.23542">
        <ele>12.800000190735</ele>
        <time>2022-07-10T08:56:09.000Z</time>
      </trkpt>
      <trkpt lat="47.28578" lon="-2.23539">
        <ele>12.800000190735</ele>
        <time>2022-07-10T08:56:10.000Z</time>
      </trkpt>
      <trkpt lat="47.28575" lon="-2.23524">
        <ele>12.800000190735</ele>
        <time>2022-07-10T08:56:13.000Z</time>
      </trkpt>
      <trkpt lat="47.28573" lon="-2.23513">
        <ele>12.39999961853</ele>
        <time>2022-07-10T08:56:15.000Z</time>
      </trkpt>
      <trkpt lat="47.28572" lon="-2.23507">
        <ele>12</ele>
        <time>2022-07-10T08:56:16.000Z</time>
      </trkpt>
      <trkpt lat="47.28573" lon="-2.235">
        <ele>11.60000038147</ele>
        <time>2022-07-10T08:56:17.000Z</time>
      </trkpt>
      <trkpt lat="47.28573" lon="-2.23493">
        <ele>11.199999809265</ele>
        <time>2022-07-10T08:56:18.000Z</time>
      </trkpt>
      <trkpt lat="47.28573" lon="-2.23486">
        <ele>10.800000190735</ele>
        <time>2022-07-10T08:56:19.000Z</time>
      </trkpt>
      <trkpt lat="47.28573" lon="-2.23466">
        <ele>10.800000190735</ele>
        <time>2022-07-10T08:56:22.000Z</time>
      </trkpt>
      <trkpt lat="47.28572" lon="-2.23441">
        <ele>10.800000190735</ele>
        <time>2022-07-10T08:56:25.000Z</time>
      </trkpt>
      <trkpt lat="47.28575" lon="-2.23395">
        <ele>10.800000190735</ele>
        <time>2022-07-10T08:56:32.000Z</time>
      </trkpt>
      <trkpt lat="47.28581" lon="-2.23351">
        <ele>10.800000190735</ele>
        <time>2022-07-10T08:56:39.000Z</time>
      </trkpt>
      <trkpt lat="47.28582" lon="-2.23344">
        <ele>10.800000190735</ele>
        <time>2022-07-10T08:56:40.000Z</time>
      </trkpt>
      <trkpt lat="47.28583" lon="-2.23316">
        <ele>10.800000190735</ele>
        <time>2022-07-10T08:56:44.000Z</time>
      </trkpt>
      <trkpt lat="47.28585" lon="-2.23271">
        <ele>10.800000190735</ele>
        <time>2022-07-10T08:56:50.000Z</time>
      </trkpt>
      <trkpt lat="47.28587" lon="-2.23252">
        <ele>10.800000190735</ele>
        <time>2022-07-10T08:56:53.000Z</time>
      </trkpt>
      <trkpt lat="47.28591" lon="-2.23236">
        <ele>10.800000190735</ele>
        <time>2022-07-10T08:56:55.000Z</time>
      </trkpt>
      <trkpt lat="47.28598" lon="-2.23208">
        <ele>10.800000190735</ele>
        <time>2022-07-10T08:56:59.000Z</time>
      </trkpt>
      <trkpt lat="47.28599" lon="-2.23202">
        <ele>10.800000190735</ele>
        <time>2022-07-10T08:57:00.000Z</time>
      </trkpt>
      <trkpt lat="47.2861" lon="-2.23157">
        <ele>10.800000190735</ele>
        <time>2022-07-10T08:57:06.000Z</time>
      </trkpt>
      <trkpt lat="47.28621" lon="-2.23119">
        <ele>10.800000190735</ele>
        <time>2022-07-10T08:57:11.000Z</time>
      </trkpt>
      <trkpt lat="47.28623" lon="-2.23112">
        <ele>10.800000190735</ele>
        <time>2022-07-10T08:57:12.000Z</time>
      </trkpt>
      <trkpt lat="47.28632" lon="-2.231">
        <ele>10.800000190735</ele>
        <time>2022-07-10T08:57:15.000Z</time>
      </trkpt>
      <trkpt lat="47.28636" lon="-2.23094">
        <ele>10.800000190735</ele>
        <time>2022-07-10T08:57:16.000Z</time>
      </trkpt>
      <trkpt lat="47.28662" lon="-2.23059">
        <ele>10.800000190735</ele>
        <time>2022-07-10T08:57:23.000Z</time>
      </trkpt>
      <trkpt lat="47.28677" lon="-2.23037">
        <ele>10.800000190735</ele>
        <time>2022-07-10T08:57:28.000Z</time>
      </trkpt>
      <trkpt lat="47.28681" lon="-2.23026">
        <ele>10.800000190735</ele>
        <time>2022-07-10T08:57:30.000Z</time>
      </trkpt>
      <trkpt lat="47.28686" lon="-2.23008">
        <ele>10.800000190735</ele>
        <time>2022-07-10T08:57:33.000Z</time>
      </trkpt>
      <trkpt lat="47.28687" lon="-2.22995">
        <ele>10.800000190735</ele>
        <time>2022-07-10T08:57:35.000Z</time>
      </trkpt>
      <trkpt lat="47.28691" lon="-2.2295">
        <ele>10.800000190735</ele>
        <time>2022-07-10T08:57:41.000Z</time>
      </trkpt>
      <trkpt lat="47.2869" lon="-2.22936">
        <ele>10.800000190735</ele>
        <time>2022-07-10T08:57:43.000Z</time>
      </trkpt>
      <trkpt lat="47.28688" lon="-2.2292">
        <ele>10.800000190735</ele>
        <time>2022-07-10T08:57:46.000Z</time>
      </trkpt>
      <trkpt lat="47.28697" lon="-2.22904">
        <ele>10.800000190735</ele>
        <time>2022-07-10T08:57:49.000Z</time>
      </trkpt>
      <trkpt lat="47.28712" lon="-2.22893">
        <ele>10.800000190735</ele>
        <time>2022-07-10T08:57:52.000Z</time>
      </trkpt>
      <trkpt lat="47.28717" lon="-2.2289">
        <ele>10.800000190735</ele>
        <time>2022-07-10T08:57:53.000Z</time>
      </trkpt>
      <trkpt lat="47.2875" lon="-2.22873">
        <ele>10.800000190735</ele>
        <time>2022-07-10T08:57:59.000Z</time>
      </trkpt>
      <trkpt lat="47.28798" lon="-2.22864">
        <ele>10.800000190735</ele>
        <time>2022-07-10T08:58:07.000Z</time>
      </trkpt>
      <trkpt lat="47.28804" lon="-2.22865">
        <ele>10.800000190735</ele>
        <time>2022-07-10T08:58:08.000Z</time>
      </trkpt>
      <trkpt lat="47.28828" lon="-2.22871">
        <ele>10.800000190735</ele>
        <time>2022-07-10T08:58:12.000Z</time>
      </trkpt>
      <trkpt lat="47.28868" lon="-2.22892">
        <ele>10.800000190735</ele>
        <time>2022-07-10T08:58:19.000Z</time>
      </trkpt>
      <trkpt lat="47.28914" lon="-2.22918">
        <ele>10.800000190735</ele>
        <time>2022-07-10T08:58:27.000Z</time>
      </trkpt>
      <trkpt lat="47.28965" lon="-2.22948">
        <ele>10.800000190735</ele>
        <time>2022-07-10T08:58:36.000Z</time>
      </trkpt>
      <trkpt lat="47.28975" lon="-2.22955">
        <ele>10.800000190735</ele>
        <time>2022-07-10T08:58:38.000Z</time>
      </trkpt>
      <trkpt lat="47.28992" lon="-2.22962">
        <ele>10.800000190735</ele>
        <time>2022-07-10T08:58:41.000Z</time>
      </trkpt>
      <trkpt lat="47.29003" lon="-2.22959">
        <ele>10.800000190735</ele>
        <time>2022-07-10T08:58:43.000Z</time>
      </trkpt>
      <trkpt lat="47.29012" lon="-2.22958">
        <ele>10.800000190735</ele>
        <time>2022-07-10T08:58:45.000Z</time>
      </trkpt>
      <trkpt lat="47.29028" lon="-2.22965">
        <ele>10.800000190735</ele>
        <time>2022-07-10T08:58:48.000Z</time>
      </trkpt>
      <trkpt lat="47.29051" lon="-2.22992">
        <ele>10.800000190735</ele>
        <time>2022-07-10T08:58:53.000Z</time>
      </trkpt>
      <trkpt lat="47.29055" lon="-2.22998">
        <ele>10.800000190735</ele>
        <time>2022-07-10T08:58:54.000Z</time>
      </trkpt>
      <trkpt lat="47.29079" lon="-2.23026">
        <ele>10.800000190735</ele>
        <time>2022-07-10T08:58:59.000Z</time>
      </trkpt>
      <trkpt lat="47.29114" lon="-2.23071">
        <ele>10.800000190735</ele>
        <time>2022-07-10T08:59:07.000Z</time>
      </trkpt>
      <trkpt lat="47.29146" lon="-2.23113">
        <ele>10.800000190735</ele>
        <time>2022-07-10T08:59:14.000Z</time>
      </trkpt>
      <trkpt lat="47.29172" lon="-2.23145">
        <ele>10.800000190735</ele>
        <time>2022-07-10T08:59:20.000Z</time>
      </trkpt>
      <trkpt lat="47.29195" lon="-2.23185">
        <ele>10.800000190735</ele>
        <time>2022-07-10T08:59:26.000Z</time>
      </trkpt>
      <trkpt lat="47.29207" lon="-2.23224">
        <ele>10.800000190735</ele>
        <time>2022-07-10T08:59:31.000Z</time>
      </trkpt>
      <trkpt lat="47.29225" lon="-2.23251">
        <ele>10.800000190735</ele>
        <time>2022-07-10T08:59:35.000Z</time>
      </trkpt>
      <trkpt lat="47.29258" lon="-2.23301">
        <ele>10.800000190735</ele>
        <time>2022-07-10T08:59:43.000Z</time>
      </trkpt>
      <trkpt lat="47.29271" lon="-2.23345">
        <ele>10.800000190735</ele>
        <time>2022-07-10T08:59:48.000Z</time>
      </trkpt>
      <trkpt lat="47.29284" lon="-2.23418">
        <ele>10.800000190735</ele>
        <time>2022-07-10T08:59:56.000Z</time>
      </trkpt>
      <trkpt lat="47.29299" lon="-2.23479">
        <ele>10.800000190735</ele>
        <time>2022-07-10T09:00:03.000Z</time>
      </trkpt>
      <trkpt lat="47.2931" lon="-2.23553">
        <ele>10.800000190735</ele>
        <time>2022-07-10T09:00:11.000Z</time>
      </trkpt>
      <trkpt lat="47.29312" lon="-2.23619">
        <ele>10.800000190735</ele>
        <time>2022-07-10T09:00:18.000Z</time>
      </trkpt>
      <trkpt lat="47.29311" lon="-2.23664">
        <ele>10.800000190735</ele>
        <time>2022-07-10T09:00:23.000Z</time>
      </trkpt>
      <trkpt lat="47.29313" lon="-2.23682">
        <ele>10.800000190735</ele>
        <time>2022-07-10T09:00:25.000Z</time>
      </trkpt>
      <trkpt lat="47.29313" lon="-2.23742">
        <ele>10.800000190735</ele>
        <time>2022-07-10T09:00:32.000Z</time>
      </trkpt>
      <trkpt lat="47.29311" lon="-2.23768">
        <ele>10.800000190735</ele>
        <time>2022-07-10T09:00:35.000Z</time>
      </trkpt>
      <trkpt lat="47.29317" lon="-2.2378">
        <ele>10.800000190735</ele>
        <time>2022-07-10T09:00:37.000Z</time>
      </trkpt>
      <trkpt lat="47.29333" lon="-2.23791">
        <ele>10.800000190735</ele>
        <time>2022-07-10T09:00:41.000Z</time>
      </trkpt>
      <trkpt lat="47.29339" lon="-2.23791">
        <ele>10.800000190735</ele>
        <time>2022-07-10T09:00:42.000Z</time>
      </trkpt>
      <trkpt lat="47.29345" lon="-2.23793">
        <ele>10.800000190735</ele>
        <time>2022-07-10T09:00:43.000Z</time>
      </trkpt>
      <trkpt lat="47.29361" lon="-2.23794">
        <ele>10.800000190735</ele>
        <time>2022-07-10T09:00:46.000Z</time>
      </trkpt>
      <trkpt lat="47.2937" lon="-2.23772">
        <ele>10.800000190735</ele>
        <time>2022-07-10T09:00:49.000Z</time>
      </trkpt>
      <trkpt lat="47.29372" lon="-2.23756">
        <ele>10.800000190735</ele>
        <time>2022-07-10T09:00:51.000Z</time>
      </trkpt>
      <trkpt lat="47.29375" lon="-2.23734">
        <ele>10.800000190735</ele>
        <time>2022-07-10T09:00:54.000Z</time>
      </trkpt>
      <trkpt lat="47.2938" lon="-2.2372">
        <ele>10.800000190735</ele>
        <time>2022-07-10T09:00:56.000Z</time>
      </trkpt>
      <trkpt lat="47.29383" lon="-2.23714">
        <ele>11.199999809265</ele>
        <time>2022-07-10T09:00:57.000Z</time>
      </trkpt>
      <trkpt lat="47.29387" lon="-2.2371">
        <ele>11.60000038147</ele>
        <time>2022-07-10T09:00:58.000Z</time>
      </trkpt>
      <trkpt lat="47.29392" lon="-2.23707">
        <ele>12</ele>
        <time>2022-07-10T09:00:59.000Z</time>
      </trkpt>
      <trkpt lat="47.29397" lon="-2.23705">
        <ele>12.39999961853</ele>
        <time>2022-07-10T09:01:00.000Z</time>
      </trkpt>
      <trkpt lat="47.29402" lon="-2.23702">
        <ele>12.800000190735</ele>
        <time>2022-07-10T09:01:01.000Z</time>
      </trkpt>
      <trkpt lat="47.29407" lon="-2.237">
        <ele>12.800000190735</ele>
        <time>2022-07-10T09:01:02.000Z</time>
      </trkpt>
      <trkpt lat="47.29435" lon="-2.23689">
        <ele>12.800000190735</ele>
        <time>2022-07-10T09:01:08.000Z</time>
      </trkpt>
      <trkpt lat="47.2944" lon="-2.23688">
        <ele>13.199999809265</ele>
        <time>2022-07-10T09:01:09.000Z</time>
      </trkpt>
      <trkpt lat="47.29444" lon="-2.23687">
        <ele>13.60000038147</ele>
        <time>2022-07-10T09:01:10.000Z</time>
      </trkpt>
      <trkpt lat="47.29449" lon="-2.23686">
        <ele>14</ele>
        <time>2022-07-10T09:01:11.000Z</time>
      </trkpt>
      <trkpt lat="47.29453" lon="-2.23684">
        <ele>14.60000038147</ele>
        <time>2022-07-10T09:01:12.000Z</time>
      </trkpt>
      <trkpt lat="47.29457" lon="-2.23681">
        <ele>15</ele>
        <time>2022-07-10T09:01:13.000Z</time>
      </trkpt>
      <trkpt lat="47.29461" lon="-2.2368">
        <ele>15</ele>
        <time>2022-07-10T09:01:14.000Z</time>
      </trkpt>
      <trkpt lat="47.29467" lon="-2.23676">
        <ele>15.39999961853</ele>
        <time>2022-07-10T09:01:16.000Z</time>
      </trkpt>
      <trkpt lat="47.2947" lon="-2.23674">
        <ele>15.800000190735</ele>
        <time>2022-07-10T09:01:17.000Z</time>
      </trkpt>
      <trkpt lat="47.29473" lon="-2.23672">
        <ele>16.200000762939</ele>
        <time>2022-07-10T09:01:18.000Z</time>
      </trkpt>
      <trkpt lat="47.29477" lon="-2.2367">
        <ele>16.60000038147</ele>
        <time>2022-07-10T09:01:19.000Z</time>
      </trkpt>
      <trkpt lat="47.2948" lon="-2.23668">
        <ele>17</ele>
        <time>2022-07-10T09:01:20.000Z</time>
      </trkpt>
      <trkpt lat="47.29488" lon="-2.23663">
        <ele>17</ele>
        <time>2022-07-10T09:01:22.000Z</time>
      </trkpt>
      <trkpt lat="47.29497" lon="-2.23669">
        <ele>17</ele>
        <time>2022-07-10T09:01:24.000Z</time>
      </trkpt>
      <trkpt lat="47.29502" lon="-2.2369">
        <ele>17</ele>
        <time>2022-07-10T09:01:27.000Z</time>
      </trkpt>
      <trkpt lat="47.29502" lon="-2.23698">
        <ele>16.60000038147</ele>
        <time>2022-07-10T09:01:28.000Z</time>
      </trkpt>
      <trkpt lat="47.29502" lon="-2.23708">
        <ele>16.200000762939</ele>
        <time>2022-07-10T09:01:29.000Z</time>
      </trkpt>
      <trkpt lat="47.29502" lon="-2.23718">
        <ele>15.800000190735</ele>
        <time>2022-07-10T09:01:30.000Z</time>
      </trkpt>
      <trkpt lat="47.29502" lon="-2.23728">
        <ele>15.39999961853</ele>
        <time>2022-07-10T09:01:31.000Z</time>
      </trkpt>
      <trkpt lat="47.29503" lon="-2.23738">
        <ele>15</ele>
        <time>2022-07-10T09:01:32.000Z</time>
      </trkpt>
      <trkpt lat="47.29504" lon="-2.23749">
        <ele>15</ele>
        <time>2022-07-10T09:01:33.000Z</time>
      </trkpt>
      <trkpt lat="47.29509" lon="-2.2377">
        <ele>14.60000038147</ele>
        <time>2022-07-10T09:01:35.000Z</time>
      </trkpt>
      <trkpt lat="47.29511" lon="-2.23782">
        <ele>14.199999809265</ele>
        <time>2022-07-10T09:01:36.000Z</time>
      </trkpt>
      <trkpt lat="47.29513" lon="-2.23793">
        <ele>13.800000190735</ele>
        <time>2022-07-10T09:01:37.000Z</time>
      </trkpt>
      <trkpt lat="47.29516" lon="-2.23805">
        <ele>13.39999961853</ele>
        <time>2022-07-10T09:01:38.000Z</time>
      </trkpt>
      <trkpt lat="47.29519" lon="-2.23817">
        <ele>12.800000190735</ele>
        <time>2022-07-10T09:01:39.000Z</time>
      </trkpt>
      <trkpt lat="47.29526" lon="-2.2384">
        <ele>12.800000190735</ele>
        <time>2022-07-10T09:01:41.000Z</time>
      </trkpt>
      <trkpt lat="47.2953" lon="-2.23852">
        <ele>12.39999961853</ele>
        <time>2022-07-10T09:01:42.000Z</time>
      </trkpt>
      <trkpt lat="47.29532" lon="-2.23863">
        <ele>12</ele>
        <time>2022-07-10T09:01:43.000Z</time>
      </trkpt>
      <trkpt lat="47.29534" lon="-2.23873">
        <ele>11.199999809265</ele>
        <time>2022-07-10T09:01:44.000Z</time>
      </trkpt>
      <trkpt lat="47.29536" lon="-2.23884">
        <ele>10.800000190735</ele>
        <time>2022-07-10T09:01:45.000Z</time>
      </trkpt>
      <trkpt lat="47.29538" lon="-2.23895">
        <ele>10.800000190735</ele>
        <time>2022-07-10T09:01:46.000Z</time>
      </trkpt>
      <trkpt lat="47.29547" lon="-2.2397">
        <ele>10.800000190735</ele>
        <time>2022-07-10T09:01:53.000Z</time>
      </trkpt>
      <trkpt lat="47.29557" lon="-2.24031">
        <ele>10.800000190735</ele>
        <time>2022-07-10T09:01:59.000Z</time>
      </trkpt>
      <trkpt lat="47.29566" lon="-2.2409">
        <ele>10.800000190735</ele>
        <time>2022-07-10T09:02:05.000Z</time>
      </trkpt>
      <trkpt lat="47.2958" lon="-2.24165">
        <ele>10.800000190735</ele>
        <time>2022-07-10T09:02:13.000Z</time>
      </trkpt>
      <trkpt lat="47.29594" lon="-2.24226">
        <ele>11.199999809265</ele>
        <time>2022-07-10T09:02:20.000Z</time>
      </trkpt>
      <trkpt lat="47.29597" lon="-2.24234">
        <ele>11.60000038147</ele>
        <time>2022-07-10T09:02:21.000Z</time>
      </trkpt>
      <trkpt lat="47.29599" lon="-2.24242">
        <ele>12</ele>
        <time>2022-07-10T09:02:22.000Z</time>
      </trkpt>
      <trkpt lat="47.29601" lon="-2.24249">
        <ele>12.39999961853</ele>
        <time>2022-07-10T09:02:23.000Z</time>
      </trkpt>
      <trkpt lat="47.29603" lon="-2.24256">
        <ele>12.800000190735</ele>
        <time>2022-07-10T09:02:24.000Z</time>
      </trkpt>
      <trkpt lat="47.29609" lon="-2.24277">
        <ele>12.800000190735</ele>
        <time>2022-07-10T09:02:27.000Z</time>
      </trkpt>
      <trkpt lat="47.29616" lon="-2.24303">
        <ele>12.800000190735</ele>
        <time>2022-07-10T09:02:31.000Z</time>
      </trkpt>
      <trkpt lat="47.29625" lon="-2.2431">
        <ele>12.800000190735</ele>
        <time>2022-07-10T09:02:33.000Z</time>
      </trkpt>
      <trkpt lat="47.29637" lon="-2.24306">
        <ele>12.800000190735</ele>
        <time>2022-07-10T09:02:36.000Z</time>
      </trkpt>
      <trkpt lat="47.29648" lon="-2.243">
        <ele>12.800000190735</ele>
        <time>2022-07-10T09:02:38.000Z</time>
      </trkpt>
      <trkpt lat="47.29667" lon="-2.24289">
        <ele>12.800000190735</ele>
        <time>2022-07-10T09:02:42.000Z</time>
      </trkpt>
      <trkpt lat="47.29671" lon="-2.24285">
        <ele>13.39999961853</ele>
        <time>2022-07-10T09:02:43.000Z</time>
      </trkpt>
      <trkpt lat="47.29676" lon="-2.24282">
        <ele>13.800000190735</ele>
        <time>2022-07-10T09:02:44.000Z</time>
      </trkpt>
      <trkpt lat="47.29681" lon="-2.24279">
        <ele>14.199999809265</ele>
        <time>2022-07-10T09:02:45.000Z</time>
      </trkpt>
      <trkpt lat="47.29686" lon="-2.24277">
        <ele>14.60000038147</ele>
        <time>2022-07-10T09:02:46.000Z</time>
      </trkpt>
      <trkpt lat="47.29691" lon="-2.24274">
        <ele>15</ele>
        <time>2022-07-10T09:02:47.000Z</time>
      </trkpt>
      <trkpt lat="47.29696" lon="-2.24271">
        <ele>15</ele>
        <time>2022-07-10T09:02:48.000Z</time>
      </trkpt>
      <trkpt lat="47.29721" lon="-2.24256">
        <ele>15.39999961853</ele>
        <time>2022-07-10T09:02:53.000Z</time>
      </trkpt>
      <trkpt lat="47.29726" lon="-2.24253">
        <ele>16</ele>
        <time>2022-07-10T09:02:54.000Z</time>
      </trkpt>
      <trkpt lat="47.2973" lon="-2.2425">
        <ele>16.39999961853</ele>
        <time>2022-07-10T09:02:55.000Z</time>
      </trkpt>
      <trkpt lat="47.29735" lon="-2.24247">
        <ele>16.799999237061</ele>
        <time>2022-07-10T09:02:56.000Z</time>
      </trkpt>
      <trkpt lat="47.2974" lon="-2.24244">
        <ele>17.200000762939</ele>
        <time>2022-07-10T09:02:57.000Z</time>
      </trkpt>
      <trkpt lat="47.29749" lon="-2.2424">
        <ele>17.200000762939</ele>
        <time>2022-07-10T09:02:59.000Z</time>
      </trkpt>
      <trkpt lat="47.29768" lon="-2.24229">
        <ele>17.60000038147</ele>
        <time>2022-07-10T09:03:03.000Z</time>
      </trkpt>
      <trkpt lat="47.29773" lon="-2.24227">
        <ele>18</ele>
        <time>2022-07-10T09:03:04.000Z</time>
      </trkpt>
      <trkpt lat="47.29777" lon="-2.24225">
        <ele>18.39999961853</ele>
        <time>2022-07-10T09:03:05.000Z</time>
      </trkpt>
      <trkpt lat="47.29782" lon="-2.24223">
        <ele>18.799999237061</ele>
        <time>2022-07-10T09:03:06.000Z</time>
      </trkpt>
      <trkpt lat="47.29786" lon="-2.24222">
        <ele>19.200000762939</ele>
        <time>2022-07-10T09:03:07.000Z</time>
      </trkpt>
      <trkpt lat="47.29799" lon="-2.24217">
        <ele>19.200000762939</ele>
        <time>2022-07-10T09:03:10.000Z</time>
      </trkpt>
      <trkpt lat="47.29804" lon="-2.24215">
        <ele>19.60000038147</ele>
        <time>2022-07-10T09:03:11.000Z</time>
      </trkpt>
      <trkpt lat="47.29809" lon="-2.24216">
        <ele>20</ele>
        <time>2022-07-10T09:03:12.000Z</time>
      </trkpt>
      <trkpt lat="47.29814" lon="-2.24219">
        <ele>20.39999961853</ele>
        <time>2022-07-10T09:03:13.000Z</time>
      </trkpt>
      <trkpt lat="47.29818" lon="-2.24221">
        <ele>20.799999237061</ele>
        <time>2022-07-10T09:03:14.000Z</time>
      </trkpt>
      <trkpt lat="47.29821" lon="-2.24223">
        <ele>21.200000762939</ele>
        <time>2022-07-10T09:03:15.000Z</time>
      </trkpt>
      <trkpt lat="47.29825" lon="-2.24226">
        <ele>21.200000762939</ele>
        <time>2022-07-10T09:03:16.000Z</time>
      </trkpt>
      <trkpt lat="47.2984" lon="-2.24235">
        <ele>21.200000762939</ele>
        <time>2022-07-10T09:03:20.000Z</time>
      </trkpt>
      <trkpt lat="47.29844" lon="-2.24238">
        <ele>21.200000762939</ele>
        <time>2022-07-10T09:03:21.000Z</time>
      </trkpt>
      <trkpt lat="47.29849" lon="-2.24239">
        <ele>21.200000762939</ele>
        <time>2022-07-10T09:03:22.000Z</time>
      </trkpt>
      <trkpt lat="47.2987" lon="-2.24248">
        <ele>21.200000762939</ele>
        <time>2022-07-10T09:03:27.000Z</time>
      </trkpt>
      <trkpt lat="47.29895" lon="-2.24266">
        <ele>21.200000762939</ele>
        <time>2022-07-10T09:03:33.000Z</time>
      </trkpt>
      <trkpt lat="47.29921" lon="-2.24284">
        <ele>21.200000762939</ele>
        <time>2022-07-10T09:03:39.000Z</time>
      </trkpt>
      <trkpt lat="47.29925" lon="-2.24287">
        <ele>21.200000762939</ele>
        <time>2022-07-10T09:03:40.000Z</time>
      </trkpt>
      <trkpt lat="47.29937" lon="-2.24294">
        <ele>21.200000762939</ele>
        <time>2022-07-10T09:03:43.000Z</time>
      </trkpt>
      <trkpt lat="47.29948" lon="-2.24306">
        <ele>21.200000762939</ele>
        <time>2022-07-10T09:03:46.000Z</time>
      </trkpt>
      <trkpt lat="47.29951" lon="-2.2431">
        <ele>21.200000762939</ele>
        <time>2022-07-10T09:03:47.000Z</time>
      </trkpt>
      <trkpt lat="47.29977" lon="-2.24339">
        <ele>21.200000762939</ele>
        <time>2022-07-10T09:03:54.000Z</time>
      </trkpt>
      <trkpt lat="47.29994" lon="-2.2436">
        <ele>21.200000762939</ele>
        <time>2022-07-10T09:04:00.000Z</time>
      </trkpt>
      <trkpt lat="47.29998" lon="-2.24357">
        <ele>21.200000762939</ele>
        <time>2022-07-10T09:04:01.000Z</time>
      </trkpt>
      <trkpt lat="47.3" lon="-2.24348">
        <ele>21.200000762939</ele>
        <time>2022-07-10T09:04:03.000Z</time>
      </trkpt>
      <trkpt lat="47.30003" lon="-2.24339">
        <ele>21.60000038147</ele>
        <time>2022-07-10T09:04:06.000Z</time>
      </trkpt>
      <trkpt lat="47.30004" lon="-2.24336">
        <ele>22</ele>
        <time>2022-07-10T09:04:07.000Z</time>
      </trkpt>
      <trkpt lat="47.30005" lon="-2.24333">
        <ele>22.39999961853</ele>
        <time>2022-07-10T09:04:08.000Z</time>
      </trkpt>
      <trkpt lat="47.30005" lon="-2.2433">
        <ele>22.799999237061</ele>
        <time>2022-07-10T09:04:09.000Z</time>
      </trkpt>
      <trkpt lat="47.30005" lon="-2.24327">
        <ele>23.200000762939</ele>
        <time>2022-07-10T09:04:10.000Z</time>
      </trkpt>
      <trkpt lat="47.30012" lon="-2.24311">
        <ele>23.200000762939</ele>
        <time>2022-07-10T09:04:14.000Z</time>
      </trkpt>
      <trkpt lat="47.3002" lon="-2.24295">
        <ele>23.200000762939</ele>
        <time>2022-07-10T09:04:19.000Z</time>
      </trkpt>
      <trkpt lat="47.30021" lon="-2.24288">
        <ele>23.200000762939</ele>
        <time>2022-07-10T09:04:21.000Z</time>
      </trkpt>
      <trkpt lat="47.30025" lon="-2.24283">
        <ele>23.200000762939</ele>
        <time>2022-07-10T09:04:24.000Z</time>
      </trkpt>
      <trkpt lat="47.30028" lon="-2.24276">
        <ele>23.200000762939</ele>
        <time>2022-07-10T09:04:27.000Z</time>
      </trkpt>
      <trkpt lat="47.30028" lon="-2.24267">
        <ele>23.200000762939</ele>
        <time>2022-07-10T09:04:29.000Z</time>
      </trkpt>
      <trkpt lat="47.30025" lon="-2.24246">
        <ele>22.799999237061</ele>
        <time>2022-07-10T09:04:32.000Z</time>
      </trkpt>
      <trkpt lat="47.30024" lon="-2.24239">
        <ele>22.39999961853</ele>
        <time>2022-07-10T09:04:33.000Z</time>
      </trkpt>
      <trkpt lat="47.30023" lon="-2.24231">
        <ele>22</ele>
        <time>2022-07-10T09:04:34.000Z</time>
      </trkpt>
      <trkpt lat="47.30024" lon="-2.24224">
        <ele>21.60000038147</ele>
        <time>2022-07-10T09:04:35.000Z</time>
      </trkpt>
      <trkpt lat="47.30025" lon="-2.24219">
        <ele>21.200000762939</ele>
        <time>2022-07-10T09:04:36.000Z</time>
      </trkpt>
      <trkpt lat="47.30026" lon="-2.24216">
        <ele>21.200000762939</ele>
        <time>2022-07-10T09:04:37.000Z</time>
      </trkpt>
      <trkpt lat="47.3003" lon="-2.24209">
        <ele>21.200000762939</ele>
        <time>2022-07-10T09:04:42.000Z</time>
      </trkpt>
      <trkpt lat="47.3003" lon="-2.24206">
        <ele>21.200000762939</ele>
        <time>2022-07-10T09:04:43.000Z</time>
      </trkpt>
      <trkpt lat="47.30032" lon="-2.24184">
        <ele>21.200000762939</ele>
        <time>2022-07-10T09:04:50.000Z</time>
      </trkpt>
      <trkpt lat="47.30034" lon="-2.24162">
        <ele>21.200000762939</ele>
        <time>2022-07-10T09:04:55.000Z</time>
      </trkpt>
      <trkpt lat="47.30034" lon="-2.24156">
        <ele>21.200000762939</ele>
        <time>2022-07-10T09:04:57.000Z</time>
      </trkpt>
      <trkpt lat="47.30038" lon="-2.24152">
        <ele>21.200000762939</ele>
        <time>2022-07-10T09:05:00.000Z</time>
      </trkpt>
      <trkpt lat="47.30039" lon="-2.24149">
        <ele>20.799999237061</ele>
        <time>2022-07-10T09:05:04.000Z</time>
      </trkpt>
      <trkpt lat="47.30039" lon="-2.24147">
        <ele>19</ele>
        <time>2022-07-10T09:05:11.000Z</time>
      </trkpt>
      <trkpt lat="47.30039" lon="-2.24144">
        <ele>19</ele>
        <time>2022-07-10T09:05:12.000Z</time>
      </trkpt>
      <trkpt lat="47.30037" lon="-2.24136">
        <ele>19</ele>
        <time>2022-07-10T09:05:16.000Z</time>
      </trkpt>
      <trkpt lat="47.30034" lon="-2.24137">
        <ele>19</ele>
        <time>2022-07-10T09:05:21.000Z</time>
      </trkpt>
      <trkpt lat="47.30023" lon="-2.2414">
        <ele>19</ele>
        <time>2022-07-10T09:05:26.000Z</time>
      </trkpt>
      <trkpt lat="47.30014" lon="-2.24132">
        <ele>18.60000038147</ele>
        <time>2022-07-10T09:05:30.000Z</time>
      </trkpt>
      <trkpt lat="47.30012" lon="-2.24131">
        <ele>18.200000762939</ele>
        <time>2022-07-10T09:05:31.000Z</time>
      </trkpt>
      <trkpt lat="47.3001" lon="-2.2413">
        <ele>17.799999237061</ele>
        <time>2022-07-10T09:05:32.000Z</time>
      </trkpt>
      <trkpt lat="47.30008" lon="-2.24129">
        <ele>17.39999961853</ele>
        <time>2022-07-10T09:05:33.000Z</time>
      </trkpt>
      <trkpt lat="47.30006" lon="-2.24129">
        <ele>17</ele>
        <time>2022-07-10T09:05:34.000Z</time>
      </trkpt>
      <trkpt lat="47.30004" lon="-2.24131">
        <ele>17</ele>
        <time>2022-07-10T09:05:36.000Z</time>
      </trkpt>
      <trkpt lat="47.30001" lon="-2.24138">
        <ele>17</ele>
        <time>2022-07-10T09:05:42.000Z</time>
      </trkpt>
      <trkpt lat="47.30001" lon="-2.2414">
        <ele>17</ele>
        <time>2022-07-10T09:05:44.000Z</time>
      </trkpt>
      <trkpt lat="47.30006" lon="-2.24144">
        <ele>17</ele>
        <time>2022-07-10T09:05:46.000Z</time>
      </trkpt>
      <trkpt lat="47.30021" lon="-2.24149">
        <ele>17</ele>
        <time>2022-07-10T09:05:50.000Z</time>
      </trkpt>
      <trkpt lat="47.30024" lon="-2.24146">
        <ele>17</ele>
        <time>2022-07-10T09:05:51.000Z</time>
      </trkpt>
      <trkpt lat="47.30035" lon="-2.24137">
        <ele>17</ele>
        <time>2022-07-10T09:05:54.000Z</time>
      </trkpt>
      <trkpt lat="47.30049" lon="-2.24127">
        <ele>17</ele>
        <time>2022-07-10T09:05:58.000Z</time>
      </trkpt>
      <trkpt lat="47.30072" lon="-2.24114">
        <ele>17</ele>
        <time>2022-07-10T09:06:04.000Z</time>
      </trkpt>
      <trkpt lat="47.30089" lon="-2.24103">
        <ele>17</ele>
        <time>2022-07-10T09:06:08.000Z</time>
      </trkpt>
      <trkpt lat="47.30099" lon="-2.241">
        <ele>17</ele>
        <time>2022-07-10T09:06:10.000Z</time>
      </trkpt>
      <trkpt lat="47.30113" lon="-2.24091">
        <ele>17</ele>
        <time>2022-07-10T09:06:13.000Z</time>
      </trkpt>
      <trkpt lat="47.30121" lon="-2.24086">
        <ele>17</ele>
        <time>2022-07-10T09:06:15.000Z</time>
      </trkpt>
      <trkpt lat="47.30135" lon="-2.24078">
        <ele>17</ele>
        <time>2022-07-10T09:06:18.000Z</time>
      </trkpt>
      <trkpt lat="47.30144" lon="-2.24073">
        <ele>17</ele>
        <time>2022-07-10T09:06:20.000Z</time>
      </trkpt>
      <trkpt lat="47.30149" lon="-2.24071">
        <ele>17</ele>
        <time>2022-07-10T09:06:21.000Z</time>
      </trkpt>
      <trkpt lat="47.30185" lon="-2.24057">
        <ele>17</ele>
        <time>2022-07-10T09:06:28.000Z</time>
      </trkpt>
      <trkpt lat="47.30211" lon="-2.24055">
        <ele>17</ele>
        <time>2022-07-10T09:06:33.000Z</time>
      </trkpt>
      <trkpt lat="47.3025" lon="-2.24058">
        <ele>17</ele>
        <time>2022-07-10T09:06:40.000Z</time>
      </trkpt>
      <trkpt lat="47.3026" lon="-2.24059">
        <ele>17</ele>
        <time>2022-07-10T09:06:42.000Z</time>
      </trkpt>
      <trkpt lat="47.30271" lon="-2.24058">
        <ele>17</ele>
        <time>2022-07-10T09:06:44.000Z</time>
      </trkpt>
      <trkpt lat="47.30276" lon="-2.24056">
        <ele>17</ele>
        <time>2022-07-10T09:06:45.000Z</time>
      </trkpt>
      <trkpt lat="47.30281" lon="-2.24044">
        <ele>17</ele>
        <time>2022-07-10T09:06:47.000Z</time>
      </trkpt>
      <trkpt lat="47.30281" lon="-2.24028">
        <ele>16.60000038147</ele>
        <time>2022-07-10T09:06:49.000Z</time>
      </trkpt>
      <trkpt lat="47.3028" lon="-2.2402">
        <ele>16.200000762939</ele>
        <time>2022-07-10T09:06:50.000Z</time>
      </trkpt>
      <trkpt lat="47.30279" lon="-2.24011">
        <ele>15.800000190735</ele>
        <time>2022-07-10T09:06:51.000Z</time>
      </trkpt>
      <trkpt lat="47.30278" lon="-2.24002">
        <ele>15.199999809265</ele>
        <time>2022-07-10T09:06:52.000Z</time>
      </trkpt>
      <trkpt lat="47.30277" lon="-2.23992">
        <ele>14.800000190735</ele>
        <time>2022-07-10T09:06:53.000Z</time>
      </trkpt>
      <trkpt lat="47.30271" lon="-2.23964">
        <ele>14.39999961853</ele>
        <time>2022-07-10T09:06:56.000Z</time>
      </trkpt>
      <trkpt lat="47.30268" lon="-2.23954">
        <ele>14</ele>
        <time>2022-07-10T09:06:57.000Z</time>
      </trkpt>
      <trkpt lat="47.30265" lon="-2.23945">
        <ele>13.60000038147</ele>
        <time>2022-07-10T09:06:58.000Z</time>
      </trkpt>
      <trkpt lat="47.30264" lon="-2.23935">
        <ele>13.199999809265</ele>
        <time>2022-07-10T09:06:59.000Z</time>
      </trkpt>
      <trkpt lat="47.30263" lon="-2.23926">
        <ele>12.800000190735</ele>
        <time>2022-07-10T09:07:00.000Z</time>
      </trkpt>
      <trkpt lat="47.30267" lon="-2.23899">
        <ele>12.39999961853</ele>
        <time>2022-07-10T09:07:03.000Z</time>
      </trkpt>
      <trkpt lat="47.3027" lon="-2.23892">
        <ele>12</ele>
        <time>2022-07-10T09:07:04.000Z</time>
      </trkpt>
      <trkpt lat="47.30274" lon="-2.23887">
        <ele>11.60000038147</ele>
        <time>2022-07-10T09:07:05.000Z</time>
      </trkpt>
      <trkpt lat="47.30278" lon="-2.23884">
        <ele>10.800000190735</ele>
        <time>2022-07-10T09:07:06.000Z</time>
      </trkpt>
      <trkpt lat="47.30283" lon="-2.23882">
        <ele>10.800000190735</ele>
        <time>2022-07-10T09:07:07.000Z</time>
      </trkpt>
      <trkpt lat="47.30312" lon="-2.23877">
        <ele>10.800000190735</ele>
        <time>2022-07-10T09:07:12.000Z</time>
      </trkpt>
      <trkpt lat="47.30346" lon="-2.23861">
        <ele>10.800000190735</ele>
        <time>2022-07-10T09:07:18.000Z</time>
      </trkpt>
      <trkpt lat="47.30398" lon="-2.23849">
        <ele>10.800000190735</ele>
        <time>2022-07-10T09:07:26.000Z</time>
      </trkpt>
      <trkpt lat="47.30436" lon="-2.23842">
        <ele>10.800000190735</ele>
        <time>2022-07-10T09:07:32.000Z</time>
      </trkpt>
      <trkpt lat="47.30486" lon="-2.23837">
        <ele>10.800000190735</ele>
        <time>2022-07-10T09:07:40.000Z</time>
      </trkpt>
      <trkpt lat="47.30504" lon="-2.23846">
        <ele>10.800000190735</ele>
        <time>2022-07-10T09:07:43.000Z</time>
      </trkpt>
      <trkpt lat="47.30519" lon="-2.23864">
        <ele>10.800000190735</ele>
        <time>2022-07-10T09:07:46.000Z</time>
      </trkpt>
      <trkpt lat="47.30524" lon="-2.23871">
        <ele>10.800000190735</ele>
        <time>2022-07-10T09:07:47.000Z</time>
      </trkpt>
      <trkpt lat="47.30551" lon="-2.23911">
        <ele>10.800000190735</ele>
        <time>2022-07-10T09:07:54.000Z</time>
      </trkpt>
      <trkpt lat="47.30558" lon="-2.23921">
        <ele>10.800000190735</ele>
        <time>2022-07-10T09:07:56.000Z</time>
      </trkpt>
      <trkpt lat="47.30563" lon="-2.23933">
        <ele>10.800000190735</ele>
        <time>2022-07-10T09:07:58.000Z</time>
      </trkpt>
      <trkpt lat="47.30566" lon="-2.2394">
        <ele>10.800000190735</ele>
        <time>2022-07-10T09:07:59.000Z</time>
      </trkpt>
      <trkpt lat="47.30581" lon="-2.23974">
        <ele>10.800000190735</ele>
        <time>2022-07-10T09:08:04.000Z</time>
      </trkpt>
      <trkpt lat="47.30585" lon="-2.2398">
        <ele>10.800000190735</ele>
        <time>2022-07-10T09:08:05.000Z</time>
      </trkpt>
      <trkpt lat="47.30617" lon="-2.24015">
        <ele>10.800000190735</ele>
        <time>2022-07-10T09:08:12.000Z</time>
      </trkpt>
      <trkpt lat="47.30641" lon="-2.24047">
        <ele>10.800000190735</ele>
        <time>2022-07-10T09:08:18.000Z</time>
      </trkpt>
      <trkpt lat="47.30647" lon="-2.2406">
        <ele>10.800000190735</ele>
        <time>2022-07-10T09:08:20.000Z</time>
      </trkpt>
      <trkpt lat="47.30652" lon="-2.24082">
        <ele>10.800000190735</ele>
        <time>2022-07-10T09:08:23.000Z</time>
      </trkpt>
      <trkpt lat="47.30653" lon="-2.24098">
        <ele>10.800000190735</ele>
        <time>2022-07-10T09:08:25.000Z</time>
      </trkpt>
      <trkpt lat="47.30655" lon="-2.24115">
        <ele>10.800000190735</ele>
        <time>2022-07-10T09:08:27.000Z</time>
      </trkpt>
      <trkpt lat="47.30657" lon="-2.24123">
        <ele>10.800000190735</ele>
        <time>2022-07-10T09:08:28.000Z</time>
      </trkpt>
      <trkpt lat="47.30669" lon="-2.24151">
        <ele>10.800000190735</ele>
        <time>2022-07-10T09:08:32.000Z</time>
      </trkpt>
      <trkpt lat="47.30672" lon="-2.24158">
        <ele>10.800000190735</ele>
        <time>2022-07-10T09:08:33.000Z</time>
      </trkpt>
      <trkpt lat="47.30677" lon="-2.24173">
        <ele>10.800000190735</ele>
        <time>2022-07-10T09:08:35.000Z</time>
      </trkpt>
      <trkpt lat="47.30678" lon="-2.2419">
        <ele>10.800000190735</ele>
        <time>2022-07-10T09:08:37.000Z</time>
      </trkpt>
      <trkpt lat="47.30674" lon="-2.24215">
        <ele>11.199999809265</ele>
        <time>2022-07-10T09:08:40.000Z</time>
      </trkpt>
      <trkpt lat="47.30672" lon="-2.24223">
        <ele>11.60000038147</ele>
        <time>2022-07-10T09:08:41.000Z</time>
      </trkpt>
      <trkpt lat="47.30671" lon="-2.24231">
        <ele>12.199999809265</ele>
        <time>2022-07-10T09:08:42.000Z</time>
      </trkpt>
      <trkpt lat="47.30668" lon="-2.24239">
        <ele>12.60000038147</ele>
        <time>2022-07-10T09:08:43.000Z</time>
      </trkpt>
      <trkpt lat="47.30666" lon="-2.24248">
        <ele>13.199999809265</ele>
        <time>2022-07-10T09:08:44.000Z</time>
      </trkpt>
      <trkpt lat="47.30664" lon="-2.24256">
        <ele>13.60000038147</ele>
        <time>2022-07-10T09:08:45.000Z</time>
      </trkpt>
      <trkpt lat="47.30662" lon="-2.24264">
        <ele>14</ele>
        <time>2022-07-10T09:08:46.000Z</time>
      </trkpt>
      <trkpt lat="47.30661" lon="-2.24272">
        <ele>14.39999961853</ele>
        <time>2022-07-10T09:08:47.000Z</time>
      </trkpt>
      <trkpt lat="47.3066" lon="-2.24279">
        <ele>15</ele>
        <time>2022-07-10T09:08:48.000Z</time>
      </trkpt>
      <trkpt lat="47.30658" lon="-2.24286">
        <ele>15.39999961853</ele>
        <time>2022-07-10T09:08:49.000Z</time>
      </trkpt>
      <trkpt lat="47.30656" lon="-2.243">
        <ele>15.800000190735</ele>
        <time>2022-07-10T09:08:51.000Z</time>
      </trkpt>
      <trkpt lat="47.30655" lon="-2.24307">
        <ele>16.39999961853</ele>
        <time>2022-07-10T09:08:52.000Z</time>
      </trkpt>
      <trkpt lat="47.30653" lon="-2.24314">
        <ele>16.799999237061</ele>
        <time>2022-07-10T09:08:53.000Z</time>
      </trkpt>
      <trkpt lat="47.30652" lon="-2.24321">
        <ele>17.200000762939</ele>
        <time>2022-07-10T09:08:54.000Z</time>
      </trkpt>
      <trkpt lat="47.30651" lon="-2.24327">
        <ele>17.799999237061</ele>
        <time>2022-07-10T09:08:55.000Z</time>
      </trkpt>
      <trkpt lat="47.30648" lon="-2.24357">
        <ele>18.200000762939</ele>
        <time>2022-07-10T09:08:59.000Z</time>
      </trkpt>
      <trkpt lat="47.30647" lon="-2.24364">
        <ele>18.60000038147</ele>
        <time>2022-07-10T09:09:00.000Z</time>
      </trkpt>
      <trkpt lat="47.30646" lon="-2.24372">
        <ele>19</ele>
        <time>2022-07-10T09:09:01.000Z</time>
      </trkpt>
      <trkpt lat="47.30646" lon="-2.2438">
        <ele>19.39999961853</ele>
        <time>2022-07-10T09:09:02.000Z</time>
      </trkpt>
      <trkpt lat="47.30645" lon="-2.24388">
        <ele>19.799999237061</ele>
        <time>2022-07-10T09:09:03.000Z</time>
      </trkpt>
      <trkpt lat="47.3064" lon="-2.24424">
        <ele>19.799999237061</ele>
        <time>2022-07-10T09:09:07.000Z</time>
      </trkpt>
      <trkpt lat="47.30637" lon="-2.24446">
        <ele>19.799999237061</ele>
        <time>2022-07-10T09:09:09.000Z</time>
      </trkpt>
      <trkpt lat="47.30636" lon="-2.24457">
        <ele>19</ele>
        <time>2022-07-10T09:09:10.000Z</time>
      </trkpt>
      <trkpt lat="47.30635" lon="-2.24468">
        <ele>18.60000038147</ele>
        <time>2022-07-10T09:09:11.000Z</time>
      </trkpt>
      <trkpt lat="47.30634" lon="-2.2448">
        <ele>18.200000762939</ele>
        <time>2022-07-10T09:09:12.000Z</time>
      </trkpt>
      <trkpt lat="47.30633" lon="-2.24491">
        <ele>17.799999237061</ele>
        <time>2022-07-10T09:09:13.000Z</time>
      </trkpt>
      <trkpt lat="47.30631" lon="-2.24504">
        <ele>17.200000762939</ele>
        <time>2022-07-10T09:09:14.000Z</time>
      </trkpt>
      <trkpt lat="47.30629" lon="-2.24517">
        <ele>16.799999237061</ele>
        <time>2022-07-10T09:09:15.000Z</time>
      </trkpt>
      <trkpt lat="47.30627" lon="-2.24531">
        <ele>16.39999961853</ele>
        <time>2022-07-10T09:09:16.000Z</time>
      </trkpt>
      <trkpt lat="47.30625" lon="-2.24545">
        <ele>15.800000190735</ele>
        <time>2022-07-10T09:09:17.000Z</time>
      </trkpt>
      <trkpt lat="47.30623" lon="-2.2456">
        <ele>15.39999961853</ele>
        <time>2022-07-10T09:09:18.000Z</time>
      </trkpt>
      <trkpt lat="47.30622" lon="-2.24574">
        <ele>15</ele>
        <time>2022-07-10T09:09:19.000Z</time>
      </trkpt>
      <trkpt lat="47.3062" lon="-2.24588">
        <ele>14.39999961853</ele>
        <time>2022-07-10T09:09:20.000Z</time>
      </trkpt>
      <trkpt lat="47.3062" lon="-2.24602">
        <ele>14</ele>
        <time>2022-07-10T09:09:21.000Z</time>
      </trkpt>
      <trkpt lat="47.3062" lon="-2.24616">
        <ele>13.60000038147</ele>
        <time>2022-07-10T09:09:22.000Z</time>
      </trkpt>
      <trkpt lat="47.30622" lon="-2.2463">
        <ele>13</ele>
        <time>2022-07-10T09:09:23.000Z</time>
      </trkpt>
      <trkpt lat="47.30628" lon="-2.24654">
        <ele>12.60000038147</ele>
        <time>2022-07-10T09:09:25.000Z</time>
      </trkpt>
      <trkpt lat="47.30632" lon="-2.24666">
        <ele>12.199999809265</ele>
        <time>2022-07-10T09:09:26.000Z</time>
      </trkpt>
      <trkpt lat="47.30635" lon="-2.24677">
        <ele>11.800000190735</ele>
        <time>2022-07-10T09:09:27.000Z</time>
      </trkpt>
      <trkpt lat="47.30638" lon="-2.24688">
        <ele>11.39999961853</ele>
        <time>2022-07-10T09:09:28.000Z</time>
      </trkpt>
      <trkpt lat="47.30641" lon="-2.24699">
        <ele>10.800000190735</ele>
        <time>2022-07-10T09:09:29.000Z</time>
      </trkpt>
      <trkpt lat="47.30653" lon="-2.24741">
        <ele>10.800000190735</ele>
        <time>2022-07-10T09:09:33.000Z</time>
      </trkpt>
      <trkpt lat="47.3066" lon="-2.2476">
        <ele>10.800000190735</ele>
        <time>2022-07-10T09:09:35.000Z</time>
      </trkpt>
      <trkpt lat="47.30673" lon="-2.24784">
        <ele>10.800000190735</ele>
        <time>2022-07-10T09:09:38.000Z</time>
      </trkpt>
      <trkpt lat="47.30686" lon="-2.24806">
        <ele>10.800000190735</ele>
        <time>2022-07-10T09:09:41.000Z</time>
      </trkpt>
      <trkpt lat="47.30696" lon="-2.2482">
        <ele>10.800000190735</ele>
        <time>2022-07-10T09:09:43.000Z</time>
      </trkpt>
      <trkpt lat="47.3072" lon="-2.24856">
        <ele>10.800000190735</ele>
        <time>2022-07-10T09:09:48.000Z</time>
      </trkpt>
      <trkpt lat="47.30749" lon="-2.24888">
        <ele>10.800000190735</ele>
        <time>2022-07-10T09:09:53.000Z</time>
      </trkpt>
      <trkpt lat="47.30786" lon="-2.24903">
        <ele>10.800000190735</ele>
        <time>2022-07-10T09:09:58.000Z</time>
      </trkpt>
      <trkpt lat="47.30818" lon="-2.24915">
        <ele>10.800000190735</ele>
        <time>2022-07-10T09:10:03.000Z</time>
      </trkpt>
      <trkpt lat="47.30824" lon="-2.24916">
        <ele>10.800000190735</ele>
        <time>2022-07-10T09:10:04.000Z</time>
      </trkpt>
      <trkpt lat="47.30847" lon="-2.24908">
        <ele>10.800000190735</ele>
        <time>2022-07-10T09:10:08.000Z</time>
      </trkpt>
      <trkpt lat="47.30867" lon="-2.24884">
        <ele>10.800000190735</ele>
        <time>2022-07-10T09:10:12.000Z</time>
      </trkpt>
      <trkpt lat="47.30903" lon="-2.24835">
        <ele>10.800000190735</ele>
        <time>2022-07-10T09:10:19.000Z</time>
      </trkpt>
      <trkpt lat="47.30938" lon="-2.24787">
        <ele>10.800000190735</ele>
        <time>2022-07-10T09:10:26.000Z</time>
      </trkpt>
      <trkpt lat="47.30964" lon="-2.2476">
        <ele>10.800000190735</ele>
        <time>2022-07-10T09:10:31.000Z</time>
      </trkpt>
      <trkpt lat="47.30976" lon="-2.24752">
        <ele>10.800000190735</ele>
        <time>2022-07-10T09:10:33.000Z</time>
      </trkpt>
      <trkpt lat="47.30989" lon="-2.24748">
        <ele>10.800000190735</ele>
        <time>2022-07-10T09:10:35.000Z</time>
      </trkpt>
      <trkpt lat="47.3101" lon="-2.24748">
        <ele>10.800000190735</ele>
        <time>2022-07-10T09:10:38.000Z</time>
      </trkpt>
      <trkpt lat="47.31024" lon="-2.24751">
        <ele>10.800000190735</ele>
        <time>2022-07-10T09:10:40.000Z</time>
      </trkpt>
      <trkpt lat="47.3106" lon="-2.24765">
        <ele>10.800000190735</ele>
        <time>2022-07-10T09:10:46.000Z</time>
      </trkpt>
      <trkpt lat="47.31066" lon="-2.24767">
        <ele>10.800000190735</ele>
        <time>2022-07-10T09:10:47.000Z</time>
      </trkpt>
      <trkpt lat="47.31088" lon="-2.24772">
        <ele>10.800000190735</ele>
        <time>2022-07-10T09:10:51.000Z</time>
      </trkpt>
      <trkpt lat="47.31117" lon="-2.24773">
        <ele>10.800000190735</ele>
        <time>2022-07-10T09:10:56.000Z</time>
      </trkpt>
      <trkpt lat="47.31122" lon="-2.24774">
        <ele>10.800000190735</ele>
        <time>2022-07-10T09:10:57.000Z</time>
      </trkpt>
      <trkpt lat="47.31132" lon="-2.24775">
        <ele>10.800000190735</ele>
        <time>2022-07-10T09:10:59.000Z</time>
      </trkpt>
      <trkpt lat="47.3114" lon="-2.24772">
        <ele>10.800000190735</ele>
        <time>2022-07-10T09:11:01.000Z</time>
      </trkpt>
      <trkpt lat="47.31153" lon="-2.24763">
        <ele>10.800000190735</ele>
        <time>2022-07-10T09:11:05.000Z</time>
      </trkpt>
      <trkpt lat="47.31156" lon="-2.24759">
        <ele>10.800000190735</ele>
        <time>2022-07-10T09:11:06.000Z</time>
      </trkpt>
      <trkpt lat="47.31172" lon="-2.24733">
        <ele>10.800000190735</ele>
        <time>2022-07-10T09:11:11.000Z</time>
      </trkpt>
      <trkpt lat="47.31175" lon="-2.24727">
        <ele>10.800000190735</ele>
        <time>2022-07-10T09:11:12.000Z</time>
      </trkpt>
      <trkpt lat="47.31177" lon="-2.24711">
        <ele>10.800000190735</ele>
        <time>2022-07-10T09:11:14.000Z</time>
      </trkpt>
      <trkpt lat="47.31186" lon="-2.24692">
        <ele>10.800000190735</ele>
        <time>2022-07-10T09:11:17.000Z</time>
      </trkpt>
      <trkpt lat="47.31194" lon="-2.24681">
        <ele>10.800000190735</ele>
        <time>2022-07-10T09:11:19.000Z</time>
      </trkpt>
      <trkpt lat="47.31208" lon="-2.24663">
        <ele>10.800000190735</ele>
        <time>2022-07-10T09:11:22.000Z</time>
      </trkpt>
      <trkpt lat="47.31237" lon="-2.24633">
        <ele>10.800000190735</ele>
        <time>2022-07-10T09:11:28.000Z</time>
      </trkpt>
      <trkpt lat="47.31245" lon="-2.24622">
        <ele>10.800000190735</ele>
        <time>2022-07-10T09:11:30.000Z</time>
      </trkpt>
      <trkpt lat="47.31254" lon="-2.24613">
        <ele>10.800000190735</ele>
        <time>2022-07-10T09:11:32.000Z</time>
      </trkpt>
      <trkpt lat="47.31285" lon="-2.24584">
        <ele>10.800000190735</ele>
        <time>2022-07-10T09:11:38.000Z</time>
      </trkpt>
      <trkpt lat="47.31319" lon="-2.24547">
        <ele>10.800000190735</ele>
        <time>2022-07-10T09:11:45.000Z</time>
      </trkpt>
      <trkpt lat="47.31324" lon="-2.24542">
        <ele>10.800000190735</ele>
        <time>2022-07-10T09:11:46.000Z</time>
      </trkpt>
      <trkpt lat="47.31345" lon="-2.24524">
        <ele>10.800000190735</ele>
        <time>2022-07-10T09:11:50.000Z</time>
      </trkpt>
      <trkpt lat="47.31363" lon="-2.24504">
        <ele>10.800000190735</ele>
        <time>2022-07-10T09:11:54.000Z</time>
      </trkpt>
      <trkpt lat="47.31367" lon="-2.24498">
        <ele>10.800000190735</ele>
        <time>2022-07-10T09:11:55.000Z</time>
      </trkpt>
      <trkpt lat="47.31401" lon="-2.24464">
        <ele>10.800000190735</ele>
        <time>2022-07-10T09:12:02.000Z</time>
      </trkpt>
      <trkpt lat="47.31425" lon="-2.24438">
        <ele>10.800000190735</ele>
        <time>2022-07-10T09:12:07.000Z</time>
      </trkpt>
      <trkpt lat="47.31434" lon="-2.24427">
        <ele>10.800000190735</ele>
        <time>2022-07-10T09:12:09.000Z</time>
      </trkpt>
      <trkpt lat="47.31458" lon="-2.24398">
        <ele>10.800000190735</ele>
        <time>2022-07-10T09:12:14.000Z</time>
      </trkpt>
      <trkpt lat="47.31463" lon="-2.24393">
        <ele>10.800000190735</ele>
        <time>2022-07-10T09:12:15.000Z</time>
      </trkpt>
      <trkpt lat="47.31479" lon="-2.24385">
        <ele>10.800000190735</ele>
        <time>2022-07-10T09:12:18.000Z</time>
      </trkpt>
      <trkpt lat="47.31484" lon="-2.24382">
        <ele>10.800000190735</ele>
        <time>2022-07-10T09:12:19.000Z</time>
      </trkpt>
      <trkpt lat="47.31488" lon="-2.24379">
        <ele>10.800000190735</ele>
        <time>2022-07-10T09:12:20.000Z</time>
      </trkpt>
      <trkpt lat="47.31498" lon="-2.24375">
        <ele>10.800000190735</ele>
        <time>2022-07-10T09:12:23.000Z</time>
      </trkpt>
      <trkpt lat="47.31501" lon="-2.24374">
        <ele>10.800000190735</ele>
        <time>2022-07-10T09:12:24.000Z</time>
      </trkpt>
      <trkpt lat="47.31511" lon="-2.24369">
        <ele>10.800000190735</ele>
        <time>2022-07-10T09:12:29.000Z</time>
      </trkpt>
      <trkpt lat="47.31512" lon="-2.24369">
        <ele>10.800000190735</ele>
        <time>2022-07-10T09:12:32.000Z</time>
      </trkpt>
      <trkpt lat="47.31511" lon="-2.24367">
        <ele>10.800000190735</ele>
        <time>2022-07-10T09:14:44.000Z</time>
      </trkpt>
      <trkpt lat="47.3151" lon="-2.24365">
        <ele>10.800000190735</ele>
        <time>2022-07-10T09:14:45.000Z</time>
      </trkpt>
      <trkpt lat="47.31505" lon="-2.24358">
        <ele>10.800000190735</ele>
        <time>2022-07-10T09:14:50.000Z</time>
      </trkpt>
      <trkpt lat="47.31499" lon="-2.24349">
        <ele>10.800000190735</ele>
        <time>2022-07-10T09:14:56.000Z</time>
      </trkpt>
      <trkpt lat="47.31498" lon="-2.24344">
        <ele>10.800000190735</ele>
        <time>2022-07-10T09:15:00.000Z</time>
      </trkpt>
      <trkpt lat="47.31495" lon="-2.24337">
        <ele>10.800000190735</ele>
        <time>2022-07-10T09:15:11.000Z</time>
      </trkpt>
      <trkpt lat="47.31494" lon="-2.24335">
        <ele>10.800000190735</ele>
        <time>2022-07-10T09:15:12.000Z</time>
      </trkpt>
      <trkpt lat="47.31483" lon="-2.24313">
        <ele>10.800000190735</ele>
        <time>2022-07-10T09:15:19.000Z</time>
      </trkpt>
      <trkpt lat="47.31489" lon="-2.24296">
        <ele>10.800000190735</ele>
        <time>2022-07-10T09:15:23.000Z</time>
      </trkpt>
      <trkpt lat="47.31501" lon="-2.24279">
        <ele>10.800000190735</ele>
        <time>2022-07-10T09:15:28.000Z</time>
      </trkpt>
      <trkpt lat="47.31521" lon="-2.24272">
        <ele>10.800000190735</ele>
        <time>2022-07-10T09:15:34.000Z</time>
      </trkpt>
      <trkpt lat="47.31538" lon="-2.24279">
        <ele>10.800000190735</ele>
        <time>2022-07-10T09:15:38.000Z</time>
      </trkpt>
      <trkpt lat="47.31543" lon="-2.24282">
        <ele>10.800000190735</ele>
        <time>2022-07-10T09:15:39.000Z</time>
      </trkpt>
      <trkpt lat="47.31553" lon="-2.24295">
        <ele>10.800000190735</ele>
        <time>2022-07-10T09:15:42.000Z</time>
      </trkpt>
      <trkpt lat="47.31572" lon="-2.24324">
        <ele>10.800000190735</ele>
        <time>2022-07-10T09:15:48.000Z</time>
      </trkpt>
      <trkpt lat="47.31579" lon="-2.24331">
        <ele>10.800000190735</ele>
        <time>2022-07-10T09:15:50.000Z</time>
      </trkpt>
      <trkpt lat="47.31585" lon="-2.24336">
        <ele>10.800000190735</ele>
        <time>2022-07-10T09:15:52.000Z</time>
      </trkpt>
      <trkpt lat="47.31599" lon="-2.24358">
        <ele>10.800000190735</ele>
        <time>2022-07-10T09:15:57.000Z</time>
      </trkpt>
      <trkpt lat="47.316" lon="-2.24378">
        <ele>10.800000190735</ele>
        <time>2022-07-10T09:16:01.000Z</time>
      </trkpt>
      <trkpt lat="47.31607" lon="-2.24406">
        <ele>10.800000190735</ele>
        <time>2022-07-10T09:16:06.000Z</time>
      </trkpt>
      <trkpt lat="47.31623" lon="-2.24431">
        <ele>10.800000190735</ele>
        <time>2022-07-10T09:16:12.000Z</time>
      </trkpt>
      <trkpt lat="47.31626" lon="-2.24434">
        <ele>10.800000190735</ele>
        <time>2022-07-10T09:16:13.000Z</time>
      </trkpt>
      <trkpt lat="47.31637" lon="-2.24433">
        <ele>10.800000190735</ele>
        <time>2022-07-10T09:16:16.000Z</time>
      </trkpt>
      <trkpt lat="47.3166" lon="-2.24438">
        <ele>10.800000190735</ele>
        <time>2022-07-10T09:16:22.000Z</time>
      </trkpt>
      <trkpt lat="47.31665" lon="-2.24443">
        <ele>10.39999961853</ele>
        <time>2022-07-10T09:16:24.000Z</time>
      </trkpt>
      <trkpt lat="47.31665" lon="-2.24446">
        <ele>10</ele>
        <time>2022-07-10T09:16:25.000Z</time>
      </trkpt>
      <trkpt lat="47.31664" lon="-2.24449">
        <ele>9.6000003814697</ele>
        <time>2022-07-10T09:16:26.000Z</time>
      </trkpt>
      <trkpt lat="47.31662" lon="-2.24451">
        <ele>9.1999998092651</ele>
        <time>2022-07-10T09:16:27.000Z</time>
      </trkpt>
      <trkpt lat="47.3166" lon="-2.24452">
        <ele>8.8000001907349</ele>
        <time>2022-07-10T09:16:28.000Z</time>
      </trkpt>
      <trkpt lat="47.31652" lon="-2.24457">
        <ele>8.8000001907349</ele>
        <time>2022-07-10T09:16:31.000Z</time>
      </trkpt>
      <trkpt lat="47.31636" lon="-2.24466">
        <ele>8.8000001907349</ele>
        <time>2022-07-10T09:16:36.000Z</time>
      </trkpt>
      <trkpt lat="47.31632" lon="-2.24471">
        <ele>8.8000001907349</ele>
        <time>2022-07-10T09:16:38.000Z</time>
      </trkpt>
      <trkpt lat="47.31623" lon="-2.24475">
        <ele>8.8000001907349</ele>
        <time>2022-07-10T09:16:41.000Z</time>
      </trkpt>
      <trkpt lat="47.31613" lon="-2.24481">
        <ele>8.8000001907349</ele>
        <time>2022-07-10T09:16:45.000Z</time>
      </trkpt>
      <trkpt lat="47.31613" lon="-2.24485">
        <ele>8.8000001907349</ele>
        <time>2022-07-10T09:16:46.000Z</time>
      </trkpt>
      <trkpt lat="47.31607" lon="-2.24504">
        <ele>8.8000001907349</ele>
        <time>2022-07-10T09:16:52.000Z</time>
      </trkpt>
      <trkpt lat="47.31594" lon="-2.24508">
        <ele>8.8000001907349</ele>
        <time>2022-07-10T09:16:56.000Z</time>
      </trkpt>
      <trkpt lat="47.31583" lon="-2.24501">
        <ele>8.8000001907349</ele>
        <time>2022-07-10T09:17:00.000Z</time>
      </trkpt>
      <trkpt lat="47.31575" lon="-2.24494">
        <ele>8.8000001907349</ele>
        <time>2022-07-10T09:17:03.000Z</time>
      </trkpt>
      <trkpt lat="47.31571" lon="-2.24496">
        <ele>8.8000001907349</ele>
        <time>2022-07-10T09:17:05.000Z</time>
      </trkpt>
      <trkpt lat="47.31568" lon="-2.24492">
        <ele>8.8000001907349</ele>
        <time>2022-07-10T09:17:10.000Z</time>
      </trkpt>
      <trkpt lat="47.31571" lon="-2.24489">
        <ele>8.8000001907349</ele>
        <time>2022-07-10T09:17:13.000Z</time>
      </trkpt>
      <trkpt lat="47.31575" lon="-2.24486">
        <ele>8.8000001907349</ele>
        <time>2022-07-10T09:17:15.000Z</time>
      </trkpt>
      <trkpt lat="47.31587" lon="-2.24469">
        <ele>8.8000001907349</ele>
        <time>2022-07-10T09:17:19.000Z</time>
      </trkpt>
      <trkpt lat="47.31603" lon="-2.2445">
        <ele>8.8000001907349</ele>
        <time>2022-07-10T09:17:25.000Z</time>
      </trkpt>
      <trkpt lat="47.31616" lon="-2.24435">
        <ele>8.8000001907349</ele>
        <time>2022-07-10T09:17:30.000Z</time>
      </trkpt>
      <trkpt lat="47.3161" lon="-2.2442">
        <ele>8.8000001907349</ele>
        <time>2022-07-10T09:17:34.000Z</time>
      </trkpt>
      <trkpt lat="47.31591" lon="-2.24416">
        <ele>8.8000001907349</ele>
        <time>2022-07-10T09:17:39.000Z</time>
      </trkpt>
      <trkpt lat="47.31586" lon="-2.24416">
        <ele>8.8000001907349</ele>
        <time>2022-07-10T09:17:40.000Z</time>
      </trkpt>
      <trkpt lat="47.31573" lon="-2.24408">
        <ele>8.8000001907349</ele>
        <time>2022-07-10T09:17:43.000Z</time>
      </trkpt>
      <trkpt lat="47.31558" lon="-2.24393">
        <ele>8.8000001907349</ele>
        <time>2022-07-10T09:17:48.000Z</time>
      </trkpt>
      <trkpt lat="47.3154" lon="-2.24389">
        <ele>8.8000001907349</ele>
        <time>2022-07-10T09:17:53.000Z</time>
      </trkpt>
      <trkpt lat="47.31522" lon="-2.24387">
        <ele>8.8000001907349</ele>
        <time>2022-07-10T09:17:59.000Z</time>
      </trkpt>
      <trkpt lat="47.31519" lon="-2.24388">
        <ele>8.8000001907349</ele>
        <time>2022-07-10T09:18:02.000Z</time>
      </trkpt>
      <trkpt lat="47.31505" lon="-2.24378">
        <ele>8.8000001907349</ele>
        <time>2022-07-10T09:20:10.000Z</time>
      </trkpt>
      <trkpt lat="47.31504" lon="-2.24378">
        <ele>8.8000001907349</ele>
        <time>2022-07-10T09:20:11.000Z</time>
      </trkpt>
      <trkpt lat="47.31489" lon="-2.24381">
        <ele>8.8000001907349</ele>
        <time>2022-07-10T09:20:18.000Z</time>
      </trkpt>
      <trkpt lat="47.31474" lon="-2.24389">
        <ele>8.8000001907349</ele>
        <time>2022-07-10T09:20:23.000Z</time>
      </trkpt>
      <trkpt lat="47.3146" lon="-2.24397">
        <ele>8.8000001907349</ele>
        <time>2022-07-10T09:20:26.000Z</time>
      </trkpt>
      <trkpt lat="47.3145" lon="-2.24409">
        <ele>8.8000001907349</ele>
        <time>2022-07-10T09:20:28.000Z</time>
      </trkpt>
      <trkpt lat="47.31417" lon="-2.2445">
        <ele>8.8000001907349</ele>
        <time>2022-07-10T09:20:36.000Z</time>
      </trkpt>
      <trkpt lat="47.31382" lon="-2.24482">
        <ele>8.8000001907349</ele>
        <time>2022-07-10T09:20:43.000Z</time>
      </trkpt>
      <trkpt lat="47.31358" lon="-2.24512">
        <ele>8.8000001907349</ele>
        <time>2022-07-10T09:20:49.000Z</time>
      </trkpt>
      <trkpt lat="47.31344" lon="-2.24526">
        <ele>8.8000001907349</ele>
        <time>2022-07-10T09:20:52.000Z</time>
      </trkpt>
      <trkpt lat="47.3133" lon="-2.24539">
        <ele>8.8000001907349</ele>
        <time>2022-07-10T09:20:55.000Z</time>
      </trkpt>
      <trkpt lat="47.31325" lon="-2.24543">
        <ele>9.1999998092651</ele>
        <time>2022-07-10T09:20:56.000Z</time>
      </trkpt>
      <trkpt lat="47.3132" lon="-2.24548">
        <ele>9.6000003814697</ele>
        <time>2022-07-10T09:20:57.000Z</time>
      </trkpt>
      <trkpt lat="47.31315" lon="-2.24552">
        <ele>10</ele>
        <time>2022-07-10T09:20:58.000Z</time>
      </trkpt>
      <trkpt lat="47.3131" lon="-2.24557">
        <ele>10.39999961853</ele>
        <time>2022-07-10T09:20:59.000Z</time>
      </trkpt>
      <trkpt lat="47.31306" lon="-2.24562">
        <ele>10.800000190735</ele>
        <time>2022-07-10T09:21:00.000Z</time>
      </trkpt>
      <trkpt lat="47.31296" lon="-2.24572">
        <ele>10.800000190735</ele>
        <time>2022-07-10T09:21:02.000Z</time>
      </trkpt>
      <trkpt lat="47.31268" lon="-2.246">
        <ele>10.800000190735</ele>
        <time>2022-07-10T09:21:08.000Z</time>
      </trkpt>
      <trkpt lat="47.31252" lon="-2.24615">
        <ele>10.800000190735</ele>
        <time>2022-07-10T09:21:12.000Z</time>
      </trkpt>
      <trkpt lat="47.3124" lon="-2.24626">
        <ele>10.800000190735</ele>
        <time>2022-07-10T09:21:15.000Z</time>
      </trkpt>
      <trkpt lat="47.31237" lon="-2.24631">
        <ele>10.800000190735</ele>
        <time>2022-07-10T09:21:16.000Z</time>
      </trkpt>
      <trkpt lat="47.31225" lon="-2.24647">
        <ele>10.800000190735</ele>
        <time>2022-07-10T09:21:19.000Z</time>
      </trkpt>
      <trkpt lat="47.31216" lon="-2.24656">
        <ele>10.800000190735</ele>
        <time>2022-07-10T09:21:21.000Z</time>
      </trkpt>
      <trkpt lat="47.31201" lon="-2.24671">
        <ele>10.800000190735</ele>
        <time>2022-07-10T09:21:24.000Z</time>
      </trkpt>
      <trkpt lat="47.31197" lon="-2.24676">
        <ele>10.800000190735</ele>
        <time>2022-07-10T09:21:25.000Z</time>
      </trkpt>
      <trkpt lat="47.31176" lon="-2.24707">
        <ele>10.800000190735</ele>
        <time>2022-07-10T09:21:30.000Z</time>
      </trkpt>
      <trkpt lat="47.31175" lon="-2.24716">
        <ele>10.800000190735</ele>
        <time>2022-07-10T09:21:31.000Z</time>
      </trkpt>
      <trkpt lat="47.3117" lon="-2.24737">
        <ele>10.800000190735</ele>
        <time>2022-07-10T09:21:34.000Z</time>
      </trkpt>
      <trkpt lat="47.31163" lon="-2.24747">
        <ele>10.800000190735</ele>
        <time>2022-07-10T09:21:36.000Z</time>
      </trkpt>
      <trkpt lat="47.31156" lon="-2.24757">
        <ele>10.39999961853</ele>
        <time>2022-07-10T09:21:38.000Z</time>
      </trkpt>
      <trkpt lat="47.31152" lon="-2.24762">
        <ele>10</ele>
        <time>2022-07-10T09:21:39.000Z</time>
      </trkpt>
      <trkpt lat="47.31148" lon="-2.24768">
        <ele>9.3999996185303</ele>
        <time>2022-07-10T09:21:40.000Z</time>
      </trkpt>
      <trkpt lat="47.31144" lon="-2.24772">
        <ele>9</ele>
        <time>2022-07-10T09:21:41.000Z</time>
      </trkpt>
      <trkpt lat="47.31139" lon="-2.24774">
        <ele>8.6000003814697</ele>
        <time>2022-07-10T09:21:42.000Z</time>
      </trkpt>
      <trkpt lat="47.31135" lon="-2.24776">
        <ele>8.6000003814697</ele>
        <time>2022-07-10T09:21:43.000Z</time>
      </trkpt>
      <trkpt lat="47.31131" lon="-2.24782">
        <ele>8.6000003814697</ele>
        <time>2022-07-10T09:21:44.000Z</time>
      </trkpt>
      <trkpt lat="47.3113" lon="-2.24789">
        <ele>8.6000003814697</ele>
        <time>2022-07-10T09:21:45.000Z</time>
      </trkpt>
      <trkpt lat="47.31134" lon="-2.24813">
        <ele>8.6000003814697</ele>
        <time>2022-07-10T09:21:48.000Z</time>
      </trkpt>
      <trkpt lat="47.31136" lon="-2.24821">
        <ele>8.6000003814697</ele>
        <time>2022-07-10T09:21:49.000Z</time>
      </trkpt>
      <trkpt lat="47.31145" lon="-2.24865">
        <ele>8.6000003814697</ele>
        <time>2022-07-10T09:21:54.000Z</time>
      </trkpt>
      <trkpt lat="47.31148" lon="-2.24874">
        <ele>8.6000003814697</ele>
        <time>2022-07-10T09:21:55.000Z</time>
      </trkpt>
      <trkpt lat="47.31157" lon="-2.24907">
        <ele>8.6000003814697</ele>
        <time>2022-07-10T09:21:59.000Z</time>
      </trkpt>
      <trkpt lat="47.31164" lon="-2.24968">
        <ele>8.6000003814697</ele>
        <time>2022-07-10T09:22:06.000Z</time>
      </trkpt>
      <trkpt lat="47.31165" lon="-2.24993">
        <ele>8.6000003814697</ele>
        <time>2022-07-10T09:22:09.000Z</time>
      </trkpt>
      <trkpt lat="47.31161" lon="-2.25008">
        <ele>8.6000003814697</ele>
        <time>2022-07-10T09:22:11.000Z</time>
      </trkpt>
      <trkpt lat="47.31145" lon="-2.25025">
        <ele>8.6000003814697</ele>
        <time>2022-07-10T09:22:14.000Z</time>
      </trkpt>
      <trkpt lat="47.31139" lon="-2.25029">
        <ele>8.6000003814697</ele>
        <time>2022-07-10T09:22:15.000Z</time>
      </trkpt>
      <trkpt lat="47.31112" lon="-2.25048">
        <ele>8.6000003814697</ele>
        <time>2022-07-10T09:22:20.000Z</time>
      </trkpt>
      <trkpt lat="47.31079" lon="-2.25069">
        <ele>9.1999998092651</ele>
        <time>2022-07-10T09:22:26.000Z</time>
      </trkpt>
      <trkpt lat="47.31073" lon="-2.25072">
        <ele>9.6000003814697</ele>
        <time>2022-07-10T09:22:27.000Z</time>
      </trkpt>
      <trkpt lat="47.31068" lon="-2.25076">
        <ele>10</ele>
        <time>2022-07-10T09:22:28.000Z</time>
      </trkpt>
      <trkpt lat="47.31063" lon="-2.25081">
        <ele>10.39999961853</ele>
        <time>2022-07-10T09:22:29.000Z</time>
      </trkpt>
      <trkpt lat="47.31057" lon="-2.25088">
        <ele>10.800000190735</ele>
        <time>2022-07-10T09:22:30.000Z</time>
      </trkpt>
      <trkpt lat="47.31048" lon="-2.25104">
        <ele>10.800000190735</ele>
        <time>2022-07-10T09:22:32.000Z</time>
      </trkpt>
      <trkpt lat="47.31044" lon="-2.25112">
        <ele>10.800000190735</ele>
        <time>2022-07-10T09:22:33.000Z</time>
      </trkpt>
      <trkpt lat="47.31027" lon="-2.25144">
        <ele>10.800000190735</ele>
        <time>2022-07-10T09:22:37.000Z</time>
      </trkpt>
      <trkpt lat="47.31017" lon="-2.25159">
        <ele>10.800000190735</ele>
        <time>2022-07-10T09:22:39.000Z</time>
      </trkpt>
      <trkpt lat="47.31009" lon="-2.25174">
        <ele>10.800000190735</ele>
        <time>2022-07-10T09:22:41.000Z</time>
      </trkpt>
      <trkpt lat="47.31004" lon="-2.25189">
        <ele>10.800000190735</ele>
        <time>2022-07-10T09:22:43.000Z</time>
      </trkpt>
      <trkpt lat="47.31002" lon="-2.25197">
        <ele>10.800000190735</ele>
        <time>2022-07-10T09:22:44.000Z</time>
      </trkpt>
      <trkpt lat="47.31001" lon="-2.25218">
        <ele>10.800000190735</ele>
        <time>2022-07-10T09:22:47.000Z</time>
      </trkpt>
      <trkpt lat="47.30998" lon="-2.25234">
        <ele>10.800000190735</ele>
        <time>2022-07-10T09:22:50.000Z</time>
      </trkpt>
      <trkpt lat="47.30995" lon="-2.25243">
        <ele>10.800000190735</ele>
        <time>2022-07-10T09:22:52.000Z</time>
      </trkpt>
      <trkpt lat="47.30992" lon="-2.25254">
        <ele>10.800000190735</ele>
        <time>2022-07-10T09:22:54.000Z</time>
      </trkpt>
      <trkpt lat="47.30987" lon="-2.25271">
        <ele>10.800000190735</ele>
        <time>2022-07-10T09:22:57.000Z</time>
      </trkpt>
      <trkpt lat="47.30974" lon="-2.25291">
        <ele>10.800000190735</ele>
        <time>2022-07-10T09:23:01.000Z</time>
      </trkpt>
      <trkpt lat="47.30972" lon="-2.25298">
        <ele>10.800000190735</ele>
        <time>2022-07-10T09:23:02.000Z</time>
      </trkpt>
      <trkpt lat="47.30966" lon="-2.25328">
        <ele>10.800000190735</ele>
        <time>2022-07-10T09:23:07.000Z</time>
      </trkpt>
      <trkpt lat="47.30964" lon="-2.25334">
        <ele>11.199999809265</ele>
        <time>2022-07-10T09:23:08.000Z</time>
      </trkpt>
      <trkpt lat="47.30963" lon="-2.2534">
        <ele>11.60000038147</ele>
        <time>2022-07-10T09:23:09.000Z</time>
      </trkpt>
      <trkpt lat="47.30961" lon="-2.25345">
        <ele>12</ele>
        <time>2022-07-10T09:23:10.000Z</time>
      </trkpt>
      <trkpt lat="47.3096" lon="-2.25351">
        <ele>12.39999961853</ele>
        <time>2022-07-10T09:23:11.000Z</time>
      </trkpt>
      <trkpt lat="47.30958" lon="-2.25356">
        <ele>12.800000190735</ele>
        <time>2022-07-10T09:23:12.000Z</time>
      </trkpt>
      <trkpt lat="47.30956" lon="-2.25362">
        <ele>12.800000190735</ele>
        <time>2022-07-10T09:23:13.000Z</time>
      </trkpt>
      <trkpt lat="47.30944" lon="-2.2539">
        <ele>12.800000190735</ele>
        <time>2022-07-10T09:23:18.000Z</time>
      </trkpt>
      <trkpt lat="47.30931" lon="-2.25394">
        <ele>12.800000190735</ele>
        <time>2022-07-10T09:23:21.000Z</time>
      </trkpt>
      <trkpt lat="47.3092" lon="-2.25394">
        <ele>12.800000190735</ele>
        <time>2022-07-10T09:23:23.000Z</time>
      </trkpt>
      <trkpt lat="47.30904" lon="-2.25395">
        <ele>12.800000190735</ele>
        <time>2022-07-10T09:23:26.000Z</time>
      </trkpt>
      <trkpt lat="47.30888" lon="-2.25396">
        <ele>13.199999809265</ele>
        <time>2022-07-10T09:23:29.000Z</time>
      </trkpt>
      <trkpt lat="47.30882" lon="-2.25396">
        <ele>13.60000038147</ele>
        <time>2022-07-10T09:23:30.000Z</time>
      </trkpt>
      <trkpt lat="47.30877" lon="-2.25397">
        <ele>14</ele>
        <time>2022-07-10T09:23:31.000Z</time>
      </trkpt>
      <trkpt lat="47.30872" lon="-2.25399">
        <ele>14.60000038147</ele>
        <time>2022-07-10T09:23:32.000Z</time>
      </trkpt>
      <trkpt lat="47.30867" lon="-2.25401">
        <ele>15</ele>
        <time>2022-07-10T09:23:33.000Z</time>
      </trkpt>
      <trkpt lat="47.30858" lon="-2.25412">
        <ele>15</ele>
        <time>2022-07-10T09:23:35.000Z</time>
      </trkpt>
      <trkpt lat="47.30857" lon="-2.25434">
        <ele>15</ele>
        <time>2022-07-10T09:23:38.000Z</time>
      </trkpt>
      <trkpt lat="47.30859" lon="-2.25449">
        <ele>15</ele>
        <time>2022-07-10T09:23:40.000Z</time>
      </trkpt>
      <trkpt lat="47.30862" lon="-2.25474">
        <ele>15</ele>
        <time>2022-07-10T09:23:43.000Z</time>
      </trkpt>
      <trkpt lat="47.30871" lon="-2.25544">
        <ele>15</ele>
        <time>2022-07-10T09:23:52.000Z</time>
      </trkpt>
      <trkpt lat="47.30876" lon="-2.25595">
        <ele>15</ele>
        <time>2022-07-10T09:23:58.000Z</time>
      </trkpt>
      <trkpt lat="47.30879" lon="-2.25639">
        <ele>15.39999961853</ele>
        <time>2022-07-10T09:24:03.000Z</time>
      </trkpt>
      <trkpt lat="47.3088" lon="-2.25648">
        <ele>15.800000190735</ele>
        <time>2022-07-10T09:24:04.000Z</time>
      </trkpt>
      <trkpt lat="47.30881" lon="-2.25656">
        <ele>16.200000762939</ele>
        <time>2022-07-10T09:24:05.000Z</time>
      </trkpt>
      <trkpt lat="47.30882" lon="-2.25664">
        <ele>16.60000038147</ele>
        <time>2022-07-10T09:24:06.000Z</time>
      </trkpt>
      <trkpt lat="47.30882" lon="-2.25673">
        <ele>17</ele>
        <time>2022-07-10T09:24:07.000Z</time>
      </trkpt>
      <trkpt lat="47.30881" lon="-2.25707">
        <ele>17</ele>
        <time>2022-07-10T09:24:11.000Z</time>
      </trkpt>
      <trkpt lat="47.30881" lon="-2.25732">
        <ele>17</ele>
        <time>2022-07-10T09:24:14.000Z</time>
      </trkpt>
      <trkpt lat="47.30884" lon="-2.25765">
        <ele>17</ele>
        <time>2022-07-10T09:24:18.000Z</time>
      </trkpt>
      <trkpt lat="47.30895" lon="-2.25808">
        <ele>17</ele>
        <time>2022-07-10T09:24:24.000Z</time>
      </trkpt>
      <trkpt lat="47.30906" lon="-2.25838">
        <ele>17</ele>
        <time>2022-07-10T09:24:29.000Z</time>
      </trkpt>
      <trkpt lat="47.30911" lon="-2.25851">
        <ele>17</ele>
        <time>2022-07-10T09:24:31.000Z</time>
      </trkpt>
      <trkpt lat="47.30917" lon="-2.25873">
        <ele>17</ele>
        <time>2022-07-10T09:24:34.000Z</time>
      </trkpt>
      <trkpt lat="47.30914" lon="-2.25888">
        <ele>17</ele>
        <time>2022-07-10T09:24:36.000Z</time>
      </trkpt>
      <trkpt lat="47.30901" lon="-2.25903">
        <ele>17</ele>
        <time>2022-07-10T09:24:39.000Z</time>
      </trkpt>
      <trkpt lat="47.30872" lon="-2.25939">
        <ele>17</ele>
        <time>2022-07-10T09:24:45.000Z</time>
      </trkpt>
      <trkpt lat="47.30826" lon="-2.25993">
        <ele>17</ele>
        <time>2022-07-10T09:24:54.000Z</time>
      </trkpt>
      <trkpt lat="47.30797" lon="-2.26021">
        <ele>17</ele>
        <time>2022-07-10T09:25:00.000Z</time>
      </trkpt>
      <trkpt lat="47.30768" lon="-2.2604">
        <ele>17</ele>
        <time>2022-07-10T09:25:06.000Z</time>
      </trkpt>
      <trkpt lat="47.30728" lon="-2.26062">
        <ele>17</ele>
        <time>2022-07-10T09:25:13.000Z</time>
      </trkpt>
      <trkpt lat="47.30681" lon="-2.26085">
        <ele>17</ele>
        <time>2022-07-10T09:25:21.000Z</time>
      </trkpt>
      <trkpt lat="47.30642" lon="-2.26106">
        <ele>17</ele>
        <time>2022-07-10T09:25:28.000Z</time>
      </trkpt>
      <trkpt lat="47.30628" lon="-2.26117">
        <ele>17</ele>
        <time>2022-07-10T09:25:31.000Z</time>
      </trkpt>
      <trkpt lat="47.30624" lon="-2.26123">
        <ele>17</ele>
        <time>2022-07-10T09:25:32.000Z</time>
      </trkpt>
      <trkpt lat="47.30597" lon="-2.26173">
        <ele>17</ele>
        <time>2022-07-10T09:25:39.000Z</time>
      </trkpt>
      <trkpt lat="47.30585" lon="-2.26205">
        <ele>17</ele>
        <time>2022-07-10T09:25:43.000Z</time>
      </trkpt>
      <trkpt lat="47.30583" lon="-2.2622">
        <ele>17</ele>
        <time>2022-07-10T09:25:45.000Z</time>
      </trkpt>
      <trkpt lat="47.30579" lon="-2.26235">
        <ele>17</ele>
        <time>2022-07-10T09:25:47.000Z</time>
      </trkpt>
      <trkpt lat="47.30573" lon="-2.26256">
        <ele>17</ele>
        <time>2022-07-10T09:25:50.000Z</time>
      </trkpt>
      <trkpt lat="47.30561" lon="-2.26309">
        <ele>17</ele>
        <time>2022-07-10T09:25:57.000Z</time>
      </trkpt>
      <trkpt lat="47.30552" lon="-2.26352">
        <ele>17</ele>
        <time>2022-07-10T09:26:02.000Z</time>
      </trkpt>
      <trkpt lat="47.30549" lon="-2.26361">
        <ele>17</ele>
        <time>2022-07-10T09:26:03.000Z</time>
      </trkpt>
      <trkpt lat="47.30533" lon="-2.26404">
        <ele>17</ele>
        <time>2022-07-10T09:26:09.000Z</time>
      </trkpt>
      <trkpt lat="47.30508" lon="-2.26462">
        <ele>17</ele>
        <time>2022-07-10T09:26:16.000Z</time>
      </trkpt>
      <trkpt lat="47.30495" lon="-2.26493">
        <ele>17</ele>
        <time>2022-07-10T09:26:20.000Z</time>
      </trkpt>
      <trkpt lat="47.30473" lon="-2.26538">
        <ele>17</ele>
        <time>2022-07-10T09:26:26.000Z</time>
      </trkpt>
      <trkpt lat="47.30457" lon="-2.2657">
        <ele>17</ele>
        <time>2022-07-10T09:26:31.000Z</time>
      </trkpt>
      <trkpt lat="47.30434" lon="-2.26616">
        <ele>17</ele>
        <time>2022-07-10T09:26:38.000Z</time>
      </trkpt>
      <trkpt lat="47.30414" lon="-2.26659">
        <ele>17</ele>
        <time>2022-07-10T09:26:44.000Z</time>
      </trkpt>
      <trkpt lat="47.30391" lon="-2.26705">
        <ele>17</ele>
        <time>2022-07-10T09:26:51.000Z</time>
      </trkpt>
      <trkpt lat="47.30368" lon="-2.2675">
        <ele>17</ele>
        <time>2022-07-10T09:26:57.000Z</time>
      </trkpt>
      <trkpt lat="47.30348" lon="-2.26784">
        <ele>17</ele>
        <time>2022-07-10T09:27:02.000Z</time>
      </trkpt>
      <trkpt lat="47.30347" lon="-2.26791">
        <ele>17</ele>
        <time>2022-07-10T09:27:03.000Z</time>
      </trkpt>
      <trkpt lat="47.30349" lon="-2.26807">
        <ele>17</ele>
        <time>2022-07-10T09:27:05.000Z</time>
      </trkpt>
      <trkpt lat="47.30352" lon="-2.26823">
        <ele>17</ele>
        <time>2022-07-10T09:27:07.000Z</time>
      </trkpt>
      <trkpt lat="47.30356" lon="-2.26847">
        <ele>17</ele>
        <time>2022-07-10T09:27:10.000Z</time>
      </trkpt>
      <trkpt lat="47.30365" lon="-2.26901">
        <ele>17</ele>
        <time>2022-07-10T09:27:16.000Z</time>
      </trkpt>
      <trkpt lat="47.30372" lon="-2.26936">
        <ele>16.60000038147</ele>
        <time>2022-07-10T09:27:20.000Z</time>
      </trkpt>
      <trkpt lat="47.30373" lon="-2.26944">
        <ele>16.200000762939</ele>
        <time>2022-07-10T09:27:21.000Z</time>
      </trkpt>
      <trkpt lat="47.30374" lon="-2.26952">
        <ele>15.800000190735</ele>
        <time>2022-07-10T09:27:22.000Z</time>
      </trkpt>
      <trkpt lat="47.30374" lon="-2.26961">
        <ele>15.39999961853</ele>
        <time>2022-07-10T09:27:23.000Z</time>
      </trkpt>
      <trkpt lat="47.30375" lon="-2.2697">
        <ele>15</ele>
        <time>2022-07-10T09:27:24.000Z</time>
      </trkpt>
      <trkpt lat="47.30374" lon="-2.2698">
        <ele>15</ele>
        <time>2022-07-10T09:27:25.000Z</time>
      </trkpt>
      <trkpt lat="47.30374" lon="-2.27001">
        <ele>15</ele>
        <time>2022-07-10T09:27:27.000Z</time>
      </trkpt>
      <trkpt lat="47.30372" lon="-2.27016">
        <ele>15</ele>
        <time>2022-07-10T09:27:29.000Z</time>
      </trkpt>
      <trkpt lat="47.30373" lon="-2.27034">
        <ele>15</ele>
        <time>2022-07-10T09:27:31.000Z</time>
      </trkpt>
      <trkpt lat="47.30383" lon="-2.27058">
        <ele>15</ele>
        <time>2022-07-10T09:27:34.000Z</time>
      </trkpt>
      <trkpt lat="47.30399" lon="-2.27069">
        <ele>15</ele>
        <time>2022-07-10T09:27:37.000Z</time>
      </trkpt>
      <trkpt lat="47.30404" lon="-2.27074">
        <ele>15</ele>
        <time>2022-07-10T09:27:38.000Z</time>
      </trkpt>
      <trkpt lat="47.30411" lon="-2.27092">
        <ele>15</ele>
        <time>2022-07-10T09:27:40.000Z</time>
      </trkpt>
      <trkpt lat="47.30417" lon="-2.27128">
        <ele>15</ele>
        <time>2022-07-10T09:27:44.000Z</time>
      </trkpt>
      <trkpt lat="47.30417" lon="-2.27145">
        <ele>15</ele>
        <time>2022-07-10T09:27:46.000Z</time>
      </trkpt>
      <trkpt lat="47.3041" lon="-2.27157">
        <ele>15</ele>
        <time>2022-07-10T09:27:48.000Z</time>
      </trkpt>
      <trkpt lat="47.30397" lon="-2.2716">
        <ele>15</ele>
        <time>2022-07-10T09:27:51.000Z</time>
      </trkpt>
      <trkpt lat="47.30393" lon="-2.27161">
        <ele>15</ele>
        <time>2022-07-10T09:27:52.000Z</time>
      </trkpt>
      <trkpt lat="47.30367" lon="-2.27166">
        <ele>15</ele>
        <time>2022-07-10T09:27:57.000Z</time>
      </trkpt>
      <trkpt lat="47.30355" lon="-2.2717">
        <ele>15</ele>
        <time>2022-07-10T09:27:59.000Z</time>
      </trkpt>
      <trkpt lat="47.30338" lon="-2.27175">
        <ele>15</ele>
        <time>2022-07-10T09:28:02.000Z</time>
      </trkpt>
      <trkpt lat="47.30304" lon="-2.27181">
        <ele>15</ele>
        <time>2022-07-10T09:28:08.000Z</time>
      </trkpt>
      <trkpt lat="47.30289" lon="-2.27181">
        <ele>15</ele>
        <time>2022-07-10T09:28:11.000Z</time>
      </trkpt>
      <trkpt lat="47.30271" lon="-2.27178">
        <ele>15</ele>
        <time>2022-07-10T09:28:14.000Z</time>
      </trkpt>
      <trkpt lat="47.30246" lon="-2.27167">
        <ele>15</ele>
        <time>2022-07-10T09:28:19.000Z</time>
      </trkpt>
      <trkpt lat="47.30223" lon="-2.27155">
        <ele>15</ele>
        <time>2022-07-10T09:28:24.000Z</time>
      </trkpt>
      <trkpt lat="47.30219" lon="-2.27154">
        <ele>15</ele>
        <time>2022-07-10T09:28:25.000Z</time>
      </trkpt>
      <trkpt lat="47.30214" lon="-2.27156">
        <ele>15</ele>
        <time>2022-07-10T09:28:26.000Z</time>
      </trkpt>
      <trkpt lat="47.30203" lon="-2.27164">
        <ele>15</ele>
        <time>2022-07-10T09:28:28.000Z</time>
      </trkpt>
      <trkpt lat="47.30184" lon="-2.27188">
        <ele>15</ele>
        <time>2022-07-10T09:28:32.000Z</time>
      </trkpt>
      <trkpt lat="47.30147" lon="-2.27236">
        <ele>15</ele>
        <time>2022-07-10T09:28:39.000Z</time>
      </trkpt>
      <trkpt lat="47.30111" lon="-2.2728">
        <ele>15</ele>
        <time>2022-07-10T09:28:46.000Z</time>
      </trkpt>
      <trkpt lat="47.30106" lon="-2.27287">
        <ele>15</ele>
        <time>2022-07-10T09:28:47.000Z</time>
      </trkpt>
      <trkpt lat="47.30084" lon="-2.27334">
        <ele>15</ele>
        <time>2022-07-10T09:28:53.000Z</time>
      </trkpt>
      <trkpt lat="47.30061" lon="-2.27388">
        <ele>15</ele>
        <time>2022-07-10T09:29:00.000Z</time>
      </trkpt>
      <trkpt lat="47.30042" lon="-2.27417">
        <ele>15</ele>
        <time>2022-07-10T09:29:05.000Z</time>
      </trkpt>
      <trkpt lat="47.30014" lon="-2.27456">
        <ele>15</ele>
        <time>2022-07-10T09:29:12.000Z</time>
      </trkpt>
      <trkpt lat="47.29999" lon="-2.27494">
        <ele>15</ele>
        <time>2022-07-10T09:29:17.000Z</time>
      </trkpt>
      <trkpt lat="47.29987" lon="-2.27553">
        <ele>15</ele>
        <time>2022-07-10T09:29:24.000Z</time>
      </trkpt>
      <trkpt lat="47.29969" lon="-2.27613">
        <ele>15</ele>
        <time>2022-07-10T09:29:31.000Z</time>
      </trkpt>
      <trkpt lat="47.29967" lon="-2.27622">
        <ele>15</ele>
        <time>2022-07-10T09:29:32.000Z</time>
      </trkpt>
      <trkpt lat="47.29962" lon="-2.2766">
        <ele>15</ele>
        <time>2022-07-10T09:29:36.000Z</time>
      </trkpt>
      <trkpt lat="47.2996" lon="-2.27678">
        <ele>15.39999961853</ele>
        <time>2022-07-10T09:29:38.000Z</time>
      </trkpt>
      <trkpt lat="47.29959" lon="-2.27687">
        <ele>16.200000762939</ele>
        <time>2022-07-10T09:29:39.000Z</time>
      </trkpt>
      <trkpt lat="47.29959" lon="-2.27697">
        <ele>16.60000038147</ele>
        <time>2022-07-10T09:29:40.000Z</time>
      </trkpt>
      <trkpt lat="47.29958" lon="-2.27706">
        <ele>17</ele>
        <time>2022-07-10T09:29:41.000Z</time>
      </trkpt>
      <trkpt lat="47.29957" lon="-2.27724">
        <ele>17</ele>
        <time>2022-07-10T09:29:43.000Z</time>
      </trkpt>
      <trkpt lat="47.29952" lon="-2.27772">
        <ele>17</ele>
        <time>2022-07-10T09:29:48.000Z</time>
      </trkpt>
      <trkpt lat="47.29951" lon="-2.27781">
        <ele>17</ele>
        <time>2022-07-10T09:29:49.000Z</time>
      </trkpt>
      <trkpt lat="47.29944" lon="-2.27845">
        <ele>17</ele>
        <time>2022-07-10T09:29:56.000Z</time>
      </trkpt>
      <trkpt lat="47.29943" lon="-2.27864">
        <ele>17.39999961853</ele>
        <time>2022-07-10T09:29:58.000Z</time>
      </trkpt>
      <trkpt lat="47.29942" lon="-2.27874">
        <ele>17.799999237061</ele>
        <time>2022-07-10T09:29:59.000Z</time>
      </trkpt>
      <trkpt lat="47.29942" lon="-2.27883">
        <ele>18.200000762939</ele>
        <time>2022-07-10T09:30:00.000Z</time>
      </trkpt>
      <trkpt lat="47.29941" lon="-2.27893">
        <ele>18.799999237061</ele>
        <time>2022-07-10T09:30:01.000Z</time>
      </trkpt>
      <trkpt lat="47.2994" lon="-2.27902">
        <ele>19.200000762939</ele>
        <time>2022-07-10T09:30:02.000Z</time>
      </trkpt>
      <trkpt lat="47.29939" lon="-2.27911">
        <ele>19.200000762939</ele>
        <time>2022-07-10T09:30:03.000Z</time>
      </trkpt>
      <trkpt lat="47.29935" lon="-2.27974">
        <ele>19.200000762939</ele>
        <time>2022-07-10T09:30:10.000Z</time>
      </trkpt>
      <trkpt lat="47.29936" lon="-2.27992">
        <ele>19.200000762939</ele>
        <time>2022-07-10T09:30:12.000Z</time>
      </trkpt>
      <trkpt lat="47.2994" lon="-2.28017">
        <ele>19.200000762939</ele>
        <time>2022-07-10T09:30:15.000Z</time>
      </trkpt>
      <trkpt lat="47.29951" lon="-2.28044">
        <ele>19.200000762939</ele>
        <time>2022-07-10T09:30:19.000Z</time>
      </trkpt>
      <trkpt lat="47.29964" lon="-2.28051">
        <ele>19.200000762939</ele>
        <time>2022-07-10T09:30:22.000Z</time>
      </trkpt>
      <trkpt lat="47.29979" lon="-2.28044">
        <ele>19.200000762939</ele>
        <time>2022-07-10T09:30:25.000Z</time>
      </trkpt>
      <trkpt lat="47.29984" lon="-2.28041">
        <ele>19.200000762939</ele>
        <time>2022-07-10T09:30:26.000Z</time>
      </trkpt>
      <trkpt lat="47.29993" lon="-2.28043">
        <ele>19.200000762939</ele>
        <time>2022-07-10T09:30:29.000Z</time>
      </trkpt>
      <trkpt lat="47.29989" lon="-2.28056">
        <ele>19.200000762939</ele>
        <time>2022-07-10T09:30:32.000Z</time>
      </trkpt>
      <trkpt lat="47.29987" lon="-2.28062">
        <ele>19.200000762939</ele>
        <time>2022-07-10T09:30:33.000Z</time>
      </trkpt>
      <trkpt lat="47.2998" lon="-2.28089">
        <ele>19.200000762939</ele>
        <time>2022-07-10T09:30:37.000Z</time>
      </trkpt>
      <trkpt lat="47.29969" lon="-2.28129">
        <ele>19.200000762939</ele>
        <time>2022-07-10T09:30:42.000Z</time>
      </trkpt>
      <trkpt lat="47.29953" lon="-2.28179">
        <ele>19.200000762939</ele>
        <time>2022-07-10T09:30:48.000Z</time>
      </trkpt>
      <trkpt lat="47.29948" lon="-2.28203">
        <ele>19.200000762939</ele>
        <time>2022-07-10T09:30:51.000Z</time>
      </trkpt>
      <trkpt lat="47.29947" lon="-2.28221">
        <ele>19.200000762939</ele>
        <time>2022-07-10T09:30:53.000Z</time>
      </trkpt>
      <trkpt lat="47.2995" lon="-2.28277">
        <ele>19.200000762939</ele>
        <time>2022-07-10T09:30:59.000Z</time>
      </trkpt>
      <trkpt lat="47.29953" lon="-2.28311">
        <ele>19.200000762939</ele>
        <time>2022-07-10T09:31:03.000Z</time>
      </trkpt>
      <trkpt lat="47.29955" lon="-2.2832">
        <ele>19.200000762939</ele>
        <time>2022-07-10T09:31:04.000Z</time>
      </trkpt>
      <trkpt lat="47.29955" lon="-2.28328">
        <ele>19.200000762939</ele>
        <time>2022-07-10T09:31:05.000Z</time>
      </trkpt>
      <trkpt lat="47.29954" lon="-2.28345">
        <ele>19.200000762939</ele>
        <time>2022-07-10T09:31:07.000Z</time>
      </trkpt>
      <trkpt lat="47.29953" lon="-2.2839">
        <ele>19.200000762939</ele>
        <time>2022-07-10T09:31:12.000Z</time>
      </trkpt>
      <trkpt lat="47.29954" lon="-2.284">
        <ele>19.200000762939</ele>
        <time>2022-07-10T09:31:13.000Z</time>
      </trkpt>
      <trkpt lat="47.29953" lon="-2.28409">
        <ele>19.200000762939</ele>
        <time>2022-07-10T09:31:14.000Z</time>
      </trkpt>
      <trkpt lat="47.29949" lon="-2.28424">
        <ele>19.200000762939</ele>
        <time>2022-07-10T09:31:16.000Z</time>
      </trkpt>
      <trkpt lat="47.29937" lon="-2.28452">
        <ele>19.200000762939</ele>
        <time>2022-07-10T09:31:20.000Z</time>
      </trkpt>
      <trkpt lat="47.29938" lon="-2.2849">
        <ele>19.200000762939</ele>
        <time>2022-07-10T09:31:24.000Z</time>
      </trkpt>
      <trkpt lat="47.29933" lon="-2.28515">
        <ele>19.200000762939</ele>
        <time>2022-07-10T09:31:27.000Z</time>
      </trkpt>
      <trkpt lat="47.29931" lon="-2.28549">
        <ele>19.200000762939</ele>
        <time>2022-07-10T09:31:31.000Z</time>
      </trkpt>
      <trkpt lat="47.29941" lon="-2.28567">
        <ele>19.200000762939</ele>
        <time>2022-07-10T09:31:34.000Z</time>
      </trkpt>
      <trkpt lat="47.29941" lon="-2.28588">
        <ele>19.200000762939</ele>
        <time>2022-07-10T09:31:37.000Z</time>
      </trkpt>
      <trkpt lat="47.29939" lon="-2.28596">
        <ele>19.200000762939</ele>
        <time>2022-07-10T09:31:38.000Z</time>
      </trkpt>
      <trkpt lat="47.29936" lon="-2.28611">
        <ele>18.799999237061</ele>
        <time>2022-07-10T09:31:40.000Z</time>
      </trkpt>
      <trkpt lat="47.29935" lon="-2.28617">
        <ele>18.200000762939</ele>
        <time>2022-07-10T09:31:41.000Z</time>
      </trkpt>
      <trkpt lat="47.29934" lon="-2.28624">
        <ele>17.39999961853</ele>
        <time>2022-07-10T09:31:42.000Z</time>
      </trkpt>
      <trkpt lat="47.29934" lon="-2.28629">
        <ele>17</ele>
        <time>2022-07-10T09:31:43.000Z</time>
      </trkpt>
      <trkpt lat="47.2993" lon="-2.2865">
        <ele>17</ele>
        <time>2022-07-10T09:31:48.000Z</time>
      </trkpt>
      <trkpt lat="47.29923" lon="-2.28676">
        <ele>17</ele>
        <time>2022-07-10T09:31:55.000Z</time>
      </trkpt>
      <trkpt lat="47.29921" lon="-2.28695">
        <ele>17</ele>
        <time>2022-07-10T09:31:58.000Z</time>
      </trkpt>
      <trkpt lat="47.29919" lon="-2.28705">
        <ele>17</ele>
        <time>2022-07-10T09:31:59.000Z</time>
      </trkpt>
      <trkpt lat="47.29908" lon="-2.28773">
        <ele>17</ele>
        <time>2022-07-10T09:32:05.000Z</time>
      </trkpt>
      <trkpt lat="47.29902" lon="-2.28823">
        <ele>17</ele>
        <time>2022-07-10T09:32:10.000Z</time>
      </trkpt>
      <trkpt lat="47.299" lon="-2.28831">
        <ele>17</ele>
        <time>2022-07-10T09:32:11.000Z</time>
      </trkpt>
      <trkpt lat="47.2989" lon="-2.28877">
        <ele>17</ele>
        <time>2022-07-10T09:32:16.000Z</time>
      </trkpt>
      <trkpt lat="47.29882" lon="-2.28896">
        <ele>17</ele>
        <time>2022-07-10T09:32:19.000Z</time>
      </trkpt>
      <trkpt lat="47.2988" lon="-2.28913">
        <ele>16.60000038147</ele>
        <time>2022-07-10T09:32:21.000Z</time>
      </trkpt>
      <trkpt lat="47.2988" lon="-2.28921">
        <ele>16.200000762939</ele>
        <time>2022-07-10T09:32:22.000Z</time>
      </trkpt>
      <trkpt lat="47.29881" lon="-2.28929">
        <ele>15.800000190735</ele>
        <time>2022-07-10T09:32:23.000Z</time>
      </trkpt>
      <trkpt lat="47.29884" lon="-2.28935">
        <ele>15.39999961853</ele>
        <time>2022-07-10T09:32:24.000Z</time>
      </trkpt>
      <trkpt lat="47.29887" lon="-2.28939">
        <ele>14.800000190735</ele>
        <time>2022-07-10T09:32:25.000Z</time>
      </trkpt>
      <trkpt lat="47.29891" lon="-2.28941">
        <ele>14.800000190735</ele>
        <time>2022-07-10T09:32:26.000Z</time>
      </trkpt>
      <trkpt lat="47.29896" lon="-2.28942">
        <ele>14.800000190735</ele>
        <time>2022-07-10T09:32:27.000Z</time>
      </trkpt>
      <trkpt lat="47.29923" lon="-2.28949">
        <ele>14.800000190735</ele>
        <time>2022-07-10T09:32:32.000Z</time>
      </trkpt>
      <trkpt lat="47.29931" lon="-2.28957">
        <ele>14.800000190735</ele>
        <time>2022-07-10T09:32:34.000Z</time>
      </trkpt>
      <trkpt lat="47.29934" lon="-2.28962">
        <ele>14.800000190735</ele>
        <time>2022-07-10T09:32:35.000Z</time>
      </trkpt>
      <trkpt lat="47.29955" lon="-2.29001">
        <ele>14.800000190735</ele>
        <time>2022-07-10T09:32:41.000Z</time>
      </trkpt>
      <trkpt lat="47.29969" lon="-2.29028">
        <ele>14.800000190735</ele>
        <time>2022-07-10T09:32:45.000Z</time>
      </trkpt>
      <trkpt lat="47.29976" lon="-2.29042">
        <ele>14.800000190735</ele>
        <time>2022-07-10T09:32:47.000Z</time>
      </trkpt>
      <trkpt lat="47.29983" lon="-2.29056">
        <ele>14.39999961853</ele>
        <time>2022-07-10T09:32:49.000Z</time>
      </trkpt>
      <trkpt lat="47.29986" lon="-2.29063">
        <ele>14</ele>
        <time>2022-07-10T09:32:50.000Z</time>
      </trkpt>
      <trkpt lat="47.29989" lon="-2.29069">
        <ele>13.60000038147</ele>
        <time>2022-07-10T09:32:51.000Z</time>
      </trkpt>
      <trkpt lat="47.29993" lon="-2.29075">
        <ele>13.199999809265</ele>
        <time>2022-07-10T09:32:52.000Z</time>
      </trkpt>
      <trkpt lat="47.29997" lon="-2.29081">
        <ele>12.800000190735</ele>
        <time>2022-07-10T09:32:53.000Z</time>
      </trkpt>
      <trkpt lat="47.30018" lon="-2.29104">
        <ele>12.800000190735</ele>
        <time>2022-07-10T09:32:57.000Z</time>
      </trkpt>
      <trkpt lat="47.30058" lon="-2.29133">
        <ele>12.800000190735</ele>
        <time>2022-07-10T09:33:04.000Z</time>
      </trkpt>
      <trkpt lat="47.30063" lon="-2.29138">
        <ele>12.800000190735</ele>
        <time>2022-07-10T09:33:05.000Z</time>
      </trkpt>
      <trkpt lat="47.30078" lon="-2.29157">
        <ele>12.800000190735</ele>
        <time>2022-07-10T09:33:08.000Z</time>
      </trkpt>
      <trkpt lat="47.30112" lon="-2.2921">
        <ele>12.800000190735</ele>
        <time>2022-07-10T09:33:15.000Z</time>
      </trkpt>
      <trkpt lat="47.30145" lon="-2.29264">
        <ele>12.800000190735</ele>
        <time>2022-07-10T09:33:22.000Z</time>
      </trkpt>
      <trkpt lat="47.30172" lon="-2.29303">
        <ele>12.39999961853</ele>
        <time>2022-07-10T09:33:27.000Z</time>
      </trkpt>
      <trkpt lat="47.30177" lon="-2.29312">
        <ele>12</ele>
        <time>2022-07-10T09:33:28.000Z</time>
      </trkpt>
      <trkpt lat="47.30182" lon="-2.2932">
        <ele>11.60000038147</ele>
        <time>2022-07-10T09:33:29.000Z</time>
      </trkpt>
      <trkpt lat="47.30186" lon="-2.29328">
        <ele>11</ele>
        <time>2022-07-10T09:33:30.000Z</time>
      </trkpt>
      <trkpt lat="47.30191" lon="-2.29336">
        <ele>10.60000038147</ele>
        <time>2022-07-10T09:33:31.000Z</time>
      </trkpt>
      <trkpt lat="47.302" lon="-2.29352">
        <ele>10.60000038147</ele>
        <time>2022-07-10T09:33:33.000Z</time>
      </trkpt>
      <trkpt lat="47.30206" lon="-2.2937">
        <ele>10.60000038147</ele>
        <time>2022-07-10T09:33:35.000Z</time>
      </trkpt>
      <trkpt lat="47.30215" lon="-2.29397">
        <ele>10.60000038147</ele>
        <time>2022-07-10T09:33:38.000Z</time>
      </trkpt>
      <trkpt lat="47.30217" lon="-2.29404">
        <ele>10.60000038147</ele>
        <time>2022-07-10T09:33:39.000Z</time>
      </trkpt>
      <trkpt lat="47.30216" lon="-2.29423">
        <ele>10.60000038147</ele>
        <time>2022-07-10T09:33:42.000Z</time>
      </trkpt>
      <trkpt lat="47.30208" lon="-2.29437">
        <ele>10.60000038147</ele>
        <time>2022-07-10T09:33:45.000Z</time>
      </trkpt>
      <trkpt lat="47.30203" lon="-2.29448">
        <ele>10.60000038147</ele>
        <time>2022-07-10T09:33:47.000Z</time>
      </trkpt>
      <trkpt lat="47.302" lon="-2.29454">
        <ele>10.60000038147</ele>
        <time>2022-07-10T09:33:48.000Z</time>
      </trkpt>
      <trkpt lat="47.30185" lon="-2.29481">
        <ele>10.60000038147</ele>
        <time>2022-07-10T09:33:52.000Z</time>
      </trkpt>
      <trkpt lat="47.3016" lon="-2.29533">
        <ele>10.60000038147</ele>
        <time>2022-07-10T09:33:59.000Z</time>
      </trkpt>
      <trkpt lat="47.30146" lon="-2.29565">
        <ele>10.60000038147</ele>
        <time>2022-07-10T09:34:03.000Z</time>
      </trkpt>
      <trkpt lat="47.30145" lon="-2.29573">
        <ele>10.60000038147</ele>
        <time>2022-07-10T09:34:04.000Z</time>
      </trkpt>
      <trkpt lat="47.30145" lon="-2.29599">
        <ele>10.60000038147</ele>
        <time>2022-07-10T09:34:07.000Z</time>
      </trkpt>
      <trkpt lat="47.30146" lon="-2.29614">
        <ele>10.60000038147</ele>
        <time>2022-07-10T09:34:09.000Z</time>
      </trkpt>
      <trkpt lat="47.30143" lon="-2.2964">
        <ele>10.60000038147</ele>
        <time>2022-07-10T09:34:13.000Z</time>
      </trkpt>
      <trkpt lat="47.30136" lon="-2.29651">
        <ele>10.60000038147</ele>
        <time>2022-07-10T09:34:16.000Z</time>
      </trkpt>
      <trkpt lat="47.30117" lon="-2.29649">
        <ele>10.60000038147</ele>
        <time>2022-07-10T09:34:20.000Z</time>
      </trkpt>
      <trkpt lat="47.30107" lon="-2.29647">
        <ele>10.60000038147</ele>
        <time>2022-07-10T09:34:22.000Z</time>
      </trkpt>
      <trkpt lat="47.30089" lon="-2.29646">
        <ele>10.60000038147</ele>
        <time>2022-07-10T09:34:25.000Z</time>
      </trkpt>
      <trkpt lat="47.30057" lon="-2.29638">
        <ele>10.60000038147</ele>
        <time>2022-07-10T09:34:31.000Z</time>
      </trkpt>
      <trkpt lat="47.30046" lon="-2.29635">
        <ele>10.60000038147</ele>
        <time>2022-07-10T09:34:33.000Z</time>
      </trkpt>
      <trkpt lat="47.30024" lon="-2.29634">
        <ele>10.60000038147</ele>
        <time>2022-07-10T09:34:37.000Z</time>
      </trkpt>
      <trkpt lat="47.29989" lon="-2.29637">
        <ele>10.60000038147</ele>
        <time>2022-07-10T09:34:44.000Z</time>
      </trkpt>
      <trkpt lat="47.2998" lon="-2.29637">
        <ele>10.60000038147</ele>
        <time>2022-07-10T09:34:46.000Z</time>
      </trkpt>
      <trkpt lat="47.29964" lon="-2.2964">
        <ele>10.60000038147</ele>
        <time>2022-07-10T09:34:49.000Z</time>
      </trkpt>
      <trkpt lat="47.29945" lon="-2.29648">
        <ele>10.60000038147</ele>
        <time>2022-07-10T09:34:53.000Z</time>
      </trkpt>
      <trkpt lat="47.2994" lon="-2.29651">
        <ele>10.60000038147</ele>
        <time>2022-07-10T09:34:54.000Z</time>
      </trkpt>
      <trkpt lat="47.29922" lon="-2.29663">
        <ele>11</ele>
        <time>2022-07-10T09:34:58.000Z</time>
      </trkpt>
      <trkpt lat="47.29918" lon="-2.29667">
        <ele>11.60000038147</ele>
        <time>2022-07-10T09:34:59.000Z</time>
      </trkpt>
      <trkpt lat="47.29917" lon="-2.29673">
        <ele>12.39999961853</ele>
        <time>2022-07-10T09:35:00.000Z</time>
      </trkpt>
      <trkpt lat="47.29917" lon="-2.29679">
        <ele>12.800000190735</ele>
        <time>2022-07-10T09:35:01.000Z</time>
      </trkpt>
      <trkpt lat="47.2992" lon="-2.29692">
        <ele>12.800000190735</ele>
        <time>2022-07-10T09:35:03.000Z</time>
      </trkpt>
      <trkpt lat="47.29925" lon="-2.29707">
        <ele>12.800000190735</ele>
        <time>2022-07-10T09:35:05.000Z</time>
      </trkpt>
      <trkpt lat="47.29934" lon="-2.29728">
        <ele>12.800000190735</ele>
        <time>2022-07-10T09:35:08.000Z</time>
      </trkpt>
      <trkpt lat="47.29953" lon="-2.29786">
        <ele>12.800000190735</ele>
        <time>2022-07-10T09:35:16.000Z</time>
      </trkpt>
      <trkpt lat="47.29953" lon="-2.29795">
        <ele>12.800000190735</ele>
        <time>2022-07-10T09:35:18.000Z</time>
      </trkpt>
      <trkpt lat="47.2995" lon="-2.29798">
        <ele>12.800000190735</ele>
        <time>2022-07-10T09:35:19.000Z</time>
      </trkpt>
      <trkpt lat="47.29936" lon="-2.29812">
        <ele>12.800000190735</ele>
        <time>2022-07-10T09:35:24.000Z</time>
      </trkpt>
      <trkpt lat="47.29911" lon="-2.2983">
        <ele>12.800000190735</ele>
        <time>2022-07-10T09:35:31.000Z</time>
      </trkpt>
      <trkpt lat="47.2991" lon="-2.29834">
        <ele>12.800000190735</ele>
        <time>2022-07-10T09:35:32.000Z</time>
      </trkpt>
      <trkpt lat="47.29907" lon="-2.29846">
        <ele>12.800000190735</ele>
        <time>2022-07-10T09:35:34.000Z</time>
      </trkpt>
      <trkpt lat="47.29907" lon="-2.29863">
        <ele>12.800000190735</ele>
        <time>2022-07-10T09:35:36.000Z</time>
      </trkpt>
      <trkpt lat="47.29908" lon="-2.29886">
        <ele>12.800000190735</ele>
        <time>2022-07-10T09:35:39.000Z</time>
      </trkpt>
      <trkpt lat="47.2991" lon="-2.29912">
        <ele>12.800000190735</ele>
        <time>2022-07-10T09:35:42.000Z</time>
      </trkpt>
      <trkpt lat="47.29908" lon="-2.29927">
        <ele>12.800000190735</ele>
        <time>2022-07-10T09:35:44.000Z</time>
      </trkpt>
      <trkpt lat="47.29895" lon="-2.29938">
        <ele>12.800000190735</ele>
        <time>2022-07-10T09:35:47.000Z</time>
      </trkpt>
      <trkpt lat="47.29878" lon="-2.29942">
        <ele>12.800000190735</ele>
        <time>2022-07-10T09:35:50.000Z</time>
      </trkpt>
      <trkpt lat="47.29861" lon="-2.29946">
        <ele>12.800000190735</ele>
        <time>2022-07-10T09:35:53.000Z</time>
      </trkpt>
      <trkpt lat="47.29824" lon="-2.29953">
        <ele>12.800000190735</ele>
        <time>2022-07-10T09:35:59.000Z</time>
      </trkpt>
      <trkpt lat="47.29792" lon="-2.29951">
        <ele>12.800000190735</ele>
        <time>2022-07-10T09:36:04.000Z</time>
      </trkpt>
      <trkpt lat="47.29786" lon="-2.29952">
        <ele>12.800000190735</ele>
        <time>2022-07-10T09:36:05.000Z</time>
      </trkpt>
      <trkpt lat="47.29767" lon="-2.29966">
        <ele>12.800000190735</ele>
        <time>2022-07-10T09:36:08.000Z</time>
      </trkpt>
      <trkpt lat="47.29747" lon="-2.29982">
        <ele>12.800000190735</ele>
        <time>2022-07-10T09:36:11.000Z</time>
      </trkpt>
      <trkpt lat="47.29734" lon="-2.2999">
        <ele>12.800000190735</ele>
        <time>2022-07-10T09:36:13.000Z</time>
      </trkpt>
      <trkpt lat="47.29719" lon="-2.29997">
        <ele>12.800000190735</ele>
        <time>2022-07-10T09:36:15.000Z</time>
      </trkpt>
      <trkpt lat="47.29704" lon="-2.3">
        <ele>12.800000190735</ele>
        <time>2022-07-10T09:36:17.000Z</time>
      </trkpt>
      <trkpt lat="47.29667" lon="-2.29997">
        <ele>12.800000190735</ele>
        <time>2022-07-10T09:36:22.000Z</time>
      </trkpt>
      <trkpt lat="47.2966" lon="-2.29994">
        <ele>12.800000190735</ele>
        <time>2022-07-10T09:36:23.000Z</time>
      </trkpt>
      <trkpt lat="47.29643" lon="-2.29983">
        <ele>12.800000190735</ele>
        <time>2022-07-10T09:36:26.000Z</time>
      </trkpt>
      <trkpt lat="47.29638" lon="-2.29985">
        <ele>12.800000190735</ele>
        <time>2022-07-10T09:36:27.000Z</time>
      </trkpt>
      <trkpt lat="47.29621" lon="-2.29996">
        <ele>12.800000190735</ele>
        <time>2022-07-10T09:36:30.000Z</time>
      </trkpt>
      <trkpt lat="47.29607" lon="-2.30001">
        <ele>12.800000190735</ele>
        <time>2022-07-10T09:36:32.000Z</time>
      </trkpt>
      <trkpt lat="47.29555" lon="-2.30019">
        <ele>12.800000190735</ele>
        <time>2022-07-10T09:36:39.000Z</time>
      </trkpt>
      <trkpt lat="47.29533" lon="-2.30028">
        <ele>12.800000190735</ele>
        <time>2022-07-10T09:36:42.000Z</time>
      </trkpt>
      <trkpt lat="47.29526" lon="-2.30029">
        <ele>12.800000190735</ele>
        <time>2022-07-10T09:36:43.000Z</time>
      </trkpt>
      <trkpt lat="47.29505" lon="-2.30024">
        <ele>12.800000190735</ele>
        <time>2022-07-10T09:36:46.000Z</time>
      </trkpt>
      <trkpt lat="47.29473" lon="-2.30028">
        <ele>12.800000190735</ele>
        <time>2022-07-10T09:36:51.000Z</time>
      </trkpt>
      <trkpt lat="47.29432" lon="-2.30029">
        <ele>12.800000190735</ele>
        <time>2022-07-10T09:36:57.000Z</time>
      </trkpt>
      <trkpt lat="47.29406" lon="-2.30027">
        <ele>12.800000190735</ele>
        <time>2022-07-10T09:37:01.000Z</time>
      </trkpt>
      <trkpt lat="47.29393" lon="-2.30022">
        <ele>12.800000190735</ele>
        <time>2022-07-10T09:37:03.000Z</time>
      </trkpt>
      <trkpt lat="47.29375" lon="-2.30016">
        <ele>12.800000190735</ele>
        <time>2022-07-10T09:37:06.000Z</time>
      </trkpt>
      <trkpt lat="47.29364" lon="-2.30011">
        <ele>12.800000190735</ele>
        <time>2022-07-10T09:37:08.000Z</time>
      </trkpt>
      <trkpt lat="47.29355" lon="-2.30007">
        <ele>13.199999809265</ele>
        <time>2022-07-10T09:37:10.000Z</time>
      </trkpt>
      <trkpt lat="47.29352" lon="-2.30005">
        <ele>13.60000038147</ele>
        <time>2022-07-10T09:37:11.000Z</time>
      </trkpt>
      <trkpt lat="47.29348" lon="-2.30005">
        <ele>14</ele>
        <time>2022-07-10T09:37:12.000Z</time>
      </trkpt>
      <trkpt lat="47.29347" lon="-2.30008">
        <ele>14.39999961853</ele>
        <time>2022-07-10T09:37:13.000Z</time>
      </trkpt>
      <trkpt lat="47.29346" lon="-2.30012">
        <ele>14.800000190735</ele>
        <time>2022-07-10T09:37:14.000Z</time>
      </trkpt>
      <trkpt lat="47.29345" lon="-2.30023">
        <ele>14.800000190735</ele>
        <time>2022-07-10T09:37:16.000Z</time>
      </trkpt>
      <trkpt lat="47.29341" lon="-2.30061">
        <ele>14.800000190735</ele>
        <time>2022-07-10T09:37:21.000Z</time>
      </trkpt>
      <trkpt lat="47.29332" lon="-2.30113">
        <ele>14.800000190735</ele>
        <time>2022-07-10T09:37:27.000Z</time>
      </trkpt>
      <trkpt lat="47.29323" lon="-2.30132">
        <ele>14.800000190735</ele>
        <time>2022-07-10T09:37:30.000Z</time>
      </trkpt>
      <trkpt lat="47.29316" lon="-2.30139">
        <ele>14.800000190735</ele>
        <time>2022-07-10T09:37:32.000Z</time>
      </trkpt>
      <trkpt lat="47.29306" lon="-2.30139">
        <ele>14.800000190735</ele>
        <time>2022-07-10T09:37:34.000Z</time>
      </trkpt>
      <trkpt lat="47.2929" lon="-2.30139">
        <ele>14.800000190735</ele>
        <time>2022-07-10T09:37:37.000Z</time>
      </trkpt>
      <trkpt lat="47.29245" lon="-2.30145">
        <ele>14.800000190735</ele>
        <time>2022-07-10T09:37:45.000Z</time>
      </trkpt>
      <trkpt lat="47.29234" lon="-2.30149">
        <ele>14.800000190735</ele>
        <time>2022-07-10T09:37:47.000Z</time>
      </trkpt>
      <trkpt lat="47.29228" lon="-2.30152">
        <ele>14.800000190735</ele>
        <time>2022-07-10T09:37:48.000Z</time>
      </trkpt>
      <trkpt lat="47.29216" lon="-2.30157">
        <ele>14.800000190735</ele>
        <time>2022-07-10T09:37:50.000Z</time>
      </trkpt>
      <trkpt lat="47.29171" lon="-2.30181">
        <ele>14.800000190735</ele>
        <time>2022-07-10T09:37:58.000Z</time>
      </trkpt>
      <trkpt lat="47.2913" lon="-2.30201">
        <ele>14.800000190735</ele>
        <time>2022-07-10T09:38:05.000Z</time>
      </trkpt>
      <trkpt lat="47.29091" lon="-2.30222">
        <ele>14.800000190735</ele>
        <time>2022-07-10T09:38:12.000Z</time>
      </trkpt>
      <trkpt lat="47.29054" lon="-2.30241">
        <ele>14.800000190735</ele>
        <time>2022-07-10T09:38:19.000Z</time>
      </trkpt>
      <trkpt lat="47.2903" lon="-2.30249">
        <ele>14.800000190735</ele>
        <time>2022-07-10T09:38:24.000Z</time>
      </trkpt>
      <trkpt lat="47.29013" lon="-2.3025">
        <ele>14.800000190735</ele>
        <time>2022-07-10T09:38:29.000Z</time>
      </trkpt>
      <trkpt lat="47.29013" lon="-2.3025">
        <ele>14.800000190735</ele>
        <time>2022-07-10T09:38:30.000Z</time>
      </trkpt>
      <trkpt lat="47.29012" lon="-2.30249">
        <ele>16.799999237061</ele>
        <time>2022-07-10T09:40:45.000Z</time>
      </trkpt>
      <trkpt lat="47.29009" lon="-2.3025">
        <ele>16.799999237061</ele>
        <time>2022-07-10T09:40:47.000Z</time>
      </trkpt>
      <trkpt lat="47.28995" lon="-2.30254">
        <ele>16.799999237061</ele>
        <time>2022-07-10T09:40:52.000Z</time>
      </trkpt>
      <trkpt lat="47.28979" lon="-2.30256">
        <ele>16.799999237061</ele>
        <time>2022-07-10T09:40:57.000Z</time>
      </trkpt>
      <trkpt lat="47.28972" lon="-2.30278">
        <ele>16.799999237061</ele>
        <time>2022-07-10T09:41:01.000Z</time>
      </trkpt>
      <trkpt lat="47.28973" lon="-2.30298">
        <ele>16.799999237061</ele>
        <time>2022-07-10T09:41:04.000Z</time>
      </trkpt>
      <trkpt lat="47.28974" lon="-2.30311">
        <ele>16.799999237061</ele>
        <time>2022-07-10T09:41:06.000Z</time>
      </trkpt>
      <trkpt lat="47.28976" lon="-2.30351">
        <ele>16.799999237061</ele>
        <time>2022-07-10T09:41:12.000Z</time>
      </trkpt>
      <trkpt lat="47.28977" lon="-2.30402">
        <ele>16.799999237061</ele>
        <time>2022-07-10T09:41:19.000Z</time>
      </trkpt>
      <trkpt lat="47.28982" lon="-2.30441">
        <ele>16.799999237061</ele>
        <time>2022-07-10T09:41:24.000Z</time>
      </trkpt>
      <trkpt lat="47.28989" lon="-2.30495">
        <ele>16.799999237061</ele>
        <time>2022-07-10T09:41:31.000Z</time>
      </trkpt>
      <trkpt lat="47.28992" lon="-2.30513">
        <ele>16.799999237061</ele>
        <time>2022-07-10T09:41:35.000Z</time>
      </trkpt>
      <trkpt lat="47.28997" lon="-2.30537">
        <ele>16.799999237061</ele>
        <time>2022-07-10T09:41:41.000Z</time>
      </trkpt>
      <trkpt lat="47.29001" lon="-2.3057">
        <ele>16.799999237061</ele>
        <time>2022-07-10T09:41:46.000Z</time>
      </trkpt>
      <trkpt lat="47.29006" lon="-2.30625">
        <ele>16.799999237061</ele>
        <time>2022-07-10T09:41:53.000Z</time>
      </trkpt>
      <trkpt lat="47.29006" lon="-2.3068">
        <ele>16.799999237061</ele>
        <time>2022-07-10T09:42:00.000Z</time>
      </trkpt>
      <trkpt lat="47.29007" lon="-2.30739">
        <ele>16.799999237061</ele>
        <time>2022-07-10T09:42:07.000Z</time>
      </trkpt>
      <trkpt lat="47.29015" lon="-2.30787">
        <ele>16.799999237061</ele>
        <time>2022-07-10T09:42:13.000Z</time>
      </trkpt>
      <trkpt lat="47.29023" lon="-2.30835">
        <ele>17.200000762939</ele>
        <time>2022-07-10T09:42:19.000Z</time>
      </trkpt>
      <trkpt lat="47.29024" lon="-2.30844">
        <ele>17.60000038147</ele>
        <time>2022-07-10T09:42:20.000Z</time>
      </trkpt>
      <trkpt lat="47.29025" lon="-2.30852">
        <ele>18</ele>
        <time>2022-07-10T09:42:21.000Z</time>
      </trkpt>
      <trkpt lat="47.29026" lon="-2.3086">
        <ele>18.60000038147</ele>
        <time>2022-07-10T09:42:22.000Z</time>
      </trkpt>
      <trkpt lat="47.29027" lon="-2.30868">
        <ele>19</ele>
        <time>2022-07-10T09:42:23.000Z</time>
      </trkpt>
      <trkpt lat="47.29029" lon="-2.30898">
        <ele>19</ele>
        <time>2022-07-10T09:42:27.000Z</time>
      </trkpt>
      <trkpt lat="47.2903" lon="-2.30913">
        <ele>19.39999961853</ele>
        <time>2022-07-10T09:42:29.000Z</time>
      </trkpt>
      <trkpt lat="47.29031" lon="-2.3092">
        <ele>19.799999237061</ele>
        <time>2022-07-10T09:42:30.000Z</time>
      </trkpt>
      <trkpt lat="47.29031" lon="-2.30927">
        <ele>20.200000762939</ele>
        <time>2022-07-10T09:42:31.000Z</time>
      </trkpt>
      <trkpt lat="47.29031" lon="-2.30934">
        <ele>20.60000038147</ele>
        <time>2022-07-10T09:42:32.000Z</time>
      </trkpt>
      <trkpt lat="47.29031" lon="-2.30941">
        <ele>21</ele>
        <time>2022-07-10T09:42:33.000Z</time>
      </trkpt>
      <trkpt lat="47.29032" lon="-2.30948">
        <ele>21</ele>
        <time>2022-07-10T09:42:34.000Z</time>
      </trkpt>
      <trkpt lat="47.29034" lon="-2.30999">
        <ele>21.39999961853</ele>
        <time>2022-07-10T09:42:41.000Z</time>
      </trkpt>
      <trkpt lat="47.29034" lon="-2.31006">
        <ele>21.799999237061</ele>
        <time>2022-07-10T09:42:42.000Z</time>
      </trkpt>
      <trkpt lat="47.29034" lon="-2.31013">
        <ele>22.200000762939</ele>
        <time>2022-07-10T09:42:43.000Z</time>
      </trkpt>
      <trkpt lat="47.29034" lon="-2.3102">
        <ele>22.799999237061</ele>
        <time>2022-07-10T09:42:44.000Z</time>
      </trkpt>
      <trkpt lat="47.29033" lon="-2.31027">
        <ele>23.200000762939</ele>
        <time>2022-07-10T09:42:45.000Z</time>
      </trkpt>
      <trkpt lat="47.29033" lon="-2.31044">
        <ele>23.200000762939</ele>
        <time>2022-07-10T09:42:47.000Z</time>
      </trkpt>
      <trkpt lat="47.29034" lon="-2.31071">
        <ele>24</ele>
        <time>2022-07-10T09:42:50.000Z</time>
      </trkpt>
      <trkpt lat="47.29034" lon="-2.31081">
        <ele>24.39999961853</ele>
        <time>2022-07-10T09:42:51.000Z</time>
      </trkpt>
      <trkpt lat="47.29034" lon="-2.3109">
        <ele>24.799999237061</ele>
        <time>2022-07-10T09:42:52.000Z</time>
      </trkpt>
      <trkpt lat="47.29035" lon="-2.31099">
        <ele>25.200000762939</ele>
        <time>2022-07-10T09:42:53.000Z</time>
      </trkpt>
      <trkpt lat="47.29038" lon="-2.31144">
        <ele>25.799999237061</ele>
        <time>2022-07-10T09:42:58.000Z</time>
      </trkpt>
      <trkpt lat="47.29038" lon="-2.31153">
        <ele>26.200000762939</ele>
        <time>2022-07-10T09:42:59.000Z</time>
      </trkpt>
      <trkpt lat="47.29039" lon="-2.31161">
        <ele>26.60000038147</ele>
        <time>2022-07-10T09:43:00.000Z</time>
      </trkpt>
      <trkpt lat="47.2904" lon="-2.3117">
        <ele>27</ele>
        <time>2022-07-10T09:43:01.000Z</time>
      </trkpt>
      <trkpt lat="47.29041" lon="-2.31178">
        <ele>27.39999961853</ele>
        <time>2022-07-10T09:43:02.000Z</time>
      </trkpt>
      <trkpt lat="47.29043" lon="-2.31212">
        <ele>27.39999961853</ele>
        <time>2022-07-10T09:43:06.000Z</time>
      </trkpt>
      <trkpt lat="47.29042" lon="-2.3122">
        <ele>27.39999961853</ele>
        <time>2022-07-10T09:43:07.000Z</time>
      </trkpt>
      <trkpt lat="47.29032" lon="-2.31252">
        <ele>27.39999961853</ele>
        <time>2022-07-10T09:43:11.000Z</time>
      </trkpt>
      <trkpt lat="47.29028" lon="-2.31259">
        <ele>27.39999961853</ele>
        <time>2022-07-10T09:43:12.000Z</time>
      </trkpt>
      <trkpt lat="47.29004" lon="-2.31315">
        <ele>27.39999961853</ele>
        <time>2022-07-10T09:43:19.000Z</time>
      </trkpt>
      <trkpt lat="47.28996" lon="-2.31331">
        <ele>27.799999237061</ele>
        <time>2022-07-10T09:43:21.000Z</time>
      </trkpt>
      <trkpt lat="47.28992" lon="-2.31338">
        <ele>28.200000762939</ele>
        <time>2022-07-10T09:43:22.000Z</time>
      </trkpt>
      <trkpt lat="47.28988" lon="-2.31345">
        <ele>28.60000038147</ele>
        <time>2022-07-10T09:43:23.000Z</time>
      </trkpt>
      <trkpt lat="47.28984" lon="-2.31352">
        <ele>29</ele>
        <time>2022-07-10T09:43:24.000Z</time>
      </trkpt>
      <trkpt lat="47.2898" lon="-2.31358">
        <ele>29.39999961853</ele>
        <time>2022-07-10T09:43:25.000Z</time>
      </trkpt>
      <trkpt lat="47.28958" lon="-2.3138">
        <ele>29.39999961853</ele>
        <time>2022-07-10T09:43:29.000Z</time>
      </trkpt>
      <trkpt lat="47.28946" lon="-2.31388">
        <ele>29.39999961853</ele>
        <time>2022-07-10T09:43:31.000Z</time>
      </trkpt>
      <trkpt lat="47.2894" lon="-2.3139">
        <ele>29.39999961853</ele>
        <time>2022-07-10T09:43:32.000Z</time>
      </trkpt>
      <trkpt lat="47.28922" lon="-2.31391">
        <ele>29.39999961853</ele>
        <time>2022-07-10T09:43:35.000Z</time>
      </trkpt>
      <trkpt lat="47.28879" lon="-2.31397">
        <ele>29.39999961853</ele>
        <time>2022-07-10T09:43:42.000Z</time>
      </trkpt>
      <trkpt lat="47.2886" lon="-2.31404">
        <ele>30</ele>
        <time>2022-07-10T09:43:45.000Z</time>
      </trkpt>
      <trkpt lat="47.28854" lon="-2.31407">
        <ele>30.39999961853</ele>
        <time>2022-07-10T09:43:46.000Z</time>
      </trkpt>
      <trkpt lat="47.28848" lon="-2.3141">
        <ele>30.799999237061</ele>
        <time>2022-07-10T09:43:47.000Z</time>
      </trkpt>
      <trkpt lat="47.28842" lon="-2.31413">
        <ele>31.200000762939</ele>
        <time>2022-07-10T09:43:48.000Z</time>
      </trkpt>
      <trkpt lat="47.28836" lon="-2.31417">
        <ele>31.60000038147</ele>
        <time>2022-07-10T09:43:49.000Z</time>
      </trkpt>
      <trkpt lat="47.28811" lon="-2.31432">
        <ele>31.60000038147</ele>
        <time>2022-07-10T09:43:53.000Z</time>
      </trkpt>
      <trkpt lat="47.28805" lon="-2.31436">
        <ele>31.60000038147</ele>
        <time>2022-07-10T09:43:54.000Z</time>
      </trkpt>
      <trkpt lat="47.28774" lon="-2.31458">
        <ele>31.60000038147</ele>
        <time>2022-07-10T09:43:59.000Z</time>
      </trkpt>
      <trkpt lat="47.28755" lon="-2.31468">
        <ele>31.60000038147</ele>
        <time>2022-07-10T09:44:02.000Z</time>
      </trkpt>
      <trkpt lat="47.2872" lon="-2.31488">
        <ele>31.60000038147</ele>
        <time>2022-07-10T09:44:07.000Z</time>
      </trkpt>
      <trkpt lat="47.287" lon="-2.31495">
        <ele>31.60000038147</ele>
        <time>2022-07-10T09:44:10.000Z</time>
      </trkpt>
      <trkpt lat="47.28686" lon="-2.31491">
        <ele>31.60000038147</ele>
        <time>2022-07-10T09:44:12.000Z</time>
      </trkpt>
      <trkpt lat="47.28673" lon="-2.31472">
        <ele>32</ele>
        <time>2022-07-10T09:44:15.000Z</time>
      </trkpt>
      <trkpt lat="47.2867" lon="-2.31464">
        <ele>32.400001525879</ele>
        <time>2022-07-10T09:44:16.000Z</time>
      </trkpt>
      <trkpt lat="47.28667" lon="-2.31457">
        <ele>32.799999237061</ele>
        <time>2022-07-10T09:44:17.000Z</time>
      </trkpt>
      <trkpt lat="47.28663" lon="-2.31453">
        <ele>33.200000762939</ele>
        <time>2022-07-10T09:44:18.000Z</time>
      </trkpt>
      <trkpt lat="47.28658" lon="-2.31453">
        <ele>33.599998474121</ele>
        <time>2022-07-10T09:44:19.000Z</time>
      </trkpt>
      <trkpt lat="47.28642" lon="-2.31462">
        <ele>33.599998474121</ele>
        <time>2022-07-10T09:44:22.000Z</time>
      </trkpt>
      <trkpt lat="47.28626" lon="-2.31471">
        <ele>33.599998474121</ele>
        <time>2022-07-10T09:44:25.000Z</time>
      </trkpt>
      <trkpt lat="47.28622" lon="-2.31478">
        <ele>33.599998474121</ele>
        <time>2022-07-10T09:44:26.000Z</time>
      </trkpt>
      <trkpt lat="47.28621" lon="-2.31495">
        <ele>33.599998474121</ele>
        <time>2022-07-10T09:44:28.000Z</time>
      </trkpt>
      <trkpt lat="47.28624" lon="-2.31512">
        <ele>33.599998474121</ele>
        <time>2022-07-10T09:44:30.000Z</time>
      </trkpt>
      <trkpt lat="47.28626" lon="-2.31528">
        <ele>33.599998474121</ele>
        <time>2022-07-10T09:44:32.000Z</time>
      </trkpt>
      <trkpt lat="47.28626" lon="-2.31536">
        <ele>33.599998474121</ele>
        <time>2022-07-10T09:44:33.000Z</time>
      </trkpt>
      <trkpt lat="47.28625" lon="-2.31559">
        <ele>33.599998474121</ele>
        <time>2022-07-10T09:44:36.000Z</time>
      </trkpt>
      <trkpt lat="47.28624" lon="-2.3158">
        <ele>33.599998474121</ele>
        <time>2022-07-10T09:44:39.000Z</time>
      </trkpt>
      <trkpt lat="47.28623" lon="-2.31635">
        <ele>33.599998474121</ele>
        <time>2022-07-10T09:44:46.000Z</time>
      </trkpt>
      <trkpt lat="47.28628" lon="-2.31692">
        <ele>33.599998474121</ele>
        <time>2022-07-10T09:44:53.000Z</time>
      </trkpt>
      <trkpt lat="47.28639" lon="-2.31766">
        <ele>33.599998474121</ele>
        <time>2022-07-10T09:45:03.000Z</time>
      </trkpt>
      <trkpt lat="47.28648" lon="-2.31835">
        <ele>33.599998474121</ele>
        <time>2022-07-10T09:45:11.000Z</time>
      </trkpt>
      <trkpt lat="47.28655" lon="-2.31905">
        <ele>33.599998474121</ele>
        <time>2022-07-10T09:45:19.000Z</time>
      </trkpt>
      <trkpt lat="47.28664" lon="-2.31971">
        <ele>33.599998474121</ele>
        <time>2022-07-10T09:45:26.000Z</time>
      </trkpt>
      <trkpt lat="47.28678" lon="-2.32037">
        <ele>33.599998474121</ele>
        <time>2022-07-10T09:45:33.000Z</time>
      </trkpt>
      <trkpt lat="47.28693" lon="-2.32116">
        <ele>33.599998474121</ele>
        <time>2022-07-10T09:45:41.000Z</time>
      </trkpt>
      <trkpt lat="47.28694" lon="-2.32127">
        <ele>33.599998474121</ele>
        <time>2022-07-10T09:45:42.000Z</time>
      </trkpt>
      <trkpt lat="47.28693" lon="-2.32137">
        <ele>33.200000762939</ele>
        <time>2022-07-10T09:45:43.000Z</time>
      </trkpt>
      <trkpt lat="47.2869" lon="-2.32147">
        <ele>32.400001525879</ele>
        <time>2022-07-10T09:45:44.000Z</time>
      </trkpt>
      <trkpt lat="47.28687" lon="-2.32157">
        <ele>32</ele>
        <time>2022-07-10T09:45:45.000Z</time>
      </trkpt>
      <trkpt lat="47.28684" lon="-2.32166">
        <ele>31.60000038147</ele>
        <time>2022-07-10T09:45:46.000Z</time>
      </trkpt>
      <trkpt lat="47.2868" lon="-2.32175">
        <ele>31.60000038147</ele>
        <time>2022-07-10T09:45:47.000Z</time>
      </trkpt>
      <trkpt lat="47.2867" lon="-2.32193">
        <ele>31.60000038147</ele>
        <time>2022-07-10T09:45:49.000Z</time>
      </trkpt>
      <trkpt lat="47.28654" lon="-2.32217">
        <ele>31.60000038147</ele>
        <time>2022-07-10T09:45:52.000Z</time>
      </trkpt>
      <trkpt lat="47.28641" lon="-2.3223">
        <ele>31</ele>
        <time>2022-07-10T09:45:54.000Z</time>
      </trkpt>
      <trkpt lat="47.28634" lon="-2.32235">
        <ele>30.60000038147</ele>
        <time>2022-07-10T09:45:55.000Z</time>
      </trkpt>
      <trkpt lat="47.28626" lon="-2.32241">
        <ele>30</ele>
        <time>2022-07-10T09:45:56.000Z</time>
      </trkpt>
      <trkpt lat="47.28618" lon="-2.32246">
        <ele>29.60000038147</ele>
        <time>2022-07-10T09:45:57.000Z</time>
      </trkpt>
      <trkpt lat="47.28611" lon="-2.32251">
        <ele>29</ele>
        <time>2022-07-10T09:45:58.000Z</time>
      </trkpt>
      <trkpt lat="47.28568" lon="-2.32281">
        <ele>28.60000038147</ele>
        <time>2022-07-10T09:46:04.000Z</time>
      </trkpt>
      <trkpt lat="47.28562" lon="-2.32287">
        <ele>28.200000762939</ele>
        <time>2022-07-10T09:46:05.000Z</time>
      </trkpt>
      <trkpt lat="47.28555" lon="-2.32294">
        <ele>27.799999237061</ele>
        <time>2022-07-10T09:46:06.000Z</time>
      </trkpt>
      <trkpt lat="47.28548" lon="-2.32302">
        <ele>27.39999961853</ele>
        <time>2022-07-10T09:46:07.000Z</time>
      </trkpt>
      <trkpt lat="47.28541" lon="-2.32309">
        <ele>27</ele>
        <time>2022-07-10T09:46:08.000Z</time>
      </trkpt>
      <trkpt lat="47.28521" lon="-2.32328">
        <ele>27</ele>
        <time>2022-07-10T09:46:11.000Z</time>
      </trkpt>
      <trkpt lat="47.28489" lon="-2.32348">
        <ele>27</ele>
        <time>2022-07-10T09:46:16.000Z</time>
      </trkpt>
      <trkpt lat="47.2845" lon="-2.32373">
        <ele>26.39999961853</ele>
        <time>2022-07-10T09:46:22.000Z</time>
      </trkpt>
      <trkpt lat="47.28443" lon="-2.32377">
        <ele>26</ele>
        <time>2022-07-10T09:46:23.000Z</time>
      </trkpt>
      <trkpt lat="47.28437" lon="-2.32382">
        <ele>25.60000038147</ele>
        <time>2022-07-10T09:46:24.000Z</time>
      </trkpt>
      <trkpt lat="47.28431" lon="-2.32386">
        <ele>25.200000762939</ele>
        <time>2022-07-10T09:46:25.000Z</time>
      </trkpt>
      <trkpt lat="47.28425" lon="-2.3239">
        <ele>24.799999237061</ele>
        <time>2022-07-10T09:46:26.000Z</time>
      </trkpt>
      <trkpt lat="47.28394" lon="-2.32411">
        <ele>24.799999237061</ele>
        <time>2022-07-10T09:46:31.000Z</time>
      </trkpt>
      <trkpt lat="47.28378" lon="-2.32423">
        <ele>24.799999237061</ele>
        <time>2022-07-10T09:46:34.000Z</time>
      </trkpt>
      <trkpt lat="47.28376" lon="-2.32431">
        <ele>24.799999237061</ele>
        <time>2022-07-10T09:46:35.000Z</time>
      </trkpt>
      <trkpt lat="47.28378" lon="-2.32455">
        <ele>24.799999237061</ele>
        <time>2022-07-10T09:46:38.000Z</time>
      </trkpt>
      <trkpt lat="47.2839" lon="-2.32519">
        <ele>24.799999237061</ele>
        <time>2022-07-10T09:46:46.000Z</time>
      </trkpt>
      <trkpt lat="47.28387" lon="-2.32525">
        <ele>24.799999237061</ele>
        <time>2022-07-10T09:46:48.000Z</time>
      </trkpt>
      <trkpt lat="47.28384" lon="-2.32526">
        <ele>24.39999961853</ele>
        <time>2022-07-10T09:46:50.000Z</time>
      </trkpt>
      <trkpt lat="47.28382" lon="-2.32526">
        <ele>24</ele>
        <time>2022-07-10T09:46:51.000Z</time>
      </trkpt>
      <trkpt lat="47.2838" lon="-2.32527">
        <ele>23.60000038147</ele>
        <time>2022-07-10T09:46:52.000Z</time>
      </trkpt>
      <trkpt lat="47.28377" lon="-2.32527">
        <ele>23.200000762939</ele>
        <time>2022-07-10T09:46:53.000Z</time>
      </trkpt>
      <trkpt lat="47.28374" lon="-2.32526">
        <ele>22.799999237061</ele>
        <time>2022-07-10T09:46:54.000Z</time>
      </trkpt>
      <trkpt lat="47.28366" lon="-2.32525">
        <ele>22.799999237061</ele>
        <time>2022-07-10T09:46:56.000Z</time>
      </trkpt>
      <trkpt lat="47.28356" lon="-2.32526">
        <ele>22.799999237061</ele>
        <time>2022-07-10T09:46:58.000Z</time>
      </trkpt>
      <trkpt lat="47.28345" lon="-2.32526">
        <ele>22.799999237061</ele>
        <time>2022-07-10T09:47:00.000Z</time>
      </trkpt>
      <trkpt lat="47.28304" lon="-2.32527">
        <ele>22.799999237061</ele>
        <time>2022-07-10T09:47:07.000Z</time>
      </trkpt>
      <trkpt lat="47.28281" lon="-2.32526">
        <ele>22.799999237061</ele>
        <time>2022-07-10T09:47:11.000Z</time>
      </trkpt>
      <trkpt lat="47.2827" lon="-2.32522">
        <ele>22.799999237061</ele>
        <time>2022-07-10T09:47:13.000Z</time>
      </trkpt>
      <trkpt lat="47.28253" lon="-2.32507">
        <ele>22.799999237061</ele>
        <time>2022-07-10T09:47:17.000Z</time>
      </trkpt>
      <trkpt lat="47.28249" lon="-2.32501">
        <ele>22.799999237061</ele>
        <time>2022-07-10T09:47:18.000Z</time>
      </trkpt>
      <trkpt lat="47.28243" lon="-2.32489">
        <ele>22.799999237061</ele>
        <time>2022-07-10T09:47:21.000Z</time>
      </trkpt>
      <trkpt lat="47.28229" lon="-2.32472">
        <ele>22.799999237061</ele>
        <time>2022-07-10T09:47:26.000Z</time>
      </trkpt>
      <trkpt lat="47.28224" lon="-2.32469">
        <ele>22.799999237061</ele>
        <time>2022-07-10T09:47:27.000Z</time>
      </trkpt>
      <trkpt lat="47.28207" lon="-2.32461">
        <ele>22.799999237061</ele>
        <time>2022-07-10T09:47:30.000Z</time>
      </trkpt>
      <trkpt lat="47.28202" lon="-2.3246">
        <ele>22.799999237061</ele>
        <time>2022-07-10T09:47:31.000Z</time>
      </trkpt>
      <trkpt lat="47.28179" lon="-2.32455">
        <ele>22.799999237061</ele>
        <time>2022-07-10T09:47:35.000Z</time>
      </trkpt>
      <trkpt lat="47.2815" lon="-2.32457">
        <ele>22.799999237061</ele>
        <time>2022-07-10T09:47:40.000Z</time>
      </trkpt>
      <trkpt lat="47.28128" lon="-2.32456">
        <ele>22.799999237061</ele>
        <time>2022-07-10T09:47:44.000Z</time>
      </trkpt>
      <trkpt lat="47.28112" lon="-2.32451">
        <ele>22.799999237061</ele>
        <time>2022-07-10T09:47:47.000Z</time>
      </trkpt>
      <trkpt lat="47.28105" lon="-2.32448">
        <ele>22.799999237061</ele>
        <time>2022-07-10T09:47:49.000Z</time>
      </trkpt>
      <trkpt lat="47.28095" lon="-2.3244">
        <ele>22.799999237061</ele>
        <time>2022-07-10T09:47:53.000Z</time>
      </trkpt>
      <trkpt lat="47.28086" lon="-2.32436">
        <ele>22.799999237061</ele>
        <time>2022-07-10T09:47:55.000Z</time>
      </trkpt>
      <trkpt lat="47.28075" lon="-2.32435">
        <ele>22.799999237061</ele>
        <time>2022-07-10T09:47:57.000Z</time>
      </trkpt>
      <trkpt lat="47.2804" lon="-2.32432">
        <ele>22.799999237061</ele>
        <time>2022-07-10T09:48:03.000Z</time>
      </trkpt>
      <trkpt lat="47.28015" lon="-2.32428">
        <ele>23.200000762939</ele>
        <time>2022-07-10T09:48:07.000Z</time>
      </trkpt>
      <trkpt lat="47.28009" lon="-2.32426">
        <ele>23.60000038147</ele>
        <time>2022-07-10T09:48:08.000Z</time>
      </trkpt>
      <trkpt lat="47.28003" lon="-2.32424">
        <ele>24</ele>
        <time>2022-07-10T09:48:09.000Z</time>
      </trkpt>
      <trkpt lat="47.27997" lon="-2.32422">
        <ele>24.60000038147</ele>
        <time>2022-07-10T09:48:10.000Z</time>
      </trkpt>
      <trkpt lat="47.27991" lon="-2.3242">
        <ele>25</ele>
        <time>2022-07-10T09:48:11.000Z</time>
      </trkpt>
      <trkpt lat="47.27963" lon="-2.32407">
        <ele>25</ele>
        <time>2022-07-10T09:48:16.000Z</time>
      </trkpt>
      <trkpt lat="47.27957" lon="-2.32405">
        <ele>25</ele>
        <time>2022-07-10T09:48:17.000Z</time>
      </trkpt>
      <trkpt lat="47.27941" lon="-2.32402">
        <ele>25</ele>
        <time>2022-07-10T09:48:20.000Z</time>
      </trkpt>
      <trkpt lat="47.27917" lon="-2.32395">
        <ele>25</ele>
        <time>2022-07-10T09:48:25.000Z</time>
      </trkpt>
      <trkpt lat="47.27914" lon="-2.32393">
        <ele>25</ele>
        <time>2022-07-10T09:48:26.000Z</time>
      </trkpt>
      <trkpt lat="47.27892" lon="-2.32386">
        <ele>25</ele>
        <time>2022-07-10T09:48:32.000Z</time>
      </trkpt>
      <trkpt lat="47.27887" lon="-2.32388">
        <ele>25</ele>
        <time>2022-07-10T09:48:34.000Z</time>
      </trkpt>
      <trkpt lat="47.27885" lon="-2.32391">
        <ele>25</ele>
        <time>2022-07-10T09:48:35.000Z</time>
      </trkpt>
      <trkpt lat="47.27876" lon="-2.32388">
        <ele>25</ele>
        <time>2022-07-10T09:48:39.000Z</time>
      </trkpt>
      <trkpt lat="47.27861" lon="-2.32381">
        <ele>25</ele>
        <time>2022-07-10T09:48:44.000Z</time>
      </trkpt>
      <trkpt lat="47.27853" lon="-2.3238">
        <ele>25</ele>
        <time>2022-07-10T09:48:47.000Z</time>
      </trkpt>
      <trkpt lat="47.27838" lon="-2.32379">
        <ele>25</ele>
        <time>2022-07-10T09:48:51.000Z</time>
      </trkpt>
      <trkpt lat="47.27817" lon="-2.32383">
        <ele>25</ele>
        <time>2022-07-10T09:48:56.000Z</time>
      </trkpt>
      <trkpt lat="47.27797" lon="-2.32383">
        <ele>25.39999961853</ele>
        <time>2022-07-10T09:49:01.000Z</time>
      </trkpt>
      <trkpt lat="47.27794" lon="-2.32383">
        <ele>26.200000762939</ele>
        <time>2022-07-10T09:49:02.000Z</time>
      </trkpt>
      <trkpt lat="47.2779" lon="-2.32383">
        <ele>26.60000038147</ele>
        <time>2022-07-10T09:49:03.000Z</time>
      </trkpt>
      <trkpt lat="47.27787" lon="-2.32383">
        <ele>27</ele>
        <time>2022-07-10T09:49:04.000Z</time>
      </trkpt>
      <trkpt lat="47.27778" lon="-2.32384">
        <ele>27</ele>
        <time>2022-07-10T09:49:07.000Z</time>
      </trkpt>
      <trkpt lat="47.27775" lon="-2.3238">
        <ele>27</ele>
        <time>2022-07-10T09:49:08.000Z</time>
      </trkpt>
      <trkpt lat="47.27769" lon="-2.32372">
        <ele>27</ele>
        <time>2022-07-10T09:49:10.000Z</time>
      </trkpt>
      <trkpt lat="47.27748" lon="-2.3236">
        <ele>27</ele>
        <time>2022-07-10T09:49:15.000Z</time>
      </trkpt>
      <trkpt lat="47.27727" lon="-2.32347">
        <ele>27</ele>
        <time>2022-07-10T09:49:21.000Z</time>
      </trkpt>
      <trkpt lat="47.27705" lon="-2.32334">
        <ele>27</ele>
        <time>2022-07-10T09:49:28.000Z</time>
      </trkpt>
      <trkpt lat="47.27679" lon="-2.32326">
        <ele>27</ele>
        <time>2022-07-10T09:49:34.000Z</time>
      </trkpt>
      <trkpt lat="47.27642" lon="-2.32311">
        <ele>27</ele>
        <time>2022-07-10T09:49:41.000Z</time>
      </trkpt>
      <trkpt lat="47.27638" lon="-2.32309">
        <ele>27</ele>
        <time>2022-07-10T09:49:43.000Z</time>
      </trkpt>
      <trkpt lat="47.27623" lon="-2.32296">
        <ele>27</ele>
        <time>2022-07-10T09:49:47.000Z</time>
      </trkpt>
      <trkpt lat="47.27601" lon="-2.32281">
        <ele>27</ele>
        <time>2022-07-10T09:49:52.000Z</time>
      </trkpt>
      <trkpt lat="47.27583" lon="-2.32264">
        <ele>26.60000038147</ele>
        <time>2022-07-10T09:49:55.000Z</time>
      </trkpt>
      <trkpt lat="47.27577" lon="-2.32258">
        <ele>26.200000762939</ele>
        <time>2022-07-10T09:49:56.000Z</time>
      </trkpt>
      <trkpt lat="47.2757" lon="-2.32252">
        <ele>25.60000038147</ele>
        <time>2022-07-10T09:49:57.000Z</time>
      </trkpt>
      <trkpt lat="47.27564" lon="-2.32246">
        <ele>25.200000762939</ele>
        <time>2022-07-10T09:49:58.000Z</time>
      </trkpt>
      <trkpt lat="47.27557" lon="-2.32239">
        <ele>24.799999237061</ele>
        <time>2022-07-10T09:49:59.000Z</time>
      </trkpt>
      <trkpt lat="47.27536" lon="-2.32222">
        <ele>24.39999961853</ele>
        <time>2022-07-10T09:50:02.000Z</time>
      </trkpt>
      <trkpt lat="47.27529" lon="-2.32215">
        <ele>23.799999237061</ele>
        <time>2022-07-10T09:50:03.000Z</time>
      </trkpt>
      <trkpt lat="47.27522" lon="-2.32208">
        <ele>23.39999961853</ele>
        <time>2022-07-10T09:50:04.000Z</time>
      </trkpt>
      <trkpt lat="47.27516" lon="-2.32199">
        <ele>23</ele>
        <time>2022-07-10T09:50:05.000Z</time>
      </trkpt>
      <trkpt lat="47.2751" lon="-2.32192">
        <ele>22.60000038147</ele>
        <time>2022-07-10T09:50:06.000Z</time>
      </trkpt>
      <trkpt lat="47.27504" lon="-2.32184">
        <ele>22.60000038147</ele>
        <time>2022-07-10T09:50:07.000Z</time>
      </trkpt>
      <trkpt lat="47.27497" lon="-2.32176">
        <ele>22</ele>
        <time>2022-07-10T09:50:08.000Z</time>
      </trkpt>
      <trkpt lat="47.27491" lon="-2.32167">
        <ele>21.39999961853</ele>
        <time>2022-07-10T09:50:09.000Z</time>
      </trkpt>
      <trkpt lat="47.27485" lon="-2.32158">
        <ele>21</ele>
        <time>2022-07-10T09:50:10.000Z</time>
      </trkpt>
      <trkpt lat="47.27479" lon="-2.3215">
        <ele>20.39999961853</ele>
        <time>2022-07-10T09:50:11.000Z</time>
      </trkpt>
      <trkpt lat="47.27473" lon="-2.32143">
        <ele>19.799999237061</ele>
        <time>2022-07-10T09:50:12.000Z</time>
      </trkpt>
      <trkpt lat="47.27467" lon="-2.32135">
        <ele>19.799999237061</ele>
        <time>2022-07-10T09:50:13.000Z</time>
      </trkpt>
      <trkpt lat="47.27436" lon="-2.32094">
        <ele>19.799999237061</ele>
        <time>2022-07-10T09:50:19.000Z</time>
      </trkpt>
      <trkpt lat="47.27407" lon="-2.32058">
        <ele>19.799999237061</ele>
        <time>2022-07-10T09:50:24.000Z</time>
      </trkpt>
      <trkpt lat="47.27401" lon="-2.32052">
        <ele>19.39999961853</ele>
        <time>2022-07-10T09:50:25.000Z</time>
      </trkpt>
      <trkpt lat="47.27394" lon="-2.32045">
        <ele>19</ele>
        <time>2022-07-10T09:50:26.000Z</time>
      </trkpt>
      <trkpt lat="47.27388" lon="-2.32039">
        <ele>18.60000038147</ele>
        <time>2022-07-10T09:50:27.000Z</time>
      </trkpt>
      <trkpt lat="47.27381" lon="-2.32033">
        <ele>18.200000762939</ele>
        <time>2022-07-10T09:50:28.000Z</time>
      </trkpt>
      <trkpt lat="47.27373" lon="-2.32026">
        <ele>17.799999237061</ele>
        <time>2022-07-10T09:50:29.000Z</time>
      </trkpt>
      <trkpt lat="47.27366" lon="-2.32019">
        <ele>17.200000762939</ele>
        <time>2022-07-10T09:50:30.000Z</time>
      </trkpt>
      <trkpt lat="47.27359" lon="-2.32012">
        <ele>16.799999237061</ele>
        <time>2022-07-10T09:50:31.000Z</time>
      </trkpt>
      <trkpt lat="47.27352" lon="-2.32005">
        <ele>16.200000762939</ele>
        <time>2022-07-10T09:50:32.000Z</time>
      </trkpt>
      <trkpt lat="47.27345" lon="-2.31997">
        <ele>15.800000190735</ele>
        <time>2022-07-10T09:50:33.000Z</time>
      </trkpt>
      <trkpt lat="47.27338" lon="-2.3199">
        <ele>15.199999809265</ele>
        <time>2022-07-10T09:50:34.000Z</time>
      </trkpt>
      <trkpt lat="47.27319" lon="-2.3197">
        <ele>15.199999809265</ele>
        <time>2022-07-10T09:50:37.000Z</time>
      </trkpt>
      <trkpt lat="47.27303" lon="-2.31953">
        <ele>14.39999961853</ele>
        <time>2022-07-10T09:50:40.000Z</time>
      </trkpt>
      <trkpt lat="47.27297" lon="-2.3195">
        <ele>14</ele>
        <time>2022-07-10T09:50:41.000Z</time>
      </trkpt>
      <trkpt lat="47.27292" lon="-2.31947">
        <ele>13.60000038147</ele>
        <time>2022-07-10T09:50:42.000Z</time>
      </trkpt>
      <trkpt lat="47.27287" lon="-2.31944">
        <ele>13.199999809265</ele>
        <time>2022-07-10T09:50:43.000Z</time>
      </trkpt>
      <trkpt lat="47.2726" lon="-2.31933">
        <ele>13.199999809265</ele>
        <time>2022-07-10T09:50:48.000Z</time>
      </trkpt>
      <trkpt lat="47.27239" lon="-2.31928">
        <ele>13.199999809265</ele>
        <time>2022-07-10T09:50:53.000Z</time>
      </trkpt>
      <trkpt lat="47.27221" lon="-2.31925">
        <ele>13.199999809265</ele>
        <time>2022-07-10T09:50:58.000Z</time>
      </trkpt>
      <trkpt lat="47.27217" lon="-2.31928">
        <ele>13.199999809265</ele>
        <time>2022-07-10T09:50:59.000Z</time>
      </trkpt>
      <trkpt lat="47.27211" lon="-2.31935">
        <ele>13.199999809265</ele>
        <time>2022-07-10T09:51:01.000Z</time>
      </trkpt>
      <trkpt lat="47.27205" lon="-2.31945">
        <ele>13.199999809265</ele>
        <time>2022-07-10T09:51:03.000Z</time>
      </trkpt>
      <trkpt lat="47.27183" lon="-2.31968">
        <ele>13.199999809265</ele>
        <time>2022-07-10T09:51:08.000Z</time>
      </trkpt>
      <trkpt lat="47.27179" lon="-2.31975">
        <ele>13.199999809265</ele>
        <time>2022-07-10T09:51:09.000Z</time>
      </trkpt>
      <trkpt lat="47.27166" lon="-2.31991">
        <ele>13.199999809265</ele>
        <time>2022-07-10T09:51:12.000Z</time>
      </trkpt>
      <trkpt lat="47.27148" lon="-2.31986">
        <ele>13.199999809265</ele>
        <time>2022-07-10T09:51:15.000Z</time>
      </trkpt>
      <trkpt lat="47.27139" lon="-2.31977">
        <ele>13.199999809265</ele>
        <time>2022-07-10T09:51:17.000Z</time>
      </trkpt>
      <trkpt lat="47.27122" lon="-2.31965">
        <ele>13.199999809265</ele>
        <time>2022-07-10T09:51:20.000Z</time>
      </trkpt>
      <trkpt lat="47.2709" lon="-2.3195">
        <ele>13.199999809265</ele>
        <time>2022-07-10T09:51:26.000Z</time>
      </trkpt>
      <trkpt lat="47.27084" lon="-2.3195">
        <ele>13.199999809265</ele>
        <time>2022-07-10T09:51:27.000Z</time>
      </trkpt>
      <trkpt lat="47.27067" lon="-2.31951">
        <ele>13.199999809265</ele>
        <time>2022-07-10T09:51:30.000Z</time>
      </trkpt>
      <trkpt lat="47.27061" lon="-2.31951">
        <ele>13.199999809265</ele>
        <time>2022-07-10T09:51:31.000Z</time>
      </trkpt>
      <trkpt lat="47.27046" lon="-2.31949">
        <ele>13.199999809265</ele>
        <time>2022-07-10T09:51:34.000Z</time>
      </trkpt>
      <trkpt lat="47.27041" lon="-2.31951">
        <ele>13.60000038147</ele>
        <time>2022-07-10T09:51:35.000Z</time>
      </trkpt>
      <trkpt lat="47.27037" lon="-2.31954">
        <ele>14.199999809265</ele>
        <time>2022-07-10T09:51:36.000Z</time>
      </trkpt>
      <trkpt lat="47.27032" lon="-2.31957">
        <ele>14.60000038147</ele>
        <time>2022-07-10T09:51:37.000Z</time>
      </trkpt>
      <trkpt lat="47.27027" lon="-2.3196">
        <ele>15</ele>
        <time>2022-07-10T09:51:38.000Z</time>
      </trkpt>
      <trkpt lat="47.27022" lon="-2.31964">
        <ele>15.39999961853</ele>
        <time>2022-07-10T09:51:39.000Z</time>
      </trkpt>
      <trkpt lat="47.27008" lon="-2.31977">
        <ele>15.39999961853</ele>
        <time>2022-07-10T09:51:42.000Z</time>
      </trkpt>
      <trkpt lat="47.27007" lon="-2.31983">
        <ele>15.39999961853</ele>
        <time>2022-07-10T09:51:43.000Z</time>
      </trkpt>
      <trkpt lat="47.27008" lon="-2.31987">
        <ele>15.39999961853</ele>
        <time>2022-07-10T09:51:44.000Z</time>
      </trkpt>
      <trkpt lat="47.27012" lon="-2.32">
        <ele>15.39999961853</ele>
        <time>2022-07-10T09:51:48.000Z</time>
      </trkpt>
      <trkpt lat="47.27018" lon="-2.32025">
        <ele>15.39999961853</ele>
        <time>2022-07-10T09:51:53.000Z</time>
      </trkpt>
      <trkpt lat="47.27021" lon="-2.32038">
        <ele>14.60000038147</ele>
        <time>2022-07-10T09:51:55.000Z</time>
      </trkpt>
      <trkpt lat="47.27021" lon="-2.32045">
        <ele>14.199999809265</ele>
        <time>2022-07-10T09:51:56.000Z</time>
      </trkpt>
      <trkpt lat="47.27022" lon="-2.32052">
        <ele>13.800000190735</ele>
        <time>2022-07-10T09:51:57.000Z</time>
      </trkpt>
      <trkpt lat="47.27022" lon="-2.32059">
        <ele>13.39999961853</ele>
        <time>2022-07-10T09:51:58.000Z</time>
      </trkpt>
      <trkpt lat="47.27021" lon="-2.32066">
        <ele>13.39999961853</ele>
        <time>2022-07-10T09:51:59.000Z</time>
      </trkpt>
      <trkpt lat="47.27018" lon="-2.32092">
        <ele>13.39999961853</ele>
        <time>2022-07-10T09:52:02.000Z</time>
      </trkpt>
      <trkpt lat="47.27014" lon="-2.32106">
        <ele>13.39999961853</ele>
        <time>2022-07-10T09:52:04.000Z</time>
      </trkpt>
      <trkpt lat="47.27011" lon="-2.32112">
        <ele>13</ele>
        <time>2022-07-10T09:52:05.000Z</time>
      </trkpt>
      <trkpt lat="47.27007" lon="-2.32117">
        <ele>12.60000038147</ele>
        <time>2022-07-10T09:52:06.000Z</time>
      </trkpt>
      <trkpt lat="47.27002" lon="-2.32121">
        <ele>12</ele>
        <time>2022-07-10T09:52:07.000Z</time>
      </trkpt>
      <trkpt lat="47.26997" lon="-2.32126">
        <ele>11.60000038147</ele>
        <time>2022-07-10T09:52:08.000Z</time>
      </trkpt>
      <trkpt lat="47.26994" lon="-2.32132">
        <ele>11.199999809265</ele>
        <time>2022-07-10T09:52:09.000Z</time>
      </trkpt>
      <trkpt lat="47.26995" lon="-2.32145">
        <ele>11.199999809265</ele>
        <time>2022-07-10T09:52:11.000Z</time>
      </trkpt>
      <trkpt lat="47.27004" lon="-2.3216">
        <ele>11.199999809265</ele>
        <time>2022-07-10T09:52:15.000Z</time>
      </trkpt>
      <trkpt lat="47.27008" lon="-2.32166">
        <ele>11.199999809265</ele>
        <time>2022-07-10T09:52:17.000Z</time>
      </trkpt>
      <trkpt lat="47.27016" lon="-2.32177">
        <ele>11.199999809265</ele>
        <time>2022-07-10T09:52:21.000Z</time>
      </trkpt>
      <trkpt lat="47.27017" lon="-2.32181">
        <ele>11.199999809265</ele>
        <time>2022-07-10T09:52:22.000Z</time>
      </trkpt>
      <trkpt lat="47.2702" lon="-2.32196">
        <ele>11.199999809265</ele>
        <time>2022-07-10T09:52:25.000Z</time>
      </trkpt>
      <trkpt lat="47.27024" lon="-2.32223">
        <ele>11.199999809265</ele>
        <time>2022-07-10T09:52:29.000Z</time>
      </trkpt>
      <trkpt lat="47.27024" lon="-2.32231">
        <ele>11.199999809265</ele>
        <time>2022-07-10T09:52:30.000Z</time>
      </trkpt>
      <trkpt lat="47.27024" lon="-2.32248">
        <ele>11.199999809265</ele>
        <time>2022-07-10T09:52:32.000Z</time>
      </trkpt>
      <trkpt lat="47.27023" lon="-2.32258">
        <ele>11.199999809265</ele>
        <time>2022-07-10T09:52:33.000Z</time>
      </trkpt>
      <trkpt lat="47.27023" lon="-2.32319">
        <ele>11.199999809265</ele>
        <time>2022-07-10T09:52:39.000Z</time>
      </trkpt>
      <trkpt lat="47.27023" lon="-2.32337">
        <ele>11.199999809265</ele>
        <time>2022-07-10T09:52:41.000Z</time>
      </trkpt>
      <trkpt lat="47.27027" lon="-2.32371">
        <ele>11.199999809265</ele>
        <time>2022-07-10T09:52:45.000Z</time>
      </trkpt>
      <trkpt lat="47.27031" lon="-2.32437">
        <ele>11.199999809265</ele>
        <time>2022-07-10T09:52:52.000Z</time>
      </trkpt>
      <trkpt lat="47.2703" lon="-2.32483">
        <ele>11.199999809265</ele>
        <time>2022-07-10T09:52:57.000Z</time>
      </trkpt>
      <trkpt lat="47.27027" lon="-2.3249">
        <ele>11.199999809265</ele>
        <time>2022-07-10T09:52:58.000Z</time>
      </trkpt>
      <trkpt lat="47.27014" lon="-2.32501">
        <ele>11.199999809265</ele>
        <time>2022-07-10T09:53:01.000Z</time>
      </trkpt>
      <trkpt lat="47.26999" lon="-2.32495">
        <ele>11.199999809265</ele>
        <time>2022-07-10T09:53:04.000Z</time>
      </trkpt>
      <trkpt lat="47.2699" lon="-2.32477">
        <ele>11.199999809265</ele>
        <time>2022-07-10T09:53:07.000Z</time>
      </trkpt>
      <trkpt lat="47.26987" lon="-2.3247">
        <ele>11.199999809265</ele>
        <time>2022-07-10T09:53:08.000Z</time>
      </trkpt>
      <trkpt lat="47.26983" lon="-2.32464">
        <ele>11.199999809265</ele>
        <time>2022-07-10T09:53:09.000Z</time>
      </trkpt>
      <trkpt lat="47.26972" lon="-2.32445">
        <ele>11.199999809265</ele>
        <time>2022-07-10T09:53:12.000Z</time>
      </trkpt>
      <trkpt lat="47.26956" lon="-2.32423">
        <ele>11.199999809265</ele>
        <time>2022-07-10T09:53:16.000Z</time>
      </trkpt>
      <trkpt lat="47.2695" lon="-2.3241">
        <ele>11.199999809265</ele>
        <time>2022-07-10T09:53:18.000Z</time>
      </trkpt>
      <trkpt lat="47.26948" lon="-2.32404">
        <ele>11.60000038147</ele>
        <time>2022-07-10T09:53:19.000Z</time>
      </trkpt>
      <trkpt lat="47.26946" lon="-2.32398">
        <ele>12</ele>
        <time>2022-07-10T09:53:20.000Z</time>
      </trkpt>
      <trkpt lat="47.26944" lon="-2.32393">
        <ele>12.39999961853</ele>
        <time>2022-07-10T09:53:21.000Z</time>
      </trkpt>
      <trkpt lat="47.26942" lon="-2.32388">
        <ele>12.800000190735</ele>
        <time>2022-07-10T09:53:22.000Z</time>
      </trkpt>
      <trkpt lat="47.26941" lon="-2.32383">
        <ele>13.199999809265</ele>
        <time>2022-07-10T09:53:23.000Z</time>
      </trkpt>
      <trkpt lat="47.2694" lon="-2.32378">
        <ele>13.199999809265</ele>
        <time>2022-07-10T09:53:24.000Z</time>
      </trkpt>
      <trkpt lat="47.26931" lon="-2.32348">
        <ele>13.199999809265</ele>
        <time>2022-07-10T09:53:31.000Z</time>
      </trkpt>
      <trkpt lat="47.26916" lon="-2.32334">
        <ele>13.199999809265</ele>
        <time>2022-07-10T09:53:37.000Z</time>
      </trkpt>
      <trkpt lat="47.26899" lon="-2.32339">
        <ele>13.199999809265</ele>
        <time>2022-07-10T09:53:43.000Z</time>
      </trkpt>
      <trkpt lat="47.26888" lon="-2.32341">
        <ele>13.60000038147</ele>
        <time>2022-07-10T09:53:47.000Z</time>
      </trkpt>
      <trkpt lat="47.26886" lon="-2.32341">
        <ele>14</ele>
        <time>2022-07-10T09:53:48.000Z</time>
      </trkpt>
      <trkpt lat="47.26883" lon="-2.32341">
        <ele>14.39999961853</ele>
        <time>2022-07-10T09:53:49.000Z</time>
      </trkpt>
      <trkpt lat="47.2688" lon="-2.32342">
        <ele>14.800000190735</ele>
        <time>2022-07-10T09:53:50.000Z</time>
      </trkpt>
      <trkpt lat="47.26877" lon="-2.32343">
        <ele>15.39999961853</ele>
        <time>2022-07-10T09:53:51.000Z</time>
      </trkpt>
      <trkpt lat="47.26857" lon="-2.32348">
        <ele>15.800000190735</ele>
        <time>2022-07-10T09:53:57.000Z</time>
      </trkpt>
      <trkpt lat="47.26853" lon="-2.32349">
        <ele>16.60000038147</ele>
        <time>2022-07-10T09:53:58.000Z</time>
      </trkpt>
      <trkpt lat="47.2685" lon="-2.32349">
        <ele>17</ele>
        <time>2022-07-10T09:53:59.000Z</time>
      </trkpt>
      <trkpt lat="47.26846" lon="-2.3235">
        <ele>17.60000038147</ele>
        <time>2022-07-10T09:54:00.000Z</time>
      </trkpt>
      <trkpt lat="47.26832" lon="-2.32355">
        <ele>17.60000038147</ele>
        <time>2022-07-10T09:54:04.000Z</time>
      </trkpt>
      <trkpt lat="47.26824" lon="-2.32357">
        <ele>18</ele>
        <time>2022-07-10T09:54:06.000Z</time>
      </trkpt>
      <trkpt lat="47.2682" lon="-2.32358">
        <ele>18.39999961853</ele>
        <time>2022-07-10T09:54:07.000Z</time>
      </trkpt>
      <trkpt lat="47.26816" lon="-2.32359">
        <ele>19</ele>
        <time>2022-07-10T09:54:08.000Z</time>
      </trkpt>
      <trkpt lat="47.26812" lon="-2.3236">
        <ele>19.39999961853</ele>
        <time>2022-07-10T09:54:09.000Z</time>
      </trkpt>
      <trkpt lat="47.26809" lon="-2.32361">
        <ele>19.799999237061</ele>
        <time>2022-07-10T09:54:10.000Z</time>
      </trkpt>
      <trkpt lat="47.26801" lon="-2.32362">
        <ele>20.200000762939</ele>
        <time>2022-07-10T09:54:12.000Z</time>
      </trkpt>
      <trkpt lat="47.26797" lon="-2.32363">
        <ele>20.60000038147</ele>
        <time>2022-07-10T09:54:13.000Z</time>
      </trkpt>
      <trkpt lat="47.26794" lon="-2.32365">
        <ele>21</ele>
        <time>2022-07-10T09:54:14.000Z</time>
      </trkpt>
      <trkpt lat="47.2679" lon="-2.32366">
        <ele>21.39999961853</ele>
        <time>2022-07-10T09:54:15.000Z</time>
      </trkpt>
      <trkpt lat="47.26787" lon="-2.32367">
        <ele>21.799999237061</ele>
        <time>2022-07-10T09:54:16.000Z</time>
      </trkpt>
      <trkpt lat="47.26783" lon="-2.32369">
        <ele>21.799999237061</ele>
        <time>2022-07-10T09:54:17.000Z</time>
      </trkpt>
      <trkpt lat="47.26781" lon="-2.32373">
        <ele>21.799999237061</ele>
        <time>2022-07-10T09:54:18.000Z</time>
      </trkpt>
      <trkpt lat="47.26779" lon="-2.32384">
        <ele>21.799999237061</ele>
        <time>2022-07-10T09:54:20.000Z</time>
      </trkpt>
      <trkpt lat="47.26779" lon="-2.32389">
        <ele>22.200000762939</ele>
        <time>2022-07-10T09:54:21.000Z</time>
      </trkpt>
      <trkpt lat="47.2678" lon="-2.32395">
        <ele>22.60000038147</ele>
        <time>2022-07-10T09:54:22.000Z</time>
      </trkpt>
      <trkpt lat="47.26781" lon="-2.32401">
        <ele>23.60000038147</ele>
        <time>2022-07-10T09:54:23.000Z</time>
      </trkpt>
      <trkpt lat="47.26782" lon="-2.32407">
        <ele>24</ele>
        <time>2022-07-10T09:54:24.000Z</time>
      </trkpt>
      <trkpt lat="47.26788" lon="-2.32451">
        <ele>24</ele>
        <time>2022-07-10T09:54:30.000Z</time>
      </trkpt>
      <trkpt lat="47.26789" lon="-2.32459">
        <ele>24</ele>
        <time>2022-07-10T09:54:31.000Z</time>
      </trkpt>
      <trkpt lat="47.26792" lon="-2.32494">
        <ele>24</ele>
        <time>2022-07-10T09:54:35.000Z</time>
      </trkpt>
      <trkpt lat="47.26797" lon="-2.32549">
        <ele>24</ele>
        <time>2022-07-10T09:54:41.000Z</time>
      </trkpt>
      <trkpt lat="47.26801" lon="-2.32594">
        <ele>24</ele>
        <time>2022-07-10T09:54:46.000Z</time>
      </trkpt>
      <trkpt lat="47.26809" lon="-2.32648">
        <ele>24</ele>
        <time>2022-07-10T09:54:53.000Z</time>
      </trkpt>
      <trkpt lat="47.26809" lon="-2.32656">
        <ele>24</ele>
        <time>2022-07-10T09:54:54.000Z</time>
      </trkpt>
      <trkpt lat="47.26803" lon="-2.32676">
        <ele>24</ele>
        <time>2022-07-10T09:54:57.000Z</time>
      </trkpt>
      <trkpt lat="47.26803" lon="-2.32702">
        <ele>24</ele>
        <time>2022-07-10T09:55:00.000Z</time>
      </trkpt>
      <trkpt lat="47.26809" lon="-2.32717">
        <ele>24</ele>
        <time>2022-07-10T09:55:02.000Z</time>
      </trkpt>
      <trkpt lat="47.26815" lon="-2.32731">
        <ele>24</ele>
        <time>2022-07-10T09:55:04.000Z</time>
      </trkpt>
      <trkpt lat="47.26822" lon="-2.32746">
        <ele>23.39999961853</ele>
        <time>2022-07-10T09:55:06.000Z</time>
      </trkpt>
      <trkpt lat="47.26826" lon="-2.32753">
        <ele>23</ele>
        <time>2022-07-10T09:55:07.000Z</time>
      </trkpt>
      <trkpt lat="47.2683" lon="-2.32763">
        <ele>22.60000038147</ele>
        <time>2022-07-10T09:55:08.000Z</time>
      </trkpt>
      <trkpt lat="47.26833" lon="-2.32773">
        <ele>22</ele>
        <time>2022-07-10T09:55:09.000Z</time>
      </trkpt>
      <trkpt lat="47.26836" lon="-2.32782">
        <ele>21.60000038147</ele>
        <time>2022-07-10T09:55:10.000Z</time>
      </trkpt>
      <trkpt lat="47.26839" lon="-2.32793">
        <ele>21</ele>
        <time>2022-07-10T09:55:11.000Z</time>
      </trkpt>
      <trkpt lat="47.26842" lon="-2.32804">
        <ele>20.60000038147</ele>
        <time>2022-07-10T09:55:12.000Z</time>
      </trkpt>
      <trkpt lat="47.26844" lon="-2.32816">
        <ele>19.60000038147</ele>
        <time>2022-07-10T09:55:13.000Z</time>
      </trkpt>
      <trkpt lat="47.26848" lon="-2.32827">
        <ele>19</ele>
        <time>2022-07-10T09:55:14.000Z</time>
      </trkpt>
      <trkpt lat="47.26851" lon="-2.32837">
        <ele>18.39999961853</ele>
        <time>2022-07-10T09:55:15.000Z</time>
      </trkpt>
      <trkpt lat="47.26855" lon="-2.32848">
        <ele>17.39999961853</ele>
        <time>2022-07-10T09:55:16.000Z</time>
      </trkpt>
      <trkpt lat="47.26859" lon="-2.32858">
        <ele>16.60000038147</ele>
        <time>2022-07-10T09:55:17.000Z</time>
      </trkpt>
      <trkpt lat="47.26862" lon="-2.32867">
        <ele>15.800000190735</ele>
        <time>2022-07-10T09:55:18.000Z</time>
      </trkpt>
      <trkpt lat="47.26863" lon="-2.32873">
        <ele>15</ele>
        <time>2022-07-10T09:55:19.000Z</time>
      </trkpt>
      <trkpt lat="47.26864" lon="-2.32877">
        <ele>14.199999809265</ele>
        <time>2022-07-10T09:55:20.000Z</time>
      </trkpt>
      <trkpt lat="47.26863" lon="-2.3288">
        <ele>13.199999809265</ele>
        <time>2022-07-10T09:55:21.000Z</time>
      </trkpt>
      <trkpt lat="47.26861" lon="-2.32882">
        <ele>12.39999961853</ele>
        <time>2022-07-10T09:55:22.000Z</time>
      </trkpt>
      <trkpt lat="47.26857" lon="-2.32884">
        <ele>11.60000038147</ele>
        <time>2022-07-10T09:55:23.000Z</time>
      </trkpt>
      <trkpt lat="47.26848" lon="-2.32886">
        <ele>11.60000038147</ele>
        <time>2022-07-10T09:55:25.000Z</time>
      </trkpt>
      <trkpt lat="47.26843" lon="-2.32886">
        <ele>11.60000038147</ele>
        <time>2022-07-10T09:55:26.000Z</time>
      </trkpt>
      <trkpt lat="47.26833" lon="-2.32892">
        <ele>11.60000038147</ele>
        <time>2022-07-10T09:55:28.000Z</time>
      </trkpt>
      <trkpt lat="47.26824" lon="-2.32899">
        <ele>11.60000038147</ele>
        <time>2022-07-10T09:55:30.000Z</time>
      </trkpt>
      <trkpt lat="47.2682" lon="-2.32904">
        <ele>11.60000038147</ele>
        <time>2022-07-10T09:55:31.000Z</time>
      </trkpt>
      <trkpt lat="47.26801" lon="-2.3292">
        <ele>11.60000038147</ele>
        <time>2022-07-10T09:55:35.000Z</time>
      </trkpt>
      <trkpt lat="47.26779" lon="-2.32934">
        <ele>11.60000038147</ele>
        <time>2022-07-10T09:55:39.000Z</time>
      </trkpt>
      <trkpt lat="47.26774" lon="-2.32939">
        <ele>11.60000038147</ele>
        <time>2022-07-10T09:55:40.000Z</time>
      </trkpt>
      <trkpt lat="47.26761" lon="-2.32955">
        <ele>11.60000038147</ele>
        <time>2022-07-10T09:55:43.000Z</time>
      </trkpt>
      <trkpt lat="47.26751" lon="-2.32965">
        <ele>11.60000038147</ele>
        <time>2022-07-10T09:55:45.000Z</time>
      </trkpt>
      <trkpt lat="47.26738" lon="-2.32985">
        <ele>11.60000038147</ele>
        <time>2022-07-10T09:55:48.000Z</time>
      </trkpt>
      <trkpt lat="47.26734" lon="-2.33002">
        <ele>11.60000038147</ele>
        <time>2022-07-10T09:55:50.000Z</time>
      </trkpt>
      <trkpt lat="47.26731" lon="-2.33038">
        <ele>11.199999809265</ele>
        <time>2022-07-10T09:55:54.000Z</time>
      </trkpt>
      <trkpt lat="47.2673" lon="-2.33045">
        <ele>10.800000190735</ele>
        <time>2022-07-10T09:55:55.000Z</time>
      </trkpt>
      <trkpt lat="47.26728" lon="-2.33053">
        <ele>10.39999961853</ele>
        <time>2022-07-10T09:55:56.000Z</time>
      </trkpt>
      <trkpt lat="47.26725" lon="-2.33061">
        <ele>9.8000001907349</ele>
        <time>2022-07-10T09:55:57.000Z</time>
      </trkpt>
      <trkpt lat="47.26722" lon="-2.33068">
        <ele>9.3999996185303</ele>
        <time>2022-07-10T09:55:58.000Z</time>
      </trkpt>
      <trkpt lat="47.2671" lon="-2.33085">
        <ele>9.3999996185303</ele>
        <time>2022-07-10T09:56:01.000Z</time>
      </trkpt>
      <trkpt lat="47.26706" lon="-2.3309">
        <ele>9.3999996185303</ele>
        <time>2022-07-10T09:56:02.000Z</time>
      </trkpt>
      <trkpt lat="47.26701" lon="-2.33093">
        <ele>9.3999996185303</ele>
        <time>2022-07-10T09:56:03.000Z</time>
      </trkpt>
      <trkpt lat="47.26685" lon="-2.33108">
        <ele>9.3999996185303</ele>
        <time>2022-07-10T09:56:07.000Z</time>
      </trkpt>
      <trkpt lat="47.26682" lon="-2.33112">
        <ele>9.3999996185303</ele>
        <time>2022-07-10T09:56:08.000Z</time>
      </trkpt>
      <trkpt lat="47.26658" lon="-2.33132">
        <ele>9.3999996185303</ele>
        <time>2022-07-10T09:56:14.000Z</time>
      </trkpt>
      <trkpt lat="47.2663" lon="-2.33151">
        <ele>9.3999996185303</ele>
        <time>2022-07-10T09:56:21.000Z</time>
      </trkpt>
      <trkpt lat="47.26616" lon="-2.3315">
        <ele>9.3999996185303</ele>
        <time>2022-07-10T09:56:25.000Z</time>
      </trkpt>
      <trkpt lat="47.26612" lon="-2.3315">
        <ele>9.3999996185303</ele>
        <time>2022-07-10T09:56:26.000Z</time>
      </trkpt>
      <trkpt lat="47.26609" lon="-2.33153">
        <ele>9.3999996185303</ele>
        <time>2022-07-10T09:56:27.000Z</time>
      </trkpt>
      <trkpt lat="47.26607" lon="-2.33159">
        <ele>9.3999996185303</ele>
        <time>2022-07-10T09:56:29.000Z</time>
      </trkpt>
      <trkpt lat="47.26603" lon="-2.33165">
        <ele>9.3999996185303</ele>
        <time>2022-07-10T09:56:31.000Z</time>
      </trkpt>
      <trkpt lat="47.26596" lon="-2.33179">
        <ele>9.3999996185303</ele>
        <time>2022-07-10T09:56:34.000Z</time>
      </trkpt>
      <trkpt lat="47.26586" lon="-2.33202">
        <ele>9.3999996185303</ele>
        <time>2022-07-10T09:56:39.000Z</time>
      </trkpt>
      <trkpt lat="47.2656" lon="-2.3322">
        <ele>9.3999996185303</ele>
        <time>2022-07-10T09:56:45.000Z</time>
      </trkpt>
      <trkpt lat="47.26534" lon="-2.33238">
        <ele>9.3999996185303</ele>
        <time>2022-07-10T09:56:51.000Z</time>
      </trkpt>
      <trkpt lat="47.26508" lon="-2.33255">
        <ele>9.3999996185303</ele>
        <time>2022-07-10T09:56:58.000Z</time>
      </trkpt>
      <trkpt lat="47.26496" lon="-2.33271">
        <ele>9.3999996185303</ele>
        <time>2022-07-10T09:57:03.000Z</time>
      </trkpt>
      <trkpt lat="47.26489" lon="-2.33279">
        <ele>9.3999996185303</ele>
        <time>2022-07-10T09:57:06.000Z</time>
      </trkpt>
      <trkpt lat="47.26484" lon="-2.3328">
        <ele>9.3999996185303</ele>
        <time>2022-07-10T09:57:08.000Z</time>
      </trkpt>
      <trkpt lat="47.26483" lon="-2.33281">
        <ele>9.3999996185303</ele>
        <time>2022-07-10T09:57:10.000Z</time>
      </trkpt>
      <trkpt lat="47.2648" lon="-2.33286">
        <ele>9.3999996185303</ele>
        <time>2022-07-10T09:57:30.000Z</time>
      </trkpt>
      <trkpt lat="47.26473" lon="-2.33301">
        <ele>9.3999996185303</ele>
        <time>2022-07-10T09:57:35.000Z</time>
      </trkpt>
      <trkpt lat="47.26464" lon="-2.33309">
        <ele>9.3999996185303</ele>
        <time>2022-07-10T09:57:38.000Z</time>
      </trkpt>
      <trkpt lat="47.26461" lon="-2.33312">
        <ele>9.3999996185303</ele>
        <time>2022-07-10T09:57:39.000Z</time>
      </trkpt>
      <trkpt lat="47.2645" lon="-2.33323">
        <ele>9.3999996185303</ele>
        <time>2022-07-10T09:57:42.000Z</time>
      </trkpt>
      <trkpt lat="47.26438" lon="-2.33332">
        <ele>9.3999996185303</ele>
        <time>2022-07-10T09:57:45.000Z</time>
      </trkpt>
      <trkpt lat="47.26408" lon="-2.33354">
        <ele>9.3999996185303</ele>
        <time>2022-07-10T09:57:53.000Z</time>
      </trkpt>
      <trkpt lat="47.26379" lon="-2.33373">
        <ele>9.3999996185303</ele>
        <time>2022-07-10T09:58:01.000Z</time>
      </trkpt>
      <trkpt lat="47.26349" lon="-2.33389">
        <ele>9.3999996185303</ele>
        <time>2022-07-10T09:58:08.000Z</time>
      </trkpt>
      <trkpt lat="47.26324" lon="-2.33403">
        <ele>9.3999996185303</ele>
        <time>2022-07-10T09:58:14.000Z</time>
      </trkpt>
      <trkpt lat="47.26318" lon="-2.33409">
        <ele>9.3999996185303</ele>
        <time>2022-07-10T09:58:16.000Z</time>
      </trkpt>
      <trkpt lat="47.26304" lon="-2.33419">
        <ele>9.3999996185303</ele>
        <time>2022-07-10T09:58:20.000Z</time>
      </trkpt>
      <trkpt lat="47.26285" lon="-2.33424">
        <ele>9.3999996185303</ele>
        <time>2022-07-10T09:58:24.000Z</time>
      </trkpt>
      <trkpt lat="47.2628" lon="-2.33425">
        <ele>9.3999996185303</ele>
        <time>2022-07-10T09:58:25.000Z</time>
      </trkpt>
      <trkpt lat="47.26252" lon="-2.33431">
        <ele>9.3999996185303</ele>
        <time>2022-07-10T09:58:31.000Z</time>
      </trkpt>
      <trkpt lat="47.26219" lon="-2.33437">
        <ele>9.3999996185303</ele>
        <time>2022-07-10T09:58:38.000Z</time>
      </trkpt>
      <trkpt lat="47.26186" lon="-2.33441">
        <ele>9.3999996185303</ele>
        <time>2022-07-10T09:58:45.000Z</time>
      </trkpt>
      <trkpt lat="47.26181" lon="-2.33441">
        <ele>9.3999996185303</ele>
        <time>2022-07-10T09:58:46.000Z</time>
      </trkpt>
      <trkpt lat="47.26166" lon="-2.33438">
        <ele>9.3999996185303</ele>
        <time>2022-07-10T09:58:50.000Z</time>
      </trkpt>
      <trkpt lat="47.2614" lon="-2.33431">
        <ele>9.3999996185303</ele>
        <time>2022-07-10T09:58:57.000Z</time>
      </trkpt>
      <trkpt lat="47.26133" lon="-2.33446">
        <ele>9.3999996185303</ele>
        <time>2022-07-10T09:59:00.000Z</time>
      </trkpt>
      <trkpt lat="47.26118" lon="-2.33451">
        <ele>9.3999996185303</ele>
        <time>2022-07-10T09:59:03.000Z</time>
      </trkpt>
      <trkpt lat="47.26105" lon="-2.3346">
        <ele>9.3999996185303</ele>
        <time>2022-07-10T09:59:06.000Z</time>
      </trkpt>
      <trkpt lat="47.26095" lon="-2.33467">
        <ele>9.3999996185303</ele>
        <time>2022-07-10T09:59:08.000Z</time>
      </trkpt>
      <trkpt lat="47.26075" lon="-2.33466">
        <ele>9.3999996185303</ele>
        <time>2022-07-10T09:59:12.000Z</time>
      </trkpt>
      <trkpt lat="47.26059" lon="-2.3345">
        <ele>9.3999996185303</ele>
        <time>2022-07-10T09:59:16.000Z</time>
      </trkpt>
      <trkpt lat="47.26055" lon="-2.33451">
        <ele>9.3999996185303</ele>
        <time>2022-07-10T09:59:17.000Z</time>
      </trkpt>
      <trkpt lat="47.2605" lon="-2.33455">
        <ele>9.3999996185303</ele>
        <time>2022-07-10T09:59:18.000Z</time>
      </trkpt>
      <trkpt lat="47.26041" lon="-2.33474">
        <ele>9.3999996185303</ele>
        <time>2022-07-10T09:59:21.000Z</time>
      </trkpt>
      <trkpt lat="47.26036" lon="-2.3348">
        <ele>9.3999996185303</ele>
        <time>2022-07-10T09:59:22.000Z</time>
      </trkpt>
      <trkpt lat="47.26019" lon="-2.33488">
        <ele>9.3999996185303</ele>
        <time>2022-07-10T09:59:25.000Z</time>
      </trkpt>
      <trkpt lat="47.26013" lon="-2.33489">
        <ele>9.3999996185303</ele>
        <time>2022-07-10T09:59:26.000Z</time>
      </trkpt>
      <trkpt lat="47.25985" lon="-2.33494">
        <ele>9.3999996185303</ele>
        <time>2022-07-10T09:59:31.000Z</time>
      </trkpt>
      <trkpt lat="47.2598" lon="-2.33498">
        <ele>9.3999996185303</ele>
        <time>2022-07-10T09:59:32.000Z</time>
      </trkpt>
      <trkpt lat="47.25964" lon="-2.33504">
        <ele>9.3999996185303</ele>
        <time>2022-07-10T09:59:35.000Z</time>
      </trkpt>
      <trkpt lat="47.25959" lon="-2.33503">
        <ele>9.3999996185303</ele>
        <time>2022-07-10T09:59:36.000Z</time>
      </trkpt>
      <trkpt lat="47.25944" lon="-2.33515">
        <ele>9.3999996185303</ele>
        <time>2022-07-10T09:59:39.000Z</time>
      </trkpt>
      <trkpt lat="47.2591" lon="-2.33543">
        <ele>9.3999996185303</ele>
        <time>2022-07-10T09:59:46.000Z</time>
      </trkpt>
      <trkpt lat="47.25877" lon="-2.3357">
        <ele>9.3999996185303</ele>
        <time>2022-07-10T09:59:53.000Z</time>
      </trkpt>
      <trkpt lat="47.25861" lon="-2.33577">
        <ele>9.3999996185303</ele>
        <time>2022-07-10T09:59:56.000Z</time>
      </trkpt>
      <trkpt lat="47.25849" lon="-2.33578">
        <ele>9.3999996185303</ele>
        <time>2022-07-10T09:59:58.000Z</time>
      </trkpt>
      <trkpt lat="47.25832" lon="-2.33578">
        <ele>9.8000001907349</ele>
        <time>2022-07-10T10:00:01.000Z</time>
      </trkpt>
      <trkpt lat="47.25826" lon="-2.33578">
        <ele>10.39999961853</ele>
        <time>2022-07-10T10:00:02.000Z</time>
      </trkpt>
      <trkpt lat="47.2582" lon="-2.33579">
        <ele>10.800000190735</ele>
        <time>2022-07-10T10:00:03.000Z</time>
      </trkpt>
      <trkpt lat="47.25814" lon="-2.33579">
        <ele>11.199999809265</ele>
        <time>2022-07-10T10:00:04.000Z</time>
      </trkpt>
      <trkpt lat="47.25808" lon="-2.3358">
        <ele>11.60000038147</ele>
        <time>2022-07-10T10:00:05.000Z</time>
      </trkpt>
      <trkpt lat="47.25765" lon="-2.33582">
        <ele>11.60000038147</ele>
        <time>2022-07-10T10:00:12.000Z</time>
      </trkpt>
      <trkpt lat="47.25748" lon="-2.33586">
        <ele>11.60000038147</ele>
        <time>2022-07-10T10:00:15.000Z</time>
      </trkpt>
      <trkpt lat="47.25737" lon="-2.33587">
        <ele>11.60000038147</ele>
        <time>2022-07-10T10:00:17.000Z</time>
      </trkpt>
      <trkpt lat="47.25719" lon="-2.33585">
        <ele>11.60000038147</ele>
        <time>2022-07-10T10:00:20.000Z</time>
      </trkpt>
      <trkpt lat="47.25713" lon="-2.33585">
        <ele>11.60000038147</ele>
        <time>2022-07-10T10:00:21.000Z</time>
      </trkpt>
      <trkpt lat="47.2569" lon="-2.33585">
        <ele>11.60000038147</ele>
        <time>2022-07-10T10:00:25.000Z</time>
      </trkpt>
      <trkpt lat="47.25677" lon="-2.33583">
        <ele>11.60000038147</ele>
        <time>2022-07-10T10:00:27.000Z</time>
      </trkpt>
      <trkpt lat="47.2564" lon="-2.33569">
        <ele>11.60000038147</ele>
        <time>2022-07-10T10:00:33.000Z</time>
      </trkpt>
      <trkpt lat="47.25607" lon="-2.33545">
        <ele>11.60000038147</ele>
        <time>2022-07-10T10:00:39.000Z</time>
      </trkpt>
      <trkpt lat="47.25579" lon="-2.33511">
        <ele>11.60000038147</ele>
        <time>2022-07-10T10:00:45.000Z</time>
      </trkpt>
      <trkpt lat="47.25566" lon="-2.33491">
        <ele>11.60000038147</ele>
        <time>2022-07-10T10:00:48.000Z</time>
      </trkpt>
      <trkpt lat="47.25551" lon="-2.33463">
        <ele>11.60000038147</ele>
        <time>2022-07-10T10:00:52.000Z</time>
      </trkpt>
      <trkpt lat="47.25536" lon="-2.33417">
        <ele>11.60000038147</ele>
        <time>2022-07-10T10:00:58.000Z</time>
      </trkpt>
      <trkpt lat="47.25527" lon="-2.33367">
        <ele>11.60000038147</ele>
        <time>2022-07-10T10:01:04.000Z</time>
      </trkpt>
      <trkpt lat="47.2552" lon="-2.33316">
        <ele>11.60000038147</ele>
        <time>2022-07-10T10:01:10.000Z</time>
      </trkpt>
      <trkpt lat="47.25517" lon="-2.33291">
        <ele>12</ele>
        <time>2022-07-10T10:01:13.000Z</time>
      </trkpt>
      <trkpt lat="47.25516" lon="-2.33282">
        <ele>12.39999961853</ele>
        <time>2022-07-10T10:01:14.000Z</time>
      </trkpt>
      <trkpt lat="47.25515" lon="-2.33274">
        <ele>12.800000190735</ele>
        <time>2022-07-10T10:01:15.000Z</time>
      </trkpt>
      <trkpt lat="47.25513" lon="-2.33265">
        <ele>13.199999809265</ele>
        <time>2022-07-10T10:01:16.000Z</time>
      </trkpt>
      <trkpt lat="47.25513" lon="-2.33257">
        <ele>13.60000038147</ele>
        <time>2022-07-10T10:01:17.000Z</time>
      </trkpt>
      <trkpt lat="47.25507" lon="-2.33215">
        <ele>13.60000038147</ele>
        <time>2022-07-10T10:01:22.000Z</time>
      </trkpt>
      <trkpt lat="47.25504" lon="-2.33199">
        <ele>13.60000038147</ele>
        <time>2022-07-10T10:01:24.000Z</time>
      </trkpt>
      <trkpt lat="47.25499" lon="-2.33166">
        <ele>13.60000038147</ele>
        <time>2022-07-10T10:01:28.000Z</time>
      </trkpt>
      <trkpt lat="47.25492" lon="-2.3311">
        <ele>13.60000038147</ele>
        <time>2022-07-10T10:01:35.000Z</time>
      </trkpt>
      <trkpt lat="47.25489" lon="-2.33096">
        <ele>13.60000038147</ele>
        <time>2022-07-10T10:01:37.000Z</time>
      </trkpt>
      <trkpt lat="47.25479" lon="-2.33095">
        <ele>13.60000038147</ele>
        <time>2022-07-10T10:01:39.000Z</time>
      </trkpt>
      <trkpt lat="47.25469" lon="-2.331">
        <ele>13.60000038147</ele>
        <time>2022-07-10T10:01:41.000Z</time>
      </trkpt>
      <trkpt lat="47.25459" lon="-2.33105">
        <ele>13.60000038147</ele>
        <time>2022-07-10T10:01:43.000Z</time>
      </trkpt>
      <trkpt lat="47.25423" lon="-2.33121">
        <ele>13.60000038147</ele>
        <time>2022-07-10T10:01:50.000Z</time>
      </trkpt>
      <trkpt lat="47.25387" lon="-2.33138">
        <ele>13.60000038147</ele>
        <time>2022-07-10T10:01:58.000Z</time>
      </trkpt>
      <trkpt lat="47.25383" lon="-2.33138">
        <ele>13.60000038147</ele>
        <time>2022-07-10T10:01:59.000Z</time>
      </trkpt>
      <trkpt lat="47.25377" lon="-2.33129">
        <ele>13.60000038147</ele>
        <time>2022-07-10T10:02:01.000Z</time>
      </trkpt>
      <trkpt lat="47.25371" lon="-2.33118">
        <ele>13.60000038147</ele>
        <time>2022-07-10T10:02:05.000Z</time>
      </trkpt>
      <trkpt lat="47.2537" lon="-2.33117">
        <ele>13.60000038147</ele>
        <time>2022-07-10T10:02:08.000Z</time>
      </trkpt>
      <trkpt lat="47.2537" lon="-2.33104">
        <ele>11.60000038147</ele>
        <time>2022-07-10T10:23:25.000Z</time>
      </trkpt>
      <trkpt lat="47.25369" lon="-2.33101">
        <ele>11.60000038147</ele>
        <time>2022-07-10T10:23:26.000Z</time>
      </trkpt>
      <trkpt lat="47.25359" lon="-2.33075">
        <ele>11.60000038147</ele>
        <time>2022-07-10T10:23:32.000Z</time>
      </trkpt>
      <trkpt lat="47.25345" lon="-2.33038">
        <ele>11.60000038147</ele>
        <time>2022-07-10T10:23:40.000Z</time>
      </trkpt>
      <trkpt lat="47.25328" lon="-2.33002">
        <ele>11.60000038147</ele>
        <time>2022-07-10T10:23:48.000Z</time>
      </trkpt>
      <trkpt lat="47.25319" lon="-2.32977">
        <ele>11.60000038147</ele>
        <time>2022-07-10T10:23:54.000Z</time>
      </trkpt>
      <trkpt lat="47.25309" lon="-2.32951">
        <ele>11.60000038147</ele>
        <time>2022-07-10T10:24:01.000Z</time>
      </trkpt>
      <trkpt lat="47.25307" lon="-2.32924">
        <ele>11.60000038147</ele>
        <time>2022-07-10T10:24:06.000Z</time>
      </trkpt>
      <trkpt lat="47.25317" lon="-2.32908">
        <ele>11.60000038147</ele>
        <time>2022-07-10T10:24:10.000Z</time>
      </trkpt>
      <trkpt lat="47.25342" lon="-2.32884">
        <ele>11.60000038147</ele>
        <time>2022-07-10T10:24:17.000Z</time>
      </trkpt>
      <trkpt lat="47.25346" lon="-2.32881">
        <ele>11.60000038147</ele>
        <time>2022-07-10T10:24:18.000Z</time>
      </trkpt>
      <trkpt lat="47.25368" lon="-2.32861">
        <ele>11.60000038147</ele>
        <time>2022-07-10T10:24:24.000Z</time>
      </trkpt>
      <trkpt lat="47.25385" lon="-2.32844">
        <ele>11.60000038147</ele>
        <time>2022-07-10T10:24:29.000Z</time>
      </trkpt>
      <trkpt lat="47.25388" lon="-2.3284">
        <ele>11.60000038147</ele>
        <time>2022-07-10T10:24:30.000Z</time>
      </trkpt>
      <trkpt lat="47.25404" lon="-2.32819">
        <ele>11.60000038147</ele>
        <time>2022-07-10T10:24:35.000Z</time>
      </trkpt>
      <trkpt lat="47.2541" lon="-2.32811">
        <ele>11.60000038147</ele>
        <time>2022-07-10T10:24:37.000Z</time>
      </trkpt>
      <trkpt lat="47.25423" lon="-2.32788">
        <ele>11.60000038147</ele>
        <time>2022-07-10T10:24:42.000Z</time>
      </trkpt>
      <trkpt lat="47.25425" lon="-2.32783">
        <ele>12</ele>
        <time>2022-07-10T10:24:43.000Z</time>
      </trkpt>
      <trkpt lat="47.25427" lon="-2.32778">
        <ele>12.39999961853</ele>
        <time>2022-07-10T10:24:44.000Z</time>
      </trkpt>
      <trkpt lat="47.25428" lon="-2.32773">
        <ele>12.800000190735</ele>
        <time>2022-07-10T10:24:45.000Z</time>
      </trkpt>
      <trkpt lat="47.25431" lon="-2.32769">
        <ele>13.199999809265</ele>
        <time>2022-07-10T10:24:46.000Z</time>
      </trkpt>
      <trkpt lat="47.25434" lon="-2.32766">
        <ele>13.60000038147</ele>
        <time>2022-07-10T10:24:47.000Z</time>
      </trkpt>
      <trkpt lat="47.25437" lon="-2.32762">
        <ele>13.60000038147</ele>
        <time>2022-07-10T10:24:48.000Z</time>
      </trkpt>
      <trkpt lat="47.25462" lon="-2.3273">
        <ele>13.60000038147</ele>
        <time>2022-07-10T10:24:56.000Z</time>
      </trkpt>
      <trkpt lat="47.25465" lon="-2.32725">
        <ele>13.60000038147</ele>
        <time>2022-07-10T10:24:57.000Z</time>
      </trkpt>
      <trkpt lat="47.25479" lon="-2.32703">
        <ele>13.60000038147</ele>
        <time>2022-07-10T10:25:02.000Z</time>
      </trkpt>
      <trkpt lat="47.25485" lon="-2.32693">
        <ele>13.60000038147</ele>
        <time>2022-07-10T10:25:04.000Z</time>
      </trkpt>
      <trkpt lat="47.25489" lon="-2.32676">
        <ele>13.60000038147</ele>
        <time>2022-07-10T10:25:07.000Z</time>
      </trkpt>
      <trkpt lat="47.25489" lon="-2.32658">
        <ele>14</ele>
        <time>2022-07-10T10:25:10.000Z</time>
      </trkpt>
      <trkpt lat="47.25488" lon="-2.32652">
        <ele>14.60000038147</ele>
        <time>2022-07-10T10:25:11.000Z</time>
      </trkpt>
      <trkpt lat="47.25487" lon="-2.32647">
        <ele>15</ele>
        <time>2022-07-10T10:25:12.000Z</time>
      </trkpt>
      <trkpt lat="47.25486" lon="-2.32641">
        <ele>15.39999961853</ele>
        <time>2022-07-10T10:25:13.000Z</time>
      </trkpt>
      <trkpt lat="47.25485" lon="-2.32635">
        <ele>15.800000190735</ele>
        <time>2022-07-10T10:25:14.000Z</time>
      </trkpt>
      <trkpt lat="47.25481" lon="-2.32618">
        <ele>15.800000190735</ele>
        <time>2022-07-10T10:25:17.000Z</time>
      </trkpt>
      <trkpt lat="47.25479" lon="-2.32606">
        <ele>15.800000190735</ele>
        <time>2022-07-10T10:25:19.000Z</time>
      </trkpt>
      <trkpt lat="47.25472" lon="-2.32566">
        <ele>15.800000190735</ele>
        <time>2022-07-10T10:25:27.000Z</time>
      </trkpt>
      <trkpt lat="47.25483" lon="-2.32558">
        <ele>15.800000190735</ele>
        <time>2022-07-10T10:25:30.000Z</time>
      </trkpt>
      <trkpt lat="47.25509" lon="-2.32532">
        <ele>15.800000190735</ele>
        <time>2022-07-10T10:25:37.000Z</time>
      </trkpt>
      <trkpt lat="47.25541" lon="-2.32502">
        <ele>15.39999961853</ele>
        <time>2022-07-10T10:25:45.000Z</time>
      </trkpt>
      <trkpt lat="47.25545" lon="-2.32498">
        <ele>15</ele>
        <time>2022-07-10T10:25:46.000Z</time>
      </trkpt>
      <trkpt lat="47.2555" lon="-2.32494">
        <ele>14.60000038147</ele>
        <time>2022-07-10T10:25:47.000Z</time>
      </trkpt>
      <trkpt lat="47.25554" lon="-2.3249">
        <ele>14</ele>
        <time>2022-07-10T10:25:48.000Z</time>
      </trkpt>
      <trkpt lat="47.25559" lon="-2.32486">
        <ele>13.60000038147</ele>
        <time>2022-07-10T10:25:49.000Z</time>
      </trkpt>
      <trkpt lat="47.25574" lon="-2.32471">
        <ele>13.60000038147</ele>
        <time>2022-07-10T10:25:52.000Z</time>
      </trkpt>
      <trkpt lat="47.25588" lon="-2.32456">
        <ele>13.199999809265</ele>
        <time>2022-07-10T10:25:55.000Z</time>
      </trkpt>
      <trkpt lat="47.25593" lon="-2.32451">
        <ele>12.800000190735</ele>
        <time>2022-07-10T10:25:56.000Z</time>
      </trkpt>
      <trkpt lat="47.25598" lon="-2.32446">
        <ele>12.39999961853</ele>
        <time>2022-07-10T10:25:57.000Z</time>
      </trkpt>
      <trkpt lat="47.25603" lon="-2.3244">
        <ele>12</ele>
        <time>2022-07-10T10:25:58.000Z</time>
      </trkpt>
      <trkpt lat="47.25608" lon="-2.32435">
        <ele>11.60000038147</ele>
        <time>2022-07-10T10:25:59.000Z</time>
      </trkpt>
      <trkpt lat="47.25623" lon="-2.32418">
        <ele>11.199999809265</ele>
        <time>2022-07-10T10:26:02.000Z</time>
      </trkpt>
      <trkpt lat="47.25628" lon="-2.32413">
        <ele>10.800000190735</ele>
        <time>2022-07-10T10:26:03.000Z</time>
      </trkpt>
      <trkpt lat="47.25633" lon="-2.32408">
        <ele>10.39999961853</ele>
        <time>2022-07-10T10:26:04.000Z</time>
      </trkpt>
      <trkpt lat="47.25638" lon="-2.32404">
        <ele>10</ele>
        <time>2022-07-10T10:26:05.000Z</time>
      </trkpt>
      <trkpt lat="47.25644" lon="-2.32403">
        <ele>9.6000003814697</ele>
        <time>2022-07-10T10:26:06.000Z</time>
      </trkpt>
      <trkpt lat="47.25655" lon="-2.32402">
        <ele>9.6000003814697</ele>
        <time>2022-07-10T10:26:08.000Z</time>
      </trkpt>
      <trkpt lat="47.2566" lon="-2.32403">
        <ele>9.6000003814697</ele>
        <time>2022-07-10T10:26:09.000Z</time>
      </trkpt>
      <trkpt lat="47.25675" lon="-2.32411">
        <ele>9.6000003814697</ele>
        <time>2022-07-10T10:26:12.000Z</time>
      </trkpt>
      <trkpt lat="47.25679" lon="-2.32415">
        <ele>9.6000003814697</ele>
        <time>2022-07-10T10:26:13.000Z</time>
      </trkpt>
      <trkpt lat="47.25695" lon="-2.32418">
        <ele>9.6000003814697</ele>
        <time>2022-07-10T10:26:16.000Z</time>
      </trkpt>
      <trkpt lat="47.25733" lon="-2.32421">
        <ele>9.6000003814697</ele>
        <time>2022-07-10T10:26:23.000Z</time>
      </trkpt>
      <trkpt lat="47.25739" lon="-2.32421">
        <ele>9.6000003814697</ele>
        <time>2022-07-10T10:26:24.000Z</time>
      </trkpt>
      <trkpt lat="47.25765" lon="-2.32418">
        <ele>9.6000003814697</ele>
        <time>2022-07-10T10:26:29.000Z</time>
      </trkpt>
      <trkpt lat="47.25773" lon="-2.32414">
        <ele>9.6000003814697</ele>
        <time>2022-07-10T10:26:31.000Z</time>
      </trkpt>
      <trkpt lat="47.25785" lon="-2.32416">
        <ele>9.6000003814697</ele>
        <time>2022-07-10T10:26:34.000Z</time>
      </trkpt>
      <trkpt lat="47.25788" lon="-2.32421">
        <ele>9.6000003814697</ele>
        <time>2022-07-10T10:26:35.000Z</time>
      </trkpt>
      <trkpt lat="47.25798" lon="-2.3244">
        <ele>9.6000003814697</ele>
        <time>2022-07-10T10:26:38.000Z</time>
      </trkpt>
      <trkpt lat="47.25802" lon="-2.32446">
        <ele>9.6000003814697</ele>
        <time>2022-07-10T10:26:39.000Z</time>
      </trkpt>
      <trkpt lat="47.25823" lon="-2.32462">
        <ele>9.6000003814697</ele>
        <time>2022-07-10T10:26:43.000Z</time>
      </trkpt>
      <trkpt lat="47.25854" lon="-2.32473">
        <ele>9.6000003814697</ele>
        <time>2022-07-10T10:26:49.000Z</time>
      </trkpt>
      <trkpt lat="47.25865" lon="-2.32473">
        <ele>9.6000003814697</ele>
        <time>2022-07-10T10:26:51.000Z</time>
      </trkpt>
      <trkpt lat="47.25881" lon="-2.32469">
        <ele>9.6000003814697</ele>
        <time>2022-07-10T10:26:54.000Z</time>
      </trkpt>
      <trkpt lat="47.25891" lon="-2.32465">
        <ele>9.6000003814697</ele>
        <time>2022-07-10T10:26:56.000Z</time>
      </trkpt>
      <trkpt lat="47.259" lon="-2.32455">
        <ele>9.6000003814697</ele>
        <time>2022-07-10T10:26:58.000Z</time>
      </trkpt>
      <trkpt lat="47.25909" lon="-2.32445">
        <ele>9.6000003814697</ele>
        <time>2022-07-10T10:27:00.000Z</time>
      </trkpt>
      <trkpt lat="47.25929" lon="-2.32419">
        <ele>9.1999998092651</ele>
        <time>2022-07-10T10:27:05.000Z</time>
      </trkpt>
      <trkpt lat="47.25933" lon="-2.32414">
        <ele>8.8000001907349</ele>
        <time>2022-07-10T10:27:06.000Z</time>
      </trkpt>
      <trkpt lat="47.25938" lon="-2.32409">
        <ele>8.3999996185303</ele>
        <time>2022-07-10T10:27:07.000Z</time>
      </trkpt>
      <trkpt lat="47.25942" lon="-2.32404">
        <ele>7.8000001907349</ele>
        <time>2022-07-10T10:27:08.000Z</time>
      </trkpt>
      <trkpt lat="47.25945" lon="-2.32399">
        <ele>7.4000000953674</ele>
        <time>2022-07-10T10:27:09.000Z</time>
      </trkpt>
      <trkpt lat="47.25957" lon="-2.32384">
        <ele>7.4000000953674</ele>
        <time>2022-07-10T10:27:12.000Z</time>
      </trkpt>
      <trkpt lat="47.25993" lon="-2.32339">
        <ele>7.4000000953674</ele>
        <time>2022-07-10T10:27:21.000Z</time>
      </trkpt>
      <trkpt lat="47.26018" lon="-2.32307">
        <ele>7.4000000953674</ele>
        <time>2022-07-10T10:27:28.000Z</time>
      </trkpt>
      <trkpt lat="47.26045" lon="-2.32277">
        <ele>7.4000000953674</ele>
        <time>2022-07-10T10:27:35.000Z</time>
      </trkpt>
      <trkpt lat="47.26078" lon="-2.32239">
        <ele>7.4000000953674</ele>
        <time>2022-07-10T10:27:44.000Z</time>
      </trkpt>
      <trkpt lat="47.26091" lon="-2.32219">
        <ele>7.4000000953674</ele>
        <time>2022-07-10T10:27:48.000Z</time>
      </trkpt>
      <trkpt lat="47.26101" lon="-2.32205">
        <ele>7.4000000953674</ele>
        <time>2022-07-10T10:27:51.000Z</time>
      </trkpt>
      <trkpt lat="47.26112" lon="-2.32182">
        <ele>7.4000000953674</ele>
        <time>2022-07-10T10:27:55.000Z</time>
      </trkpt>
      <trkpt lat="47.26127" lon="-2.3214">
        <ele>7.4000000953674</ele>
        <time>2022-07-10T10:28:02.000Z</time>
      </trkpt>
      <trkpt lat="47.26142" lon="-2.32094">
        <ele>7.4000000953674</ele>
        <time>2022-07-10T10:28:09.000Z</time>
      </trkpt>
      <trkpt lat="47.26143" lon="-2.32088">
        <ele>7.4000000953674</ele>
        <time>2022-07-10T10:28:10.000Z</time>
      </trkpt>
      <trkpt lat="47.2616" lon="-2.32033">
        <ele>7.4000000953674</ele>
        <time>2022-07-10T10:28:19.000Z</time>
      </trkpt>
      <trkpt lat="47.2617" lon="-2.32019">
        <ele>7.4000000953674</ele>
        <time>2022-07-10T10:28:23.000Z</time>
      </trkpt>
      <trkpt lat="47.26185" lon="-2.32021">
        <ele>7.4000000953674</ele>
        <time>2022-07-10T10:28:27.000Z</time>
      </trkpt>
      <trkpt lat="47.26192" lon="-2.32024">
        <ele>7.4000000953674</ele>
        <time>2022-07-10T10:28:31.000Z</time>
      </trkpt>
      <trkpt lat="47.26195" lon="-2.32024">
        <ele>7.4000000953674</ele>
        <time>2022-07-10T10:28:33.000Z</time>
      </trkpt>
      <trkpt lat="47.26198" lon="-2.32017">
        <ele>7.4000000953674</ele>
        <time>2022-07-10T10:28:35.000Z</time>
      </trkpt>
      <trkpt lat="47.26203" lon="-2.32004">
        <ele>7.4000000953674</ele>
        <time>2022-07-10T10:28:40.000Z</time>
      </trkpt>
      <trkpt lat="47.26208" lon="-2.31997">
        <ele>7.4000000953674</ele>
        <time>2022-07-10T10:28:43.000Z</time>
      </trkpt>
      <trkpt lat="47.26213" lon="-2.31991">
        <ele>7.4000000953674</ele>
        <time>2022-07-10T10:28:45.000Z</time>
      </trkpt>
      <trkpt lat="47.26229" lon="-2.31973">
        <ele>7.4000000953674</ele>
        <time>2022-07-10T10:28:50.000Z</time>
      </trkpt>
      <trkpt lat="47.26247" lon="-2.31956">
        <ele>7.4000000953674</ele>
        <time>2022-07-10T10:28:55.000Z</time>
      </trkpt>
      <trkpt lat="47.26254" lon="-2.31937">
        <ele>7.4000000953674</ele>
        <time>2022-07-10T10:29:00.000Z</time>
      </trkpt>
      <trkpt lat="47.2627" lon="-2.31916">
        <ele>7.4000000953674</ele>
        <time>2022-07-10T10:29:06.000Z</time>
      </trkpt>
      <trkpt lat="47.26292" lon="-2.31892">
        <ele>7.4000000953674</ele>
        <time>2022-07-10T10:29:13.000Z</time>
      </trkpt>
      <trkpt lat="47.26293" lon="-2.31887">
        <ele>7.4000000953674</ele>
        <time>2022-07-10T10:29:14.000Z</time>
      </trkpt>
      <trkpt lat="47.26295" lon="-2.31875">
        <ele>7.4000000953674</ele>
        <time>2022-07-10T10:29:16.000Z</time>
      </trkpt>
      <trkpt lat="47.26298" lon="-2.31828">
        <ele>7.4000000953674</ele>
        <time>2022-07-10T10:29:24.000Z</time>
      </trkpt>
      <trkpt lat="47.26299" lon="-2.31795">
        <ele>7.4000000953674</ele>
        <time>2022-07-10T10:29:30.000Z</time>
      </trkpt>
      <trkpt lat="47.26301" lon="-2.31753">
        <ele>7.4000000953674</ele>
        <time>2022-07-10T10:29:37.000Z</time>
      </trkpt>
      <trkpt lat="47.26305" lon="-2.3172">
        <ele>7.4000000953674</ele>
        <time>2022-07-10T10:29:43.000Z</time>
      </trkpt>
      <trkpt lat="47.26307" lon="-2.31718">
        <ele>7.4000000953674</ele>
        <time>2022-07-10T10:29:44.000Z</time>
      </trkpt>
      <trkpt lat="47.26315" lon="-2.31714">
        <ele>7.4000000953674</ele>
        <time>2022-07-10T10:29:46.000Z</time>
      </trkpt>
      <trkpt lat="47.26325" lon="-2.31709">
        <ele>7.4000000953674</ele>
        <time>2022-07-10T10:29:49.000Z</time>
      </trkpt>
      <trkpt lat="47.26332" lon="-2.31701">
        <ele>8</ele>
        <time>2022-07-10T10:29:52.000Z</time>
      </trkpt>
      <trkpt lat="47.26333" lon="-2.31697">
        <ele>8.3999996185303</ele>
        <time>2022-07-10T10:29:53.000Z</time>
      </trkpt>
      <trkpt lat="47.26332" lon="-2.31692">
        <ele>8.8000001907349</ele>
        <time>2022-07-10T10:29:54.000Z</time>
      </trkpt>
      <trkpt lat="47.26331" lon="-2.31687">
        <ele>9.1999998092651</ele>
        <time>2022-07-10T10:29:55.000Z</time>
      </trkpt>
      <trkpt lat="47.2633" lon="-2.31683">
        <ele>9.6000003814697</ele>
        <time>2022-07-10T10:29:56.000Z</time>
      </trkpt>
      <trkpt lat="47.26329" lon="-2.31678">
        <ele>9.6000003814697</ele>
        <time>2022-07-10T10:29:57.000Z</time>
      </trkpt>
      <trkpt lat="47.26324" lon="-2.31647">
        <ele>9.6000003814697</ele>
        <time>2022-07-10T10:30:03.000Z</time>
      </trkpt>
      <trkpt lat="47.26322" lon="-2.31623">
        <ele>9.6000003814697</ele>
        <time>2022-07-10T10:30:08.000Z</time>
      </trkpt>
      <trkpt lat="47.2633" lon="-2.31608">
        <ele>9.6000003814697</ele>
        <time>2022-07-10T10:30:12.000Z</time>
      </trkpt>
      <trkpt lat="47.26334" lon="-2.31607">
        <ele>9.6000003814697</ele>
        <time>2022-07-10T10:30:13.000Z</time>
      </trkpt>
      <trkpt lat="47.26344" lon="-2.31606">
        <ele>9.6000003814697</ele>
        <time>2022-07-10T10:30:16.000Z</time>
      </trkpt>
      <trkpt lat="47.26362" lon="-2.31601">
        <ele>9.6000003814697</ele>
        <time>2022-07-10T10:30:22.000Z</time>
      </trkpt>
      <trkpt lat="47.26377" lon="-2.31598">
        <ele>9.6000003814697</ele>
        <time>2022-07-10T10:30:28.000Z</time>
      </trkpt>
      <trkpt lat="47.26383" lon="-2.31598">
        <ele>10</ele>
        <time>2022-07-10T10:30:30.000Z</time>
      </trkpt>
      <trkpt lat="47.26386" lon="-2.31598">
        <ele>10.39999961853</ele>
        <time>2022-07-10T10:30:31.000Z</time>
      </trkpt>
      <trkpt lat="47.26389" lon="-2.31597">
        <ele>10.800000190735</ele>
        <time>2022-07-10T10:30:32.000Z</time>
      </trkpt>
      <trkpt lat="47.26392" lon="-2.31597">
        <ele>11.199999809265</ele>
        <time>2022-07-10T10:30:33.000Z</time>
      </trkpt>
      <trkpt lat="47.26395" lon="-2.31596">
        <ele>11.60000038147</ele>
        <time>2022-07-10T10:30:34.000Z</time>
      </trkpt>
      <trkpt lat="47.26401" lon="-2.31595">
        <ele>11.60000038147</ele>
        <time>2022-07-10T10:30:36.000Z</time>
      </trkpt>
      <trkpt lat="47.26403" lon="-2.31592">
        <ele>11.60000038147</ele>
        <time>2022-07-10T10:30:38.000Z</time>
      </trkpt>
      <trkpt lat="47.26406" lon="-2.31587">
        <ele>11.60000038147</ele>
        <time>2022-07-10T10:30:40.000Z</time>
      </trkpt>
      <trkpt lat="47.26406" lon="-2.31577">
        <ele>11.60000038147</ele>
        <time>2022-07-10T10:30:43.000Z</time>
      </trkpt>
      <trkpt lat="47.26407" lon="-2.3157">
        <ele>11.60000038147</ele>
        <time>2022-07-10T10:30:45.000Z</time>
      </trkpt>
      <trkpt lat="47.26411" lon="-2.31553">
        <ele>11.60000038147</ele>
        <time>2022-07-10T10:30:50.000Z</time>
      </trkpt>
      <trkpt lat="47.26413" lon="-2.31552">
        <ele>11.60000038147</ele>
        <time>2022-07-10T10:30:51.000Z</time>
      </trkpt>
      <trkpt lat="47.26417" lon="-2.31552">
        <ele>11.60000038147</ele>
        <time>2022-07-10T10:30:53.000Z</time>
      </trkpt>
      <trkpt lat="47.26418" lon="-2.31553">
        <ele>11.60000038147</ele>
        <time>2022-07-10T10:30:54.000Z</time>
      </trkpt>
      <trkpt lat="47.26419" lon="-2.31553">
        <ele>12.199999809265</ele>
        <time>2022-07-10T10:30:56.000Z</time>
      </trkpt>
    </trkseg>
  </trk>
</gpx>